# Wetter Temperatur Luftdruck Luftfeuchtigkeit Sichtweite Windgeschwindigkeit Windrichtung Zeit
1 Clear -29 1012 75 16093 2.1 50 21:54 28.01.2020
2 Clear -29 1012 75 16093 2.1 50 21:36 28.01.2020
3 Clear -29 1012 75 16093 2.1 50 21:18 28.01.2020
4 Clear -29 1012 75 16093 2.1 50 21:18 28.01.2020
5 Clear -28 1013 68 16093 2.6 17 20:45 28.01.2020
6 Clear -28 1013 68 16093 2.31 19 20:25 28.01.2020
7 Clear -27 1013 68 16093 3.03 2 19:55 28.01.2020
8 Clear -27 1013 68 16093 3.03 2 19:37 28.01.2020
9 Clear -27 1013 68 16093 3.03 2 19:19 28.01.2020
10 Clear -28 1013 68 16093 3.03 2 18:41 28.01.2020
11 Clear -27 1013 68 16093 3.03 2 18:23 28.01.2020
12 Clear -26 1013 62 16093 3.1 340 17:59 28.01.2020
13 Clear -26 1013 62 16093 3.1 340 17:59 28.01.2020
14 Clear -26 1013 62 16093 3.1 340 17:39 28.01.2020
15 Clear -26 1013 62 16093 3.1 340 17:21 28.01.2020
16 Clear -24 1014 63 16093 4.6 360 16:58 28.01.2020
17 Clear -24 1014 63 16093 4.6 360 16:40 28.01.2020
18 Clear -24 1014 63 16093 4.6 360 16:21 28.01.2020
19 Clear -24 1014 57 16093 1.5 280 15:47 28.01.2020
20 Clear -24 1014 57 16093 1.5 280 15:19 28.01.2020
21 Clear -23 1015 57 16093 3.6 300 14:58 28.01.2020
22 Clear -23 1015 57 16093 3.6 300 14:39 28.01.2020
23 Clear -23 1015 57 16093 3.6 300 14:18 28.01.2020
24 Clear -23 1015 63 16093 3.6 330 13:41 28.01.2020
25 Clear -23 1015 63 16093 3.6 330 13:23 28.01.2020
26 Clear -27 1015 68 16093 3.44 359 12:43 28.01.2020
27 Clear -27 1015 68 16093 3.44 359 12:24 28.01.2020
28 Clear -24 1015 63 16093 1.5 20 11:58 28.01.2020
29 Clear -24 1015 63 16093 1.5 20 11:39 28.01.2020
30 Clear -24 1015 63 16093 1.5 20 11:20 28.01.2020
31 Clear -24 1016 75 16093 3.57 355 10:42 28.01.2020
32 Clear -26 1016 75 16093 3.57 355 10:24 28.01.2020
33 Clear -26 1016 75 16093 3.57 355 09:58 28.01.2020
34 Clear -27 1016 75 16093 3.57 355 09:38 28.01.2020
35 Clear -27 1016 75 16093 3.57 355 09:19 28.01.2020
36 Clear -26 1016 69 16093 1.5 180 08:44 28.01.2020
37 Clear -26 1016 69 16093 1.5 180 08:22 28.01.2020
38 Clear -23 1016 69 16093 3.71 349 07:42 28.01.2020
39 Clear -23 1016 69 16093 3.71 349 07:23 28.01.2020
40 Clear -22 1016 57 16093 2.6 50 06:44 28.01.2020
41 Clear -22 1016 57 16093 2.6 50 06:23 28.01.2020
42 Clear -18 1016 49 16093 6.7 330 05:35 28.01.2020
43 Clear -19 1017 53 16093 4.1 340 04:40 28.01.2020
44 Clear -18 1017 54 16093 1.5 0 03:41 28.01.2020
45 Clear -21 1018 58 16093 3.84 354 02:43 28.01.2020
46 Clear -21 1018 58 16093 3.84 354 02:24 28.01.2020
47 Clear -25 1019 69 16093 2.1 40 01:50 28.01.2020
48 Clear -24 1019 69 16093 3.27 352 00:58 28.01.2020
49 Clear -24 1019 69 16093 3.27 352 00:39 28.01.2020
50 Clear -24 1019 69 16093 3.27 352 00:19 28.01.2020
51 Clear -26 1020 75 16093 3.27 352 23:42 27.01.2020
52 Clear -26 1020 75 16093 3.04 353 23:18 27.01.2020
53 Clear -28 1020 68 16093 1.5 230 22:44 27.01.2020
54 Clear -28 1020 68 16093 1.5 230 22:20 27.01.2020
55 Clear -28 1020 68 16093 1.5 230 22:20 27.01.2020
56 Clear -29 1021 68 16093 1.5 0 21:57 27.01.2020
57 Clear -29 1021 68 16093 1.5 0 21:38 27.01.2020
58 Clear -29 1021 68 16093 1.5 0 21:38 27.01.2020
59 Clear -29 1021 68 16093 1.5 0 21:18 27.01.2020
60 Clear -28 1021 68 16093 2.6 0 20:56 27.01.2020
61 Clear -27 1021 68 16093 2.6 0 20:37 27.01.2020
62 Clear -27 1021 68 16093 2.6 0 20:18 27.01.2020
63 Clear -27 1021 68 16093 1.5 10 19:42 27.01.2020
64 Clear -27 1021 68 16093 1.5 10 19:23 27.01.2020
65 Clear -26 1021 69 16093 1.5 40 18:59 27.01.2020
66 Clear -25 1021 69 16093 1.5 40 18:39 27.01.2020
67 Clear -25 1021 69 16093 1.5 40 18:21 27.01.2020
68 Clear -25 1021 69 16093 1.5 40 18:20 27.01.2020
69 Clear -26 1021 75 16093 3.5 2 17:57 27.01.2020
70 Clear -26 1021 72 0 1.79 329 17:37 27.01.2020
71 Clear -26 1021 72 0 1.79 329 17:37 27.01.2020
72 Clear -27 1022 68 16093 3.28 2 17:18 27.01.2020
73 Clear -29 1022 68 16093 3.28 2 16:42 27.01.2020
74 Clear -29 1022 68 16093 3.28 2 16:24 27.01.2020
75 Clear -28 1022 68 16093 3.28 2 15:59 27.01.2020
76 Clear -28 1022 68 16093 3.28 2 15:40 27.01.2020
77 Clear -28 1022 68 16093 3.28 2 15:19 27.01.2020
78 Clear -27 1022 62 16093 3.28 2 14:55 27.01.2020
79 Clear -27 1022 62 16093 3.28 2 14:37 27.01.2020
80 Clear -27 1022 62 16093 3.51 1 14:18 27.01.2020
81 Clear -26 1022 62 16093 3.51 1 13:42 27.01.2020
82 Clear -26 1022 62 16093 3.39 357 13:21 27.01.2020
83 Clear -24 1022 57 16093 2.1 0 12:56 27.01.2020
84 Clear -24 1022 57 16093 2.1 0 12:38 27.01.2020
85 Clear -24 1022 57 16093 2.1 0 12:19 27.01.2020
86 Clear -23 1022 57 16093 2.1 180 11:42 27.01.2020
87 Clear -23 1022 57 16093 2.1 180 11:42 27.01.2020
88 Clear -23 1022 57 16093 2.1 180 11:21 27.01.2020
89 Clear -23 1022 57 16093 2.1 180 11:21 27.01.2020
90 Clear -24 1023 63 16093 1.5 210 10:55 27.01.2020
91 Clear -24 1023 63 16093 1.5 210 10:36 27.01.2020
92 Clear -24 1023 63 16093 1.5 210 10:18 27.01.2020
93 Clear -23 1022 57 16093 3.1 359 09:39 27.01.2020
94 Clear -23 1022 57 16093 3.1 359 09:18 27.01.2020
95 Clear -25 1022 62 16093 3.1 359 08:47 27.01.2020
96 Clear -25 1022 62 16093 3.1 359 08:23 27.01.2020
97 Clear -22 1022 63 16093 2.6 10 07:55 27.01.2020
98 Clear -22 1022 63 16093 2.6 10 07:36 27.01.2020
99 Clear -24 1022 69 16093 3.05 357 06:55 27.01.2020
100 Clear -24 1022 69 16093 3.05 357 06:32 27.01.2020
101 Clear -21 1022 58 16093 2.6 80 05:37 27.01.2020
102 Clear -21 1022 58 16093 2.6 80 05:37 27.01.2020
103 Clear -22 1022 63 16093 5.1 340 04:20 27.01.2020
104 Clear -22 1022 57 16093 4.6 330 03:27 27.01.2020
105 Clear -21 1023 58 16093 4.1 340 01:32 27.01.2020
106 Clear -19 1023 53 16093 4.1 310 00:59 27.01.2020
107 Clear -19 1023 53 16093 4.1 310 00:38 27.01.2020
108 Clear -19 1023 53 16093 4.1 310 00:19 27.01.2020
109 Clear -19 1023 53 16093 4.6 310 23:42 26.01.2020
110 Clear -19 1023 53 16093 4.6 310 23:20 26.01.2020
111 Clear -20 1023 58 16093 5.7 340 22:57 26.01.2020
112 Clear -20 1023 58 16093 5.7 340 22:37 26.01.2020
113 Clear -20 1023 58 16093 5.7 340 22:18 26.01.2020
114 Clear -19 1024 49 16093 6.2 340 21:57 26.01.2020
115 Clear -19 1024 49 16093 6.2 340 21:38 26.01.2020
116 Clear -19 1024 49 16093 6.2 340 21:19 26.01.2020
117 Clear -19 1024 49 16093 6.2 340 21:19 26.01.2020
118 Clear -22 1024 63 16093 4.1 360 20:56 26.01.2020
119 Clear -22 1024 63 16093 4.1 360 20:38 26.01.2020
120 Clear -22 1024 63 16093 4.1 360 20:18 26.01.2020
121 Clear -22 1024 63 16093 5.1 340 19:56 26.01.2020
122 Clear -22 1024 63 16093 5.1 340 19:37 26.01.2020
123 Clear -22 1024 63 16093 5.1 340 19:18 26.01.2020
124 Clear -22 1024 63 16093 5.1 340 18:41 26.01.2020
125 Clear -22 1024 63 16093 5.1 340 18:22 26.01.2020
126 Clear -23 1025 63 16093 4.1 290 17:59 26.01.2020
127 Clear -23 1025 63 16093 4.1 290 17:59 26.01.2020
128 Clear -23 1025 63 16093 4.1 290 17:39 26.01.2020
129 Clear -23 1025 63 16093 4.1 290 17:20 26.01.2020
130 Clear -22 1025 63 16093 1.5 30 16:58 26.01.2020
131 Clear -22 1025 63 16093 1.5 30 16:40 26.01.2020
132 Clear -22 1025 63 16093 1.5 30 16:21 26.01.2020
133 Clear -23 1026 72 0 3.77 1 15:58 26.01.2020
134 Clear -23 1026 72 0 3.77 1 15:58 26.01.2020
135 Clear -23 1026 72 0 3.77 1 15:40 26.01.2020
136 Clear -23 1026 72 0 3.77 1 15:19 26.01.2020
137 Clear -23 1026 72 0 3.77 1 14:41 26.01.2020
138 Clear -22 1027 69 0 3.43 358 14:22 26.01.2020
139 Clear -22 1027 69 0 3.43 358 13:57 26.01.2020
140 Clear -22 1027 69 0 3.43 358 13:37 26.01.2020
141 Clear -22 1027 68 0 3.8 358 13:18 26.01.2020
142 Clear -22 1027 68 0 3.8 358 12:42 26.01.2020
143 Clear -22 1027 68 0 3.8 358 12:24 26.01.2020
144 Clear -22 1027 68 0 3.8 358 11:58 26.01.2020
145 Clear -22 1027 68 0 3.8 358 11:39 26.01.2020
146 Clear -28 1027 75 16093 1.5 360 11:19 26.01.2020
147 Clear -28 1027 75 16093 1.5 360 10:59 26.01.2020
148 Clear -28 1027 75 16093 1.5 360 10:38 26.01.2020
149 Clear -28 1027 75 16093 1.5 360 10:20 26.01.2020
150 Clear -28 1027 75 16093 3.6 1 09:58 26.01.2020
151 Clear -28 1027 75 16093 3.6 1 09:40 26.01.2020
152 Clear -28 1027 75 16093 3.6 1 09:21 26.01.2020
153 Clear -26 1027 75 16093 3.6 1 08:44 26.01.2020
154 Clear -26 1027 75 16093 3.6 1 08:23 26.01.2020
155 Clear -28 1026 75 16093 3.9 6 07:58 26.01.2020
156 Clear -28 1026 75 16093 3.9 6 07:40 26.01.2020
157 Clear -28 1026 75 16093 3.9 6 07:21 26.01.2020
158 Clear -28 1026 75 16093 3.9 6 06:31 26.01.2020
159 Clear -28 1026 75 16093 3.9 6 05:32 26.01.2020
160 Clear -28 1026 75 16093 1.5 350 04:45 26.01.2020
161 Clear -25 1026 69 16093 1.5 30 02:58 26.01.2020
162 Clear -27 1026 82 16093 3.81 8 01:50 26.01.2020
163 Clear -27 1026 82 16093 3.81 8 01:25 26.01.2020
164 Clear -25 1026 69 16093 3.51 7 00:58 26.01.2020
165 Clear -25 1026 69 16093 3.51 7 00:37 26.01.2020
166 Clear -25 1026 69 16093 3.51 7 00:19 26.01.2020
167 Clear -22 1028 71 0 3.51 7 23:37 25.01.2020
168 Clear -23 1027 71 0 3.16 8 23:18 25.01.2020
169 Clear -23 1027 71 0 3.16 8 22:40 25.01.2020
170 Clear -23 1027 71 0 3.16 8 22:19 25.01.2020
171 Clear -23 1027 71 0 3.16 8 21:57 25.01.2020
172 Clear -23 1027 71 0 3.16 8 21:39 25.01.2020
173 Clear -23 1027 71 0 3.16 8 21:20 25.01.2020
174 Clear -23 1027 71 0 3.16 8 20:44 25.01.2020
175 Clear -23 1027 71 0 3.16 8 20:25 25.01.2020
176 Clear -23 1027 72 0 3.37 6 19:56 25.01.2020
177 Clear -23 1027 73 0 3.21 7 19:37 25.01.2020
178 Clear -23 1027 73 0 3.21 7 19:19 25.01.2020
179 Clear -23 1027 72 0 3.37 6 18:44 25.01.2020
180 Clear -23 1027 73 0 3.21 7 18:23 25.01.2020
181 Clear -23 1027 73 0 3.21 7 17:59 25.01.2020
182 Clear -23 1027 73 0 3.21 7 17:39 25.01.2020
183 Clear -23 1026 72 0 3.05 4 17:19 25.01.2020
184 Clear -23 1026 71 0 2.96 6 16:56 25.01.2020
185 Clear -23 1026 72 0 3.05 4 16:36 25.01.2020
186 Clear -23 1026 72 0 3.05 4 16:18 25.01.2020
187 Clear -23 1026 72 0 3.05 4 15:42 25.01.2020
188 Clear -23 1026 72 0 3.05 4 15:23 25.01.2020
189 Clear -23 1026 72 0 3.05 4 14:44 25.01.2020
190 Clear -23 1027 72 0 3.05 360 14:19 25.01.2020
191 Clear -23 1027 72 0 3.05 360 13:56 25.01.2020
192 Clear -23 1027 72 0 3.05 360 13:38 25.01.2020
193 Clear -23 1027 72 0 3.05 360 13:18 25.01.2020
194 Clear -23 1027 72 0 3.05 360 13:18 25.01.2020
195 Clear -23 1027 73 0 3.03 2 12:42 25.01.2020
196 Clear -29 1026 68 16093 1.5 10 12:21 25.01.2020
197 Clear -29 1026 68 16093 1.5 10 11:43 25.01.2020
198 Clear -29 1026 68 16093 1.5 10 11:21 25.01.2020
199 Clear -30 1025 74 16093 2.95 360 10:56 25.01.2020
200 Clear -30 1025 74 16093 2.95 360 10:38 25.01.2020
201 Clear -30 1025 74 16093 2.95 360 10:19 25.01.2020
202 Clear -29 1025 68 16093 2.1 10 09:40 25.01.2020
203 Clear -29 1025 68 16093 2.1 10 09:21 25.01.2020
204 Clear -29 1025 68 16093 2.95 360 08:43 25.01.2020
205 Clear -29 1025 68 16093 2.99 358 08:21 25.01.2020
206 Clear -28 1025 75 16093 2.77 359 07:42 25.01.2020
207 Clear -27 1025 68 16093 1.5 90 06:45 25.01.2020
208 Clear -27 1025 68 16093 1.5 90 06:24 25.01.2020
209 Clear -28 1025 75 16093 2.77 359 05:44 25.01.2020
210 Clear -25 1025 68 16093 3.62 6 04:26 25.01.2020
211 Clear -21 1025 63 16093 1.5 0 03:50 25.01.2020
212 Clear -24 1025 76 16093 2.1 10 02:53 25.01.2020
213 Clear -21 1025 69 16093 3.94 10 01:59 25.01.2020
214 Clear -21 1025 69 16093 3.94 10 01:59 25.01.2020
215 Clear -23 1025 69 16093 3.94 10 01:37 25.01.2020
216 Clear -23 1025 69 16093 3.94 10 01:37 25.01.2020
217 Clear -23 1025 69 16093 1.5 0 00:42 25.01.2020
218 Clear -23 1025 69 16093 1.5 0 00:23 25.01.2020
219 Clear -25 1025 68 16093 3.36 11 23:57 24.01.2020
220 Clear -25 1025 68 16093 3.36 11 23:38 24.01.2020
221 Clear -25 1025 68 16093 3.36 11 23:38 24.01.2020
222 Clear -26 1025 68 16093 2.67 353 23:20 24.01.2020
223 Clear -25 1025 68 16093 2.67 353 22:42 24.01.2020
224 Clear -27 1025 68 16093 2.67 353 22:24 24.01.2020
225 Clear -28 1025 75 16093 2.67 353 21:43 24.01.2020
226 Clear -27 1025 75 16093 2.67 353 21:20 24.01.2020
227 Clear -26 1025 68 16093 2.6 50 20:56 24.01.2020
228 Clear -26 1025 68 16093 2.6 50 20:38 24.01.2020
229 Clear -26 1025 68 16093 2.6 50 20:19 24.01.2020
230 Clear -26 1025 68 16093 3.27 2 19:56 24.01.2020
231 Clear -26 1025 68 16093 3.27 2 19:38 24.01.2020
232 Clear -26 1025 68 16093 3.27 2 19:20 24.01.2020
233 Clear -26 1025 75 16093 3.27 2 18:43 24.01.2020
234 Clear -26 1025 75 16093 3.27 2 18:43 24.01.2020
235 Clear -26 1025 75 16093 3.27 2 18:23 24.01.2020
236 Clear -25 1025 75 16093 3.27 2 17:46 24.01.2020
237 Clear -25 1025 75 16093 3.27 2 17:23 24.01.2020
238 Clear -25 1025 75 16093 1.5 170 16:58 24.01.2020
239 Clear -24 1025 75 16093 1.5 170 16:39 24.01.2020
240 Clear -25 1025 75 16093 1.5 170 16:20 24.01.2020
241 Clear -25 1025 75 16093 3.17 7 15:43 24.01.2020
242 Clear -25 1025 75 16093 3.17 7 15:22 24.01.2020
243 Clear -25 1025 75 16093 3.17 7 15:22 24.01.2020
244 Clear -24 1025 75 16093 1.5 360 14:56 24.01.2020
245 Clear -24 1025 75 16093 1.5 360 14:38 24.01.2020
246 Clear -24 1025 75 16093 1.5 360 14:19 24.01.2020
247 Clear -25 1026 68 16093 3.07 7 13:42 24.01.2020
248 Clear -24 1026 68 16093 3.07 7 13:22 24.01.2020
249 Clear -25 1026 82 16093 1.5 0 12:44 24.01.2020
250 Clear -25 1026 82 16093 1.5 0 12:44 24.01.2020
251 Clear -25 1026 82 16093 1.5 0 12:22 24.01.2020
252 Clear -26 1025 75 16093 3.1 360 11:45 24.01.2020
253 Clear -26 1025 75 16093 3.1 360 11:20 24.01.2020
254 Clear -25 1025 69 16093 2.96 357 10:59 24.01.2020
255 Clear -26 1025 69 16093 2.96 357 10:41 24.01.2020
256 Clear -24 1025 69 16093 2.96 357 10:19 24.01.2020
257 Clear -25 1025 82 16093 2.96 357 09:42 24.01.2020
258 Clear -25 1025 82 16093 2.96 357 09:42 24.01.2020
259 Clear -25 1025 82 16093 2.96 357 09:24 24.01.2020
260 Clear -23 1025 75 16093 2.96 357 08:59 24.01.2020
261 Clear -24 1025 75 16093 2.96 357 08:38 24.01.2020
262 Clear -24 1025 75 16093 2.52 9 08:18 24.01.2020
263 Clear -24 1024 83 16093 2.69 2 07:43 24.01.2020
264 Clear -24 1024 83 16093 2.69 2 07:21 24.01.2020
265 Clear -23 1024 83 16093 1.5 0 06:43 24.01.2020
266 Clear -23 1024 83 16093 1.5 0 06:43 24.01.2020
267 Clear -24 1024 83 16093 1.5 0 06:23 24.01.2020
268 Clear -23 1024 63 16093 2.1 120 05:22 24.01.2020
269 Clear -22 1023 76 16093 2.6 20 03:34 24.01.2020
270 Clear -22 1023 76 16093 2.46 359 02:39 24.01.2020
271 Clear -22 1023 76 16093 2.21 359 02:20 24.01.2020
272 Clear -22 1023 69 16093 2.21 359 01:38 24.01.2020
273 Clear -20 1022 76 16093 2.12 356 00:42 24.01.2020
274 Clear -20 1022 76 16093 2.12 356 00:19 24.01.2020
275 Clear -19 1021 64 16093 2.12 356 23:41 23.01.2020
276 Clear -19 1021 64 16093 2.37 355 23:21 23.01.2020
277 Clear -20 1021 70 16093 2.6 20 22:58 23.01.2020
278 Clear -20 1021 70 16093 2.6 20 22:37 23.01.2020
279 Clear -20 1021 70 16093 2.6 20 22:37 23.01.2020
280 Clear -20 1021 70 16093 2.6 20 22:18 23.01.2020
281 Clear -19 1020 64 16093 4.6 340 21:55 23.01.2020
282 Clear -19 1020 64 16093 4.6 340 21:37 23.01.2020
283 Clear -19 1020 64 16093 4.6 340 21:19 23.01.2020
284 Clear -17 1019 64 16093 2.6 360 20:54 23.01.2020
285 Clear -17 1019 64 16093 2.6 360 20:36 23.01.2020
286 Clear -17 1019 64 16093 2.6 360 20:18 23.01.2020
287 Clouds -16 1019 65 16093 4.6 340 19:42 23.01.2020
288 Clouds -16 1019 65 16093 4.6 340 19:23 23.01.2020
289 Clouds -16 1018 71 16093 3.1 340 18:57 23.01.2020
290 Clouds -16 1018 71 16093 3.1 340 18:38 23.01.2020
291 Clouds -16 1018 71 16093 3.1 340 18:19 23.01.2020
292 Clouds -14 1017 71 16093 5.7 350 17:45 23.01.2020
293 Clouds -14 1017 71 16093 5.7 350 17:21 23.01.2020
294 Clouds -13 1017 71 16093 2.94 352 16:59 23.01.2020
295 Clouds -13 1017 71 16093 2.94 352 16:39 23.01.2020
296 Clouds -13 1017 71 16093 2.94 352 16:20 23.01.2020
297 Clouds -13 1016 71 16093 1.5 70 15:58 23.01.2020
298 Clouds -13 1016 71 16093 1.5 70 15:39 23.01.2020
299 Clouds -13 1016 71 16093 1.5 70 15:19 23.01.2020
300 Clouds -14 1015 77 16093 2.1 360 14:58 23.01.2020
301 Clouds -14 1015 77 16093 2.1 360 14:40 23.01.2020
302 Clouds -14 1015 77 16093 2.1 360 14:22 23.01.2020
303 Clouds -14 1015 77 16093 3.1 340 13:54 23.01.2020
304 Clouds -14 1015 77 16093 3.1 340 13:36 23.01.2020
305 Clouds -14 1015 77 16093 3.1 340 13:18 23.01.2020
306 Clouds -14 1014 77 16093 2.71 343 12:40 23.01.2020
307 Clouds -14 1014 77 16093 2.71 343 12:22 23.01.2020
308 Clouds -15 1013 84 16093 2.6 280 11:55 23.01.2020
309 Clouds -15 1013 84 16093 2.6 280 11:37 23.01.2020
310 Clouds -15 1013 84 16093 2.6 280 11:18 23.01.2020
311 Clouds -14 1013 77 16093 3.6 260 10:41 23.01.2020
312 Clouds -14 1013 77 16093 3.6 260 10:19 23.01.2020
313 Clouds -15 1012 84 16093 4.6 280 09:42 23.01.2020
314 Clouds -15 1012 84 16093 4.6 280 09:23 23.01.2020
315 Clouds -15 1011 84 16093 5.1 280 08:57 23.01.2020
316 Clouds -15 1011 84 16093 5.1 280 08:38 23.01.2020
317 Clouds -15 1011 84 16093 5.1 280 08:20 23.01.2020
318 Clouds -15 1011 84 16093 4.1 270 07:42 23.01.2020
319 Clouds -14 1011 84 16093 5.1 270 07:24 23.01.2020
320 Clouds -14 1010 84 16093 5.1 260 06:46 23.01.2020
321 Clouds -14 1010 84 16093 5.1 260 06:19 23.01.2020
322 Clouds -14 1009 84 16093 6.2 270 04:44 23.01.2020
323 Clouds -14 1009 84 16093 6.2 270 04:21 23.01.2020
324 Clouds -16 1007 91 16093 1.5 300 01:58 23.01.2020
325 Snow -14 1007 84 4828 3.3 270 00:56 23.01.2020
326 Snow -16 1007 91 4828 3.3 270 00:26 23.01.2020
327 Snow -15 1007 84 4828 3.3 270 23:47 22.01.2020
328 Clouds -15 1006 84 16093 3.3 270 23:29 22.01.2020
329 Snow -14 1006 84 6437 2.28 264 22:56 22.01.2020
330 Snow -14 1006 84 6437 2.28 264 22:38 22.01.2020
331 Snow -14 1006 84 6437 2.28 264 22:20 22.01.2020
332 Clouds -14 1005 84 16093 2.28 264 21:39 22.01.2020
333 Clouds -14 1005 84 16093 2.28 264 21:21 22.01.2020
334 Clouds -15 1004 84 16093 2.6 20 20:56 22.01.2020
335 Clouds -15 1004 84 16093 2.6 20 20:36 22.01.2020
336 Clouds -15 1004 84 16093 2.6 20 20:18 22.01.2020
337 Clouds -14 1004 84 11265 2 239 19:55 22.01.2020
338 Clouds -14 1004 84 11265 2 239 19:37 22.01.2020
339 Clouds -14 1004 84 11265 2 239 19:18 22.01.2020
340 Clouds -14 1003 84 16093 2 239 18:55 22.01.2020
341 Clouds -14 1003 84 16093 2 239 18:36 22.01.2020
342 Clouds -14 1003 84 16093 2 239 18:18 22.01.2020
343 Clouds -14 1003 84 16093 2 239 18:18 22.01.2020
344 Clouds -14 1003 77 16093 2 239 17:40 22.01.2020
345 Clouds -14 1003 77 16093 0.63 226 17:21 22.01.2020
346 Snow -15 1003 84 6437 0.63 226 16:58 22.01.2020
347 Snow -15 1003 84 6437 0.63 226 16:39 22.01.2020
348 Snow -15 1003 84 6437 0.63 226 16:21 22.01.2020
349 Clouds -14 1002 84 16093 0.63 226 15:55 22.01.2020
350 Clouds -14 1002 84 16093 0.63 226 15:37 22.01.2020
351 Clouds -14 1002 84 16093 0.63 226 15:18 22.01.2020
352 Clouds -14 1002 84 16093 1.5 110 14:39 22.01.2020
353 Clouds -14 1002 84 16093 1.5 110 14:20 22.01.2020
354 Clouds -14 1002 84 16093 1.5 110 14:20 22.01.2020
355 Clouds -16 1002 91 16093 2.1 120 13:58 22.01.2020
356 Clouds -16 1002 91 16093 2.1 120 13:37 22.01.2020
357 Clouds -16 1002 91 16093 2.1 120 13:19 22.01.2020
358 Clouds -13 1001 78 16093 2.1 90 12:57 22.01.2020
359 Clouds -13 1001 78 16093 2.1 90 12:39 22.01.2020
360 Clouds -13 1001 78 16093 2.1 90 12:19 22.01.2020
361 Snow -13 1001 84 14484 2.1 100 11:57 22.01.2020
362 Snow -13 1001 84 14484 2.1 100 11:39 22.01.2020
363 Snow -13 1001 84 14484 2.1 100 11:19 22.01.2020
364 Clouds -13 1000 84 16093 2.1 120 10:46 22.01.2020
365 Clouds -13 1000 84 16093 2.1 120 10:21 22.01.2020
366 Snow -12 1000 85 8047 1.5 80 09:59 22.01.2020
367 Snow -12 1000 85 8047 1.5 80 09:40 22.01.2020
368 Snow -12 1000 85 8047 1.5 80 09:22 22.01.2020
369 Clouds -12 999 78 16093 1.5 60 08:56 22.01.2020
370 Clouds -12 999 78 16093 1.5 60 08:37 22.01.2020
371 Clouds -12 999 78 16093 1.5 60 08:19 22.01.2020
372 Clouds -13 999 84 16093 1.5 70 07:44 22.01.2020
373 Clouds -13 999 84 16093 1.5 70 07:26 22.01.2020
374 Clouds -13 999 78 16093 2.6 70 06:36 22.01.2020
375 Clouds -13 999 78 16093 2.6 50 05:57 22.01.2020
376 Clouds -16 999 96 0 2.09 74 04:26 22.01.2020
377 Clouds -13 998 78 16093 3.6 70 03:27 22.01.2020
378 Clouds -13 998 78 16093 3.1 70 02:48 22.01.2020
379 Clouds -14 998 77 16093 3.1 50 00:47 22.01.2020
380 Clouds -14 998 77 16093 3.1 50 00:28 22.01.2020
381 Clouds -14 998 77 16093 3.1 50 23:57 21.01.2020
382 Clouds -13 998 84 16093 2.6 60 23:37 21.01.2020
383 Clouds -13 998 84 16093 2.6 60 23:19 21.01.2020
384 Clouds -13 998 84 16093 3.1 70 22:41 21.01.2020
385 Clouds -13 998 84 16093 3.1 70 22:23 21.01.2020
386 Clouds -13 998 78 16093 2.6 80 21:58 21.01.2020
387 Clouds -13 998 78 16093 2.6 80 21:39 21.01.2020
388 Clouds -13 998 78 16093 2.6 80 21:20 21.01.2020
389 Clouds -14 998 84 16093 2.6 60 20:57 21.01.2020
390 Clouds -14 998 84 16093 2.6 60 20:57 21.01.2020
391 Clouds -14 998 84 16093 2.6 60 20:39 21.01.2020
392 Clouds -14 998 84 16093 2.6 60 20:20 21.01.2020
393 Clouds -13 998 84 16093 3.1 60 19:57 21.01.2020
394 Clouds -13 998 84 16093 3.1 60 19:39 21.01.2020
395 Clouds -13 998 84 16093 3.1 60 19:20 21.01.2020
396 Snow -13 998 92 9656 3.1 60 18:56 21.01.2020
397 Clouds -13 998 92 16093 2.6 70 18:38 21.01.2020
398 Clouds -13 998 92 16093 2.6 70 18:19 21.01.2020
399 Snow -13 998 84 12874 4.1 80 17:45 21.01.2020
400 Snow -13 998 84 12874 4.1 80 17:21 21.01.2020
401 Snow -12 998 85 6437 3.1 70 16:59 21.01.2020
402 Snow -12 998 85 6437 3.1 70 16:59 21.01.2020
403 Rain -13 998 84 12874 3.6 80 16:37 21.01.2020
404 Rain -13 998 84 12874 3.6 80 16:19 21.01.2020
405 Rain -13 998 84 16093 3.6 80 15:56 21.01.2020
406 Rain -12 998 92 6437 4.1 90 15:37 21.01.2020
407 Rain -12 998 92 6437 4.1 90 15:18 21.01.2020
408 Snow -11 998 85 11265 5.7 90 14:38 21.01.2020
409 Snow -11 998 85 11265 5.7 90 14:20 21.01.2020
410 Snow -11 998 85 2816 4.6 80 13:41 21.01.2020
411 Snow -12 998 85 6437 4.1 70 13:19 21.01.2020
412 Clouds -14 998 84 14484 3.6 50 12:57 21.01.2020
413 Rain -13 998 92 16093 3.1 60 12:39 21.01.2020
414 Rain -13 998 92 16093 3.1 60 12:20 21.01.2020
415 Rain -12 998 92 6437 4.1 80 11:41 21.01.2020
416 Rain -12 998 92 6437 4.1 80 11:22 21.01.2020
417 Snow -11 998 85 2012 4.1 70 10:59 21.01.2020
418 Snow -11 998 85 2012 4.1 70 10:41 21.01.2020
419 Clouds -11 998 92 16093 4.1 70 10:22 21.01.2020
420 Clouds -11 998 92 16093 4.1 70 09:43 21.01.2020
421 Clouds -11 998 92 16093 4.6 70 09:23 21.01.2020
422 Snow -11 997 92 6437 4.6 80 08:56 21.01.2020
423 Snow -11 997 92 12874 4.1 70 08:38 21.01.2020
424 Snow -11 997 92 12874 4.1 70 08:19 21.01.2020
425 Clouds -11 997 92 16093 3.6 70 07:41 21.01.2020
426 Clouds -11 997 92 16093 3.6 70 07:22 21.01.2020
427 Clouds -11 997 92 16093 4.1 70 06:49 21.01.2020
428 Clouds -11 997 92 16093 4.1 70 06:30 21.01.2020
429 Clouds -11 997 92 16093 4.6 70 05:44 21.01.2020
430 Clouds -11 997 92 16093 4.1 70 04:41 21.01.2020
431 Clouds -10 996 92 16093 4.1 100 02:58 21.01.2020
432 Clouds -10 996 92 16093 4.1 100 02:26 21.01.2020
433 Snow -10 996 92 4828 4.1 110 01:28 21.01.2020
434 Snow -10 996 92 2012 5.1 110 00:40 21.01.2020
435 Snow -10 996 92 4023 5.7 110 23:59 20.01.2020
436 Snow -10 996 92 4023 5.7 110 23:41 20.01.2020
437 Snow -11 996 100 4023 5.1 110 23:19 20.01.2020
438 Snow -11 996 92 2012 6.2 110 22:58 20.01.2020
439 Snow -11 996 92 2012 6.2 110 22:38 20.01.2020
440 Snow -11 996 92 2012 6.2 110 22:20 20.01.2020
441 Snow -11 996 92 2012 6.2 110 22:20 20.01.2020
442 Clouds -10 995 92 2414 6.7 120 21:58 20.01.2020
443 Rain -10 995 92 2414 6.2 120 21:37 20.01.2020
444 Rain -10 995 92 2414 6.2 120 21:19 20.01.2020
445 Snow -11 995 92 2414 7.2 110 20:57 20.01.2020
446 Snow -11 995 92 2414 7.2 110 20:38 20.01.2020
447 Snow -11 995 92 2414 7.2 110 20:18 20.01.2020
448 Snow -11 995 85 2414 7.2 90 19:56 20.01.2020
449 Snow -12 995 92 1609 8.2 90 19:38 20.01.2020
450 Snow -12 995 92 1609 8.2 90 19:18 20.01.2020
451 Snow -12 995 92 1609 9.3 90 18:44 20.01.2020
452 Snow -12 995 92 1609 9.8 90 18:23 20.01.2020
453 Rain -12 995 92 1609 9.3 90 17:58 20.01.2020
454 Rain -12 995 92 1609 9.3 90 17:36 20.01.2020
455 Rain -12 995 92 1609 9.3 90 17:18 20.01.2020
456 Rain -12 995 92 1207 10.3 90 16:43 20.01.2020
457 Rain -12 995 92 2414 9.3 90 16:25 20.01.2020
458 Snow -12 996 85 2012 8.7 80 15:58 20.01.2020
459 Snow -12 996 85 2012 8.7 80 15:39 20.01.2020
460 Snow -12 996 85 2012 8.7 80 15:21 20.01.2020
461 Snow -12 996 85 2816 8.2 80 14:42 20.01.2020
462 Snow -12 996 85 2816 8.2 80 14:24 20.01.2020
463 Snow -12 996 85 3219 8.2 80 13:59 20.01.2020
464 Snow -12 996 85 3219 8.2 80 13:40 20.01.2020
465 Snow -12 996 85 3219 8.2 80 13:22 20.01.2020
466 Rain -12 997 85 4023 6.7 80 12:47 20.01.2020
467 Rain -13 997 84 3219 7.2 80 12:29 20.01.2020
468 Snow -13 997 84 2816 5.7 80 11:59 20.01.2020
469 Clouds -13 997 78 16093 6.2 80 11:40 20.01.2020
470 Clouds -13 997 78 16093 6.2 80 11:21 20.01.2020
471 Clouds -13 997 78 16093 5.7 80 10:55 20.01.2020
472 Clouds -13 997 78 16093 5.7 80 10:37 20.01.2020
473 Clouds -13 997 78 16093 5.7 80 10:37 20.01.2020
474 Clouds -13 997 78 16093 5.7 80 10:18 20.01.2020
475 Clouds -14 998 84 16093 4.1 70 09:40 20.01.2020
476 Clouds -14 998 84 16093 4.1 70 09:40 20.01.2020
477 Clouds -14 998 84 16093 4.1 70 09:20 20.01.2020
478 Clouds -14 998 77 16093 6.2 90 08:46 20.01.2020
479 Clouds -14 998 77 16093 6.2 90 08:28 20.01.2020
480 Clouds -15 998 84 14484 5.1 80 07:45 20.01.2020
481 Clouds -15 998 84 14484 5.1 80 07:26 20.01.2020
482 Clouds -16 998 91 16093 5.1 80 06:59 20.01.2020
483 Clouds -15 998 77 16093 4.6 80 06:28 20.01.2020
484 Clouds -16 998 84 16093 5.7 80 05:43 20.01.2020
485 Clouds -16 998 84 16093 5.7 80 05:43 20.01.2020
486 Clear -14 998 77 16093 4.6 70 05:23 20.01.2020
487 Clear -14 998 77 16093 4.6 70 04:48 20.01.2020
488 Clear -13 998 71 16093 4.6 70 02:59 20.01.2020
489 Clouds -13 999 71 16093 4.6 80 01:57 20.01.2020
490 Clouds -13 999 71 16093 4.6 80 01:37 20.01.2020
491 Clear -13 999 71 16093 4.6 80 00:45 20.01.2020
492 Clear -13 999 71 16093 4.6 80 00:25 20.01.2020
493 Clouds -12 999 66 16093 3.1 80 23:40 19.01.2020
494 Clouds -12 999 66 16093 3.1 80 23:20 19.01.2020
495 Clouds -13 999 71 16093 3.6 70 22:57 19.01.2020
496 Clouds -13 999 71 16093 3.6 70 22:39 19.01.2020
497 Clouds -13 999 71 16093 3.6 70 22:21 19.01.2020
498 Clouds -12 999 72 16093 4.1 90 21:57 19.01.2020
499 Clouds -12 999 72 16093 4.1 90 21:39 19.01.2020
500 Clouds -12 999 72 16093 4.1 90 21:21 19.01.2020
501 Clouds -11 999 66 16093 4.1 90 20:57 19.01.2020
502 Clouds -11 999 66 16093 4.1 90 20:39 19.01.2020
503 Clouds -11 999 66 16093 4.1 90 20:21 19.01.2020
504 Clouds -11 999 61 16093 5.1 80 19:58 19.01.2020
505 Clouds -11 999 61 16093 5.1 80 19:39 19.01.2020
506 Clouds -11 999 61 16093 5.1 80 19:39 19.01.2020
507 Clouds -11 999 61 16093 5.1 80 19:21 19.01.2020
508 Clouds -10 999 56 16093 7.7 90 18:59 19.01.2020
509 Clouds -10 999 56 16093 7.7 90 18:41 19.01.2020
510 Clouds -10 999 56 16093 7.7 90 18:21 19.01.2020
511 Clouds -10 1000 56 16093 4.1 80 17:59 19.01.2020
512 Clouds -10 1000 56 16093 4.1 80 17:40 19.01.2020
513 Clouds -10 1000 56 16093 4.1 80 17:40 19.01.2020
514 Clouds -10 1000 56 16093 4.1 80 17:22 19.01.2020
515 Clouds -11 1000 61 14484 4.6 80 17:00 19.01.2020
516 Clouds -11 1000 61 14484 4.6 80 16:41 19.01.2020
517 Clouds -11 1000 61 14484 4.6 80 16:22 19.01.2020
518 Snow -11 1000 66 12874 6.2 70 16:00 19.01.2020
519 Clouds -11 1000 56 16093 5.7 90 15:40 19.01.2020
520 Clouds -11 1000 56 16093 5.7 90 15:22 19.01.2020
521 Clouds -11 1000 51 16093 5.1 70 14:59 19.01.2020
522 Clouds -11 1000 51 16093 5.1 70 14:59 19.01.2020
523 Clouds -11 1000 51 16093 5.1 70 14:40 19.01.2020
524 Clouds -11 1000 51 16093 5.1 70 14:19 19.01.2020
525 Clouds -12 1001 55 16093 4.1 60 13:58 19.01.2020
526 Clouds -12 1001 55 16093 4.1 60 13:38 19.01.2020
527 Clouds -12 1001 55 16093 4.1 60 13:38 19.01.2020
528 Clouds -12 1001 55 16093 4.1 60 13:20 19.01.2020
529 Clouds -12 1001 55 16093 4.6 70 12:56 19.01.2020
530 Clouds -12 1001 55 16093 4.6 70 12:37 19.01.2020
531 Clouds -12 1001 55 16093 4.6 70 12:19 19.01.2020
532 Clear -13 1001 60 16093 3.6 60 11:56 19.01.2020
533 Clear -13 1001 60 16093 3.6 60 11:37 19.01.2020
534 Clear -13 1001 60 16093 3.6 60 11:18 19.01.2020
535 Clouds -13 1001 60 16093 4.1 70 10:39 19.01.2020
536 Clouds -13 1001 60 16093 4.1 70 10:19 19.01.2020
537 Clouds -13 1001 65 16093 4.1 60 09:57 19.01.2020
538 Clouds -13 1001 65 16093 4.1 60 09:38 19.01.2020
539 Clouds -13 1001 65 16093 4.1 60 09:19 19.01.2020
540 Clouds -13 1001 65 16093 5.7 80 08:54 19.01.2020
541 Clouds -13 1001 65 16093 5.7 80 08:31 19.01.2020
542 Clouds -13 1001 65 16093 5.7 70 07:54 19.01.2020
543 Clouds -13 1001 65 16093 5.7 70 07:28 19.01.2020
544 Clouds -13 1002 65 16093 6.7 80 06:55 19.01.2020
545 Clouds -13 1002 65 16093 6.7 80 06:22 19.01.2020
546 Clouds -14 1002 65 16093 5.7 80 03:55 19.01.2020
547 Clear -14 1002 65 16093 5.7 80 02:33 19.01.2020
548 Clouds -14 1002 65 16093 6.2 80 01:39 19.01.2020
549 Clouds -14 1002 65 16093 6.2 80 01:20 19.01.2020
550 Clouds -15 1003 71 16093 7.2 90 00:44 19.01.2020
551 Clouds -16 1003 71 16093 5.7 90 00:20 19.01.2020
552 Clouds -16 1003 71 16093 5.7 90 23:47 18.01.2020
553 Clear -17 1003 70 16093 5.7 90 23:25 18.01.2020
554 Clear -17 1003 70 16093 6.2 80 22:59 18.01.2020
555 Clear -17 1003 70 16093 6.2 80 22:41 18.01.2020
556 Clear -17 1003 70 16093 6.2 80 22:21 18.01.2020
557 Clear -17 1003 70 16093 6.2 80 21:58 18.01.2020
558 Clear -17 1003 70 16093 6.2 80 21:38 18.01.2020
559 Clear -17 1003 70 16093 6.2 80 21:20 18.01.2020
560 Clear -16 1003 59 16093 7.2 70 20:56 18.01.2020
561 Clear -16 1003 59 16093 7.2 70 20:38 18.01.2020
562 Clear -16 1003 59 16093 7.2 70 20:18 18.01.2020
563 Clear -16 1003 59 16093 7.2 70 20:18 18.01.2020
564 Clear -16 1003 59 16093 5.7 80 19:42 18.01.2020
565 Clear -16 1003 59 16093 5.7 80 19:24 18.01.2020
566 Clear -16 1004 59 16093 5.7 70 18:43 18.01.2020
567 Clear -16 1004 59 16093 5.7 70 18:25 18.01.2020
568 Clear -15 1004 54 16093 5.1 80 17:59 18.01.2020
569 Clear -15 1004 54 16093 5.1 80 17:40 18.01.2020
570 Clear -15 1004 54 16093 5.1 80 17:20 18.01.2020
571 Clear -15 1005 54 16093 3.6 70 16:57 18.01.2020
572 Clear -15 1005 54 16093 3.6 70 16:38 18.01.2020
573 Clear -15 1005 54 16093 3.6 70 16:38 18.01.2020
574 Clear -15 1005 54 16093 3.6 70 16:19 18.01.2020
575 Clear -16 1005 59 16093 4.1 60 15:44 18.01.2020
576 Clear -16 1005 59 16093 4.1 60 15:26 18.01.2020
577 Clear -15 1006 54 16093 4.1 70 14:59 18.01.2020
578 Clear -15 1006 54 16093 4.1 70 14:40 18.01.2020
579 Clear -15 1006 54 16093 4.1 70 14:19 18.01.2020
580 Clear -15 1007 54 16093 4.6 70 13:56 18.01.2020
581 Clear -15 1007 54 16093 4.6 70 13:36 18.01.2020
582 Clear -15 1007 54 16093 4.6 70 13:18 18.01.2020
583 Clear -15 1007 54 16093 3.6 60 12:41 18.01.2020
584 Clear -15 1007 54 16093 3.6 60 12:21 18.01.2020
585 Clear -16 1008 54 16093 3.6 60 11:56 18.01.2020
586 Clear -16 1008 54 16093 3.6 60 11:37 18.01.2020
587 Clear -16 1008 54 16093 3.6 60 11:18 18.01.2020
588 Clear -18 1008 64 16093 3.6 50 10:41 18.01.2020
589 Clear -18 1008 64 16093 3.6 50 10:20 18.01.2020
590 Clear -18 1008 64 16093 3.6 50 10:20 18.01.2020
591 Clear -19 1009 64 16093 3.6 40 09:50 18.01.2020
592 Clear -19 1009 64 16093 3.6 40 09:32 18.01.2020
593 Clear -16 1009 59 16093 2.6 60 08:59 18.01.2020
594 Clear -16 1009 59 16093 2.6 60 08:41 18.01.2020
595 Clear -16 1009 59 16093 2.6 60 08:19 18.01.2020
596 Clear -14 1009 55 16093 3.6 70 07:52 18.01.2020
597 Clear -14 1009 55 16093 3.6 70 07:32 18.01.2020
598 Clear -17 1010 64 16093 4.1 40 06:48 18.01.2020
599 Clear -17 1010 64 16093 4.1 40 06:18 18.01.2020
600 Clear -16 1011 65 16093 3.1 40 05:25 18.01.2020
601 Clear -13 1011 60 16093 4.6 70 03:39 18.01.2020
602 Clear -13 1012 60 16093 5.7 70 01:59 18.01.2020
603 Clear -13 1012 60 16093 5.7 70 01:36 18.01.2020
604 Clear -13 1012 60 16093 4.6 80 00:38 18.01.2020
605 Clear -13 1012 60 16093 4.6 80 00:19 18.01.2020
606 Clear -13 1013 50 16093 3.1 60 23:44 17.01.2020
607 Clear -13 1013 50 16093 3.1 60 23:20 17.01.2020
608 Clear -16 1013 65 16093 3.1 50 22:59 17.01.2020
609 Clear -16 1013 65 16093 3.1 50 22:40 17.01.2020
610 Clear -16 1013 65 16093 3.1 50 22:19 17.01.2020
611 Clear -13 1013 50 16093 3.6 70 21:42 17.01.2020
612 Clear -13 1013 50 16093 3.6 70 21:24 17.01.2020
613 Clear -16 1013 59 16093 3.1 50 20:59 17.01.2020
614 Clear -16 1013 59 16093 3.1 50 20:40 17.01.2020
615 Clear -15 1013 59 16093 3.1 50 20:20 17.01.2020
616 Clear -16 1013 64 16093 3.6 40 19:57 17.01.2020
617 Clear -16 1013 64 16093 3.6 40 19:38 17.01.2020
618 Clear -16 1013 64 16093 3.6 40 19:19 17.01.2020
619 Clear -15 1013 70 16093 1.72 99 18:57 17.01.2020
620 Clear -16 1013 70 16093 1.72 99 18:37 17.01.2020
621 Clear -16 1013 70 16093 1.72 99 18:19 17.01.2020
622 Clear -15 1013 65 16093 2.6 20 17:39 17.01.2020
623 Clear -16 1013 65 16093 2.6 20 17:21 17.01.2020
624 Clear -14 1013 65 16093 3.1 40 16:44 17.01.2020
625 Clear -14 1013 65 16093 3.1 40 16:21 17.01.2020
626 Clear -15 1013 65 16093 2.6 40 15:58 17.01.2020
627 Clear -15 1013 65 16093 2.6 40 15:58 17.01.2020
628 Clear -15 1013 65 16093 2.6 40 15:40 17.01.2020
629 Clear -15 1013 65 16093 2.6 40 15:22 17.01.2020
630 Clear -14 1014 65 16093 4.1 70 14:43 17.01.2020
631 Clear -13 1014 65 16093 4.1 70 14:25 17.01.2020
632 Clear -13 1014 60 16093 5.1 80 13:46 17.01.2020
633 Clear -12 1014 60 16093 5.1 80 13:23 17.01.2020
634 Clear -12 1014 60 16093 5.7 80 12:56 17.01.2020
635 Clear -12 1014 60 16093 5.7 80 12:37 17.01.2020
636 Clear -12 1014 60 16093 5.7 80 12:18 17.01.2020
637 Clear -12 1014 60 16093 4.6 80 11:38 17.01.2020
638 Clear -12 1014 60 16093 4.6 80 11:18 17.01.2020
639 Clear -12 1015 55 16093 4.6 70 10:42 17.01.2020
640 Clear -12 1015 55 16093 4.6 70 10:22 17.01.2020
641 Clear -13 1015 60 16093 4.6 70 09:57 17.01.2020
642 Clear -13 1015 60 16093 4.6 70 09:37 17.01.2020
643 Clear -13 1015 60 16093 4.6 70 09:18 17.01.2020
644 Clear -13 1015 65 16093 4.1 80 08:42 17.01.2020
645 Clear -13 1015 65 16093 4.1 80 08:24 17.01.2020
646 Clear -13 1015 71 16093 5.1 80 07:53 17.01.2020
647 Clear -13 1015 71 16093 5.1 80 07:31 17.01.2020
648 Clear -13 1015 71 16093 6.2 80 06:57 17.01.2020
649 Clear -13 1015 71 16093 6.2 80 06:38 17.01.2020
650 Clear -13 1016 71 16093 6.7 80 05:28 17.01.2020
651 Clear -17 1015 73 0 4.39 68 03:39 17.01.2020
652 Clear -17 1015 73 0 4.39 68 02:45 17.01.2020
653 Clouds -13 1016 79 0 8.94 84 01:46 17.01.2020
654 Clouds -12 1016 79 0 9.83 95 01:27 17.01.2020
655 Clouds -12 1016 79 0 9.39 85 00:46 17.01.2020
656 Clear -12 1018 72 16093 8.7 80 00:21 17.01.2020
657 Clear -12 1018 72 16093 8.7 80 23:43 16.01.2020
658 Clear -12 1018 72 16093 8.7 80 23:25 16.01.2020
659 Clear -12 1018 72 16093 8.7 90 22:55 16.01.2020
660 Clear -12 1018 72 16093 8.7 90 22:36 16.01.2020
661 Clear -12 1018 72 16093 8.7 90 22:18 16.01.2020
662 Clear -12 1018 72 16093 10.8 100 21:54 16.01.2020
663 Clear -12 1018 72 16093 10.8 100 21:36 16.01.2020
664 Clear -12 1018 72 16093 10.8 100 21:18 16.01.2020
665 Clear -12 1017 72 16093 10.8 100 20:40 16.01.2020
666 Clear -12 1017 72 16093 10.8 100 20:21 16.01.2020
667 Clear -11 1017 66 16093 11.8 90 19:57 16.01.2020
668 Clear -11 1017 66 16093 11.8 90 19:39 16.01.2020
669 Clear -11 1017 66 16093 11.8 90 19:20 16.01.2020
670 Clear -11 1018 66 11265 12.3 90 18:57 16.01.2020
671 Clear -11 1018 66 11265 12.3 90 18:37 16.01.2020
672 Clear -11 1018 66 11265 12.3 90 18:18 16.01.2020
673 Clear -10 1019 61 16093 9.8 90 17:58 16.01.2020
674 Clear -10 1019 61 16093 9.8 90 17:39 16.01.2020
675 Clear -10 1019 61 16093 9.8 90 17:20 16.01.2020
676 Clear -9 1020 56 16093 8.7 90 16:41 16.01.2020
677 Clear -9 1020 56 16093 8.7 90 16:21 16.01.2020
678 Clear -10 1021 61 16093 9.8 100 15:57 16.01.2020
679 Clear -10 1021 61 16093 9.8 100 15:38 16.01.2020
680 Clear -10 1021 61 16093 9.8 100 15:20 16.01.2020
681 Clear -10 1021 66 16093 9.8 90 14:42 16.01.2020
682 Clear -11 1021 66 16093 9.8 90 14:24 16.01.2020
683 Clear -10 1022 66 16093 10.3 90 13:55 16.01.2020
684 Clear -11 1022 66 16093 10.3 90 13:37 16.01.2020
685 Clear -11 1022 66 16093 10.3 90 13:19 16.01.2020
686 Clear -12 1023 78 16093 10.3 90 12:41 16.01.2020
687 Clear -12 1023 78 16093 10.3 90 12:21 16.01.2020
688 Clear -12 1024 78 16093 10.3 90 11:43 16.01.2020
689 Clear -12 1024 78 16093 10.3 90 11:24 16.01.2020
690 Clear -12 1025 72 16093 9.8 90 10:59 16.01.2020
691 Clear -12 1025 72 16093 9.8 90 10:38 16.01.2020
692 Clear -12 1025 72 16093 9.8 90 10:20 16.01.2020
693 Clear -12 1025 78 16093 9.8 90 09:56 16.01.2020
694 Clear -12 1025 78 16093 9.8 90 09:37 16.01.2020
695 Clear -12 1025 78 16093 9.8 90 09:18 16.01.2020
696 Clear -11 1026 78 16093 8.7 90 08:44 16.01.2020
697 Clear -11 1026 78 16093 8.7 90 08:23 16.01.2020
698 Clear -11 1028 85 16093 9.3 90 07:43 16.01.2020
699 Clear -11 1028 85 16093 9.3 90 07:25 16.01.2020
700 Clear -10 1028 85 16093 9.8 90 06:56 16.01.2020
701 Clear -10 1028 85 16093 9.8 90 06:37 16.01.2020
702 Clear -8 1029 85 16093 8.7 90 05:56 16.01.2020
703 Clear -8 1029 85 16093 8.7 90 05:31 16.01.2020
704 Clear -7 1030 92 16093 8.7 90 04:37 16.01.2020
705 Clouds -6 1030 92 16093 7.7 90 03:28 16.01.2020
706 Mist -7 1031 92 8047 7.2 90 02:29 16.01.2020
707 Mist -7 1033 92 1609 7.2 90 00:45 16.01.2020
708 Mist -7 1033 92 1609 7.2 90 00:24 16.01.2020
709 Clouds -7 1034 92 16093 7.2 90 23:48 15.01.2020
710 Clouds -7 1034 92 16093 7.2 90 23:22 15.01.2020
711 Mist -7 1034 92 9656 7.2 80 22:57 15.01.2020
712 Mist -7 1034 92 9656 7.2 80 22:39 15.01.2020
713 Mist -7 1034 92 9656 7.2 80 22:19 15.01.2020
714 Clouds -7 1035 92 16093 6.7 80 21:57 15.01.2020
715 Clouds -7 1035 92 16093 6.7 80 21:37 15.01.2020
716 Clouds -7 1035 92 16093 6.7 80 21:19 15.01.2020
717 Mist -7 1035 92 8047 5.7 80 20:57 15.01.2020
718 Mist -7 1035 92 8047 5.7 80 20:39 15.01.2020
719 Mist -7 1035 92 8047 5.7 80 20:39 15.01.2020
720 Mist -7 1035 92 8047 5.7 80 20:20 15.01.2020
721 Mist -7 1036 92 9656 5.1 80 19:55 15.01.2020
722 Mist -7 1036 92 9656 5.1 80 19:37 15.01.2020
723 Mist -7 1036 92 9656 5.1 80 19:18 15.01.2020
724 Mist -7 1036 92 3219 6.2 80 18:56 15.01.2020
725 Mist -7 1036 92 3219 6.2 80 18:56 15.01.2020
726 Mist -7 1036 92 3219 6.2 80 18:38 15.01.2020
727 Mist -7 1036 92 3219 6.2 80 18:38 15.01.2020
728 Mist -7 1036 92 3219 6.2 80 18:19 15.01.2020
729 Mist -7 1037 92 3219 6.2 80 17:56 15.01.2020
730 Mist -7 1037 92 3219 6.2 80 17:37 15.01.2020
731 Mist -7 1037 92 3219 6.2 80 17:18 15.01.2020
732 Mist -7 1037 92 4023 6.2 80 16:41 15.01.2020
733 Mist -7 1037 92 4023 6.2 80 16:22 15.01.2020
734 Clear -8 1037 92 16093 5.7 80 15:57 15.01.2020
735 Clear -8 1037 92 16093 5.7 80 15:39 15.01.2020
736 Clear -8 1037 92 16093 5.7 80 15:19 15.01.2020
737 Clear -8 1038 92 16093 5.1 80 14:43 15.01.2020
738 Clear -8 1038 92 16093 5.1 80 14:20 15.01.2020
739 Clear -7 1038 85 16093 4.1 80 13:46 15.01.2020
740 Clear -7 1038 85 16093 4.1 80 13:27 15.01.2020
741 Clear -9 1039 85 16093 1.87 100 12:59 15.01.2020
742 Clear -9 1039 85 16093 1.87 100 12:40 15.01.2020
743 Clear -9 1039 85 16093 1.87 100 12:20 15.01.2020
744 Clear -8 1039 92 16093 3.1 90 11:58 15.01.2020
745 Clear -8 1039 92 16093 3.1 90 11:37 15.01.2020
746 Clear -8 1039 92 16093 3.1 90 11:19 15.01.2020
747 Clouds -7 1038 92 16093 3.6 100 10:46 15.01.2020
748 Clouds -7 1038 92 16093 3.6 100 10:27 15.01.2020
749 Clouds -6 1038 92 16093 2.6 110 09:46 15.01.2020
750 Clouds -6 1038 92 16093 2.6 110 09:26 15.01.2020
751 Clouds -6 1038 92 16093 3.1 90 08:59 15.01.2020
752 Clouds -6 1038 92 16093 3.1 90 08:41 15.01.2020
753 Clouds -6 1038 92 16093 3.1 90 08:22 15.01.2020
754 Clouds -7 1038 100 16093 3.6 100 07:52 15.01.2020
755 Clouds -7 1038 100 16093 3.6 100 07:32 15.01.2020
756 Clouds -7 1039 92 11265 3.6 100 06:46 15.01.2020
757 Clouds -7 1039 92 11265 3.6 100 06:21 15.01.2020
758 Mist -6 1038 92 8047 1.5 90 04:45 15.01.2020
759 Rain -6 1038 100 1207 3.28 246 02:39 15.01.2020
760 Rain -6 1038 100 1609 1.95 230 01:28 15.01.2020
761 Rain -6 1038 100 1609 1.95 230 01:28 15.01.2020
762 Mist -6 1038 92 3219 1.5 80 00:59 15.01.2020
763 Mist -6 1038 92 3219 1.5 80 00:59 15.01.2020
764 Mist -6 1038 92 3219 1.5 80 00:36 15.01.2020
765 Mist -6 1038 92 3219 1.5 80 00:18 15.01.2020
766 Clouds -6 1037 92 16093 1.5 160 23:45 14.01.2020
767 Clouds -6 1037 92 16093 1.5 160 23:24 14.01.2020
768 Clouds -7 1037 100 16093 1.84 255 22:41 14.01.2020
769 Clouds -7 1037 100 16093 1.84 255 22:20 14.01.2020
770 Clouds -6 1036 92 16093 4.1 260 21:59 14.01.2020
771 Clouds -6 1036 92 16093 4.1 260 21:41 14.01.2020
772 Clouds -6 1036 92 16093 4.1 260 21:23 14.01.2020
773 Clouds -6 1036 92 16093 5.1 270 21:00 14.01.2020
774 Clouds -6 1036 92 16093 5.1 270 20:41 14.01.2020
775 Clouds -6 1035 85 16093 3.1 320 20:21 14.01.2020
776 Clouds -6 1035 85 16093 3.1 320 19:56 14.01.2020
777 Clouds -6 1035 85 16093 3.1 320 19:38 14.01.2020
778 Clouds -6 1035 85 16093 3.1 320 19:19 14.01.2020
779 Clouds -7 1035 92 16093 2.1 330 18:56 14.01.2020
780 Clouds -6 1035 90 0 1.79 352 18:37 14.01.2020
781 Clouds -8 1034 85 16093 1.59 286 18:19 14.01.2020
782 Clouds -8 1034 85 16093 1.59 286 18:19 14.01.2020
783 Clouds -8 1034 85 16093 1.59 286 17:39 14.01.2020
784 Clouds -9 1034 85 16093 2.05 289 17:19 14.01.2020
785 Clouds -11 1034 92 16093 2.05 289 16:56 14.01.2020
786 Clouds -11 1034 92 16093 2.05 289 16:38 14.01.2020
787 Clouds -10 1034 92 16093 2.05 289 16:19 14.01.2020
788 Clouds -10 1033 85 16093 3.6 20 15:54 14.01.2020
789 Clouds -10 1033 85 16093 3.6 20 15:36 14.01.2020
790 Clouds -10 1033 85 16093 3.6 20 15:18 14.01.2020
791 Clear -10 1033 85 16093 3.1 300 14:41 14.01.2020
792 Clear -10 1033 85 16093 3.1 300 14:20 14.01.2020
793 Clouds -10 1031 78 16093 2.1 280 13:42 14.01.2020
794 Clouds -10 1031 78 16093 2.1 280 13:20 14.01.2020
795 Clouds -10 1031 85 16093 1.5 10 12:57 14.01.2020
796 Clouds -9 1031 85 16093 1.5 10 12:39 14.01.2020
797 Clouds -9 1031 85 16093 1.5 10 12:20 14.01.2020
798 Clouds -9 1031 85 16093 1.5 10 12:20 14.01.2020
799 Snow -9 1030 78 12874 4.6 290 11:42 14.01.2020
800 Snow -9 1030 78 12874 4.6 290 11:22 14.01.2020
801 Clouds -9 1029 78 16093 3.6 290 10:57 14.01.2020
802 Clouds -9 1029 78 16093 3.6 290 10:38 14.01.2020
803 Clouds -9 1029 78 16093 3.6 290 10:19 14.01.2020
804 Clouds -9 1028 78 16093 4.1 270 09:56 14.01.2020
805 Clouds -9 1028 78 16093 4.1 270 09:38 14.01.2020
806 Clouds -9 1028 78 16093 4.1 270 09:19 14.01.2020
807 Clouds -8 1027 72 16093 5.7 270 08:41 14.01.2020
808 Clouds -8 1027 72 16093 5.7 270 08:22 14.01.2020
809 Clear -9 1026 78 12874 6.2 270 07:53 14.01.2020
810 Clear -9 1026 78 12874 6.2 270 07:26 14.01.2020
811 Clear -12 1025 92 16093 2.1 290 06:50 14.01.2020
812 Clear -12 1025 92 16093 2.1 290 06:18 14.01.2020
813 Clear -10 1024 78 16093 6.2 260 04:58 14.01.2020
814 Clouds -7 1023 79 16093 6.2 280 03:48 14.01.2020
815 Snow -7 1022 79 6437 9.3 260 02:41 14.01.2020
816 Clouds -6 1021 73 14484 11.3 260 01:34 14.01.2020
817 Snow -4 1020 79 11265 5.7 250 00:49 14.01.2020
818 Snow -4 1020 79 11265 5.7 250 00:27 14.01.2020
819 Snow -4 1019 79 11265 6.7 250 23:47 13.01.2020
820 Snow -4 1019 79 11265 6.7 250 23:19 13.01.2020
821 Clouds -4 1019 79 16093 7.7 240 22:59 13.01.2020
822 Clouds -4 1019 79 16093 7.7 240 22:40 13.01.2020
823 Clouds -4 1019 79 16093 7.7 240 22:20 13.01.2020
824 Clouds -4 1018 79 16093 7.7 240 21:56 13.01.2020
825 Clouds -4 1018 79 16093 7.7 240 21:37 13.01.2020
826 Clouds -4 1018 79 16093 7.7 240 21:37 13.01.2020
827 Clouds -4 1018 79 16093 7.7 240 21:18 13.01.2020
828 Clouds -4 1017 79 14484 6.2 240 20:56 13.01.2020
829 Clouds -4 1017 79 14484 6.2 240 20:38 13.01.2020
830 Clouds -4 1017 79 14484 6.2 240 20:20 13.01.2020
831 Clouds -4 1016 79 16093 6.2 230 19:56 13.01.2020
832 Clouds -4 1016 79 16093 6.2 230 19:37 13.01.2020
833 Clouds -4 1016 79 16093 6.2 230 19:18 13.01.2020
834 Clouds -3 1016 79 16093 6.2 220 18:55 13.01.2020
835 Clouds -3 1016 79 16093 6.2 220 18:36 13.01.2020
836 Clouds -3 1016 79 16093 6.2 220 18:18 13.01.2020
837 Clouds -3 1015 79 16093 6.7 230 17:40 13.01.2020
838 Clouds -3 1015 79 16093 6.7 230 17:21 13.01.2020
839 Clouds -2 1014 86 16093 11.3 220 16:56 13.01.2020
840 Snow -4 1013 96 0 8.22 219 16:37 13.01.2020
841 Snow -4 1013 96 0 8.22 219 16:18 13.01.2020
842 Snow -4 1013 96 0 8.22 219 15:43 13.01.2020
843 Snow -4 1013 96 0 8.22 219 15:22 13.01.2020
844 Snow -4 1013 96 0 8.22 219 14:57 13.01.2020
845 Snow -2 1012 92 0 9.39 232 14:37 13.01.2020
846 Snow -2 1012 92 0 9.39 232 14:37 13.01.2020
847 Snow -2 1012 92 0 9.39 232 14:18 13.01.2020
848 Snow -2 1012 92 0 9.39 232 13:40 13.01.2020
849 Snow -2 1012 92 0 9.39 232 13:40 13.01.2020
850 Snow -2 1012 92 0 9.39 232 13:22 13.01.2020
851 Snow -2 1012 93 0 7.6 216 12:58 13.01.2020
852 Snow -2 1012 90 0 8.94 221 12:40 13.01.2020
853 Snow -2 1012 86 4023 7.7 200 12:21 13.01.2020
854 Snow -2 1012 86 4023 7.7 200 11:56 13.01.2020
855 Snow -2 1012 86 4023 7.7 200 11:36 13.01.2020
856 Snow -2 1012 86 4023 7.7 200 11:18 13.01.2020
857 Clouds -3 1012 92 14484 6.7 200 10:55 13.01.2020
858 Clouds -3 1012 92 14484 6.7 200 10:36 13.01.2020
859 Clouds -3 1012 92 14484 6.7 200 10:18 13.01.2020
860 Clouds -2 1011 86 16093 6.2 190 09:40 13.01.2020
861 Clouds -2 1011 86 16093 6.2 190 09:22 13.01.2020
862 Rain -3 1011 92 8047 6.2 200 08:42 13.01.2020
863 Rain -3 1011 92 8047 6.2 200 08:21 13.01.2020
864 Rain -3 1010 92 9656 7.7 190 07:57 13.01.2020
865 Rain -3 1010 92 9656 7.7 190 07:38 13.01.2020
866 Snow -3 1010 100 12874 2.6 190 06:55 13.01.2020
867 Snow -3 1010 100 12874 2.6 190 06:36 13.01.2020
868 Snow -3 1010 100 12874 2.6 190 06:36 13.01.2020
869 Clouds -5 1010 92 16093 4.6 100 05:36 13.01.2020
870 Clouds -7 1010 85 16093 7.2 80 04:25 13.01.2020
871 Snow -8 1009 92 4828 8.7 90 03:31 13.01.2020
872 Rain -8 1009 92 9656 7.2 100 02:47 13.01.2020
873 Rain -8 1009 92 9656 7.2 100 02:29 13.01.2020
874 Rain -8 1009 92 1609 8.2 90 01:32 13.01.2020
875 Rain -8 1010 92 1207 5.7 100 00:42 13.01.2020
876 Rain -8 1010 92 1207 5.7 100 00:24 13.01.2020
877 Clouds -9 1009 92 16093 6.7 100 23:56 12.01.2020
878 Clouds -9 1009 92 16093 6.7 100 23:37 12.01.2020
879 Clouds -9 1009 92 16093 6.7 100 23:19 12.01.2020
880 Rain -9 1009 85 4828 7.2 90 22:42 12.01.2020
881 Rain -9 1009 85 4828 7.2 90 22:24 12.01.2020
882 Rain -9 1009 85 3219 8.7 90 21:57 12.01.2020
883 Rain -9 1009 85 3219 8.7 90 21:39 12.01.2020
884 Rain -9 1009 85 3219 8.7 90 21:20 12.01.2020
885 Snow -9 1009 85 4828 9.3 90 20:57 12.01.2020
886 Snow -9 1009 85 4828 9.3 90 20:39 12.01.2020
887 Snow -9 1009 85 4828 9.3 90 20:20 12.01.2020
888 Snow -8 1009 78 3219 10.3 100 19:56 12.01.2020
889 Snow -8 1009 78 3219 10.3 100 19:38 12.01.2020
890 Snow -8 1009 78 3219 10.3 100 19:19 12.01.2020
891 Mist -8 1009 85 8047 10.8 100 18:57 12.01.2020
892 Mist -8 1009 85 8047 10.8 100 18:39 12.01.2020
893 Mist -8 1009 85 8047 10.8 100 18:21 12.01.2020
894 Clouds -8 1009 85 16093 10.8 100 17:56 12.01.2020
895 Clouds -8 1009 85 16093 10.8 100 17:37 12.01.2020
896 Clouds -8 1009 85 16093 10.8 100 17:18 12.01.2020
897 Clouds -8 1009 85 12874 10.3 100 16:55 12.01.2020
898 Clouds -8 1009 85 12874 10.3 100 16:37 12.01.2020
899 Clouds -8 1009 85 12874 10.3 100 16:18 12.01.2020
900 Clouds -8 1011 85 12874 11.8 90 15:42 12.01.2020
901 Clouds -8 1011 85 12874 11.8 90 15:24 12.01.2020
902 Clouds -8 1011 85 12874 11.8 90 15:24 12.01.2020
903 Clouds -8 1011 85 16093 8.7 90 14:56 12.01.2020
904 Clouds -8 1011 85 16093 8.7 90 14:37 12.01.2020
905 Clouds -8 1011 85 16093 8.7 90 14:18 12.01.2020
906 Snow -8 1012 85 6437 9.8 90 13:42 12.01.2020
907 Snow -8 1012 85 6437 9.8 90 13:23 12.01.2020
908 Rain -8 1013 78 14484 10.8 90 12:58 12.01.2020
909 Rain -8 1013 78 14484 10.8 90 12:39 12.01.2020
910 Rain -8 1013 78 14484 10.8 90 12:20 12.01.2020
911 Mist -8 1013 85 9656 11.8 90 11:58 12.01.2020
912 Mist -8 1013 85 9656 11.8 90 11:38 12.01.2020
913 Mist -8 1013 85 9656 11.8 90 11:19 12.01.2020
914 Rain -8 1013 85 2012 10.8 90 10:41 12.01.2020
915 Rain -8 1013 85 2012 10.8 90 10:41 12.01.2020
916 Rain -8 1013 85 2012 10.8 90 10:22 12.01.2020
917 Rain -8 1013 92 1609 11.3 90 09:57 12.01.2020
918 Rain -8 1013 92 1609 11.3 90 09:38 12.01.2020
919 Rain -8 1013 92 1609 11.3 90 09:18 12.01.2020
920 Rain -8 1013 92 1609 13.4 100 08:44 12.01.2020
921 Rain -8 1013 92 1609 13.4 100 08:20 12.01.2020
922 Snow -8 1014 92 1609 12.9 90 07:40 12.01.2020
923 Snow -8 1014 92 1609 12.9 90 07:22 12.01.2020
924 Rain -8 1014 85 2414 12.3 90 06:48 12.01.2020
925 Rain -8 1014 85 2414 12.3 90 06:29 12.01.2020
926 Snow -8 1014 85 2414 12.9 90 05:32 12.01.2020
927 Rain -8 1015 85 2012 11.3 90 04:27 12.01.2020
928 Rain -8 1015 85 402 11.8 90 03:23 12.01.2020
929 Snow -9 1015 85 1207 11.3 90 02:33 12.01.2020
930 Snow -9 1015 85 1207 10.3 80 01:51 12.01.2020
931 Snow -9 1015 85 1207 10.3 80 01:29 12.01.2020
932 Snow -10 1015 85 1207 9.3 80 00:41 12.01.2020
933 Snow -10 1015 85 1207 9.3 80 00:20 12.01.2020
934 Snow -10 1015 85 1207 9.3 80 00:20 12.01.2020
935 Snow -10 1015 85 2012 8.2 80 23:42 11.01.2020
936 Snow -10 1015 85 2012 8.2 80 23:42 11.01.2020
937 Snow -10 1015 85 2012 8.2 80 23:20 11.01.2020
938 Snow -11 1015 92 3219 8.7 90 22:59 11.01.2020
939 Snow -11 1015 92 3219 8.7 90 22:41 11.01.2020
940 Snow -11 1015 92 3219 8.7 90 22:21 11.01.2020
941 Rain -11 1014 85 1207 8.7 80 21:59 11.01.2020
942 Rain -11 1014 85 1207 8.7 80 21:41 11.01.2020
943 Rain -11 1014 85 1207 8.7 80 21:18 11.01.2020
944 Rain -11 1014 85 1207 8.7 80 21:18 11.01.2020
945 Rain -11 1013 85 1207 11.3 90 20:42 11.01.2020
946 Rain -12 1013 85 1207 11.3 90 20:22 11.01.2020
947 Rain -12 1013 92 805 10.3 90 19:59 11.01.2020
948 Rain -12 1013 92 805 10.3 90 19:40 11.01.2020
949 Rain -12 1013 92 805 10.3 90 19:40 11.01.2020
950 Rain -12 1013 92 805 10.3 90 19:22 11.01.2020
951 Snow -12 1012 85 1207 12.9 100 18:59 11.01.2020
952 Snow -12 1012 85 1207 12.9 100 18:39 11.01.2020
953 Snow -12 1012 85 1207 12.9 100 18:20 11.01.2020
954 Snow -12 1012 85 1207 12.9 100 18:20 11.01.2020
955 Snow -12 1011 72 2816 13.4 100 17:58 11.01.2020
956 Snow -12 1011 72 2816 13.4 100 17:58 11.01.2020
957 Snow -12 1011 72 2816 13.4 100 17:40 11.01.2020
958 Snow -12 1011 72 2816 13.4 100 17:20 11.01.2020
959 Clouds -11 1011 61 16093 13.9 100 16:55 11.01.2020
960 Clouds -11 1011 61 16093 13.9 100 16:55 11.01.2020
961 Clouds -11 1011 61 16093 13.9 100 16:36 11.01.2020
962 Clouds -11 1011 61 16093 13.9 100 16:36 11.01.2020
963 Clouds -11 1011 61 16093 13.9 100 16:18 11.01.2020
964 Clouds -11 1011 61 16093 12.9 100 15:41 11.01.2020
965 Clouds -11 1011 61 16093 12.9 100 15:23 11.01.2020
966 Clear -12 1010 60 16093 9.3 100 14:58 11.01.2020
967 Clear -12 1010 60 16093 9.3 100 14:40 11.01.2020
968 Clear -11 1010 60 16093 9.3 100 14:21 11.01.2020
969 Clear -12 1009 55 16093 9.3 90 13:55 11.01.2020
970 Clear -12 1009 55 16093 9.3 90 13:36 11.01.2020
971 Clear -12 1009 55 16093 9.3 90 13:18 11.01.2020
972 Clear -11 1009 51 16093 11.3 90 12:41 11.01.2020
973 Clear -11 1009 51 16093 11.3 90 12:23 11.01.2020
974 Clear -10 1009 47 16093 10.8 90 11:48 11.01.2020
975 Clear -10 1009 47 16093 10.8 90 11:27 11.01.2020
976 Clear -9 1009 43 16093 10.3 90 10:58 11.01.2020
977 Clear -10 1009 43 16093 10.3 90 10:40 11.01.2020
978 Clear -10 1009 43 16093 10.3 90 10:22 11.01.2020
979 Clear -9 1009 43 16093 10.8 80 09:39 11.01.2020
980 Clear -9 1009 43 16093 10.8 80 09:20 11.01.2020
981 Clear -9 1009 40 16093 11.3 80 08:42 11.01.2020
982 Clear -9 1009 40 16093 11.3 80 08:22 11.01.2020
983 Clear -9 1010 43 16093 12.3 80 07:44 11.01.2020
984 Clear -9 1010 43 16093 12.3 80 07:26 11.01.2020
985 Clear -9 1011 40 16093 12.9 80 06:52 11.01.2020
986 Clear -9 1012 40 16093 12.3 80 05:50 11.01.2020
987 Clear -10 1012 43 16093 10.8 80 04:47 11.01.2020
988 Clear -10 1012 43 16093 10.8 80 04:29 11.01.2020
989 Clear -11 1014 39 16093 9.3 80 02:58 11.01.2020
990 Clear -11 1014 39 16093 9.3 80 02:38 11.01.2020
991 Clear -11 1015 39 16093 9.8 80 01:43 11.01.2020
992 Clear -11 1015 39 16093 9.8 80 01:20 11.01.2020
993 Clear -11 1015 39 16093 9.3 90 00:43 11.01.2020
994 Clear -11 1015 39 16093 9.3 90 00:18 11.01.2020
995 Clear -12 1015 43 16093 9.8 80 23:40 10.01.2020
996 Clear -12 1015 43 16093 9.8 80 23:22 10.01.2020
997 Clear -12 1015 39 16093 9.8 80 22:59 10.01.2020
998 Clear -12 1015 39 16093 9.8 80 22:40 10.01.2020
999 Clear -12 1015 39 16093 9.8 80 22:20 10.01.2020
1000 Clear -13 1016 42 16093 9.8 80 21:57 10.01.2020
1001 Clear -13 1016 42 16093 9.8 80 21:37 10.01.2020
1002 Clear -13 1016 42 16093 9.8 80 21:19 10.01.2020
1003 Clear -13 1017 42 16093 10.8 90 20:43 10.01.2020
1004 Clear -13 1017 42 16093 10.8 90 20:24 10.01.2020
1005 Clear -13 1017 42 16093 10.8 90 20:24 10.01.2020
1006 Clear -14 1018 42 16093 8.7 90 19:59 10.01.2020
1007 Clear -14 1018 42 16093 8.7 90 19:38 10.01.2020
1008 Clear -14 1018 42 16093 8.7 90 19:19 10.01.2020
1009 Clear -14 1018 46 16093 8.2 90 18:43 10.01.2020
1010 Clear -14 1018 46 16093 8.2 90 18:20 10.01.2020
1011 Clear -14 1019 42 16093 7.2 80 17:58 10.01.2020
1012 Clear -14 1019 42 16093 7.2 80 17:39 10.01.2020
1013 Clear -14 1019 42 16093 7.2 80 17:21 10.01.2020
1014 Clear -15 1019 49 16093 7.2 80 16:59 10.01.2020
1015 Clear -15 1019 49 16093 7.2 80 16:40 10.01.2020
1016 Clear -15 1019 49 16093 7.2 80 16:21 10.01.2020
1017 Clear -16 1019 54 16093 2.6 110 15:56 10.01.2020
1018 Clear -16 1019 54 16093 2.6 110 15:37 10.01.2020
1019 Clear -16 1019 54 16093 2.6 110 15:18 10.01.2020
1020 Clear -16 1019 45 16093 6.2 80 14:56 10.01.2020
1021 Clear -15 1019 45 16093 6.2 80 14:38 10.01.2020
1022 Clear -15 1019 45 16093 6.2 80 14:18 10.01.2020
1023 Clear -15 1019 42 16093 6.7 70 13:44 10.01.2020
1024 Clear -15 1019 42 16093 6.7 70 13:26 10.01.2020
1025 Clear -13 1019 39 16093 7.7 70 12:59 10.01.2020
1026 Clear -13 1019 39 16093 7.7 70 12:39 10.01.2020
1027 Clear -13 1019 39 16093 7.7 70 12:21 10.01.2020
1028 Clear -13 1019 39 16093 7.7 70 12:21 10.01.2020
1029 Clear -13 1019 39 16093 7.7 70 11:56 10.01.2020
1030 Clear -13 1019 39 16093 7.7 70 11:38 10.01.2020
1031 Clear -13 1019 39 16093 7.7 70 11:19 10.01.2020
1032 Clear -12 1019 35 16093 6.2 70 10:58 10.01.2020
1033 Clear -12 1019 35 16093 6.2 70 10:58 10.01.2020
1034 Clear -12 1019 35 16093 6.2 70 10:37 10.01.2020
1035 Clear -12 1019 35 16093 6.2 70 10:18 10.01.2020
1036 Clear -12 1018 35 16093 7.2 70 09:45 10.01.2020
1037 Clear -12 1018 35 16093 7.2 70 09:25 10.01.2020
1038 Clear -12 1018 35 16093 6.2 80 08:44 10.01.2020
1039 Clear -12 1018 35 16093 6.2 80 08:24 10.01.2020
1040 Clear -12 1018 35 16093 5.7 80 07:58 10.01.2020
1041 Clear -12 1018 35 16093 5.7 80 07:58 10.01.2020
1042 Clear -12 1018 35 16093 5.7 80 07:39 10.01.2020
1043 Clear -12 1018 35 16093 5.7 80 07:19 10.01.2020
1044 Clear -12 1017 35 16093 7.2 70 06:27 10.01.2020
1045 Clear -11 1018 33 16093 6.7 70 06:00 10.01.2020
1046 Clear -12 1017 35 16093 7.7 60 04:44 10.01.2020
1047 Clear -12 1017 35 16093 6.2 70 03:31 10.01.2020
1048 Clear -12 1017 35 16093 6.2 70 03:31 10.01.2020
1049 Clear -11 1017 36 16093 5.7 80 02:52 10.01.2020
1050 Clear -11 1017 36 16093 5.7 80 02:19 10.01.2020
1051 Clear -12 1017 39 16093 8.2 70 01:30 10.01.2020
1052 Clear -12 1017 39 0 6.7 60 00:51 10.01.2020
1053 Clear -12 1017 39 0 6.7 60 00:33 10.01.2020
1054 Clear -12 1017 39 16093 8.2 60 23:57 09.01.2020
1055 Clear -12 1017 39 16093 8.2 60 23:57 09.01.2020
1056 Clear -12 1017 39 16093 8.2 60 23:36 09.01.2020
1057 Clear -12 1017 39 16093 8.2 60 23:18 09.01.2020
1058 Clear -12 1017 35 16093 6.7 70 22:56 09.01.2020
1059 Clear -12 1017 35 16093 6.7 70 22:37 09.01.2020
1060 Clear -12 1017 35 16093 6.7 70 22:18 09.01.2020
1061 Clear -12 1017 39 16093 5.7 70 21:54 09.01.2020
1062 Clear -12 1017 39 16093 5.7 70 21:36 09.01.2020
1063 Clear -12 1017 39 16093 5.7 70 21:18 09.01.2020
1064 Clear -13 1017 42 16093 5.7 60 20:54 09.01.2020
1065 Clear -13 1017 42 16093 5.7 60 20:36 09.01.2020
1066 Clear -13 1017 42 16093 5.7 60 20:18 09.01.2020
1067 Clear -12 1016 39 16093 8.2 60 19:39 09.01.2020
1068 Clear -12 1016 39 16093 8.2 60 19:20 09.01.2020
1069 Clear -12 1017 43 16093 9.8 70 18:57 09.01.2020
1070 Clear -12 1017 43 16093 9.8 70 18:39 09.01.2020
1071 Clear -12 1017 43 16093 9.8 70 18:20 09.01.2020
1072 Clear -12 1017 43 16093 8.2 70 17:41 09.01.2020
1073 Clear -12 1017 43 16093 8.2 70 17:19 09.01.2020
1074 Clear -12 1018 43 16093 7.2 60 16:59 09.01.2020
1075 Clear -12 1018 43 16093 7.2 60 16:41 09.01.2020
1076 Clear -12 1018 43 16093 7.2 60 16:21 09.01.2020
1077 Clear -13 1018 42 16093 5.7 40 15:43 09.01.2020
1078 Clear -13 1018 42 16093 5.7 40 15:23 09.01.2020
1079 Clear -12 1018 39 16093 7.2 60 14:58 09.01.2020
1080 Clear -12 1018 39 16093 7.2 60 14:40 09.01.2020
1081 Clear -12 1018 39 16093 7.2 60 14:19 09.01.2020
1082 Clear -13 1019 42 16093 4.1 60 13:55 09.01.2020
1083 Clear -13 1019 42 16093 4.1 60 13:37 09.01.2020
1084 Clear -13 1019 42 16093 4.1 60 13:18 09.01.2020
1085 Clear -14 1020 42 16093 3.6 60 12:55 09.01.2020
1086 Clear -14 1020 42 16093 3.6 60 12:37 09.01.2020
1087 Clear -14 1020 42 16093 3.6 60 12:18 09.01.2020
1088 Clear -17 1021 54 16093 5.1 40 11:42 09.01.2020
1089 Clear -17 1021 54 16093 5.1 40 11:24 09.01.2020
1090 Clear -17 1021 54 16093 5.1 40 11:24 09.01.2020
1091 Clear -17 1021 54 16093 5.1 40 11:24 09.01.2020
1092 Clear -18 1021 54 16093 5.7 40 10:58 09.01.2020
1093 Clear -18 1021 54 16093 5.7 40 10:39 09.01.2020
1094 Clear -18 1021 54 16093 5.7 40 10:21 09.01.2020
1095 Clear -17 1022 54 16093 4.6 40 09:45 09.01.2020
1096 Clear -17 1022 54 16093 4.6 40 09:23 09.01.2020
1097 Clear -17 1022 54 16093 5.7 40 08:57 09.01.2020
1098 Clear -18 1022 54 16093 5.7 40 08:38 09.01.2020
1099 Clear -18 1022 54 16093 5.7 40 08:20 09.01.2020
1100 Clear -19 1022 53 16093 3.6 10 07:47 09.01.2020
1101 Clear -18 1022 53 16093 3.6 10 07:28 09.01.2020
1102 Clear -19 1023 58 16093 2.6 30 06:40 09.01.2020
1103 Clear -19 1023 58 16093 2.6 30 06:22 09.01.2020
1104 Clear -19 1023 58 16093 3.6 30 05:51 09.01.2020
1105 Clear -19 1023 58 16093 3.6 30 05:20 09.01.2020
1106 Clear -19 1023 58 16093 4.6 40 04:39 09.01.2020
1107 Clear -20 1024 63 16093 3.6 360 03:27 09.01.2020
1108 Clear -20 1025 63 16093 3.6 20 02:46 09.01.2020
1109 Clear -22 1025 69 16093 3.6 40 01:42 09.01.2020
1110 Clear -25 1026 75 16093 3.1 360 00:59 09.01.2020
1111 Clear -25 1026 75 16093 3.1 360 00:37 09.01.2020
1112 Clear -26 1026 75 16093 3.1 360 00:19 09.01.2020
1113 Clear -26 1025 68 16093 1.5 340 23:39 08.01.2020
1114 Clear -26 1025 68 16093 1.5 340 23:20 08.01.2020
1115 Clear -27 1026 68 16093 1.99 51 22:41 08.01.2020
1116 Clear -27 1026 68 16093 1.99 51 22:23 08.01.2020
1117 Clear -25 1026 62 16093 1.99 51 21:59 08.01.2020
1118 Clear -27 1026 62 16093 1.99 51 21:40 08.01.2020
1119 Clear -27 1026 62 16093 1.99 51 21:21 08.01.2020
1120 Clear -28 1026 75 16093 1.99 51 20:59 08.01.2020
1121 Clear -28 1026 75 16093 1.99 51 20:59 08.01.2020
1122 Clear -28 1026 75 16093 1.99 51 20:41 08.01.2020
1123 Clear -27 1026 75 16093 1.62 60 20:21 08.01.2020
1124 Clear -28 1026 68 16093 2.6 40 19:58 08.01.2020
1125 Clear -28 1026 68 16093 2.6 40 19:38 08.01.2020
1126 Clear -28 1026 68 16093 2.6 40 19:19 08.01.2020
1127 Clear -28 1026 75 16093 2.1 20 18:58 08.01.2020
1128 Clear -28 1026 75 16093 2.1 20 18:39 08.01.2020
1129 Clear -28 1026 75 16093 2.1 20 18:19 08.01.2020
1130 Clear -28 1026 75 16093 1.37 64 17:57 08.01.2020
1131 Clear -28 1026 75 16093 1.37 64 17:38 08.01.2020
1132 Clear -27 1026 75 16093 0.58 9 17:19 08.01.2020
1133 Clear -28 1026 75 16093 0.58 9 16:56 08.01.2020
1134 Clear -28 1026 75 16093 0.58 9 16:38 08.01.2020
1135 Clear -28 1026 75 16093 0.58 9 16:18 08.01.2020
1136 Clear -28 1026 68 16093 0.58 9 15:44 08.01.2020
1137 Clear -27 1026 68 16093 0.58 9 15:21 08.01.2020
1138 Clear -28 1026 75 16093 0.58 9 14:58 08.01.2020
1139 Clear -28 1026 75 16093 0.58 9 14:40 08.01.2020
1140 Clear -28 1026 75 16093 0.58 9 14:40 08.01.2020
1141 Clear -28 1026 75 16093 0.58 9 14:40 08.01.2020
1142 Clear -28 1026 75 16093 0.71 336 14:21 08.01.2020
1143 Clear -28 1026 68 16093 0.71 336 13:41 08.01.2020
1144 Clear -28 1026 68 16093 0.52 6 13:22 08.01.2020
1145 Clear -28 1026 68 16093 0.52 6 13:22 08.01.2020
1146 Clear -28 1026 75 16093 0.52 6 12:55 08.01.2020
1147 Clear -28 1026 75 16093 0.52 6 12:37 08.01.2020
1148 Clear -28 1026 75 16093 0.52 6 12:18 08.01.2020
1149 Clear -28 1026 75 16093 0.52 6 11:48 08.01.2020
1150 Clear -28 1026 75 16093 0.52 6 11:48 08.01.2020
1151 Clear -28 1026 75 16093 1.36 34 11:19 08.01.2020
1152 Clear -29 1025 75 16093 1.5 20 10:59 08.01.2020
1153 Clear -29 1025 75 16093 1.5 20 10:59 08.01.2020
1154 Clear -29 1025 75 16093 1.5 20 10:40 08.01.2020
1155 Clear -28 1025 75 16093 1.5 20 10:21 08.01.2020
1156 Clear -28 1025 75 16093 1.5 20 10:21 08.01.2020
1157 Clear -26 1025 68 16093 1.36 34 09:43 08.01.2020
1158 Clear -28 1025 68 16093 1.36 34 09:20 08.01.2020
1159 Clear -28 1024 68 16093 2.1 10 08:59 08.01.2020
1160 Clear -28 1024 68 16093 2.1 10 08:41 08.01.2020
1161 Clear -27 1024 68 16093 2.1 10 08:22 08.01.2020
1162 Clear -28 1024 75 16093 1.5 360 07:58 08.01.2020
1163 Clear -28 1024 75 16093 1.5 360 07:39 08.01.2020
1164 Clear -28 1024 75 16093 1.5 360 07:18 08.01.2020
1165 Clear -28 1024 75 16093 1.49 25 06:41 08.01.2020
1166 Clear -28 1024 75 16093 1.49 25 05:56 08.01.2020
1167 Clear -28 1024 75 16093 1.49 25 05:26 08.01.2020
1168 Clear -26 1024 75 16093 1.5 20 04:36 08.01.2020
1169 Clear -26 1024 82 16093 0.75 348 02:46 08.01.2020
1170 Clear -26 1024 82 16093 0.75 348 02:28 08.01.2020
1171 Clear -26 1024 75 16093 0.92 330 01:57 08.01.2020
1172 Clear -26 1024 75 16093 0.92 330 01:32 08.01.2020
1173 Clear -27 1024 75 16093 0.96 339 00:51 08.01.2020
1174 Clear -27 1024 75 16093 0.96 339 00:22 08.01.2020
1175 Snow -27 1023 68 402 1.5 350 23:46 07.01.2020
1176 Snow -27 1023 68 402 1.5 350 23:21 07.01.2020
1177 Clear -28 1024 75 16093 1.5 10 22:56 07.01.2020
1178 Clear -29 1024 75 16093 1.5 10 22:37 07.01.2020
1179 Clear -29 1024 75 16093 1.5 10 22:18 07.01.2020
1180 Clear -28 1024 75 16093 1.06 21 21:42 07.01.2020
1181 Clear -28 1024 75 16093 1.06 21 21:22 07.01.2020
1182 Clear -28 1023 75 16093 1.06 21 20:58 07.01.2020
1183 Clear -28 1023 75 16093 1.06 21 20:58 07.01.2020
1184 Clear -28 1023 75 16093 1.06 21 20:39 07.01.2020
1185 Clear -28 1023 75 16093 1.21 38 20:21 07.01.2020
1186 Clear -26 1024 82 16093 1.21 38 19:57 07.01.2020
1187 Clear -26 1024 82 16093 1.21 38 19:37 07.01.2020
1188 Clear -26 1024 82 16093 1.21 38 19:19 07.01.2020
1189 Clear -26 1024 82 16093 1.5 40 18:56 07.01.2020
1190 Clear -26 1024 82 16093 1.5 40 18:38 07.01.2020
1191 Clear -26 1024 82 16093 1.5 40 18:18 07.01.2020
1192 Clear -26 1024 75 16093 1.21 38 17:54 07.01.2020
1193 Clear -26 1024 75 16093 1.21 38 17:36 07.01.2020
1194 Clear -25 1024 75 16093 0.77 56 17:18 07.01.2020
1195 Clear -26 1024 75 16093 0.77 56 16:54 07.01.2020
1196 Clear -26 1024 75 16093 0.77 56 16:36 07.01.2020
1197 Clear -26 1024 75 16093 0.77 56 16:18 07.01.2020
1198 Clear -26 1024 75 16093 0.77 56 16:18 07.01.2020
1199 Clear -26 1024 75 16093 1.5 360 15:42 07.01.2020
1200 Clear -26 1024 75 16093 1.5 360 15:23 07.01.2020
1201 Clear -23 1024 69 16093 3.6 30 14:58 07.01.2020
1202 Clear -23 1024 69 16093 3.6 30 14:38 07.01.2020
1203 Clear -23 1024 69 16093 3.6 30 14:19 07.01.2020
1204 Clear -23 1024 69 16093 3.6 30 14:19 07.01.2020
1205 Clouds -26 1024 83 16093 1.5 10 13:46 07.01.2020
1206 Clouds -26 1024 83 16093 1.5 10 13:20 07.01.2020
1207 Clear -25 1024 75 16093 1.5 20 12:56 07.01.2020
1208 Clear -25 1024 75 16093 1.5 20 12:37 07.01.2020
1209 Clear -25 1024 75 16093 1.5 20 12:18 07.01.2020
1210 Clear -26 1024 75 16093 0.87 42 11:41 07.01.2020
1211 -273 0 0 0 0 0 11:22 07.01.2020
1212 Clear -25 1024 75 16093 2.1 50 10:56 07.01.2020
1213 Clear -25 1024 75 16093 2.1 50 10:37 07.01.2020
1214 Clear -25 1024 75 16093 2.1 50 10:37 07.01.2020
1215 Clear -25 1024 75 16093 2.1 50 10:19 07.01.2020
1216 Clear -27 1024 75 16093 1.5 360 09:39 07.01.2020
1217 Clear -27 1024 75 16093 1.5 360 09:21 07.01.2020
1218 Clear -26 1023 75 16093 1.43 8 08:57 07.01.2020
1219 Clear -26 1023 75 16093 1.43 8 08:38 07.01.2020
1220 Clear -26 1023 75 16093 1.09 16 08:18 07.01.2020
1221 Clouds -26 1023 75 16093 1.5 360 07:42 07.01.2020
1222 Clouds -26 1023 75 16093 1.5 360 07:18 07.01.2020
1223 Clouds -25 1023 75 16093 2.1 10 06:49 07.01.2020
1224 Clouds -25 1023 75 16093 2.1 10 06:29 07.01.2020
1225 Clouds -24 1023 76 16093 2.1 20 05:41 07.01.2020
1226 Clouds -22 1023 69 16093 0.95 16 03:47 07.01.2020
1227 Clouds -22 1023 69 16093 0.95 16 03:25 07.01.2020
1228 Clouds -24 1023 69 16093 1.5 360 02:19 07.01.2020
1229 Clouds -26 1023 75 16093 1.5 30 01:40 07.01.2020
1230 Clear -27 1023 82 16093 0.77 345 00:58 07.01.2020
1231 Clear -27 1023 82 16093 0.77 345 00:21 07.01.2020
1232 Clear -27 1023 82 16093 0.77 345 00:21 07.01.2020
1233 Clear -27 1023 82 16093 0.77 345 00:21 07.01.2020
1234 Clear -27 1023 68 16093 1.5 20 23:57 06.01.2020
1235 Clear -27 1023 68 16093 1.5 20 23:38 06.01.2020
1236 Clear -27 1023 68 16093 1.5 20 23:20 06.01.2020
1237 Clear -27 1023 75 14484 0.58 342 22:44 06.01.2020
1238 Clear -27 1023 75 14484 0.58 342 22:25 06.01.2020
1239 Clear -28 1022 75 16093 0.58 342 21:59 06.01.2020
1240 Clear -28 1022 75 16093 0.58 342 21:40 06.01.2020
1241 Clear -28 1022 75 16093 0.58 342 21:20 06.01.2020
1242 Clear -28 1022 75 16093 0.58 342 20:58 06.01.2020
1243 Clear -28 1022 75 16093 0.58 342 20:40 06.01.2020
1244 Clear -28 1022 75 16093 0.69 332 20:20 06.01.2020
1245 Clear -27 1022 75 16093 0.56 355 19:57 06.01.2020
1246 Clear -27 1022 75 16093 0.56 355 19:39 06.01.2020
1247 Clear -27 1022 75 16093 0.56 355 19:39 06.01.2020
1248 Clear -27 1022 75 16093 0.56 355 19:20 06.01.2020
1249 Clear -28 1021 75 16093 0.56 355 18:48 06.01.2020
1250 Clear -28 1021 75 16093 0.56 355 18:25 06.01.2020
1251 Clear -28 1021 75 16093 0.56 355 17:59 06.01.2020
1252 Clear -28 1021 75 16093 0.56 355 17:39 06.01.2020
1253 Clear -28 1021 75 16093 0.8 339 17:19 06.01.2020
1254 Clear -27 1021 68 16093 0.8 339 16:55 06.01.2020
1255 Clear -27 1021 68 16093 0.8 339 16:36 06.01.2020
1256 Clear -27 1021 68 16093 0.8 339 16:18 06.01.2020
1257 Clear -27 1021 82 16093 0.8 339 15:42 06.01.2020
1258 Clear -27 1021 82 16093 0.8 339 15:20 06.01.2020
1259 Clear -27 1021 75 16093 0.8 339 14:59 06.01.2020
1260 Clear -27 1021 75 16093 0.8 339 14:40 06.01.2020
1261 Clear -27 1021 75 16093 0.85 357 14:20 06.01.2020
1262 Clear -25 1021 69 16093 1.5 360 13:57 06.01.2020
1263 Clear -25 1021 69 16093 1.5 360 13:37 06.01.2020
1264 Clear -25 1021 69 16093 1.5 360 13:19 06.01.2020
1265 Clear -27 1021 75 16093 0.69 353 12:43 06.01.2020
1266 Clear -27 1021 75 16093 0.69 353 12:21 06.01.2020
1267 Clear -27 1020 68 16093 0.69 353 11:58 06.01.2020
1268 Clear -27 1020 68 16093 0.69 353 11:39 06.01.2020
1269 Clear -27 1020 68 16093 0.83 16 11:21 06.01.2020
1270 Clear -27 1020 68 16093 0.83 16 10:54 06.01.2020
1271 Clear -27 1020 68 16093 0.83 16 10:36 06.01.2020
1272 Clear -27 1020 68 16093 0.83 16 10:18 06.01.2020
1273 Clear -26 1020 75 16093 0.83 16 09:37 06.01.2020
1274 Clear -26 1020 75 16093 0.83 16 09:19 06.01.2020
1275 Clear -26 1019 75 16093 0.83 16 08:43 06.01.2020
1276 Clear -26 1019 75 16093 0.83 16 08:25 06.01.2020
1277 Clear -26 1019 68 16093 1.06 50 07:51 06.01.2020
1278 Clear -26 1019 68 16093 1.06 50 07:28 06.01.2020
1279 Clear -26 1019 75 16093 1.06 50 06:45 06.01.2020
1280 Clear -26 1019 75 16093 1.06 50 06:19 06.01.2020
1281 Clouds -26 1018 75 16093 1.06 50 05:42 06.01.2020
1282 Clouds -24 1018 69 16093 0.92 52 04:37 06.01.2020
1283 Clouds -24 1018 69 16093 0.92 52 04:18 06.01.2020
1284 Clear -23 1018 63 16093 0.92 52 02:46 06.01.2020
1285 Clear -23 1018 63 16093 0.92 52 02:23 06.01.2020
1286 Clear -23 1018 63 16093 2.1 20 01:44 06.01.2020
1287 Clear -23 1018 63 16093 2.1 20 01:24 06.01.2020
1288 Clear -25 1017 69 16093 1.06 72 00:41 06.01.2020
1289 Clear -25 1017 69 16093 1.06 72 00:20 06.01.2020
1290 Clear -25 1017 69 16093 1.06 72 23:41 05.01.2020
1291 Clear -25 1017 69 16093 1.06 72 23:22 05.01.2020
1292 Clear -27 1017 82 16093 1.76 43 22:56 05.01.2020
1293 Clear -27 1017 82 16093 1.76 43 22:38 05.01.2020
1294 Clear -27 1017 82 16093 1.76 43 22:19 05.01.2020
1295 Clear -26 1016 75 16093 1.5 50 21:54 05.01.2020
1296 Clear -26 1016 75 16093 1.5 50 21:36 05.01.2020
1297 Clear -26 1016 75 16093 1.5 50 21:18 05.01.2020
1298 Clear -27 1016 82 16093 1.76 43 20:55 05.01.2020
1299 Clear -27 1016 82 16093 1.19 53 20:36 05.01.2020
1300 Clear -27 1016 82 16093 1.23 20 20:18 05.01.2020
1301 Clear -25 1016 69 16093 1.5 10 19:56 05.01.2020
1302 Clear -25 1016 69 16093 1.5 10 19:37 05.01.2020
1303 Clear -25 1016 69 16093 1.5 10 19:18 05.01.2020
1304 Clear -23 1016 63 16093 1.23 20 18:54 05.01.2020
1305 Clear -23 1016 63 16093 1.23 20 18:36 05.01.2020
1306 Clear -23 1016 63 16093 1.23 20 18:18 05.01.2020
1307 Clear -22 1015 63 16093 1.23 20 17:55 05.01.2020
1308 Clear -22 1015 63 16093 1.23 20 17:37 05.01.2020
1309 Clear -22 1015 63 16093 1.78 29 17:18 05.01.2020
1310 Clear -23 1015 63 16093 3.6 360 16:54 05.01.2020
1311 Clear -23 1015 63 16093 3.6 360 16:36 05.01.2020
1312 Clear -23 1015 63 16093 3.6 360 16:18 05.01.2020
1313 Clear -22 1016 63 16093 2.1 20 15:36 05.01.2020
1314 Clear -22 1016 63 16093 2.1 20 15:18 05.01.2020
1315 Clear -21 1016 63 16093 2.6 30 14:54 05.01.2020
1316 Clear -21 1016 63 16093 2.6 30 14:36 05.01.2020
1317 Clear -21 1016 63 16093 2.6 30 14:18 05.01.2020
1318 Clear -20 1015 58 16093 3.1 30 13:39 05.01.2020
1319 Clear -20 1015 58 16093 3.1 30 13:21 05.01.2020
1320 Clouds -19 1016 64 16093 3.6 30 12:57 05.01.2020
1321 Clouds -19 1016 64 16093 3.6 30 12:57 05.01.2020
1322 Clouds -19 1016 64 16093 3.6 30 12:39 05.01.2020
1323 Clouds -19 1016 64 16093 3.6 30 12:39 05.01.2020
1324 Clouds -19 1016 64 16093 3.6 30 12:21 05.01.2020
1325 Clouds -19 1016 64 16093 3.6 30 12:21 05.01.2020
1326 Clouds -19 1015 64 16093 2.1 10 11:55 05.01.2020
1327 Clouds -19 1015 64 16093 2.1 10 11:37 05.01.2020
1328 Clouds -19 1015 64 16093 2.1 10 11:19 05.01.2020
1329 Clear -19 1015 64 16093 2.1 70 10:55 05.01.2020
1330 Clear -19 1015 64 16093 2.1 70 10:36 05.01.2020
1331 Clear -19 1015 64 16093 2.1 70 10:18 05.01.2020
1332 Clouds -19 1015 64 16093 2.6 60 09:41 05.01.2020
1333 Clouds -19 1015 64 16093 2.6 60 09:41 05.01.2020
1334 Clouds -19 1015 64 16093 2.6 60 09:21 05.01.2020
1335 Clear -18 1014 59 16093 4.1 70 08:45 05.01.2020
1336 Clear -18 1014 59 16093 4.1 70 08:26 05.01.2020
1337 Clouds -17 1014 64 16093 2.1 70 07:55 05.01.2020
1338 Clouds -17 1014 64 16093 2.1 70 07:32 05.01.2020
1339 Clouds -18 1014 64 16093 1.5 20 06:57 05.01.2020
1340 Clouds -17 1014 64 16093 2.6 50 05:55 05.01.2020
1341 Clouds -17 1014 64 16093 2.6 50 05:28 05.01.2020
1342 Clouds -17 1014 64 16093 1.5 70 04:24 05.01.2020
1343 Clouds -16 1014 59 16093 3.1 30 03:47 05.01.2020
1344 Clouds -16 1014 59 16093 1.5 60 02:43 05.01.2020
1345 Clouds -16 1014 59 16093 1.5 60 02:20 05.01.2020
1346 Clouds -16 1014 59 16093 2.1 40 01:40 05.01.2020
1347 Clouds -16 1014 59 16093 2.1 40 01:18 05.01.2020
1348 Clouds -17 1013 70 16093 2.1 360 00:41 05.01.2020
1349 Clouds -17 1013 70 16093 2.1 360 00:22 05.01.2020
1350 Clouds -17 1013 70 16093 1.27 45 23:59 04.01.2020
1351 Clouds -17 1013 70 16093 1.27 45 23:39 04.01.2020
1352 Clouds -17 1013 70 16093 1.65 23 23:19 04.01.2020
1353 Clouds -17 1013 64 16093 2.6 40 22:39 04.01.2020
1354 Clouds -17 1013 64 16093 2.6 40 22:21 04.01.2020
1355 Clouds -17 1013 64 16093 2.1 30 21:57 04.01.2020
1356 Clouds -17 1013 64 16093 2.1 30 21:38 04.01.2020
1357 Clouds -17 1013 64 16093 2.1 30 21:19 04.01.2020
1358 Clouds -17 1013 64 16093 1.65 23 20:57 04.01.2020
1359 Clouds -17 1013 64 16093 1.65 23 20:38 04.01.2020
1360 Clouds -17 1013 64 16093 2.11 50 20:19 04.01.2020
1361 Snow -17 1013 70 14484 2.1 40 19:42 04.01.2020
1362 Snow -17 1013 70 14484 2.1 40 19:42 04.01.2020
1363 Snow -17 1013 70 14484 2.1 40 19:24 04.01.2020
1364 Haze -17 1012 77 8047 1.5 10 18:58 04.01.2020
1365 Haze -17 1012 77 8047 1.5 10 18:39 04.01.2020
1366 Haze -17 1012 77 8047 1.5 10 18:21 04.01.2020
1367 Snow -17 1012 64 8047 2.11 50 17:58 04.01.2020
1368 Snow -17 1012 64 8047 2.11 50 17:40 04.01.2020
1369 -273 0 0 0 0 0 17:22 04.01.2020
1370 Clouds -17 1012 64 16093 1.5 10 16:42 04.01.2020
1371 Clouds -17 1012 64 16093 1.5 10 16:24 04.01.2020
1372 Clouds -17 1012 59 16093 3.1 40 15:59 04.01.2020
1373 Clouds -17 1012 59 16093 3.1 40 15:59 04.01.2020
1374 Clouds -17 1012 59 16093 3.1 40 15:41 04.01.2020
1375 Clouds -17 1012 59 16093 3.1 40 15:19 04.01.2020
1376 Clouds -17 1011 59 16093 2.6 70 14:58 04.01.2020
1377 Clouds -17 1011 59 16093 2.6 70 14:58 04.01.2020
1378 Clouds -17 1011 59 16093 2.6 70 14:39 04.01.2020
1379 Clouds -17 1011 59 16093 2.6 70 14:19 04.01.2020
1380 Clouds -17 1011 64 16093 1.5 360 13:56 04.01.2020
1381 Clouds -17 1011 64 16093 1.5 360 13:37 04.01.2020
1382 Clouds -17 1011 64 16093 1.5 360 13:18 04.01.2020
1383 Clouds -17 1011 64 16093 1.5 360 13:18 04.01.2020
1384 Clouds -17 1011 64 16093 3.6 50 12:42 04.01.2020
1385 Clouds -17 1011 64 16093 3.6 50 12:20 04.01.2020
1386 Clouds -17 1011 64 16093 3.6 50 12:20 04.01.2020
1387 Clouds -17 1011 64 16093 2.6 40 11:59 04.01.2020
1388 Clouds -17 1011 64 16093 2.6 40 11:40 04.01.2020
1389 Clouds -17 1011 64 16093 2.6 40 11:19 04.01.2020
1390 Clouds -17 1011 64 16093 2.15 36 10:55 04.01.2020
1391 Clouds -17 1011 64 16093 2.15 36 10:37 04.01.2020
1392 Clouds -17 1011 64 16093 2.15 36 10:19 04.01.2020
1393 Clouds -17 1011 64 16093 1.5 350 09:42 04.01.2020
1394 Clouds -17 1011 64 16093 1.5 350 09:23 04.01.2020
1395 Clouds -18 1011 70 16093 2.15 36 08:42 04.01.2020
1396 Clouds -18 1011 70 16093 1.91 33 08:21 04.01.2020
1397 Clouds -18 1011 64 16093 2.6 340 07:44 04.01.2020
1398 Clouds -18 1011 64 16093 2.6 340 07:26 04.01.2020
1399 Clouds -21 1011 76 16093 1.91 33 06:36 04.01.2020
1400 Clouds -22 1011 83 16093 1.91 33 05:45 04.01.2020
1401 Clouds -22 1011 76 16093 2.67 19 04:44 04.01.2020
1402 Clouds -22 1011 76 16093 2.67 19 04:26 04.01.2020
1403 Clouds -21 1011 70 16093 2.67 19 03:19 04.01.2020
1404 Clouds -20 1011 64 16093 2.6 10 02:23 04.01.2020
1405 Clear -19 1011 64 16093 3.1 10 01:57 04.01.2020
1406 Clear -19 1011 64 16093 3.1 10 01:32 04.01.2020
1407 Clear -19 1011 64 16093 3.1 10 01:32 04.01.2020
1408 Clear -20 1012 70 16093 3.1 350 00:56 04.01.2020
1409 Clear -20 1012 70 16093 3.1 350 00:28 04.01.2020
1410 Clear -19 1012 64 16093 2.6 10 23:52 03.01.2020
1411 Clear -19 1012 64 16093 2.6 10 23:27 03.01.2020
1412 Clouds -22 1013 90 0 2.87 14 22:55 03.01.2020
1413 Clouds -22 1013 90 0 2.87 14 22:37 03.01.2020
1414 Clouds -19 1012 70 16093 2.87 14 22:18 03.01.2020
1415 Clouds -19 1012 70 16093 2.87 14 21:56 03.01.2020
1416 Clouds -19 1012 70 16093 2.87 14 21:37 03.01.2020
1417 Clouds -19 1012 70 16093 2.87 14 21:18 03.01.2020
1418 Clear -18 1012 70 16093 2.1 340 20:43 03.01.2020
1419 Clear -18 1012 70 16093 2.1 340 20:19 03.01.2020
1420 Clear -19 1012 70 16093 2.6 20 19:59 03.01.2020
1421 Clear -19 1012 70 16093 2.6 20 19:41 03.01.2020
1422 Clear -19 1012 70 16093 2.6 20 19:22 03.01.2020
1423 Clear -20 1012 70 16093 3.6 340 18:46 03.01.2020
1424 Clear -20 1012 70 16093 3.6 340 18:26 03.01.2020
1425 Clouds -18 1012 64 16093 4.6 350 17:58 03.01.2020
1426 Clouds -18 1012 64 16093 4.6 350 17:39 03.01.2020
1427 Clouds -18 1012 64 16093 4.6 350 17:21 03.01.2020
1428 Clear -18 1012 64 16093 3.6 360 16:43 03.01.2020
1429 Clear -18 1012 64 16093 3.6 360 16:24 03.01.2020
1430 Clear -18 1012 70 16093 3.6 350 15:59 03.01.2020
1431 Clear -18 1012 70 16093 3.6 350 15:41 03.01.2020
1432 Clear -18 1012 70 16093 3.6 350 15:19 03.01.2020
1433 Clear -18 1012 70 16093 3.6 350 15:19 03.01.2020
1434 Clear -17 1013 70 16093 2.1 340 14:39 03.01.2020
1435 Clear -17 1013 70 16093 2.1 340 14:20 03.01.2020
1436 Clear -16 1013 65 16093 2.6 20 13:57 03.01.2020
1437 Clear -16 1013 65 16093 2.6 20 13:38 03.01.2020
1438 Clear -16 1013 65 16093 2.6 20 13:20 03.01.2020
1439 Clouds -17 1013 70 16093 3.6 350 12:40 03.01.2020
1440 Clouds -17 1013 70 16093 3.6 350 12:22 03.01.2020
1441 Clear -16 1013 65 16093 4.6 350 11:49 03.01.2020
1442 Clear -16 1013 65 16093 4.6 350 11:31 03.01.2020
1443 Clear -17 1013 64 16093 3.1 360 10:57 03.01.2020
1444 Clear -17 1013 64 16093 3.1 360 10:38 03.01.2020
1445 Clear -17 1013 64 16093 3.1 360 10:20 03.01.2020
1446 Clouds -16 1013 71 14484 5.1 30 09:41 03.01.2020
1447 Clouds -16 1013 71 14484 5.1 30 09:23 03.01.2020
1448 Clouds -16 1013 77 12874 3.1 10 08:57 03.01.2020
1449 Clouds -16 1013 77 12874 3.1 10 08:39 03.01.2020
1450 Clouds -16 1013 77 12874 3.1 10 08:21 03.01.2020
1451 Rain -16 1013 84 4828 3.1 20 07:42 03.01.2020
1452 Rain -16 1013 84 4828 3.1 20 07:19 03.01.2020
1453 Rain -15 1012 71 3219 3.6 40 06:57 03.01.2020
1454 Rain -15 1012 71 3219 3.6 40 06:37 03.01.2020
1455 Rain -15 1012 71 3219 3.6 40 06:18 03.01.2020
1456 Snow -14 1012 71 9656 3.1 30 04:43 03.01.2020
1457 Snow -14 1012 65 14484 5.1 10 03:37 03.01.2020
1458 Snow -14 1012 65 14484 4.6 20 02:50 03.01.2020
1459 Snow -14 1012 65 14484 2.6 10 01:48 03.01.2020
1460 Snow -14 1012 65 14484 1.5 20 00:57 03.01.2020
1461 Snow -14 1012 65 14484 1.5 20 00:33 03.01.2020
1462 Snow -14 1012 65 12874 4.1 360 23:58 02.01.2020
1463 Snow -14 1012 65 12874 4.1 360 23:39 02.01.2020
1464 Snow -14 1012 65 12874 4.1 360 23:39 02.01.2020
1465 Snow -14 1012 65 12874 4.1 360 23:20 02.01.2020
1466 Snow -14 1011 65 14484 5.1 360 22:58 02.01.2020
1467 Snow -14 1011 65 14484 5.1 360 22:39 02.01.2020
1468 Snow -14 1011 65 14484 5.1 360 22:19 02.01.2020
1469 Snow -14 1011 65 14484 6.2 10 21:55 02.01.2020
1470 Snow -14 1011 65 14484 6.2 10 21:36 02.01.2020
1471 Snow -14 1011 65 14484 6.2 10 21:18 02.01.2020
1472 Snow -14 1010 65 16093 5.1 350 20:55 02.01.2020
1473 Snow -14 1010 65 16093 5.1 350 20:36 02.01.2020
1474 Snow -14 1010 65 16093 5.1 350 20:18 02.01.2020
1475 Clouds -14 1010 65 16093 4.6 360 19:54 02.01.2020
1476 Clouds -14 1010 65 16093 4.6 360 19:36 02.01.2020
1477 Clouds -14 1010 65 16093 4.6 360 19:36 02.01.2020
1478 Clouds -14 1010 65 16093 4.6 360 19:18 02.01.2020
1479 Clouds -14 1009 65 16093 5.7 10 18:42 02.01.2020
1480 Clouds -14 1009 65 16093 5.7 10 18:23 02.01.2020
1481 Clouds -14 1009 65 16093 5.1 350 17:58 02.01.2020
1482 Clouds -14 1009 65 16093 5.1 350 17:38 02.01.2020
1483 Clouds -14 1009 65 16093 5.1 350 17:19 02.01.2020
1484 Clouds -14 1008 65 16093 5.7 360 16:58 02.01.2020
1485 Clouds -14 1008 65 16093 5.7 360 16:40 02.01.2020
1486 Clouds -14 1008 65 16093 5.7 360 16:20 02.01.2020
1487 Haze -16 1007 77 8047 8.2 360 15:57 02.01.2020
1488 Haze -16 1007 77 8047 8.2 360 15:57 02.01.2020
1489 Haze -16 1007 77 8047 8.2 360 15:39 02.01.2020
1490 Haze -16 1007 77 8047 8.2 360 15:19 02.01.2020
1491 Haze -16 1007 71 8047 8.2 350 14:55 02.01.2020
1492 Haze -16 1007 71 8047 8.2 350 14:55 02.01.2020
1493 Haze -16 1007 71 8047 8.2 350 14:36 02.01.2020
1494 Haze -16 1007 71 8047 8.2 350 14:18 02.01.2020
1495 Snow -16 1007 71 8047 4.1 360 13:47 02.01.2020
1496 Snow -16 1007 71 8047 4.1 360 13:29 02.01.2020
1497 Snow -16 1007 77 4828 5.7 340 12:45 02.01.2020
1498 Snow -16 1006 71 2012 8.2 10 12:25 02.01.2020
1499 Snow -16 1006 71 2012 8.2 10 11:57 02.01.2020
1500 Snow -16 1006 71 2012 8.2 10 11:37 02.01.2020
1501 Snow -16 1006 71 2012 8.2 10 11:19 02.01.2020
1502 Clouds -16 1005 65 16093 8.2 10 10:43 02.01.2020
1503 Clouds -16 1005 65 16093 8.2 10 10:25 02.01.2020
1504 Clouds -16 1005 59 16093 4.1 360 09:46 02.01.2020
1505 Clouds -16 1005 59 16093 4.1 360 09:28 02.01.2020
1506 Clouds -16 1004 65 16093 4.6 10 08:45 02.01.2020
1507 Clouds -16 1004 65 16093 4.6 10 08:27 02.01.2020
1508 Clouds -17 1004 70 16093 4.1 310 07:51 02.01.2020
1509 Clouds -17 1004 70 16093 4.1 310 07:30 02.01.2020
1510 Snow -17 1003 70 6437 4.6 30 06:45 02.01.2020
1511 Snow -17 1003 70 6437 4.6 30 06:26 02.01.2020
1512 Snow -17 1002 70 2816 7.7 340 05:21 02.01.2020
1513 Snow -18 1002 77 8047 5.7 340 04:31 02.01.2020
1514 Snow -18 1001 70 2414 10.3 360 02:37 02.01.2020
1515 Snow -18 1001 64 4828 9.3 10 01:59 02.01.2020
1516 Snow -18 1001 64 4828 9.3 10 01:37 02.01.2020
1517 Clouds -19 1000 64 9656 13.4 360 00:57 02.01.2020
1518 Clouds -19 1000 64 9656 13.4 360 00:33 02.01.2020
1519 Clouds -19 1000 58 9656 13.9 360 23:52 01.01.2020
1520 Clouds -19 1000 58 9656 13.9 360 23:28 01.01.2020
1521 Clouds -19 1000 53 9656 14.9 350 22:59 01.01.2020
1522 Clouds -19 1000 53 9656 14.9 350 22:38 01.01.2020
1523 Clouds -19 1000 53 9656 14.9 350 22:19 01.01.2020
1524 Clouds -20 1000 58 14484 11.8 360 21:56 01.01.2020
1525 Clouds -20 1000 58 14484 11.8 360 21:37 01.01.2020
1526 Clouds -20 1000 58 14484 11.8 360 21:18 01.01.2020
1527 Clouds -21 1000 63 16093 14.4 350 20:54 01.01.2020
1528 Clouds -21 1000 63 16093 14.4 350 20:36 01.01.2020
1529 Clouds -21 1000 63 16093 14.4 350 20:18 01.01.2020
1530 Clouds -21 1000 58 16093 13.9 360 19:54 01.01.2020
1531 Clouds -21 1000 58 16093 13.9 360 19:54 01.01.2020
1532 Clouds -21 1000 58 16093 13.9 360 19:36 01.01.2020
1533 Clouds -21 1000 58 16093 13.9 360 19:18 01.01.2020
1534 Clear -21 1001 58 16093 8.2 350 18:54 01.01.2020
1535 Clear -21 1001 58 16093 8.2 350 18:36 01.01.2020
1536 Clear -21 1001 58 16093 8.2 350 18:18 01.01.2020
1537 Clouds -24 1005 87 0 5.14 313 17:55 01.01.2020
1538 Clouds -24 1005 87 0 5.14 313 17:36 01.01.2020
1539 Clouds -21 1001 58 16093 10.3 350 17:18 01.01.2020
1540 Clouds -21 1001 58 16093 10.3 350 16:39 01.01.2020
1541 Clouds -21 1001 58 16093 10.3 350 16:20 01.01.2020
1542 Haze -21 1001 58 9656 14.4 360 15:57 01.01.2020
1543 Haze -21 1001 58 9656 14.4 360 15:39 01.01.2020
1544 Haze -21 1001 58 9656 14.4 360 15:20 01.01.2020
1545 Clouds -21 1001 53 12874 12.9 360 14:56 01.01.2020
1546 Clouds -21 1001 53 12874 12.9 360 14:38 01.01.2020
1547 Clouds -21 1001 53 12874 12.9 360 14:20 01.01.2020
1548 Clouds -21 1002 58 16093 11.3 350 13:55 01.01.2020
1549 Clouds -21 1002 58 16093 11.3 350 13:37 01.01.2020
1550 Clouds -21 1002 58 16093 11.3 350 13:37 01.01.2020
1551 Clouds -21 1002 58 16093 11.3 350 13:18 01.01.2020
1552 Clouds -21 1002 58 12874 13.9 360 12:55 01.01.2020
1553 Clouds -21 1002 58 12874 13.9 360 12:37 01.01.2020
1554 Clouds -21 1002 58 12874 13.9 360 12:18 01.01.2020
1555 Haze -21 1002 63 4828 15.9 360 11:43 01.01.2020
1556 Haze -21 1002 63 4828 15.9 360 11:21 01.01.2020
1557 Clouds -21 1001 58 14484 8.7 340 10:58 01.01.2020
1558 Clouds -21 1001 58 14484 8.7 340 10:39 01.01.2020
1559 Clouds -21 1001 58 14484 8.7 340 10:20 01.01.2020
1560 Clouds -24 1005 89 0 7.94 308 09:55 01.01.2020
1561 Clouds -24 1005 89 0 7.94 308 09:36 01.01.2020
1562 Clouds -24 1005 89 0 7.94 308 09:36 01.01.2020
1563 Clouds -24 1005 89 0 7.94 308 09:18 01.01.2020
1564 Clouds -24 1005 89 0 7.94 308 08:54 01.01.2020
1565 Clouds -24 1005 89 0 7.94 308 08:36 01.01.2020
1566 Clouds -23 1005 88 0 7.84 315 08:18 01.01.2020
1567 Clouds -23 1005 87 0 8.85 316 07:43 01.01.2020
1568 Clouds -23 1005 87 0 8.85 316 07:24 01.01.2020
1569 Clouds -23 1005 87 0 8.85 316 06:44 01.01.2020
1570 Clouds -23 1005 87 0 8.85 316 06:19 01.01.2020
1571 Clouds -24 1004 89 0 7.79 309 04:38 01.01.2020
1572 Clouds -21 1001 58 16093 7.7 330 03:41 01.01.2020
1573 Clouds -24 1004 89 0 7.79 309 03:22 01.01.2020
1574 Clouds -24 1004 89 0 7.79 309 02:55 01.01.2020
1575 Clouds -24 1004 89 0 7.79 309 02:32 01.01.2020
1576 Clouds -22 1001 63 16093 9.8 350 01:45 01.01.2020
1577 Clouds -22 1001 63 16093 9.8 350 01:24 01.01.2020
1578 Clouds -22 1001 57 16093 7.2 340 00:57 01.01.2020
1579 Clouds -22 1001 57 16093 7.2 340 00:37 01.01.2020
1580 Clouds -22 1001 57 16093 7.2 340 00:19 01.01.2020
1581 Clouds -22 1001 57 16093 8.2 360 23:40 31.12.2019
1582 Clouds -22 1001 57 16093 8.2 360 23:21 31.12.2019
1583 Clouds -22 1001 63 16093 3.6 320 22:57 31.12.2019
1584 Clouds -22 1001 63 16093 3.6 320 22:38 31.12.2019
1585 Clouds -22 1001 63 16093 3.6 320 22:18 31.12.2019
1586 Clouds -22 1001 57 16093 1.5 150 21:54 31.12.2019
1587 Clouds -22 1001 57 16093 1.5 150 21:36 31.12.2019
1588 Clouds -22 1001 57 16093 1.5 150 21:18 31.12.2019
1589 Clear -22 1000 57 16093 3.6 330 20:40 31.12.2019
1590 Clear -22 1000 57 16093 3.6 330 20:21 31.12.2019
1591 Clear -22 1000 57 16093 3.1 290 19:59 31.12.2019
1592 Clear -22 1000 57 16093 3.1 290 19:40 31.12.2019
1593 Clear -22 1000 57 16093 3.1 290 19:22 31.12.2019
1594 Clear -22 1000 52 16093 5.7 350 18:57 31.12.2019
1595 Clear -22 1000 52 16093 5.7 350 18:39 31.12.2019
1596 Clear -22 1000 52 16093 5.7 350 18:19 31.12.2019
1597 Clear -23 999 57 16093 3.6 190 17:56 31.12.2019
1598 Clear -23 999 57 16093 3.6 190 17:37 31.12.2019
1599 Clear -23 999 57 16093 3.6 190 17:19 31.12.2019
1600 Clear -23 999 57 16093 3.6 190 17:19 31.12.2019
1601 Clear -22 998 52 16093 12.9 340 16:56 31.12.2019
1602 Clear -22 998 52 16093 12.9 340 16:37 31.12.2019
1603 Clear -22 998 52 16093 12.9 340 16:19 31.12.2019
1604 Clear -22 998 52 16093 6.7 330 15:56 31.12.2019
1605 Clear -22 998 52 16093 6.7 330 15:38 31.12.2019
1606 Clear -22 998 52 16093 6.7 330 15:20 31.12.2019
1607 Clear -22 998 52 16093 5.1 340 14:57 31.12.2019
1608 Clear -22 998 52 16093 5.1 340 14:38 31.12.2019
1609 Clear -22 998 52 16093 5.1 340 14:19 31.12.2019
1610 Clear -22 998 57 16093 9.3 360 13:56 31.12.2019
1611 Clear -22 998 57 16093 9.3 360 13:38 31.12.2019
1612 Clear -22 998 57 16093 9.3 360 13:20 31.12.2019
1613 Clear -22 997 52 16093 12.9 350 12:56 31.12.2019
1614 Clear -22 997 52 16093 12.9 350 12:56 31.12.2019
1615 Clear -22 997 52 16093 12.9 350 12:38 31.12.2019
1616 Clear -22 997 52 16093 12.9 350 12:19 31.12.2019
1617 Clear -22 997 52 16093 12.9 350 12:19 31.12.2019
1618 Haze -21 997 53 9656 13.9 350 11:56 31.12.2019
1619 Haze -21 997 53 9656 13.9 350 11:37 31.12.2019
1620 Haze -21 997 53 9656 13.9 350 11:19 31.12.2019
1621 Clear -22 996 57 11265 14.4 360 10:57 31.12.2019
1622 Clear -22 996 57 11265 14.4 360 10:57 31.12.2019
1623 Clear -22 996 57 11265 14.4 360 10:38 31.12.2019
1624 Clear -22 996 57 11265 14.4 360 10:19 31.12.2019
1625 Clear -22 996 57 8047 11.8 10 09:58 31.12.2019
1626 Clear -22 996 57 8047 11.8 10 09:39 31.12.2019
1627 Clear -22 996 57 8047 11.8 10 09:20 31.12.2019
1628 Clear -22 995 57 14484 14.9 360 08:57 31.12.2019
1629 Clear -22 995 57 14484 14.9 360 08:37 31.12.2019
1630 Clear -22 995 57 14484 14.9 360 08:18 31.12.2019
1631 Clear -22 995 57 16093 8.7 10 07:41 31.12.2019
1632 Clear -22 995 57 16093 8.7 10 07:19 31.12.2019
1633 Clear -22 994 57 16093 9.8 360 06:48 31.12.2019
1634 Clear -22 994 57 16093 7.2 350 05:54 31.12.2019
1635 Clear -22 993 57 16093 6.2 350 04:27 31.12.2019
1636 Clear -22 993 63 16093 7.7 350 03:27 31.12.2019
1637 Clear -21 992 58 12874 10.8 10 02:43 31.12.2019
1638 Clear -21 992 58 16093 8.7 350 01:55 31.12.2019
1639 Clear -21 992 58 16093 8.7 350 01:34 31.12.2019
1640 Clear -21 992 58 16093 10.3 10 00:58 31.12.2019
1641 Clear -21 992 58 16093 10.3 10 00:39 31.12.2019
1642 Clear -21 992 58 16093 10.3 10 00:21 31.12.2019
1643 Clear -21 991 58 16093 8.2 10 23:56 30.12.2019
1644 Clear -21 991 58 16093 8.2 10 23:37 30.12.2019
1645 Clear -21 991 58 16093 8.2 10 23:19 30.12.2019
1646 Clear -20 991 58 16093 7.2 10 22:56 30.12.2019
1647 Clear -20 991 58 16093 7.2 10 22:37 30.12.2019
1648 Clear -20 991 58 16093 7.2 10 22:37 30.12.2019
1649 Clear -20 991 58 16093 7.2 10 22:18 30.12.2019
1650 Clear -19 990 53 12874 11.3 20 21:56 30.12.2019
1651 Clear -19 990 53 12874 11.3 20 21:38 30.12.2019
1652 Clear -19 990 53 12874 11.3 20 21:18 30.12.2019
1653 Clear -19 990 64 8047 6.2 30 20:56 30.12.2019
1654 Clear -19 990 64 8047 6.2 30 20:37 30.12.2019
1655 Clear -19 990 64 8047 6.2 30 20:19 30.12.2019
1656 Clouds -19 988 70 8047 13.4 360 19:55 30.12.2019
1657 Clouds -19 988 70 8047 13.4 360 19:37 30.12.2019
1658 Clouds -19 988 70 8047 13.4 360 19:37 30.12.2019
1659 Clouds -19 988 70 8047 13.4 360 19:18 30.12.2019
1660 Clear -18 989 64 14484 7.7 10 18:56 30.12.2019
1661 Clear -18 989 64 14484 7.7 10 18:36 30.12.2019
1662 Clear -18 989 64 14484 7.7 10 18:18 30.12.2019
1663 Clear -17 988 59 16093 3.6 210 17:54 30.12.2019
1664 Clear -17 988 59 16093 3.6 210 17:36 30.12.2019
1665 Clear -17 988 59 16093 3.6 210 17:36 30.12.2019
1666 Clear -17 988 59 16093 3.6 210 17:18 30.12.2019
1667 Haze -17 988 64 6437 12.3 10 16:41 30.12.2019
1668 Haze -17 988 64 6437 12.3 10 16:41 30.12.2019
1669 Haze -17 988 64 6437 12.3 10 16:21 30.12.2019
1670 Clouds -16 988 54 16093 10.8 360 15:58 30.12.2019
1671 Clouds -16 988 54 16093 10.8 360 15:39 30.12.2019
1672 Clouds -16 988 54 16093 10.8 360 15:20 30.12.2019
1673 Clear -16 989 54 16093 7.7 20 14:56 30.12.2019
1674 Clear -16 989 54 16093 7.7 20 14:38 30.12.2019
1675 Clear -16 989 54 16093 7.7 20 14:18 30.12.2019
1676 Clear -16 990 59 16093 8.7 20 13:42 30.12.2019
1677 Clear -16 990 59 16093 8.7 20 13:24 30.12.2019
1678 Clear -16 990 59 16093 8.7 10 12:59 30.12.2019
1679 Clear -16 990 59 16093 8.7 10 12:41 30.12.2019
1680 Clear -16 990 59 16093 8.7 10 12:19 30.12.2019
1681 Clear -16 990 59 16093 6.7 360 11:58 30.12.2019
1682 Clear -16 990 59 16093 6.7 360 11:39 30.12.2019
1683 Clear -16 990 59 16093 6.7 360 11:18 30.12.2019
1684 Clouds -15 991 54 16093 7.2 320 10:43 30.12.2019
1685 Clouds -15 991 54 16093 7.2 320 10:21 30.12.2019
1686 Clear -16 991 54 16093 2.6 340 09:55 30.12.2019
1687 Clear -16 991 54 16093 2.6 340 09:37 30.12.2019
1688 Clear -16 991 54 16093 2.6 340 09:19 30.12.2019
1689 Clear -16 992 59 16093 6.7 360 08:49 30.12.2019
1690 Clear -16 992 59 16093 6.7 360 08:23 30.12.2019
1691 Clear -16 993 54 16093 6.7 340 07:55 30.12.2019
1692 Clear -16 993 54 16093 6.7 340 07:33 30.12.2019
1693 Clouds -16 993 45 16093 1.5 330 06:51 30.12.2019
1694 Clear -14 994 42 16093 1.5 20 04:56 30.12.2019
1695 Clear -15 995 50 16093 7.2 350 03:53 30.12.2019
1696 Clear -15 996 45 16093 5.1 340 02:56 30.12.2019
1697 Clear -15 996 45 16093 5.1 340 02:37 30.12.2019
1698 Clear -16 997 49 16093 5.1 20 01:50 30.12.2019
1699 Clear -16 997 49 16093 5.1 20 01:20 30.12.2019
1700 Clear -16 997 49 16093 4.6 330 00:44 30.12.2019
1701 Clear -16 997 49 16093 4.6 330 00:19 30.12.2019
1702 Clouds -16 998 49 16093 3.6 340 23:39 29.12.2019
1703 Clouds -16 998 49 16093 3.6 340 23:39 29.12.2019
1704 Clouds -16 998 49 16093 3.6 340 23:21 29.12.2019
1705 Clouds -16 999 49 16093 8.2 40 22:54 29.12.2019
1706 Clouds -16 999 49 16093 8.2 40 22:36 29.12.2019
1707 Clouds -16 999 49 16093 8.2 40 22:18 29.12.2019
1708 Clear -16 999 54 16093 11.3 30 21:42 29.12.2019
1709 Clear -16 999 54 16093 11.3 30 21:21 29.12.2019
1710 Clear -17 1000 54 16093 9.3 30 20:57 29.12.2019
1711 Clear -17 1000 54 16093 9.3 30 20:39 29.12.2019
1712 Clear -17 1000 54 16093 9.3 30 20:20 29.12.2019
1713 Clear -17 1000 54 16093 9.3 30 20:20 29.12.2019
1714 Clear -17 1000 54 16093 9.3 30 19:59 29.12.2019
1715 Clear -17 1000 54 16093 9.3 30 19:40 29.12.2019
1716 Clear -17 1000 54 16093 9.3 30 19:21 29.12.2019
1717 Clouds -17 1000 54 16093 11.3 40 18:58 29.12.2019
1718 Clouds -17 1000 54 16093 11.3 40 18:38 29.12.2019
1719 Clouds -17 1000 54 16093 11.3 40 18:20 29.12.2019
1720 Clouds -17 1001 54 11265 12.3 40 17:58 29.12.2019
1721 Clouds -17 1001 54 11265 12.3 40 17:39 29.12.2019
1722 Clouds -17 1001 54 11265 12.3 40 17:20 29.12.2019
1723 Clouds -17 1002 64 2414 14.9 30 16:56 29.12.2019
1724 Clouds -17 1002 64 2414 14.9 30 16:37 29.12.2019
1725 -273 0 0 0 0 0 16:37 29.12.2019
1726 Clouds -17 1002 64 2414 14.9 30 16:19 29.12.2019
1727 Clouds -18 1003 59 8047 10.3 40 15:57 29.12.2019
1728 Clouds -18 1003 59 8047 10.3 40 15:39 29.12.2019
1729 Clouds -18 1003 59 8047 10.3 40 15:20 29.12.2019
1730 Clear -18 1003 64 2414 14.9 30 14:58 29.12.2019
1731 Clear -18 1003 64 2414 14.9 30 14:38 29.12.2019
1732 Clear -18 1003 64 2414 14.9 30 14:18 29.12.2019
1733 Clear -18 1004 59 6437 12.9 40 13:57 29.12.2019
1734 Clear -18 1004 59 6437 12.9 40 13:38 29.12.2019
1735 Clear -18 1004 59 6437 12.9 40 13:19 29.12.2019
1736 Clear -18 1004 54 12874 10.3 20 12:45 29.12.2019
1737 Clear -18 1004 54 12874 10.3 20 12:27 29.12.2019
1738 Clear -19 1006 49 16093 7.7 30 11:58 29.12.2019
1739 Clear -19 1006 49 16093 7.7 30 11:40 29.12.2019
1740 Clear -19 1006 49 16093 7.7 30 11:20 29.12.2019
1741 Clear -20 1007 53 16093 7.7 10 10:55 29.12.2019
1742 Clear -20 1007 53 16093 7.7 10 10:37 29.12.2019
1743 Clear -20 1007 53 16093 7.7 10 10:18 29.12.2019
1744 Clear -19 1007 49 16093 7.7 10 09:41 29.12.2019
1745 Clear -19 1007 49 16093 7.7 10 09:22 29.12.2019
1746 Haze -19 1008 53 9656 10.8 30 08:48 29.12.2019
1747 Haze -19 1008 53 9656 10.8 30 08:28 29.12.2019
1748 Clear -20 1008 48 16093 7.2 10 07:58 29.12.2019
1749 Clear -20 1008 48 16093 7.2 10 07:31 29.12.2019
1750 Clear -21 1009 53 16093 3.1 350 06:57 29.12.2019
1751 Clear -21 1009 53 16093 3.1 350 06:26 29.12.2019
1752 Clear -21 1009 53 16093 5.7 350 05:54 29.12.2019
1753 Clear -22 1010 52 16093 6.2 330 04:37 29.12.2019
1754 Clear -21 1011 48 16093 7.7 330 03:59 29.12.2019
1755 Clear -21 1011 48 16093 7.7 330 03:21 29.12.2019
1756 Clear -22 1012 52 16093 2.1 10 02:21 29.12.2019
1757 Clear -22 1012 52 16093 4.6 50 01:42 29.12.2019
1758 Clear -22 1012 52 16093 4.6 50 01:22 29.12.2019
1759 Clear -21 1012 53 16093 4.6 20 00:42 29.12.2019
1760 Clear -21 1012 53 16093 4.6 20 00:23 29.12.2019
1761 Clear -21 1011 48 16093 7.2 20 23:45 28.12.2019
1762 Clear -21 1011 48 16093 7.2 20 23:18 28.12.2019
1763 Clear -22 1012 52 16093 1.5 20 22:40 28.12.2019
1764 Clear -22 1012 52 16093 1.5 20 22:21 28.12.2019
1765 Clear -23 1012 52 16093 2.6 70 21:59 28.12.2019
1766 Clear -23 1012 52 16093 2.6 70 21:40 28.12.2019
1767 Clear -23 1012 52 16093 2.6 70 21:22 28.12.2019
1768 Clear -21 1012 39 16093 4.1 90 20:59 28.12.2019
1769 Clear -21 1012 39 16093 4.1 90 20:38 28.12.2019
1770 Clear -21 1012 39 16093 4.1 90 20:20 28.12.2019
1771 Clear -22 1012 43 16093 4.6 10 19:58 28.12.2019
1772 Clear -22 1012 43 16093 4.6 10 19:39 28.12.2019
1773 Clear -22 1012 43 16093 4.6 10 19:21 28.12.2019
1774 Clear -22 1012 43 16093 4.6 360 18:58 28.12.2019
1775 Clear -22 1012 43 16093 4.6 360 18:40 28.12.2019
1776 Clear -22 1012 43 16093 4.6 360 18:19 28.12.2019
1777 Clear -22 1013 48 16093 2.1 40 17:55 28.12.2019
1778 Clear -22 1013 48 16093 2.1 40 17:55 28.12.2019
1779 Clear -22 1013 48 16093 2.1 40 17:37 28.12.2019
1780 Clear -22 1013 48 16093 2.1 40 17:18 28.12.2019
1781 Clear -22 1013 48 16093 2.1 40 17:18 28.12.2019
1782 Clear -22 1013 52 16093 6.2 340 16:46 28.12.2019
1783 Clear -22 1013 52 16093 6.2 340 16:26 28.12.2019
1784 Clear -22 1013 52 16093 6.2 340 16:26 28.12.2019
1785 Clear -22 1013 52 16093 6.2 340 16:26 28.12.2019
1786 Clear -22 1013 52 16093 6.2 340 15:47 28.12.2019
1787 Clear -22 1013 52 16093 6.2 340 15:25 28.12.2019
1788 Clear -22 1013 52 16093 3.1 340 14:59 28.12.2019
1789 Clear -22 1013 52 16093 3.1 340 14:40 28.12.2019
1790 Clear -22 1013 52 16093 3.1 340 14:21 28.12.2019
1791 Clear -21 1013 48 16093 5.7 350 13:56 28.12.2019
1792 Clear -21 1013 48 16093 5.7 350 13:37 28.12.2019
1793 Clear -21 1013 48 16093 5.7 350 13:18 28.12.2019
1794 Clear -21 1013 53 16093 7.2 360 12:43 28.12.2019
1795 Clear -21 1013 53 16093 7.2 360 12:43 28.12.2019
1796 Clear -21 1013 53 16093 7.2 360 12:24 28.12.2019
1797 Clear -21 1014 53 16093 3.6 10 11:56 28.12.2019
1798 Clear -21 1014 53 16093 3.6 10 11:56 28.12.2019
1799 Clear -21 1014 53 16093 3.6 10 11:38 28.12.2019
1800 Clear -21 1014 53 16093 3.6 10 11:19 28.12.2019
1801 Clear -21 1014 53 16093 3.6 10 11:19 28.12.2019
1802 Clear -21 1014 53 16093 3.6 350 10:44 28.12.2019
1803 Clear -21 1014 53 16093 3.6 350 10:22 28.12.2019
1804 Clear -20 1015 53 16093 2.1 320 09:57 28.12.2019
1805 Clear -20 1015 53 16093 2.1 320 09:39 28.12.2019
1806 Clear -20 1015 53 16093 2.1 320 09:19 28.12.2019
1807 Clear -20 1015 58 16093 6.7 10 08:44 28.12.2019
1808 Clear -20 1015 58 16093 6.7 10 08:26 28.12.2019
1809 Clear -19 1016 64 16093 5.7 20 07:53 28.12.2019
1810 Clear -19 1016 64 16093 5.7 20 07:30 28.12.2019
1811 Clear -18 1016 59 16093 1.5 0 06:27 28.12.2019
1812 Clear -19 1016 64 16093 7.2 350 04:36 28.12.2019
1813 Clear -19 1017 58 16093 3.1 310 03:39 28.12.2019
1814 Clouds -19 1017 58 16093 3.1 50 02:48 28.12.2019
1815 Clouds -18 1018 49 16093 4.1 350 01:59 28.12.2019
1816 Clouds -18 1018 49 16093 4.1 350 01:30 28.12.2019
1817 Clouds -19 1018 53 16093 3.1 40 00:55 28.12.2019
1818 Clouds -19 1018 53 16093 3.1 40 00:37 28.12.2019
1819 Clouds -19 1018 53 16093 3.1 40 00:19 28.12.2019
1820 Clouds -19 1018 58 16093 4.1 40 23:43 27.12.2019
1821 Clouds -19 1018 58 16093 4.1 40 23:20 27.12.2019
1822 Clouds -21 1019 63 16093 3.08 344 22:57 27.12.2019
1823 Clouds -21 1019 63 16093 3.08 344 22:38 27.12.2019
1824 Clouds -21 1019 63 16093 3.08 344 22:20 27.12.2019
1825 Clouds -23 1018 63 16093 2.1 20 21:55 27.12.2019
1826 Clouds -23 1018 63 16093 2.1 20 21:37 27.12.2019
1827 Clouds -23 1018 63 16093 2.1 20 21:18 27.12.2019
1828 Clouds -22 1018 63 16093 3.08 344 20:41 27.12.2019
1829 Clouds -22 1018 63 16093 2.51 340 20:22 27.12.2019
1830 Clouds -21 1018 58 16093 1.5 30 19:43 27.12.2019
1831 Clouds -21 1018 58 16093 1.5 30 19:21 27.12.2019
1832 Clouds -20 1018 58 16093 2.51 340 18:59 27.12.2019
1833 Clouds -20 1018 58 16093 2.51 340 18:39 27.12.2019
1834 Clouds -20 1018 58 16093 2.51 340 18:21 27.12.2019
1835 Clear -19 1018 58 16093 1.5 190 17:58 27.12.2019
1836 Clear -19 1018 58 16093 1.5 190 17:39 27.12.2019
1837 Clear -19 1018 58 16093 1.5 190 17:19 27.12.2019
1838 Clear -18 1019 49 16093 6.2 350 16:58 27.12.2019
1839 Clear -18 1019 49 16093 6.2 350 16:38 27.12.2019
1840 Clear -18 1019 49 16093 6.2 350 16:19 27.12.2019
1841 Clear -19 1018 53 16093 9.3 360 15:45 27.12.2019
1842 Clear -19 1018 53 16093 9.3 360 15:22 27.12.2019
1843 Clear -20 1019 53 16093 7.7 10 14:58 27.12.2019
1844 Clear -20 1019 53 16093 7.7 10 14:39 27.12.2019
1845 Clear -20 1019 53 16093 7.7 10 14:20 27.12.2019
1846 Clear -19 1019 49 16093 2.1 340 13:55 27.12.2019
1847 Clear -19 1019 49 16093 2.1 340 13:37 27.12.2019
1848 Clear -19 1019 49 16093 2.1 340 13:18 27.12.2019
1849 Clear -20 1020 53 16093 2.6 350 12:40 27.12.2019
1850 Clear -20 1020 53 16093 2.6 350 12:22 27.12.2019
1851 Clear -19 1020 53 16093 6.2 90 11:46 27.12.2019
1852 Clear -19 1020 53 16093 6.2 90 11:26 27.12.2019
1853 Clear -20 1020 58 16093 4.6 350 10:59 27.12.2019
1854 Clear -20 1020 58 16093 4.6 350 10:40 27.12.2019
1855 Clear -20 1020 58 16093 4.6 350 10:22 27.12.2019
1856 Clear -24 1019 63 16093 3.6 10 09:46 27.12.2019
1857 Clear -24 1019 63 16093 3.6 10 09:22 27.12.2019
1858 Clear -23 1019 63 16093 2.1 120 08:59 27.12.2019
1859 Clear -23 1019 63 16093 2.1 120 08:37 27.12.2019
1860 Clear -23 1019 69 16093 3.1 350 07:53 27.12.2019
1861 Clear -23 1019 69 16093 3.1 350 07:34 27.12.2019
1862 Clear -22 1019 63 16093 2.6 330 06:39 27.12.2019
1863 Clear -23 1019 69 16093 3.1 10 05:52 27.12.2019
1864 Clear -23 1019 63 16093 4.1 350 03:47 27.12.2019
1865 Clear -23 1019 63 16093 2.6 360 02:25 27.12.2019
1866 Clear -22 1019 57 16093 3.6 320 01:42 27.12.2019
1867 Clear -22 1019 57 16093 3.6 320 01:20 27.12.2019
1868 Clear -23 1019 63 16093 1.5 20 00:46 27.12.2019
1869 Clear -23 1019 63 16093 1.5 20 00:24 27.12.2019
1870 Clear -23 1019 63 16093 1.5 20 00:24 27.12.2019
1871 Clear -23 1019 63 16093 2.1 20 23:42 26.12.2019
1872 Clear -23 1019 63 16093 2.1 20 23:24 26.12.2019
1873 Clear -22 1018 57 16093 1.5 0 22:58 26.12.2019
1874 Clear -22 1018 57 16093 1.5 0 22:37 26.12.2019
1875 Clear -22 1018 57 16093 1.5 0 22:18 26.12.2019
1876 Clear -23 1017 63 16093 7.2 360 21:39 26.12.2019
1877 Clear -23 1017 63 16093 7.2 360 21:39 26.12.2019
1878 Clear -23 1017 63 16093 7.2 360 21:21 26.12.2019
1879 Clear -22 1017 57 16093 7.7 350 20:54 26.12.2019
1880 Clear -22 1017 57 16093 7.7 350 20:36 26.12.2019
1881 Clear -22 1017 57 16093 7.7 350 20:18 26.12.2019
1882 Clear -22 1017 57 16093 7.7 350 20:18 26.12.2019
1883 Clear -21 1017 53 16093 5.1 340 19:54 26.12.2019
1884 Clear -21 1017 53 16093 5.1 340 19:36 26.12.2019
1885 Clear -21 1017 53 16093 5.1 340 19:18 26.12.2019
1886 Clear -22 1016 57 16093 5.1 360 18:55 26.12.2019
1887 Clear -22 1016 57 16093 5.1 360 18:36 26.12.2019
1888 Clear -22 1016 57 16093 5.1 360 18:18 26.12.2019
1889 Clear -23 1015 63 16093 3.53 0 17:40 26.12.2019
1890 Clear -23 1015 63 16093 3.19 356 17:20 26.12.2019
1891 Clear -22 1015 57 16093 4.1 340 16:48 26.12.2019
1892 Clear -22 1015 57 16093 4.1 340 16:26 26.12.2019
1893 Clear -24 1014 69 16093 2.6 350 15:57 26.12.2019
1894 Clear -24 1014 69 16093 2.6 350 15:38 26.12.2019
1895 Clear -24 1014 69 16093 2.6 350 15:19 26.12.2019
1896 Clear -24 1014 69 16093 2.6 350 15:19 26.12.2019
1897 Clear -22 1014 57 16093 4.1 360 14:41 26.12.2019
1898 Clear -22 1014 57 16093 4.1 360 14:23 26.12.2019
1899 Clear -22 1014 57 16093 4.1 360 14:23 26.12.2019
1900 Clear -22 1014 57 16093 4.1 360 14:23 26.12.2019
1901 Clear -22 1013 63 16093 2.61 351 13:45 26.12.2019
1902 Clear -22 1013 63 16093 2.61 351 13:24 26.12.2019
1903 Clear -20 1013 58 16093 4.1 350 12:59 26.12.2019
1904 Clear -20 1013 58 16093 4.1 350 12:41 26.12.2019
1905 Clear -20 1013 58 16093 4.1 350 12:23 26.12.2019
1906 Clear -22 1012 69 16093 2.6 10 11:58 26.12.2019
1907 Clear -22 1012 69 16093 2.6 10 11:40 26.12.2019
1908 Clear -22 1012 69 16093 2.6 10 11:21 26.12.2019
1909 Clear -21 1012 63 16093 2.6 350 10:50 26.12.2019
1910 Clear -21 1012 63 16093 2.6 350 10:25 26.12.2019
1911 Clear -19 1011 58 16093 4.6 300 09:54 26.12.2019
1912 Clear -19 1011 58 16093 4.6 300 09:33 26.12.2019
1913 Clear -22 1011 69 16093 4.6 310 08:58 26.12.2019
1914 Clear -22 1011 69 16093 4.6 310 08:39 26.12.2019
1915 Clear -22 1011 69 16093 4.6 310 08:20 26.12.2019
1916 Clear -23 1010 69 16093 3.1 280 07:38 26.12.2019
1917 Clear -23 1010 69 16093 3.1 280 07:19 26.12.2019
1918 Clear -23 1009 69 16093 1.5 40 06:37 26.12.2019
1919 Clear -23 1009 69 16093 1.5 40 06:19 26.12.2019
1920 Clear -22 1009 63 16093 1.93 354 05:40 26.12.2019
1921 Clear -24 1009 76 16093 2.16 0 04:33 26.12.2019
1922 Clear -26 1008 75 16093 2.1 10 03:31 26.12.2019
1923 Clear -24 1008 69 16093 2.16 0 02:46 26.12.2019
1924 Clear -24 1008 69 16093 2.16 0 02:25 26.12.2019
1925 Clear -27 1007 75 16093 1.5 10 01:44 26.12.2019
1926 Clear -27 1007 75 16093 1.5 10 01:24 26.12.2019
1927 Clear -27 1007 75 16093 3.1 360 00:44 26.12.2019
1928 Clear -27 1007 75 16093 3.1 360 00:23 26.12.2019
1929 Clear -26 1007 75 16093 2.45 0 23:57 25.12.2019
1930 Clear -26 1007 75 16093 2.45 0 23:37 25.12.2019
1931 Clear -26 1007 75 16093 2.84 358 23:18 25.12.2019
1932 Clear -26 1006 62 16093 2.1 30 22:56 25.12.2019
1933 Clear -26 1006 62 16093 2.1 30 22:37 25.12.2019
1934 Clear -26 1006 62 16093 2.1 30 22:18 25.12.2019
1935 Clear -24 1006 69 16093 2.84 358 21:55 25.12.2019
1936 Clear -24 1006 69 16093 2.84 358 21:55 25.12.2019
1937 Clear -24 1006 69 16093 2.84 358 21:37 25.12.2019
1938 Clear -24 1006 69 16093 2.84 358 21:18 25.12.2019
1939 Clear -26 1005 75 16093 1.5 360 20:40 25.12.2019
1940 Clear -26 1005 75 16093 1.5 360 20:21 25.12.2019
1941 Clear -26 1005 68 16093 1.5 360 19:59 25.12.2019
1942 Clear -26 1005 68 16093 1.5 360 19:41 25.12.2019
1943 Clear -26 1005 68 16093 1.5 360 19:21 25.12.2019
1944 Clear -26 1005 75 16093 2.26 357 18:40 25.12.2019
1945 Clear -26 1005 75 16093 2.26 357 18:21 25.12.2019
1946 Clear -26 1005 75 16093 2.26 357 18:21 25.12.2019
1947 Clear -25 1004 69 16093 3.1 30 17:57 25.12.2019
1948 Clear -25 1004 69 16093 3.1 30 17:39 25.12.2019
1949 Clear -25 1004 69 16093 3.1 30 17:18 25.12.2019
1950 Clear -26 1004 75 16093 2 20 16:54 25.12.2019
1951 Clear -26 1004 75 16093 2 20 16:36 25.12.2019
1952 Clear -26 1004 75 16093 2 20 16:18 25.12.2019
1953 Clear -27 1004 82 16093 2 20 15:55 25.12.2019
1954 Clear -27 1004 82 16093 2 20 15:36 25.12.2019
1955 Clear -27 1004 82 16093 2 20 15:18 25.12.2019
1956 Clear -27 1004 82 16093 2 20 14:42 25.12.2019
1957 Clear -27 1004 82 16093 2 20 14:23 25.12.2019
1958 Clear -26 1004 68 16093 1.91 8 13:58 25.12.2019
1959 Clear -26 1004 68 16093 1.91 8 13:39 25.12.2019
1960 Clear -26 1004 68 16093 1.82 5 13:20 25.12.2019
1961 Clear -25 1004 69 16093 2.1 30 12:43 25.12.2019
1962 Clear -25 1004 69 16093 2.1 30 12:22 25.12.2019
1963 Clear -26 1004 75 16093 1.82 5 11:58 25.12.2019
1964 Clear -26 1004 75 16093 1.82 5 11:40 25.12.2019
1965 Clear -26 1004 75 16093 1.64 22 11:20 25.12.2019
1966 Clear -27 1004 68 16093 1.5 0 10:39 25.12.2019
1967 Clear -27 1004 68 16093 1.5 0 10:21 25.12.2019
1968 Clear -26 1004 75 16093 1.5 330 09:52 25.12.2019
1969 Clear -26 1004 75 16093 1.5 330 09:34 25.12.2019
1970 Clear -26 1004 75 16093 1.64 22 08:56 25.12.2019
1971 Clear -26 1004 75 16093 1.64 22 08:38 25.12.2019
1972 Clear -26 1004 75 16093 1.74 26 08:19 25.12.2019
1973 Clear -26 1003 75 16093 1.74 26 07:42 25.12.2019
1974 Clear -26 1003 75 16093 1.74 26 07:22 25.12.2019
1975 Clear -26 1004 75 16093 1.74 26 06:24 25.12.2019
1976 Clear -25 1004 69 16093 1.74 26 05:49 25.12.2019
1977 Clear -24 1003 69 16093 1.35 18 04:42 25.12.2019
1978 Clear -24 1003 69 16093 1.35 18 04:24 25.12.2019
1979 Clear -23 1004 69 16093 1.35 18 03:43 25.12.2019
1980 Clear -23 1004 69 16093 1.35 18 02:58 25.12.2019
1981 Clear -23 1004 69 16093 1.35 18 02:29 25.12.2019
1982 Clear -23 1004 76 16093 2.24 28 01:44 25.12.2019
1983 Clear -24 1004 76 16093 2.11 31 01:19 25.12.2019
1984 Clear -23 1004 69 16093 2.11 31 00:42 25.12.2019
1985 Clear -22 1004 69 16093 2.11 31 00:23 25.12.2019
1986 Clear -26 1004 83 16093 1.5 20 23:40 24.12.2019
1987 Clear -24 1004 83 16093 1.5 20 23:20 24.12.2019
1988 Clear -25 1003 75 16093 1.52 31 22:55 24.12.2019
1989 Clear -25 1003 75 16093 1.52 31 22:37 24.12.2019
1990 Clear -25 1003 75 16093 1.52 31 22:19 24.12.2019
1991 Clear -24 1003 69 16093 1.5 330 21:41 24.12.2019
1992 Clear -24 1003 69 16093 1.5 330 21:20 24.12.2019
1993 Clear -24 1002 76 16093 1.52 31 20:43 24.12.2019
1994 Clear -24 1002 76 16093 1.78 32 20:23 24.12.2019
1995 Clear -24 1002 76 16093 2.6 40 19:56 24.12.2019
1996 Clear -24 1002 76 16093 2.6 40 19:37 24.12.2019
1997 Clear -24 1002 76 16093 2.6 40 19:18 24.12.2019
1998 Clear -23 1002 76 16093 3.6 20 18:42 24.12.2019
1999 Clear -24 1002 76 16093 3.6 20 18:19 24.12.2019
2000 Clear -22 1001 69 16093 2.12 30 17:44 24.12.2019
2001 Clear -22 1001 69 16093 2.12 30 17:22 24.12.2019
2002 Clear -21 1001 63 16093 2.3 23 16:58 24.12.2019
2003 Clear -21 1001 63 16093 2.3 23 16:40 24.12.2019
2004 Clear -21 1001 63 16093 2.3 23 16:21 24.12.2019
2005 Clear -21 1001 63 16093 2.3 23 16:21 24.12.2019
2006 Clear -21 1001 63 16093 3.1 300 15:58 24.12.2019
2007 Clear -21 1001 63 16093 3.1 300 15:58 24.12.2019
2008 Clear -21 1001 63 16093 3.1 300 15:37 24.12.2019
2009 Clear -21 1001 63 16093 3.1 300 15:19 24.12.2019
2010 Clear -19 1000 64 16093 3.6 350 14:58 24.12.2019
2011 Clear -19 1000 64 16093 3.6 350 14:58 24.12.2019
2012 Clear -19 1000 64 16093 3.6 350 14:40 24.12.2019
2013 Clear -19 1000 64 16093 3.6 350 14:40 24.12.2019
2014 Clear -19 1000 64 16093 3.6 350 14:22 24.12.2019
2015 Clear -21 1000 63 16093 2.6 40 13:56 24.12.2019
2016 Clear -21 1000 63 16093 2.6 40 13:38 24.12.2019
2017 Clear -21 1000 63 16093 2.6 40 13:20 24.12.2019
2018 Clear -21 999 63 16093 3.1 350 12:56 24.12.2019
2019 Clear -21 999 63 16093 3.1 350 12:38 24.12.2019
2020 Clear -21 999 63 16093 3.1 350 12:19 24.12.2019
2021 Clear -21 999 63 16093 2.25 14 11:56 24.12.2019
2022 Clear -21 999 63 16093 2.25 14 11:37 24.12.2019
2023 Clear -20 999 63 16093 2.66 6 11:19 24.12.2019
2024 Clear -19 998 64 16093 1.5 0 10:56 24.12.2019
2025 Clear -19 998 64 16093 1.5 0 10:38 24.12.2019
2026 Clear -19 998 64 16093 1.5 0 10:19 24.12.2019
2027 Clear -19 998 64 16093 1.5 0 10:19 24.12.2019
2028 Clear -19 998 64 16093 5.1 350 09:55 24.12.2019
2029 Clear -19 998 64 16093 5.1 350 09:37 24.12.2019
2030 Clear -19 998 64 16093 5.1 350 09:19 24.12.2019
2031 Clear -17 997 59 16093 4.6 350 08:46 24.12.2019
2032 Clear -17 997 59 16093 4.6 350 08:24 24.12.2019
2033 Clear -18 997 64 16093 5.1 340 07:54 24.12.2019
2034 Clear -18 997 64 16093 5.1 340 07:36 24.12.2019
2035 Clear -18 997 64 16093 5.1 340 07:18 24.12.2019
2036 Clear -17 997 64 16093 5.7 330 06:39 24.12.2019
2037 Clear -17 997 64 16093 5.7 330 06:19 24.12.2019
2038 Clear -16 997 65 16093 7.2 10 05:49 24.12.2019
2039 Clear -16 997 65 16093 7.2 10 05:19 24.12.2019
2040 Clear -16 996 65 16093 5.1 360 04:21 24.12.2019
2041 Clear -14 996 55 16093 7.7 10 03:45 24.12.2019
2042 Clear -14 996 55 16093 5.1 350 02:28 24.12.2019
2043 Clear -16 995 65 16093 3.8 1 01:53 24.12.2019
2044 Clear -16 995 65 16093 3.8 1 01:23 24.12.2019
2045 Clear -12 995 46 16093 6.2 340 00:56 24.12.2019
2046 Clear -12 995 46 16093 6.2 340 00:37 24.12.2019
2047 Clear -12 995 46 16093 6.2 340 00:19 24.12.2019
2048 Clear -15 995 54 16093 1.5 320 23:42 23.12.2019
2049 Clear -15 995 54 16093 1.5 320 23:23 23.12.2019
2050 Clear -15 995 60 16093 2.6 20 22:56 23.12.2019
2051 Clear -15 995 60 16093 2.6 20 22:38 23.12.2019
2052 Clear -15 995 60 16093 2.6 20 22:19 23.12.2019
2053 Clear -14 995 55 16093 3.6 20 21:56 23.12.2019
2054 Clear -14 995 55 16093 3.6 20 21:37 23.12.2019
2055 Clear -14 995 55 16093 3.6 20 21:19 23.12.2019
2056 Clear -14 994 60 16093 1.5 80 20:58 23.12.2019
2057 Clear -14 994 60 16093 1.5 80 20:40 23.12.2019
2058 Clear -14 994 60 16093 1.5 80 20:19 23.12.2019
2059 Clear -14 994 60 16093 1.5 80 20:19 23.12.2019
2060 Clear -13 994 60 16093 6.7 360 19:57 23.12.2019
2061 Clear -13 994 60 16093 6.7 360 19:38 23.12.2019
2062 Clear -13 994 60 16093 6.7 360 19:20 23.12.2019
2063 Clear -13 994 60 16093 9.3 360 18:58 23.12.2019
2064 Clear -13 994 60 16093 9.3 360 18:58 23.12.2019
2065 Clear -13 994 60 16093 9.3 360 18:39 23.12.2019
2066 Clear -13 994 60 16093 9.3 360 18:20 23.12.2019
2067 Clear -13 994 60 16093 9.3 360 18:20 23.12.2019
2068 Clear -13 993 60 16093 8.7 10 17:58 23.12.2019
2069 Clear -13 993 60 16093 8.7 10 17:39 23.12.2019
2070 Clear -13 993 60 16093 8.7 10 17:19 23.12.2019
2071 Clear -13 994 65 8047 9.8 10 16:57 23.12.2019
2072 Clear -13 994 65 8047 9.8 10 16:39 23.12.2019
2073 Clear -13 994 65 8047 9.8 10 16:18 23.12.2019
2074 Clear -14 994 65 11265 8.7 10 15:57 23.12.2019
2075 Clear -14 994 65 11265 8.7 10 15:37 23.12.2019
2076 Clear -14 994 65 11265 8.7 10 15:19 23.12.2019
2077 Clear -14 994 65 12874 9.8 10 14:56 23.12.2019
2078 Clear -14 994 65 12874 9.8 10 14:56 23.12.2019
2079 Clear -14 994 65 12874 9.8 10 14:38 23.12.2019
2080 Clear -14 994 65 12874 9.8 10 14:18 23.12.2019
2081 Clear -13 994 65 14484 9.3 10 13:56 23.12.2019
2082 Clear -13 994 65 14484 9.3 10 13:37 23.12.2019
2083 Clear -13 994 65 14484 9.3 10 13:19 23.12.2019
2084 Clear -13 994 65 11265 9.8 20 12:54 23.12.2019
2085 Clear -13 994 65 11265 9.8 20 12:36 23.12.2019
2086 Clear -13 994 65 11265 9.8 20 12:18 23.12.2019
2087 Clear -12 995 55 16093 3.63 8 11:42 23.12.2019
2088 -273 0 0 0 0 0 11:22 23.12.2019
2089 Clear -13 995 65 16093 2.6 20 10:56 23.12.2019
2090 Clear -13 995 65 16093 2.6 20 10:37 23.12.2019
2091 Clear -13 995 65 16093 2.6 20 10:18 23.12.2019
2092 Clear -13 995 65 16093 2.6 20 10:18 23.12.2019
2093 Clear -12 995 60 16093 4.6 360 09:56 23.12.2019
2094 Clear -12 995 60 16093 4.6 360 09:37 23.12.2019
2095 Clear -12 995 60 16093 4.6 360 09:19 23.12.2019
2096 Clear -12 995 60 16093 8.2 360 08:41 23.12.2019
2097 Clear -12 995 60 16093 8.2 360 08:22 23.12.2019
2098 Clear -12 996 60 16093 6.7 10 07:56 23.12.2019
2099 Clear -12 996 60 16093 6.7 10 07:38 23.12.2019
2100 Clear -12 996 60 16093 6.7 10 07:18 23.12.2019
2101 Clear -13 996 60 16093 5.7 330 06:39 23.12.2019
2102 Clear -13 996 60 16093 5.7 330 06:21 23.12.2019
2103 Clear -13 996 65 16093 5.7 350 05:45 23.12.2019
2104 Clear -12 996 66 16093 5.1 10 04:44 23.12.2019
2105 Clear -13 997 71 16093 5.1 10 03:58 23.12.2019
2106 Clear -14 997 77 16093 5.1 350 02:47 23.12.2019
2107 Clear -14 997 77 16093 5.1 350 02:20 23.12.2019
2108 Clear -13 997 78 16093 4.1 10 01:51 23.12.2019
2109 Clear -13 997 78 16093 4.1 10 01:32 23.12.2019
2110 Clouds -20 998 83 11265 4.34 16 00:49 23.12.2019
2111 Clouds -20 998 83 11265 4.34 16 00:30 23.12.2019
2112 Clouds -19 998 84 11265 4.34 16 23:57 22.12.2019
2113 Clouds -19 998 84 11265 4.34 16 23:38 22.12.2019
2114 Clouds -19 998 84 11265 3.86 17 23:20 22.12.2019
2115 Mist -18 999 77 1609 1.5 230 22:56 22.12.2019
2116 Mist -18 999 77 1609 1.5 230 22:38 22.12.2019
2117 Mist -18 999 77 1609 1.5 230 22:19 22.12.2019
2118 Clouds -20 999 76 12874 2.1 180 21:56 22.12.2019
2119 Clouds -20 999 76 12874 2.1 180 21:38 22.12.2019
2120 Clouds -20 999 76 12874 2.1 180 21:20 22.12.2019
2121 Clear -22 999 83 16093 3.86 17 20:41 22.12.2019
2122 Clear -22 999 83 16093 2.98 28 20:19 22.12.2019
2123 Clouds -22 1000 83 16093 2.98 28 19:58 22.12.2019
2124 Clouds -22 1000 83 16093 2.98 28 19:39 22.12.2019
2125 Clouds -22 1000 83 16093 2.98 28 19:20 22.12.2019
2126 Clouds -22 1000 91 16093 2.98 28 18:55 22.12.2019
2127 Clouds -22 1000 91 16093 2.98 28 18:37 22.12.2019
2128 Clouds -22 1000 91 16093 2.98 28 18:18 22.12.2019
2129 Clouds -22 1001 91 16093 2.1 10 17:54 22.12.2019
2130 Clouds -22 1001 91 16093 2.1 10 17:36 22.12.2019
2131 Clouds -22 1001 91 16093 2.1 10 17:18 22.12.2019
2132 Mist -17 1001 91 1609 1.5 50 16:42 22.12.2019
2133 Mist -17 1001 91 1609 1.5 50 16:42 22.12.2019
2134 Mist -17 1001 91 1609 1.5 50 16:23 22.12.2019
2135 Mist -15 1002 84 1207 2.1 30 15:57 22.12.2019
2136 Mist -15 1002 84 1207 2.1 30 15:39 22.12.2019
2137 Mist -15 1002 84 1207 2.1 30 15:21 22.12.2019
2138 Mist -14 1002 100 1207 2.1 50 14:57 22.12.2019
2139 Mist -14 1002 100 1207 2.1 50 14:38 22.12.2019
2140 Mist -14 1002 100 1207 2.1 50 14:19 22.12.2019
2141 Mist -13 1003 92 1207 2.6 40 13:56 22.12.2019
2142 Mist -13 1003 92 1207 2.6 40 13:38 22.12.2019
2143 Mist -13 1003 92 1207 2.6 40 13:19 22.12.2019
2144 Mist -12 1004 92 1609 2.1 350 12:57 22.12.2019
2145 Mist -12 1004 92 1609 2.1 350 12:38 22.12.2019
2146 Mist -12 1004 92 1609 2.1 350 12:19 22.12.2019
2147 Clouds -12 1004 92 12874 2.3 51 11:57 22.12.2019
2148 Clouds -12 1004 92 12874 2.3 51 11:38 22.12.2019
2149 Clouds -12 1004 92 12874 1.66 66 11:19 22.12.2019
2150 Mist -11 1004 92 9656 2.6 50 10:57 22.12.2019
2151 Mist -11 1004 92 9656 2.6 50 10:57 22.12.2019
2152 Mist -11 1004 92 9656 2.6 50 10:38 22.12.2019
2153 Mist -11 1004 92 9656 2.6 50 10:19 22.12.2019
2154 Clouds -11 1004 92 16093 2.6 80 09:57 22.12.2019
2155 Clouds -11 1004 92 16093 2.6 80 09:57 22.12.2019
2156 Clouds -11 1004 92 16093 2.6 80 09:39 22.12.2019
2157 Clouds -11 1004 92 16093 2.6 80 09:20 22.12.2019
2158 Clouds -11 1005 92 16093 1.5 100 08:45 22.12.2019
2159 Clouds -11 1005 92 16093 1.5 100 08:22 22.12.2019
2160 Clouds -11 1005 92 16093 2.6 80 07:44 22.12.2019
2161 Clouds -11 1005 92 16093 2.6 80 07:21 22.12.2019
2162 Clouds -11 1005 85 16093 3.1 80 06:55 22.12.2019
2163 Clouds -11 1005 85 16093 3.1 80 06:26 22.12.2019
2164 Clouds -11 1006 85 16093 3.1 110 05:33 22.12.2019
2165 Clouds -11 1006 85 16093 1.5 60 04:55 22.12.2019
2166 Clouds -11 1006 85 16093 1.5 60 04:25 22.12.2019
2167 Clouds -12 1006 85 16093 3.6 70 02:46 22.12.2019
2168 Clouds -12 1006 85 16093 3.6 70 02:23 22.12.2019
2169 Snow -16 1007 84 9656 2.1 80 01:32 22.12.2019
2170 Clouds -18 1007 91 16093 2.07 60 00:56 22.12.2019
2171 Clouds -18 1007 91 16093 2.07 60 00:56 22.12.2019
2172 Clouds -18 1007 91 16093 2.07 60 00:36 22.12.2019
2173 Clouds -18 1007 91 16093 2.07 60 00:18 22.12.2019
2174 Clouds -16 1006 84 16093 2.1 190 23:41 21.12.2019
2175 Clouds -16 1006 84 16093 2.1 190 23:21 21.12.2019
2176 Clouds -17 1006 84 16093 2.6 40 22:57 21.12.2019
2177 Clouds -17 1006 84 16093 2.6 40 22:37 21.12.2019
2178 Clouds -17 1006 84 16093 2.6 40 22:18 21.12.2019
2179 Clouds -16 1006 91 16093 1.48 91 21:54 21.12.2019
2180 Clouds -16 1006 91 16093 1.48 91 21:36 21.12.2019
2181 Clouds -16 1006 91 16093 1.48 91 21:18 21.12.2019
2182 Snow -17 1005 91 12874 1.48 91 20:56 21.12.2019
2183 Snow -17 1005 91 12874 1.48 91 20:37 21.12.2019
2184 Snow -17 1005 91 12874 1.45 33 20:19 21.12.2019
2185 Clouds -12 1005 85 16093 2.1 80 19:55 21.12.2019
2186 Clouds -12 1005 85 16093 2.1 80 19:36 21.12.2019
2187 Clouds -12 1005 85 16093 2.1 80 19:18 21.12.2019
2188 Clouds -10 1004 85 16093 2.1 130 18:41 21.12.2019
2189 Clouds -10 1004 85 16093 2.1 130 18:23 21.12.2019
2190 Clouds -10 1004 85 16093 2.6 70 17:56 21.12.2019
2191 Clouds -10 1004 85 16093 2.6 70 17:37 21.12.2019
2192 Clouds -10 1004 85 16093 2.6 70 17:19 21.12.2019
2193 Rain -11 1003 85 12874 3.1 80 16:56 21.12.2019
2194 Rain -11 1003 85 12874 3.1 80 16:38 21.12.2019
2195 Rain -11 1003 85 12874 3.1 80 16:18 21.12.2019
2196 Rain -11 1003 92 2816 3.6 70 15:55 21.12.2019
2197 Rain -11 1003 92 2816 3.6 70 15:37 21.12.2019
2198 Rain -11 1003 92 2816 3.6 70 15:18 21.12.2019
2199 Snow -11 1002 85 9656 4.6 70 14:41 21.12.2019
2200 Snow -11 1002 85 9656 4.6 70 14:23 21.12.2019
2201 Clouds -11 1002 92 16093 5.1 70 13:58 21.12.2019
2202 Clouds -11 1002 92 16093 5.1 70 13:58 21.12.2019
2203 Clouds -11 1002 92 16093 5.1 70 13:39 21.12.2019
2204 Clouds -11 1002 92 16093 5.1 70 13:19 21.12.2019
2205 Clouds -11 1002 92 16093 5.1 70 13:19 21.12.2019
2206 Snow -11 1001 85 6437 5.7 80 12:56 21.12.2019
2207 Snow -11 1001 85 6437 5.7 80 12:38 21.12.2019
2208 Snow -11 1001 85 6437 5.7 80 12:20 21.12.2019
2209 Snow -11 1001 85 8047 5.7 80 11:46 21.12.2019
2210 Snow -11 1001 85 8047 5.7 80 11:27 21.12.2019
2211 Clouds -11 1001 85 16093 6.7 70 10:59 21.12.2019
2212 Clouds -11 1001 85 16093 6.7 70 10:40 21.12.2019
2213 Clouds -11 1001 85 16093 6.7 70 10:21 21.12.2019
2214 Clouds -11 1001 85 16093 6.7 70 10:21 21.12.2019
2215 Clouds -11 1001 85 16093 6.2 80 09:58 21.12.2019
2216 Clouds -11 1001 85 16093 6.2 80 09:39 21.12.2019
2217 Clouds -11 1001 85 16093 6.2 80 09:19 21.12.2019
2218 Clouds -12 1000 92 14484 5.1 80 08:47 21.12.2019
2219 Clouds -12 1000 92 14484 5.1 80 08:27 21.12.2019
2220 Clouds -12 1000 85 16093 5.1 70 07:47 21.12.2019
2221 Clouds -12 1000 85 16093 5.1 70 07:23 21.12.2019
2222 Clouds -12 1000 85 16093 6.2 80 06:58 21.12.2019
2223 Clouds -12 1000 85 16093 6.2 80 06:40 21.12.2019
2224 Clouds -12 1000 85 16093 6.2 80 06:21 21.12.2019
2225 Clouds -12 999 85 16093 6.2 70 05:25 21.12.2019
2226 Snow -12 999 85 6437 6.7 80 04:34 21.12.2019
2227 Snow -12 999 92 4828 5.7 80 03:56 21.12.2019
2228 Snow -12 999 85 4828 7.2 70 02:25 21.12.2019
2229 Snow -12 999 92 4828 6.7 80 01:43 21.12.2019
2230 Snow -12 999 92 4828 6.7 80 01:24 21.12.2019
2231 Snow -11 999 85 4828 6.7 80 00:40 21.12.2019
2232 Snow -11 999 85 4828 6.7 80 00:21 21.12.2019
2233 Rain -12 1000 92 1609 8.7 80 23:39 20.12.2019
2234 Rain -12 1000 92 1609 8.7 80 23:21 20.12.2019
2235 Rain -12 1000 85 2414 7.7 80 22:59 20.12.2019
2236 Rain -12 1000 85 2414 7.7 80 22:39 20.12.2019
2237 Rain -12 1000 85 2414 7.7 80 22:18 20.12.2019
2238 Rain -12 1000 85 3219 9.8 90 21:41 20.12.2019
2239 Rain -12 1000 85 3219 9.8 90 21:21 20.12.2019
2240 Rain -12 1000 85 2414 9.3 90 20:59 20.12.2019
2241 Rain -12 1000 85 2414 9.3 90 20:38 20.12.2019
2242 Rain -12 1000 85 2414 9.3 90 20:19 20.12.2019
2243 Snow -12 1000 85 2414 9.8 100 19:56 20.12.2019
2244 Snow -12 1000 85 2414 9.8 100 19:38 20.12.2019
2245 Snow -12 1000 85 2414 9.8 100 19:18 20.12.2019
2246 Snow -12 1000 72 4828 11.8 90 18:41 20.12.2019
2247 Snow -12 1000 72 4828 11.8 90 18:22 20.12.2019
2248 Clouds -12 1001 66 16093 11.8 90 17:58 20.12.2019
2249 Clouds -12 1001 66 16093 11.8 90 17:39 20.12.2019
2250 Clouds -12 1001 66 16093 11.8 90 17:20 20.12.2019
2251 Clouds -12 1001 60 16093 12.9 90 16:57 20.12.2019
2252 Clouds -12 1001 60 16093 12.9 90 16:38 20.12.2019
2253 Clouds -12 1001 60 16093 12.9 90 16:19 20.12.2019
2254 Clouds -13 1002 71 16093 9.3 90 15:55 20.12.2019
2255 Clouds -13 1002 71 16093 9.3 90 15:37 20.12.2019
2256 Clouds -13 1002 71 16093 9.3 90 15:18 20.12.2019
2257 Clouds -13 1003 71 16093 9.8 90 14:42 20.12.2019
2258 Clouds -13 1003 71 16093 9.8 90 14:24 20.12.2019
2259 Clouds -13 1004 71 16093 9.8 80 13:57 20.12.2019
2260 Clouds -13 1004 71 16093 9.8 80 13:37 20.12.2019
2261 Clouds -13 1004 71 16093 9.8 80 13:19 20.12.2019
2262 Clouds -14 1005 71 16093 8.2 90 12:56 20.12.2019
2263 Clouds -14 1005 71 16093 8.2 90 12:36 20.12.2019
2264 Clouds -14 1005 71 16093 8.2 90 12:18 20.12.2019
2265 Clouds -14 1007 77 16093 9.3 90 11:57 20.12.2019
2266 Clouds -14 1007 77 16093 9.3 90 11:38 20.12.2019
2267 Clouds -14 1007 77 16093 9.3 90 11:38 20.12.2019
2268 Clouds -14 1007 77 16093 9.3 90 11:18 20.12.2019
2269 Clouds -14 1007 71 16093 9.3 90 10:56 20.12.2019
2270 Clouds -14 1007 71 16093 9.3 90 10:37 20.12.2019
2271 Clouds -14 1007 71 16093 9.3 90 10:19 20.12.2019
2272 Clear -14 1007 71 16093 8.2 80 09:43 20.12.2019
2273 Clear -14 1007 71 16093 8.2 80 09:21 20.12.2019
2274 Clear -14 1008 55 16093 8.2 90 08:55 20.12.2019
2275 Clear -14 1008 55 16093 8.2 90 08:37 20.12.2019
2276 Clear -14 1008 55 16093 8.2 90 08:19 20.12.2019
2277 Clear -15 1008 60 16093 6.7 80 07:57 20.12.2019
2278 Clear -15 1008 60 16093 6.7 80 07:37 20.12.2019
2279 Clear -15 1008 60 16093 6.7 80 07:18 20.12.2019
2280 Clear -15 1009 60 16093 5.7 90 06:44 20.12.2019
2281 Clear -15 1009 60 16093 5.7 90 06:26 20.12.2019
2282 Clear -15 1009 54 16093 5.7 80 05:47 20.12.2019
2283 Clear -15 1010 60 16093 5.7 80 04:59 20.12.2019
2284 Clear -16 1010 65 16093 4.1 80 03:49 20.12.2019
2285 Clear -15 1011 65 16093 4.6 80 02:55 20.12.2019
2286 Clear -16 1011 59 16093 4.1 70 01:59 20.12.2019
2287 Clear -16 1011 59 16093 4.1 70 01:35 20.12.2019
2288 Clear -16 1012 54 16093 4.1 80 00:55 20.12.2019
2289 Clear -16 1012 54 16093 4.1 80 00:35 20.12.2019
2290 Clear -17 1012 64 16093 1.5 30 23:58 19.12.2019
2291 Clear -17 1012 64 16093 1.5 30 23:40 19.12.2019
2292 Clear -17 1012 64 16093 1.5 30 23:19 19.12.2019
2293 Clear -18 1012 70 16093 1.97 81 22:40 19.12.2019
2294 Clear -18 1012 70 16093 1.97 81 22:22 19.12.2019
2295 Clear -20 1011 70 16093 2.6 40 21:57 19.12.2019
2296 Clear -20 1011 70 16093 2.6 40 21:39 19.12.2019
2297 Clear -20 1011 70 16093 2.6 40 21:19 19.12.2019
2298 Clear -20 1011 70 16093 1.97 81 20:57 19.12.2019
2299 Clear -20 1011 70 16093 1.97 81 20:37 19.12.2019
2300 Clear -18 1011 70 16093 1.79 68 20:19 19.12.2019
2301 Clear -19 1011 76 16093 1.79 68 19:58 19.12.2019
2302 Clear -19 1011 76 16093 1.79 68 19:39 19.12.2019
2303 Clear -19 1011 76 16093 1.79 68 19:19 19.12.2019
2304 Clear -19 1011 76 16093 1.79 68 19:19 19.12.2019
2305 Clear -19 1011 76 16093 1.79 68 19:19 19.12.2019
2306 Clear -19 1010 76 16093 1.79 68 18:57 19.12.2019
2307 Clear -19 1010 76 16093 1.79 68 18:57 19.12.2019
2308 Clear -19 1010 76 16093 1.79 68 18:39 19.12.2019
2309 Clear -19 1010 76 16093 1.79 68 18:19 19.12.2019
2310 Clear -20 1010 83 16093 2.1 50 17:56 19.12.2019
2311 Clear -20 1010 83 16093 2.1 50 17:37 19.12.2019
2312 Clear -19 1010 83 16093 2.1 50 17:18 19.12.2019
2313 Clear -19 1009 76 16093 1.4 36 16:56 19.12.2019
2314 Clear -19 1009 76 16093 1.4 36 16:37 19.12.2019
2315 Clear -19 1009 76 16093 1.4 36 16:19 19.12.2019
2316 Clear -18 1009 76 16093 1.4 36 15:56 19.12.2019
2317 Clear -18 1009 76 16093 1.4 36 15:37 19.12.2019
2318 Clear -19 1009 76 16093 1.4 36 15:19 19.12.2019
2319 Clear -19 1009 76 16093 1.4 36 15:19 19.12.2019
2320 Clear -18 1009 77 16093 1.4 36 14:43 19.12.2019
2321 Clear -18 1009 77 16093 1.65 39 14:20 19.12.2019
2322 Clear -18 1008 77 16093 1.65 39 13:59 19.12.2019
2323 Clear -18 1008 77 16093 1.65 39 13:38 19.12.2019
2324 Clear -18 1008 77 16093 1.65 39 13:38 19.12.2019
2325 Clear -17 1008 77 16093 1.66 42 13:19 19.12.2019
2326 Clear -18 1007 77 16093 1.66 42 12:57 19.12.2019
2327 Clear -18 1007 77 16093 1.66 42 12:39 19.12.2019
2328 Clear -18 1007 77 16093 1.66 42 12:19 19.12.2019
2329 Clear -18 1007 76 16093 1.5 340 11:58 19.12.2019
2330 Clear -18 1007 76 16093 1.5 340 11:40 19.12.2019
2331 Clear -19 1007 76 16093 1.5 340 11:18 19.12.2019
2332 Clear -18 1006 84 16093 2.31 38 10:58 19.12.2019
2333 Clear -18 1006 84 16093 2.31 38 10:38 19.12.2019
2334 Clear -18 1006 84 16093 2.31 38 10:20 19.12.2019
2335 Clear -18 1006 84 16093 2.31 38 09:55 19.12.2019
2336 Clear -18 1006 84 16093 2.31 38 09:37 19.12.2019
2337 Clear -18 1006 84 16093 2.31 38 09:18 19.12.2019
2338 Clear -18 1005 84 16093 2.31 38 08:42 19.12.2019
2339 Clear -17 1005 84 16093 1.75 55 08:20 19.12.2019
2340 Clear -17 1005 84 16093 1.75 55 08:20 19.12.2019
2341 Clear -17 1005 84 16093 1.75 55 08:20 19.12.2019
2342 Clear -16 1004 84 16093 1.95 50 07:59 19.12.2019
2343 Clear -18 1004 84 16093 1.95 50 07:40 19.12.2019
2344 Clear -16 1004 84 16093 1.95 50 07:22 19.12.2019
2345 Clear -17 1004 84 16093 1.95 50 06:52 19.12.2019
2346 Clear -17 1004 84 16093 1.95 50 06:52 19.12.2019
2347 Clear -17 1004 84 16093 1.95 50 06:52 19.12.2019
2348 Clear -18 1004 84 16093 1.95 50 06:33 19.12.2019
2349 Clear -17 1003 84 16093 1.95 50 05:59 19.12.2019
2350 Clear -17 1003 84 16093 1.95 50 05:41 19.12.2019
2351 Clear -17 1003 84 16093 1.35 52 05:18 19.12.2019
2352 Clear -16 1002 91 16093 1.35 52 03:46 19.12.2019
2353 Clear -16 1002 84 16093 1.35 52 02:25 19.12.2019
2354 Clear -16 1002 77 16093 1.81 28 01:24 19.12.2019
2355 Clear -16 1001 84 16093 1.81 28 00:55 19.12.2019
2356 Clear -16 1001 84 16093 1.81 28 00:36 19.12.2019
2357 Clear -15 1001 84 16093 1.81 28 00:18 19.12.2019
2358 Clear -16 1001 84 16093 1.5 360 23:43 18.12.2019
2359 Clear -15 1001 84 16093 1.5 360 23:19 18.12.2019
2360 Clear -15 1001 84 16093 1.88 350 22:56 18.12.2019
2361 Clear -16 1001 84 16093 1.88 350 22:37 18.12.2019
2362 Clear -16 1001 84 16093 1.88 350 22:19 18.12.2019
2363 Clear -13 1000 71 16093 2.1 360 21:57 18.12.2019
2364 Clear -13 1000 71 16093 2.1 360 21:39 18.12.2019
2365 Clear -13 1000 71 16093 2.1 360 21:19 18.12.2019
2366 Clear -16 1000 77 16093 4.6 320 20:55 18.12.2019
2367 Clear -16 1000 77 16093 4.6 320 20:37 18.12.2019
2368 Clear -16 1000 77 16093 4.6 320 20:37 18.12.2019
2369 Clear -15 1000 77 16093 4.6 320 20:19 18.12.2019
2370 Clear -15 1000 84 16093 2.11 17 19:55 18.12.2019
2371 Clear -15 1000 84 16093 2.11 17 19:37 18.12.2019
2372 Clear -15 1000 84 16093 2.11 17 19:18 18.12.2019
2373 Clear -16 1000 77 16093 2.11 17 18:45 18.12.2019
2374 Clear -16 1000 77 16093 2.11 17 18:25 18.12.2019
2375 Clear -16 999 77 16093 1.5 0 17:57 18.12.2019
2376 Clear -16 999 77 16093 1.5 0 17:39 18.12.2019
2377 Clear -16 999 77 16093 1.5 0 17:39 18.12.2019
2378 Clear -16 999 77 16093 1.5 0 17:20 18.12.2019
2379 Clear -16 999 84 16093 2.43 31 16:58 18.12.2019
2380 Clear -17 999 84 16093 2.43 31 16:40 18.12.2019
2381 Clear -17 999 84 16093 2.43 31 16:21 18.12.2019
2382 Clear -16 999 77 16093 2.43 31 15:56 18.12.2019
2383 Clear -16 999 77 16093 2.43 31 15:38 18.12.2019
2384 Clear -16 999 77 16093 2.43 31 15:20 18.12.2019
2385 Clear -15 998 84 16093 2.43 31 14:43 18.12.2019
2386 Clear -15 998 84 16093 2.31 38 14:22 18.12.2019
2387 Clear -16 998 84 16093 2.31 38 13:58 18.12.2019
2388 Clear -16 998 84 16093 2.31 38 13:39 18.12.2019
2389 Clear -17 998 84 16093 1.89 53 13:21 18.12.2019
2390 Clear -16 998 91 16093 1.89 53 12:59 18.12.2019
2391 Clear -17 998 91 16093 1.89 53 12:40 18.12.2019
2392 Clear -14 998 91 16093 1.89 53 12:21 18.12.2019
2393 Clear -15 998 84 16093 1.89 53 11:56 18.12.2019
2394 Clear -16 998 84 16093 1.89 53 11:38 18.12.2019
2395 Clear -15 998 84 16093 1.22 75 11:20 18.12.2019
2396 Clear -15 998 84 16093 2.1 20 10:57 18.12.2019
2397 Clear -15 998 84 16093 2.1 20 10:39 18.12.2019
2398 Clear -16 998 84 16093 2.1 20 10:20 18.12.2019
2399 Clear -14 997 84 16093 1.22 75 09:57 18.12.2019
2400 Clear -14 997 84 16093 1.22 75 09:19 18.12.2019
2401 Clear -15 997 84 16093 1.22 75 08:42 18.12.2019
2402 Clear -15 997 84 16093 1.22 75 08:24 18.12.2019
2403 Clear -15 997 77 16093 2.1 260 07:56 18.12.2019
2404 Clear -15 997 77 16093 2.1 260 07:56 18.12.2019
2405 Clear -15 997 77 16093 2.1 260 07:38 18.12.2019
2406 Clear -15 997 77 16093 2.1 260 07:19 18.12.2019
2407 Clear -14 997 71 16093 1.5 0 06:50 18.12.2019
2408 Clear -15 997 71 16093 1.5 0 06:22 18.12.2019
2409 Clear -14 997 84 16093 2.6 350 05:30 18.12.2019
2410 Clear -15 996 91 16093 1.85 19 03:45 18.12.2019
2411 Clear -15 996 84 16093 1.85 19 02:43 18.12.2019
2412 Clear -15 996 84 16093 1.85 19 02:25 18.12.2019
2413 Clear -13 996 77 16093 1.13 20 01:43 18.12.2019
2414 Clear -13 996 77 16093 1.13 20 01:24 18.12.2019
2415 Clear -13 996 71 16093 0.98 32 00:42 18.12.2019
2416 Clear -13 996 71 16093 0.98 32 00:24 18.12.2019
2417 Clear -15 996 84 16093 0.98 32 23:58 17.12.2019
2418 Clear -15 996 84 16093 0.98 32 23:39 17.12.2019
2419 Clear -15 996 84 16093 1.76 27 23:20 17.12.2019
2420 Clear -15 996 84 16093 1.5 340 22:57 17.12.2019
2421 Clear -15 996 84 16093 1.5 340 22:38 17.12.2019
2422 Clear -16 996 84 16093 1.5 340 22:19 17.12.2019
2423 Clear -16 996 84 16093 1.76 27 21:57 17.12.2019
2424 Clear -16 996 84 16093 1.76 27 21:38 17.12.2019
2425 Clear -16 996 84 16093 1.76 27 21:19 17.12.2019
2426 Clear -16 996 84 16093 1.76 27 20:58 17.12.2019
2427 Clear -16 996 84 16093 1.76 27 20:39 17.12.2019
2428 Clear -14 996 84 16093 1.08 44 20:18 17.12.2019
2429 Clear -15 995 84 16093 1.08 44 19:56 17.12.2019
2430 Clear -15 995 84 16093 1.08 44 19:38 17.12.2019
2431 Clear -15 995 84 16093 1.08 44 19:19 17.12.2019
2432 Clear -14 995 77 16093 1.08 44 18:55 17.12.2019
2433 Clear -13 995 77 16093 1.08 44 18:37 17.12.2019
2434 Clear -13 995 77 16093 1.08 44 18:19 17.12.2019
2435 Clear -13 995 84 16093 1.08 44 17:42 17.12.2019
2436 Clear -13 995 84 16093 1.08 44 17:42 17.12.2019
2437 Clear -14 995 84 16093 0.88 43 17:21 17.12.2019
2438 Clear -13 996 84 16093 0.88 43 16:57 17.12.2019
2439 Clear -13 996 84 16093 0.88 43 16:38 17.12.2019
2440 Clear -14 996 84 16093 0.88 43 16:19 17.12.2019
2441 Clear -14 996 84 16093 1.5 360 15:59 17.12.2019
2442 Clear -14 996 84 16093 1.5 360 15:38 17.12.2019
2443 Clear -15 996 84 16093 1.5 360 15:19 17.12.2019
2444 Clear -14 996 84 16093 0.88 43 14:56 17.12.2019
2445 Clear -13 996 84 16093 0.88 43 14:38 17.12.2019
2446 Clear -13 996 84 16093 0.82 14 14:19 17.12.2019
2447 Clear -13 996 84 16093 0.82 14 13:56 17.12.2019
2448 Clear -13 996 84 16093 0.82 14 13:38 17.12.2019
2449 Clear -13 996 84 16093 1.18 15 13:19 17.12.2019
2450 Clear -13 996 84 16093 1.18 15 13:19 17.12.2019
2451 Clear -12 996 78 16093 1.18 15 12:56 17.12.2019
2452 Clear -12 996 78 16093 1.18 15 12:37 17.12.2019
2453 Clear -11 996 78 16093 1.18 15 12:18 17.12.2019
2454 Clear -12 996 78 16093 2.1 20 11:56 17.12.2019
2455 Clear -12 996 78 16093 2.1 20 11:36 17.12.2019
2456 Clear -12 996 78 16093 2.1 20 11:18 17.12.2019
2457 Clear -12 996 78 16093 2.1 20 11:18 17.12.2019
2458 Clear -13 996 84 16093 1.5 340 10:55 17.12.2019
2459 Clear -13 996 84 16093 1.5 340 10:37 17.12.2019
2460 Clear -13 996 84 16093 1.5 340 10:18 17.12.2019
2461 Clear -13 996 77 16093 1.11 105 09:42 17.12.2019
2462 Clear -13 996 77 16093 1.11 105 09:21 17.12.2019
2463 Clear -12 996 84 16093 1.5 330 08:58 17.12.2019
2464 Clear -11 996 84 16093 1.5 330 08:39 17.12.2019
2465 Clear -12 996 84 16093 1.5 330 08:21 17.12.2019
2466 Clear -12 996 78 16093 0.83 75 07:58 17.12.2019
2467 Clear -11 996 78 16093 0.83 75 07:39 17.12.2019
2468 Clear -11 996 78 16093 0.83 75 07:19 17.12.2019
2469 Clear -10 996 85 16093 0.83 75 06:41 17.12.2019
2470 Clear -11 996 85 16093 0.83 75 06:22 17.12.2019
2471 Clear -9 996 72 16093 0.83 75 05:40 17.12.2019
2472 Clear -7 996 72 16093 1.37 76 04:48 17.12.2019
2473 Clear -8 996 78 16093 1.37 76 03:31 17.12.2019
2474 Clear -4 997 58 16093 1.5 120 01:59 17.12.2019
2475 Clear -4 997 58 16093 1.5 120 01:21 17.12.2019
2476 Clear -2 996 58 16093 5.1 50 00:39 17.12.2019
2477 Clear -2 996 58 16093 5.1 50 00:39 17.12.2019
2478 Clear -2 996 58 16093 5.1 50 00:21 17.12.2019
2479 Clear -5 997 67 16093 2.1 30 23:43 16.12.2019
2480 Clear -4 997 67 16093 2.1 30 23:20 16.12.2019
2481 Clear -4 997 67 16093 3.6 40 22:58 16.12.2019
2482 Clear -6 997 67 16093 3.6 40 22:38 16.12.2019
2483 Clear -6 997 67 16093 3.6 40 22:20 16.12.2019
2484 Clear -7 997 73 16093 2.1 100 21:57 16.12.2019
2485 Clear -7 997 73 16093 2.1 100 21:57 16.12.2019
2486 Clear -7 997 73 16093 2.1 100 21:38 16.12.2019
2487 Clear -7 997 73 16093 2.1 100 21:20 16.12.2019
2488 Clear -6 997 79 16093 1.5 190 20:58 16.12.2019
2489 Clear -6 997 79 16093 1.5 190 20:39 16.12.2019
2490 Clear -6 997 79 16093 1.5 190 20:39 16.12.2019
2491 Clear -6 997 79 16093 1.5 190 20:19 16.12.2019
2492 Clear -1 997 58 16093 4.1 40 19:56 16.12.2019
2493 Clear -1 997 58 16093 4.1 40 19:37 16.12.2019
2494 Clear -1 997 58 16093 4.1 40 19:19 16.12.2019
2495 Clear -1 997 58 16093 4.1 40 19:19 16.12.2019
2496 Clear -2 997 63 16093 1.5 360 18:59 16.12.2019
2497 Clear -2 997 63 16093 1.5 360 18:40 16.12.2019
2498 Clear -2 997 63 16093 1.5 360 18:20 16.12.2019
2499 Clear -1 997 58 16093 6.2 10 17:58 16.12.2019
2500 Clear -1 997 58 16093 6.2 10 17:39 16.12.2019
2501 Clear -1 997 58 16093 6.2 10 17:21 16.12.2019
2502 Clear -1 998 54 16093 4.1 360 16:57 16.12.2019
2503 Clear -1 998 54 16093 4.1 360 16:38 16.12.2019
2504 Clear -1 998 54 16093 4.1 360 16:19 16.12.2019
2505 Clear -2 998 63 16093 3.6 10 15:58 16.12.2019
2506 Clear -2 998 63 16093 3.6 10 15:38 16.12.2019
2507 Clear -2 998 63 16093 3.6 10 15:20 16.12.2019
2508 Clear 1 999 55 16093 4.1 30 14:57 16.12.2019
2509 Clear 1 999 55 16093 4.1 30 14:37 16.12.2019
2510 Clear 1 999 55 16093 4.1 30 14:19 16.12.2019
2511 Clear 1 999 55 16093 4.1 30 14:19 16.12.2019
2512 Clear -1 999 63 16093 3.1 30 13:56 16.12.2019
2513 Clear -1 999 63 16093 3.1 30 13:56 16.12.2019
2514 Clear -1 999 63 16093 3.1 30 13:37 16.12.2019
2515 Clear -1 999 63 16093 3.1 30 13:37 16.12.2019
2516 Clear -1 999 63 16093 3.1 30 13:19 16.12.2019
2517 Clear -2 1000 68 16093 3.15 30 12:57 16.12.2019
2518 Clear -2 1000 68 16093 2.78 52 12:39 16.12.2019
2519 Clear -2 1000 68 16093 3.15 30 12:18 16.12.2019
2520 Clear -3 999 73 16093 2.1 20 11:58 16.12.2019
2521 Clear -3 999 73 16093 2.1 20 11:40 16.12.2019
2522 Clear -3 999 73 16093 2.1 20 11:20 16.12.2019
2523 Clear -3 999 73 16093 2.1 20 11:20 16.12.2019
2524 Clear -3 1000 73 16093 1.5 150 10:56 16.12.2019
2525 Clear -3 1000 73 16093 1.5 150 10:37 16.12.2019
2526 Clear -3 1000 73 16093 1.5 150 10:19 16.12.2019
2527 Clear 1 999 59 16093 5.1 20 09:45 16.12.2019
2528 Clear 1 999 59 16093 5.1 20 09:26 16.12.2019
2529 Clear 1 1000 59 16093 4.6 10 08:41 16.12.2019
2530 Clear 1 1000 59 16093 4.6 10 08:21 16.12.2019
2531 Clouds 2 1000 55 16093 6.2 10 07:59 16.12.2019
2532 Clouds 2 1000 55 16093 6.2 10 07:41 16.12.2019
2533 Clouds 2 1000 55 16093 6.2 10 07:20 16.12.2019
2534 Clouds 1 1000 55 16093 5.7 20 06:41 16.12.2019
2535 Clouds 1 1000 55 16093 5.7 20 06:22 16.12.2019
2536 Clear -2 1000 68 16093 4.1 30 05:47 16.12.2019
2537 Clouds -1 1002 70 0 3.14 23 05:29 16.12.2019
2538 Clear -2 1000 68 16093 4.1 20 03:41 16.12.2019
2539 Clouds -2 1001 68 16093 3.1 20 01:58 16.12.2019
2540 Clouds -2 1001 68 16093 3.1 20 01:40 16.12.2019
2541 Clouds -3 1001 68 16093 4.1 40 00:42 16.12.2019
2542 Clouds -3 1001 68 16093 4.1 40 00:23 16.12.2019
2543 Clear -4 1002 80 0 2.81 53 23:58 15.12.2019
2544 Clear 0 1001 80 16093 3.6 70 23:38 15.12.2019
2545 Clear 0 1001 83 16093 3.6 70 23:19 15.12.2019
2546 Clear 0 1001 83 16093 3.6 70 22:55 15.12.2019
2547 Clear 0 1001 83 16093 3.6 70 22:37 15.12.2019
2548 Clear 0 1001 83 16093 3.6 70 22:18 15.12.2019
2549 Clear -2 1001 68 16093 3.1 60 21:55 15.12.2019
2550 Clear -2 1001 68 16093 3.1 60 21:37 15.12.2019
2551 Clear -2 1001 68 16093 3.1 60 21:19 15.12.2019
2552 Clear -2 1000 68 16093 3.6 90 20:55 15.12.2019
2553 Clear -2 1000 68 16093 3.6 90 20:37 15.12.2019
2554 Clear -2 1000 68 16093 3.6 90 20:18 15.12.2019
2555 Clear -2 1000 74 16093 5.7 80 19:56 15.12.2019
2556 Clear -2 1000 74 16093 5.7 80 19:38 15.12.2019
2557 Snow -3 1001 94 0 3.84 63 19:18 15.12.2019
2558 Snow -3 1001 94 0 3.84 63 18:55 15.12.2019
2559 Snow -3 1001 94 0 3.84 63 18:37 15.12.2019
2560 Clouds -1 1000 80 16093 7.2 90 18:18 15.12.2019
2561 Clouds -1 1000 80 16093 7.2 90 17:55 15.12.2019
2562 Clouds -1 1000 80 16093 7.2 90 17:36 15.12.2019
2563 Clouds -1 1000 80 16093 7.2 90 17:18 15.12.2019
2564 Clouds 0 1000 95 16093 7.7 80 16:43 15.12.2019
2565 Clouds 0 1000 95 16093 7.7 80 16:23 15.12.2019
2566 Clouds -1 999 80 16093 7.2 70 15:57 15.12.2019
2567 Clouds -1 999 80 16093 7.2 70 15:39 15.12.2019
2568 Clouds -1 999 80 16093 7.2 70 15:20 15.12.2019
2569 Clouds -2 1000 79 16093 6.2 80 14:56 15.12.2019
2570 Clouds -2 1000 79 16093 6.2 80 14:38 15.12.2019
2571 Clouds -2 1000 79 16093 6.2 80 14:19 15.12.2019
2572 Clouds -2 999 79 16093 6.7 80 13:59 15.12.2019
2573 Clouds -2 999 79 16093 6.7 80 13:39 15.12.2019
2574 Clouds -2 999 79 16093 6.7 80 13:20 15.12.2019
2575 Clouds -2 999 68 16093 6.2 80 12:57 15.12.2019
2576 Clouds -2 999 68 16093 6.2 80 12:39 15.12.2019
2577 Clouds -2 999 68 16093 6.2 80 12:21 15.12.2019
2578 Clear -1 999 63 16093 7.7 80 11:59 15.12.2019
2579 Clear -1 999 63 16093 7.7 80 11:38 15.12.2019
2580 Clear -1 999 63 16093 7.7 80 11:19 15.12.2019
2581 Clouds -1 999 63 16093 7.2 80 10:56 15.12.2019
2582 Clouds -1 999 63 16093 7.2 80 10:37 15.12.2019
2583 Clouds -1 999 63 16093 7.2 80 10:19 15.12.2019
2584 Clouds 0 998 95 16093 7.2 90 09:57 15.12.2019
2585 Clouds 0 998 95 16093 7.2 90 09:37 15.12.2019
2586 Clouds 0 998 95 16093 7.2 90 09:19 15.12.2019
2587 Snow -4 999 95 0 5.44 82 08:42 15.12.2019
2588 Clouds 0 998 95 16093 8.2 90 08:23 15.12.2019
2589 Clouds 0 998 93 16093 8.2 90 07:57 15.12.2019
2590 Clouds 0 998 93 16093 8.2 90 07:38 15.12.2019
2591 Clouds 0 998 93 16093 8.2 90 07:19 15.12.2019
2592 Clouds -1 998 63 16093 6.7 90 06:24 15.12.2019
2593 Clear -1 998 63 16093 3.1 80 05:42 15.12.2019
2594 Clear -1 998 63 16093 3.1 80 05:20 15.12.2019
2595 Clear -1 997 68 16093 6.2 90 04:19 15.12.2019
2596 Clear 0 997 82 16093 7.7 90 02:49 15.12.2019
2597 Clear 0 997 82 16093 7.7 90 02:30 15.12.2019
2598 Clear 1 997 69 16093 7.2 90 01:40 15.12.2019
2599 Clear 1 997 69 16093 7.2 90 01:18 15.12.2019
2600 Clear 1 997 69 16093 5.7 80 00:49 15.12.2019
2601 Clear 1 997 69 16093 5.7 80 00:30 15.12.2019
2602 Clouds 0 997 83 16093 4.6 80 23:41 14.12.2019
2603 Clouds 0 997 88 16093 4.6 80 23:22 14.12.2019
2604 Clouds 0 997 88 16093 6.2 90 22:59 14.12.2019
2605 Clouds 0 997 88 16093 6.2 90 22:41 14.12.2019
2606 Clouds 0 997 88 16093 6.2 90 22:22 14.12.2019
2607 Clouds -1 998 86 16093 7.2 80 21:57 14.12.2019
2608 Clouds -1 998 86 16093 7.2 80 21:38 14.12.2019
2609 Clouds -1 998 86 16093 7.2 80 21:19 14.12.2019
2610 Snow -1 997 86 6437 8.2 90 20:59 14.12.2019
2611 Snow -1 997 86 6437 8.2 90 20:40 14.12.2019
2612 Snow -1 997 86 6437 8.2 90 20:20 14.12.2019
2613 Snow -1 997 86 12874 7.2 90 19:57 14.12.2019
2614 Snow -1 997 86 12874 7.2 90 19:38 14.12.2019
2615 Snow -1 997 86 12874 7.2 90 19:20 14.12.2019
2616 Mist -1 997 86 8047 6.7 80 18:56 14.12.2019
2617 Mist -1 997 86 8047 6.7 80 18:38 14.12.2019
2618 Mist -1 997 86 8047 6.7 80 18:38 14.12.2019
2619 Mist -1 997 86 8047 6.7 80 18:19 14.12.2019
2620 Snow -2 998 92 4828 5.7 70 17:44 14.12.2019
2621 Snow -2 998 92 4828 5.7 70 17:24 14.12.2019
2622 Snow -3 998 92 4023 4.6 70 16:59 14.12.2019
2623 Snow -3 998 92 4023 4.6 70 16:40 14.12.2019
2624 Snow -3 998 92 4023 4.6 70 16:19 14.12.2019
2625 Snow -3 998 92 4023 5.7 70 15:43 14.12.2019
2626 Snow -3 998 92 4023 5.7 70 15:25 14.12.2019
2627 Clouds -3 998 86 12874 5.7 80 14:59 14.12.2019
2628 Clouds -3 998 86 12874 5.7 80 14:39 14.12.2019
2629 Clouds -3 998 86 12874 5.7 80 14:20 14.12.2019
2630 Clouds -4 999 85 16093 6.2 80 13:58 14.12.2019
2631 Clouds -4 999 85 16093 6.2 80 13:39 14.12.2019
2632 Clouds -4 999 85 16093 6.2 80 13:19 14.12.2019
2633 Snow -4 999 85 8047 6.7 80 12:56 14.12.2019
2634 Snow -4 999 85 8047 6.7 80 12:37 14.12.2019
2635 Snow -4 999 85 8047 6.7 80 12:19 14.12.2019
2636 Snow -4 998 85 8047 6.7 80 11:56 14.12.2019
2637 Snow -4 998 85 8047 6.7 80 11:37 14.12.2019
2638 Snow -4 998 85 8047 6.7 80 11:18 14.12.2019
2639 Snow -4 998 79 9656 7.2 80 10:55 14.12.2019
2640 Snow -4 998 79 9656 7.2 80 10:55 14.12.2019
2641 Snow -4 998 79 9656 7.2 80 10:37 14.12.2019
2642 Snow -4 998 79 9656 7.2 80 10:19 14.12.2019
2643 Clouds -4 998 85 16093 6.7 90 09:42 14.12.2019
2644 Clouds -4 998 85 16093 6.7 90 09:21 14.12.2019
2645 Clouds -5 997 85 16093 6.2 80 08:56 14.12.2019
2646 Clouds -5 997 85 16093 6.2 80 08:37 14.12.2019
2647 Clouds -5 997 85 16093 6.2 80 08:18 14.12.2019
2648 Clouds -5 997 85 16093 6.7 70 07:40 14.12.2019
2649 Clouds -5 997 85 16093 6.7 70 07:20 14.12.2019
2650 Clouds -5 997 92 16093 6.7 90 06:42 14.12.2019
2651 Clouds -5 997 92 16093 6.7 90 06:22 14.12.2019
2652 Mist -6 996 92 4023 6.2 90 05:35 14.12.2019
2653 Snow -6 995 85 4828 5.7 80 03:34 14.12.2019
2654 Clouds -6 995 79 16093 6.7 80 02:23 14.12.2019
2655 Clouds -6 994 79 16093 5.7 70 01:44 14.12.2019
2656 Clouds -6 994 79 16093 6.2 80 00:59 14.12.2019
2657 Clouds -6 994 79 16093 6.2 80 00:40 14.12.2019
2658 Clouds -6 994 79 16093 6.2 80 00:20 14.12.2019
2659 Clouds -6 994 79 16093 4.6 80 23:41 13.12.2019
2660 Clouds -6 994 79 16093 4.6 80 23:41 13.12.2019
2661 Clouds -6 994 79 16093 4.6 80 23:19 13.12.2019
2662 Clouds -7 993 85 16093 3.6 80 22:56 13.12.2019
2663 Clouds -7 993 85 16093 3.6 80 22:37 13.12.2019
2664 Clouds -7 993 85 16093 3.6 80 22:18 13.12.2019
2665 Clouds -6 993 79 16093 3.1 80 21:44 13.12.2019
2666 Clouds -6 993 79 16093 3.1 80 21:22 13.12.2019
2667 Clouds -6 992 79 16093 3.6 80 20:59 13.12.2019
2668 Clouds -6 992 79 16093 3.6 80 20:39 13.12.2019
2669 Clouds -9 992 85 16093 2.48 94 20:20 13.12.2019
2670 Clouds -9 992 85 16093 2.48 94 19:56 13.12.2019
2671 Clouds -9 992 85 16093 2.48 94 19:38 13.12.2019
2672 Clouds -9 992 85 16093 2.48 94 19:19 13.12.2019
2673 Clouds -10 992 85 16093 2.48 94 18:55 13.12.2019
2674 Clouds -10 992 85 16093 2.48 94 18:36 13.12.2019
2675 Clouds -10 992 85 16093 2.48 94 18:18 13.12.2019
2676 Clear -10 992 92 16093 2.48 94 17:40 13.12.2019
2677 Clear -10 992 92 16093 2.48 94 17:40 13.12.2019
2678 Clear -11 992 92 16093 1.03 131 17:19 13.12.2019
2679 Clear -11 992 92 16093 1.03 131 16:58 13.12.2019
2680 Clear -11 992 92 16093 1.03 131 16:39 13.12.2019
2681 Clear -11 992 92 16093 1.03 131 16:20 13.12.2019
2682 Clear -11 992 85 16093 1.03 131 15:43 13.12.2019
2683 Clear -10 992 85 16093 1.03 131 15:22 13.12.2019
2684 Clear -10 992 92 16093 1.03 131 14:57 13.12.2019
2685 Clear -10 992 92 16093 1.03 131 14:39 13.12.2019
2686 Clear -10 992 92 16093 1.41 11 14:20 13.12.2019
2687 Clear -9 992 85 16093 1.41 11 13:56 13.12.2019
2688 Clear -9 992 85 16093 1.41 11 13:37 13.12.2019
2689 Clear -9 992 85 16093 1.41 11 13:18 13.12.2019
2690 Clear -8 993 85 16093 2.1 360 12:42 13.12.2019
2691 Clear -8 993 85 16093 2.1 360 12:19 13.12.2019
2692 Clear -6 993 85 16093 1.5 34 11:57 13.12.2019
2693 Clear -6 993 85 16093 1.5 34 11:39 13.12.2019
2694 Clear -6 993 85 16093 0.89 106 11:19 13.12.2019
2695 Clear -6 993 85 16093 0.89 106 10:41 13.12.2019
2696 Clear -6 993 85 16093 0.89 106 10:21 13.12.2019
2697 Clear -7 993 85 16093 0.89 106 09:43 13.12.2019
2698 Clear -7 993 85 16093 0.89 106 09:22 13.12.2019
2699 Clear -6 993 85 16093 0.89 106 08:59 13.12.2019
2700 Clear -6 993 85 16093 0.89 106 08:40 13.12.2019
2701 Clear -6 993 85 16093 0.88 50 08:22 13.12.2019
2702 Clear -6 993 79 16093 1.5 20 07:43 13.12.2019
2703 Clear -5 993 79 16093 1.5 20 07:20 13.12.2019
2704 Clear -6 993 79 16093 0.88 50 06:50 13.12.2019
2705 Clear -5 993 79 16093 0.88 50 06:28 13.12.2019
2706 Clear -6 994 85 16093 0.88 50 05:43 13.12.2019
2707 Clear -6 994 85 16093 1.29 7 05:20 13.12.2019
2708 Clear -5 994 79 16093 1.29 7 04:33 13.12.2019
2709 Clear -6 994 79 16093 2.6 360 03:30 13.12.2019
2710 Clear -5 994 79 16093 2.1 20 02:32 13.12.2019
2711 Clear -5 994 79 16093 2.1 20 02:32 13.12.2019
2712 Clear -6 994 85 16093 1.5 320 01:40 13.12.2019
2713 Clear -6 994 79 16093 2.6 40 00:51 13.12.2019
2714 Clear -6 994 79 16093 2.6 40 00:32 13.12.2019
2715 Clear -6 995 85 16093 2.6 10 23:57 12.12.2019
2716 Clear -6 995 85 16093 2.6 10 23:37 12.12.2019
2717 Clear -6 995 85 16093 2.6 10 23:19 12.12.2019
2718 Clear -6 995 85 16093 1.47 71 22:42 12.12.2019
2719 Clear -7 995 85 16093 1.47 71 22:23 12.12.2019
2720 Clear -6 994 79 16093 3.1 30 21:56 12.12.2019
2721 Clear -6 994 79 16093 3.1 30 21:56 12.12.2019
2722 Clear -6 994 79 16093 3.1 30 21:38 12.12.2019
2723 Clear -6 994 79 16093 3.1 30 21:20 12.12.2019
2724 Clear -7 994 85 16093 2.1 10 20:59 12.12.2019
2725 Clear -7 994 85 16093 2.1 10 20:41 12.12.2019
2726 Clear -7 994 85 16093 2.1 10 20:23 12.12.2019
2727 Clear -3 994 68 16093 2.1 50 19:59 12.12.2019
2728 Clear -3 994 68 16093 2.1 50 19:59 12.12.2019
2729 Clear -3 994 68 16093 2.1 50 19:40 12.12.2019
2730 Clear -3 994 68 16093 2.1 50 19:21 12.12.2019
2731 Clear -4 994 73 16093 3.1 50 18:57 12.12.2019
2732 Clear -4 994 73 16093 3.1 50 18:57 12.12.2019
2733 Clear -4 994 73 16093 3.1 50 18:57 12.12.2019
2734 Clear -4 994 73 16093 3.1 50 18:38 12.12.2019
2735 Clear -4 994 73 16093 3.1 50 18:20 12.12.2019
2736 Clouds -2 994 74 16093 2.6 40 17:57 12.12.2019
2737 Clouds -2 994 74 16093 2.6 40 17:38 12.12.2019
2738 Clouds -2 994 74 16093 2.6 40 17:20 12.12.2019
2739 Clear -2 994 74 16093 3.6 80 16:56 12.12.2019
2740 Clear -2 994 74 16093 3.6 80 16:37 12.12.2019
2741 Clear -2 994 74 16093 3.6 80 16:19 12.12.2019
2742 Clear -1 993 68 16093 3.6 110 15:54 12.12.2019
2743 Clear -1 993 68 16093 3.6 110 15:36 12.12.2019
2744 Clear -1 993 68 16093 3.6 110 15:18 12.12.2019
2745 Clear 0 993 77 16093 1.5 350 14:38 12.12.2019
2746 Clear 0 993 77 16093 1.5 350 14:38 12.12.2019
2747 Clear 0 993 73 16093 1.5 350 14:20 12.12.2019
2748 Clear 1 994 64 16093 2.16 71 13:57 12.12.2019
2749 Clear 1 994 64 16093 2.16 71 13:39 12.12.2019
2750 Clear 1 994 64 16093 2.67 61 13:21 12.12.2019
2751 Clear 2 993 55 16093 5.7 50 12:57 12.12.2019
2752 Clear 2 993 55 16093 5.7 50 12:38 12.12.2019
2753 Clear 2 993 55 16093 5.7 50 12:20 12.12.2019
2754 Clear 3 993 51 16093 4.1 50 11:55 12.12.2019
2755 Clear 3 993 51 16093 4.1 50 11:37 12.12.2019
2756 Clear 3 993 51 16093 4.1 50 11:19 12.12.2019
2757 Clear 2 993 55 16093 5.7 50 10:54 12.12.2019
2758 Clear 2 993 55 16093 5.7 50 10:36 12.12.2019
2759 Clear 2 993 55 16093 5.7 50 10:18 12.12.2019
2760 Clear 2 993 59 16093 8.2 50 09:41 12.12.2019
2761 Clear 2 993 59 16093 8.2 50 09:23 12.12.2019
2762 Clear 2 994 55 16093 8.7 50 08:56 12.12.2019
2763 Clear 2 994 55 16093 8.7 50 08:38 12.12.2019
2764 Clear 2 994 55 16093 8.7 50 08:38 12.12.2019
2765 Clear 2 994 55 16093 8.7 50 08:19 12.12.2019
2766 Clear 2 994 59 16093 7.2 40 07:42 12.12.2019
2767 Clear 2 994 59 16093 7.2 40 07:24 12.12.2019
2768 Clear 3 995 55 16093 5.1 50 06:48 12.12.2019
2769 Clear 3 995 55 16093 5.1 50 06:30 12.12.2019
2770 Clear 2 996 64 16093 7.7 40 05:36 12.12.2019
2771 Clouds 1 996 64 16093 4.1 50 04:51 12.12.2019
2772 Clouds 1 996 64 16093 4.1 50 04:51 12.12.2019
2773 Clouds 2 997 64 16093 4.6 350 03:20 12.12.2019
2774 Clear 1 998 69 16093 4.1 360 02:37 12.12.2019
2775 Clear 1 998 69 16093 4.1 360 02:19 12.12.2019
2776 Clear 1 999 69 16093 4.1 360 01:37 12.12.2019
2777 Clear 1 999 69 16093 4.1 360 01:18 12.12.2019
2778 Clouds 1 999 74 16093 6.2 30 00:40 12.12.2019
2779 Clouds 1 999 74 16093 6.2 30 00:19 12.12.2019
2780 Clouds -2 1000 79 16093 3.1 20 23:44 11.12.2019
2781 Clouds -2 1000 79 16093 3.1 20 23:20 11.12.2019
2782 Clear -2 1000 86 16093 4.6 10 22:57 11.12.2019
2783 Clear -2 1000 86 16093 4.6 10 22:38 11.12.2019
2784 Clear -2 1000 86 16093 4.6 10 22:19 11.12.2019
2785 Clear -2 1001 86 16093 4.6 30 21:57 11.12.2019
2786 Clear -2 1001 86 16093 4.6 30 21:37 11.12.2019
2787 Clear -2 1001 86 16093 4.6 30 21:19 11.12.2019
2788 Clear -3 1001 79 16093 3.6 30 20:56 11.12.2019
2789 Clear -3 1001 79 16093 3.6 30 20:37 11.12.2019
2790 Clear -3 1001 79 16093 3.6 30 20:37 11.12.2019
2791 Clear -3 1001 79 16093 3.6 30 20:19 11.12.2019
2792 Clear -3 1001 79 16093 3.6 30 20:19 11.12.2019
2793 Clear -1 1001 80 16093 3.6 60 19:57 11.12.2019
2794 Clear -1 1001 80 16093 3.6 60 19:38 11.12.2019
2795 Clear -1 1001 80 16093 3.6 60 19:18 11.12.2019
2796 Clouds -1 1001 80 16093 4.6 70 18:40 11.12.2019
2797 Clouds -1 1001 80 16093 4.6 70 18:21 11.12.2019
2798 Clear -2 1000 86 16093 5.7 70 17:57 11.12.2019
2799 Clear -2 1000 86 16093 5.7 70 17:57 11.12.2019
2800 Clear -2 1000 86 16093 5.7 70 17:39 11.12.2019
2801 Clear -2 1000 86 16093 5.7 70 17:18 11.12.2019
2802 Clear -2 1000 86 16093 6.2 80 16:57 11.12.2019
2803 Clear -2 1000 86 16093 6.2 80 16:57 11.12.2019
2804 Clear -2 1000 86 16093 6.2 80 16:38 11.12.2019
2805 Clear -2 1000 86 16093 6.2 80 16:38 11.12.2019
2806 Clear -2 1000 86 16093 6.2 80 16:20 11.12.2019
2807 Clouds -1 1000 86 16093 6.2 80 15:59 11.12.2019
2808 Clouds -1 1000 86 16093 6.2 80 15:39 11.12.2019
2809 Clouds -1 1000 86 16093 6.2 80 15:21 11.12.2019
2810 Clouds -1 1000 92 16093 6.2 80 14:56 11.12.2019
2811 Clouds -1 1000 92 16093 6.2 80 14:37 11.12.2019
2812 Clouds -1 1000 92 16093 6.2 80 14:19 11.12.2019
2813 Clouds -1 999 92 16093 6.2 90 13:55 11.12.2019
2814 Clouds -1 999 92 16093 5.7 80 13:36 11.12.2019
2815 Clouds -1 999 92 16093 5.7 80 13:18 11.12.2019
2816 Rain -1 998 92 16093 6.7 90 12:55 11.12.2019
2817 Rain -1 998 92 16093 6.7 90 12:37 11.12.2019
2818 Rain -1 998 92 16093 6.7 90 12:18 11.12.2019
2819 Rain -1 998 92 14484 7.2 90 11:56 11.12.2019
2820 Rain -1 998 92 6437 6.2 90 11:37 11.12.2019
2821 Rain -1 998 92 6437 6.2 90 11:37 11.12.2019
2822 Rain -1 998 92 6437 6.2 90 11:18 11.12.2019
2823 Snow 0 997 95 3219 6.7 90 10:44 11.12.2019
2824 Snow 0 997 95 3219 6.7 90 10:25 11.12.2019
2825 Snow 0 996 95 6437 6.2 100 09:58 11.12.2019
2826 Snow 0 996 95 6437 6.2 100 09:38 11.12.2019
2827 Snow 0 996 95 6437 6.2 100 09:20 11.12.2019
2828 Snow 0 995 92 12874 7.7 80 08:57 11.12.2019
2829 Snow -1 995 92 12874 7.7 80 08:37 11.12.2019
2830 Snow -1 995 92 12874 7.7 80 08:18 11.12.2019
2831 Clouds 1 994 80 16093 7.2 100 07:45 11.12.2019
2832 Clouds 1 994 80 16093 7.2 100 07:25 11.12.2019
2833 Clouds 0 994 94 16093 7.2 80 06:47 11.12.2019
2834 Clouds 0 994 94 16093 7.2 80 06:25 11.12.2019
2835 Clouds 1 993 74 16093 7.7 90 05:58 11.12.2019
2836 Clouds 0 993 74 16093 7.7 90 05:37 11.12.2019
2837 Clouds 0 993 86 16093 6.7 90 04:55 11.12.2019
2838 Clouds 1 992 80 16093 10.8 90 03:41 11.12.2019
2839 Clouds 1 991 80 16093 9.8 90 02:40 11.12.2019
2840 Clouds 1 990 80 16093 10.3 90 01:23 11.12.2019
2841 Clouds 1 990 87 16093 10.3 90 00:46 11.12.2019
2842 Clouds 0 990 87 16093 10.3 90 00:21 11.12.2019
2843 Clouds -1 989 86 16093 10.3 90 23:46 10.12.2019
2844 Clouds 0 989 86 16093 10.3 90 23:28 10.12.2019
2845 Clouds 0 988 83 16093 11.8 100 22:57 10.12.2019
2846 Clouds 0 988 83 16093 11.8 100 22:39 10.12.2019
2847 Clouds 0 988 83 16093 11.8 100 22:21 10.12.2019
2848 Clouds -1 988 86 16093 9.3 90 21:55 10.12.2019
2849 Clouds -1 988 86 16093 9.3 90 21:55 10.12.2019
2850 Clouds -1 988 86 16093 9.3 90 21:37 10.12.2019
2851 Clouds -1 988 86 16093 9.3 90 21:19 10.12.2019
2852 Clouds 1 987 80 16093 10.8 90 20:57 10.12.2019
2853 Clouds 1 987 80 16093 10.8 90 20:37 10.12.2019
2854 Clouds 1 987 80 16093 10.8 90 20:37 10.12.2019
2855 Clouds 1 987 80 16093 10.8 90 20:19 10.12.2019
2856 Clouds 1 987 80 16093 10.8 90 20:19 10.12.2019
2857 Clouds 1 986 80 16093 10.3 90 19:55 10.12.2019
2858 Clouds 1 986 80 16093 10.3 90 19:36 10.12.2019
2859 Clouds 1 986 80 16093 10.3 90 19:18 10.12.2019
2860 Clouds 1 985 80 16093 11.8 100 18:40 10.12.2019
2861 Clouds 1 985 80 16093 11.8 100 18:20 10.12.2019
2862 Clear 1 984 80 16093 13.9 90 17:58 10.12.2019
2863 Clear 1 984 80 16093 13.9 90 17:39 10.12.2019
2864 Clear 1 984 80 16093 13.9 90 17:20 10.12.2019
2865 Clear 1 983 80 16093 11.3 90 16:44 10.12.2019
2866 Clear 1 983 80 16093 11.3 90 16:21 10.12.2019
2867 Clouds 1 983 80 16093 11.3 90 15:59 10.12.2019
2868 Clouds 1 983 80 16093 11.3 90 15:38 10.12.2019
2869 Clouds 1 983 80 16093 11.3 90 15:18 10.12.2019
2870 Clouds 1 982 80 16093 12.9 90 14:56 10.12.2019
2871 Clouds 1 982 80 16093 12.9 90 14:37 10.12.2019
2872 Clouds 1 982 80 16093 12.9 90 14:37 10.12.2019
2873 Clouds 1 982 80 16093 12.9 90 14:19 10.12.2019
2874 Clouds 1 982 80 16093 12.9 90 13:56 10.12.2019
2875 Clouds 1 982 80 16093 12.9 90 13:38 10.12.2019
2876 Clouds 1 982 80 16093 12.9 90 13:19 10.12.2019
2877 Clear 1 981 80 16093 12.3 80 12:45 10.12.2019
2878 Clear 1 981 80 16093 12.3 80 12:26 10.12.2019
2879 Clear 2 981 74 16093 11.8 80 11:45 10.12.2019
2880 Clear 2 981 74 16093 11.8 80 11:25 10.12.2019
2881 Clouds 2 981 80 16093 11.3 80 10:58 10.12.2019
2882 Clouds 2 981 80 16093 11.3 80 10:40 10.12.2019
2883 Clouds 2 981 80 16093 11.3 80 10:22 10.12.2019
2884 Snow 2 980 74 14484 12.3 90 09:56 10.12.2019
2885 Snow 2 980 74 14484 12.3 90 09:56 10.12.2019
2886 Snow 2 980 74 14484 12.3 90 09:38 10.12.2019
2887 Snow 2 980 74 14484 12.3 90 09:38 10.12.2019
2888 Snow 2 980 74 14484 12.3 90 09:20 10.12.2019
2889 Snow 3 980 69 16093 11.3 90 08:57 10.12.2019
2890 Rain 4 980 64 16093 9.8 70 08:38 10.12.2019
2891 Rain 4 980 64 16093 9.8 70 08:19 10.12.2019
2892 Rain 4 980 64 16093 9.8 70 08:19 10.12.2019
2893 Rain 3 980 74 16093 7.7 80 07:44 10.12.2019
2894 Rain 4 980 64 16093 9.3 70 07:26 10.12.2019
2895 Rain 4 980 64 16093 9.3 70 07:26 10.12.2019
2896 Clouds 4 979 60 16093 7.7 70 06:49 10.12.2019
2897 Clouds 4 979 60 16093 7.7 70 06:24 10.12.2019
2898 Clear 4 979 60 16093 10.3 80 05:55 10.12.2019
2899 Clear 4 979 60 16093 10.3 80 05:19 10.12.2019
2900 Clear 4 978 60 16093 8.2 60 03:54 10.12.2019
2901 Clouds 4 978 60 16093 8.2 60 02:57 10.12.2019
2902 Clouds 4 979 69 16093 11.8 40 01:54 10.12.2019
2903 Clouds 3 979 69 16093 11.8 40 01:26 10.12.2019
2904 Clouds 3 980 69 16093 12.3 40 00:51 10.12.2019
2905 Clouds 3 980 69 16093 12.3 40 00:24 10.12.2019
2906 Clouds 2 981 74 16093 11.8 50 23:55 09.12.2019
2907 Clouds 2 981 74 16093 11.8 50 23:36 09.12.2019
2908 Clouds 2 981 74 16093 11.8 50 23:18 09.12.2019
2909 Rain 1 981 80 16093 10.8 40 22:54 09.12.2019
2910 Rain 2 982 80 16093 9.8 50 22:36 09.12.2019
2911 Rain 2 982 80 16093 9.8 50 22:18 09.12.2019
2912 Clouds 1 982 86 16093 12.3 40 21:54 09.12.2019
2913 Rain 1 982 86 14484 11.8 50 21:36 09.12.2019
2914 Rain 1 982 86 14484 11.8 50 21:18 09.12.2019
2915 Rain 0 983 83 4828 12.9 50 20:54 09.12.2019
2916 Rain 0 983 83 4828 12.9 50 20:36 09.12.2019
2917 Rain 0 983 88 4828 12.9 50 20:18 09.12.2019
2918 Snow -1 984 86 3219 12.9 40 19:54 09.12.2019
2919 Snow 0 984 86 3219 12.9 40 19:36 09.12.2019
2920 Snow 0 984 86 3219 12.9 40 19:18 09.12.2019
2921 Clouds 0 987 79 11265 10.3 50 18:40 09.12.2019
2922 Clouds 0 987 79 11265 10.3 50 18:20 09.12.2019
2923 Clouds 0 987 79 11265 10.3 50 18:20 09.12.2019
2924 Clouds 0 988 63 8047 12.3 40 17:59 09.12.2019
2925 Clouds -1 988 63 8047 12.3 40 17:41 09.12.2019
2926 Clouds 0 988 63 8047 12.3 40 17:21 09.12.2019
2927 Clouds -1 994 60 0 7.96 40 16:58 09.12.2019
2928 Clouds -1 994 60 0 7.96 40 16:39 09.12.2019
2929 Clouds -1 994 60 0 7.96 40 16:21 09.12.2019
2930 Clouds -1 994 60 0 7.96 40 15:57 09.12.2019
2931 Clouds -1 994 60 0 7.96 40 15:38 09.12.2019
2932 Clouds -1 994 60 0 7.96 40 15:38 09.12.2019
2933 Clouds -1 994 60 0 7.96 40 15:19 09.12.2019
2934 Clouds -1 994 60 0 7.96 40 14:59 09.12.2019
2935 Clouds -1 994 60 0 7.96 40 14:41 09.12.2019
2936 Clouds -1 994 60 0 7.96 40 14:41 09.12.2019
2937 Clouds -3 998 79 0 5.42 33 14:18 09.12.2019
2938 Clouds -3 998 79 0 5.42 33 13:56 09.12.2019
2939 Clouds -3 998 79 0 5.42 33 13:37 09.12.2019
2940 Clouds -3 999 79 0 5.43 32 13:19 09.12.2019
2941 Clouds -3 999 79 0 5.43 32 12:55 09.12.2019
2942 Clouds -3 999 79 0 5.43 32 12:55 09.12.2019
2943 Clouds -3 999 79 0 5.43 32 12:37 09.12.2019
2944 Clouds -3 999 79 0 5.43 32 12:18 09.12.2019
2945 Clouds -3 999 79 0 5.43 32 11:40 09.12.2019
2946 Clouds -5 1002 85 0 5.87 64 11:22 09.12.2019
2947 Clouds -5 1002 85 0 5.87 64 10:59 09.12.2019
2948 Clouds -5 1002 85 0 5.87 64 10:39 09.12.2019
2949 Clouds -5 1002 85 0 5.87 64 10:19 09.12.2019
2950 Clouds -5 1002 85 0 5.87 64 09:55 09.12.2019
2951 Clouds -5 1002 85 0 5.87 64 09:36 09.12.2019
2952 Clouds -5 1002 85 0 5.87 64 09:18 09.12.2019
2953 Clouds -5 1002 85 0 5.87 64 08:40 09.12.2019
2954 Clouds -7 1002 88 0 6.02 76 08:22 09.12.2019
2955 Clouds -7 1002 88 0 6.02 76 07:52 09.12.2019
2956 Clouds -7 1002 88 0 6.02 76 07:34 09.12.2019
2957 Clouds -3 1002 79 16093 6.7 80 06:59 09.12.2019
2958 Clouds -3 1002 79 16093 6.7 80 06:32 09.12.2019
2959 Clouds -3 1002 79 16093 7.7 100 05:51 09.12.2019
2960 Clouds -3 1002 79 16093 7.7 100 05:25 09.12.2019
2961 Clouds -4 1002 85 16093 9.3 80 04:28 09.12.2019
2962 Clouds -4 1001 85 16093 8.2 80 02:46 09.12.2019
2963 Clouds -3 1000 79 16093 8.7 80 01:48 09.12.2019
2964 Clouds -3 1000 79 16093 8.7 80 01:28 09.12.2019
2965 Clear -3 1000 86 16093 8.2 90 00:39 09.12.2019
2966 Clear -3 1000 86 16093 8.2 90 00:19 09.12.2019
2967 Clear -3 999 86 16093 8.7 100 23:39 08.12.2019
2968 Clear -3 999 86 16093 8.7 100 23:20 08.12.2019
2969 Clouds -3 998 86 16093 8.7 100 22:56 08.12.2019
2970 Clouds -3 998 86 16093 8.7 100 22:38 08.12.2019
2971 Clouds -3 998 86 16093 8.7 100 22:18 08.12.2019
2972 Clouds -4 997 85 16093 6.7 90 21:57 08.12.2019
2973 Clouds -4 997 85 16093 6.7 90 21:38 08.12.2019
2974 Clouds -4 997 85 16093 6.7 90 21:19 08.12.2019
2975 Clouds -3 995 86 16093 7.7 90 20:57 08.12.2019
2976 Clouds -3 995 86 16093 7.7 90 20:38 08.12.2019
2977 Clouds -3 995 86 16093 7.7 90 20:19 08.12.2019
2978 Clear -3 994 86 16093 9.3 90 19:57 08.12.2019
2979 Clear -3 994 86 16093 9.3 90 19:39 08.12.2019
2980 Clear -3 994 86 16093 9.3 90 19:21 08.12.2019
2981 Clear -3 993 86 16093 7.7 90 18:55 08.12.2019
2982 Clear -3 993 86 16093 7.7 90 18:36 08.12.2019
2983 Clear -3 993 86 16093 7.7 90 18:18 08.12.2019
2984 Clouds -2 991 86 16093 8.2 100 17:56 08.12.2019
2985 Clouds -2 991 86 16093 8.2 100 17:37 08.12.2019
2986 Clouds -2 991 86 16093 8.2 100 17:37 08.12.2019
2987 Clouds -2 991 86 16093 8.2 100 17:19 08.12.2019
2988 Clear -3 990 92 16093 7.7 110 16:55 08.12.2019
2989 Clear -3 990 92 16093 7.7 110 16:55 08.12.2019
2990 Clear -3 990 92 16093 7.7 110 16:37 08.12.2019
2991 Clear -3 990 92 16093 7.7 110 16:19 08.12.2019
2992 Clouds -2 988 86 16093 9.8 100 15:38 08.12.2019
2993 Clouds -2 988 86 16093 9.8 100 15:19 08.12.2019
2994 Clouds -2 987 86 16093 10.3 90 14:59 08.12.2019
2995 Clouds -2 987 86 16093 10.3 90 14:39 08.12.2019
2996 Clouds -2 987 86 16093 10.3 90 14:21 08.12.2019
2997 Clouds -3 986 92 16093 8.7 80 13:57 08.12.2019
2998 Clouds -3 986 92 16093 8.7 80 13:38 08.12.2019
2999 Clouds -3 986 92 16093 8.7 80 13:20 08.12.2019
3000 Clouds -2 985 86 16093 9.8 90 12:54 08.12.2019
3001 Clouds -2 985 86 16093 9.8 90 12:36 08.12.2019
3002 Clouds -2 985 86 16093 9.8 90 12:18 08.12.2019
3003 Clouds -2 984 86 16093 10.3 90 11:39 08.12.2019
3004 Clouds -2 984 86 16093 10.3 90 11:39 08.12.2019
3005 Clouds -2 984 86 16093 10.3 90 11:20 08.12.2019
3006 Clouds -2 983 86 14484 9.8 90 10:59 08.12.2019
3007 Clouds -2 983 86 14484 9.8 90 10:38 08.12.2019
3008 Clouds -2 983 86 14484 9.8 90 10:20 08.12.2019
3009 Clouds -2 983 86 9656 11.8 90 09:57 08.12.2019
3010 Clouds -2 983 86 9656 11.8 90 09:57 08.12.2019
3011 Clouds -2 983 86 9656 11.8 90 09:38 08.12.2019
3012 Clouds -2 983 86 9656 11.8 90 09:19 08.12.2019
3013 Snow -4 983 93 0 9.32 93 08:58 08.12.2019
3014 Snow -4 983 93 0 9.32 93 08:37 08.12.2019
3015 Clouds -2 981 86 16093 10.8 90 08:19 08.12.2019
3016 Clouds -2 981 86 16093 10.8 90 07:43 08.12.2019
3017 Clouds -2 981 86 16093 10.8 90 07:20 08.12.2019
3018 Clouds -2 981 86 16093 11.8 90 06:50 08.12.2019
3019 Clouds -2 981 86 16093 11.8 90 06:22 08.12.2019
3020 Clouds -2 980 86 14484 12.3 90 05:49 08.12.2019
3021 Clouds -2 980 86 14484 12.3 90 05:18 08.12.2019
3022 Clouds -3 979 86 16093 10.8 90 03:50 08.12.2019
3023 Clouds -3 979 86 16093 10.8 90 03:23 08.12.2019
3024 Clouds -3 980 92 8047 10.3 80 02:39 08.12.2019
3025 Clouds -3 980 86 9656 12.9 90 01:56 08.12.2019
3026 Clouds -3 980 86 9656 12.9 90 01:27 08.12.2019
3027 Rain -3 980 86 4828 12.3 90 00:40 08.12.2019
3028 Rain -3 980 86 4828 12.3 90 00:21 08.12.2019
3029 Rain -3 980 86 4828 12.3 90 00:21 08.12.2019
3030 Rain -3 980 92 4828 11.8 90 23:41 07.12.2019
3031 Rain -3 980 92 4828 11.8 90 23:21 07.12.2019
3032 Rain -3 980 92 4828 11.3 90 22:58 07.12.2019
3033 Snow -3 980 92 1609 10.3 90 22:40 07.12.2019
3034 Snow -3 980 92 1609 10.3 90 22:40 07.12.2019
3035 Snow -3 980 92 1609 10.3 90 22:40 07.12.2019
3036 Snow -3 980 92 1609 10.3 90 22:22 07.12.2019
3037 Rain -3 980 92 1609 11.8 90 21:56 07.12.2019
3038 Rain -3 980 92 1609 11.8 90 21:38 07.12.2019
3039 Rain -3 980 92 1609 11.8 90 21:20 07.12.2019
3040 Rain -3 980 92 1609 10.3 70 20:59 07.12.2019
3041 Rain -3 980 92 1609 10.3 70 20:37 07.12.2019
3042 Rain -3 980 92 1609 10.3 70 20:18 07.12.2019
3043 Rain -4 980 85 3219 7.2 60 19:56 07.12.2019
3044 Rain -4 980 85 3219 7.2 60 19:38 07.12.2019
3045 Rain -4 980 85 3219 7.2 60 19:20 07.12.2019
3046 Rain -5 980 85 6437 9.3 50 18:44 07.12.2019
3047 Rain -5 980 85 6437 9.3 50 18:20 07.12.2019
3048 Snow -7 981 85 6437 12.9 30 17:58 07.12.2019
3049 Snow -7 982 85 9656 10.3 30 17:40 07.12.2019
3050 Snow -7 982 85 9656 10.3 30 17:22 07.12.2019
3051 Snow -10 984 90 0 8.09 56 16:57 07.12.2019
3052 Snow -10 984 90 0 8.09 56 16:38 07.12.2019
3053 Rain -6 984 79 14484 9.3 40 16:20 07.12.2019
3054 Rain -6 984 79 14484 9.3 40 15:57 07.12.2019
3055 Rain -6 984 79 14484 9.3 40 15:38 07.12.2019
3056 Rain -6 984 79 14484 9.3 40 15:20 07.12.2019
3057 Snow -7 985 79 6437 7.7 50 14:42 07.12.2019
3058 Snow -7 985 79 6437 7.7 50 14:19 07.12.2019
3059 Mist -8 985 85 6437 10.8 40 13:56 07.12.2019
3060 Clouds -7 985 85 9656 11.8 30 13:37 07.12.2019
3061 Clouds -7 985 85 9656 11.8 30 13:19 07.12.2019
3062 Rain -7 986 85 6437 10.8 40 12:41 07.12.2019
3063 Rain -7 986 85 6437 10.8 40 12:23 07.12.2019
3064 Snow -6 987 85 2414 10.3 60 11:58 07.12.2019
3065 Snow -6 987 85 2414 10.3 60 11:40 07.12.2019
3066 Snow -6 987 85 2414 10.3 60 11:22 07.12.2019
3067 Snow -8 988 78 4023 10.8 30 10:39 07.12.2019
3068 Snow -8 988 78 4023 10.8 30 10:20 07.12.2019
3069 Snow -8 989 78 4023 9.3 30 09:58 07.12.2019
3070 Snow -8 990 72 4828 7.2 40 09:38 07.12.2019
3071 Snow -8 990 72 4828 7.2 40 09:19 07.12.2019
3072 Snow -7 991 67 12874 7.7 40 08:43 07.12.2019
3073 Snow -7 991 67 12874 7.7 40 08:21 07.12.2019
3074 Clouds -8 992 67 16093 8.2 40 07:47 07.12.2019
3075 Clouds -8 992 67 16093 8.2 40 07:27 07.12.2019
3076 Clouds -8 993 61 16093 8.2 40 06:51 07.12.2019
3077 Clouds -8 993 61 16093 8.2 40 06:25 07.12.2019
3078 Clouds -9 994 56 16093 7.7 40 05:38 07.12.2019
3079 Clouds -9 995 52 16093 7.7 40 04:19 07.12.2019
3080 Clouds -11 995 56 16093 8.2 40 03:47 07.12.2019
3081 Clear -11 997 51 16093 6.7 30 02:22 07.12.2019
3082 Clear -11 998 51 16093 6.2 30 01:35 07.12.2019
3083 Clear -12 999 51 16093 4.1 360 00:57 07.12.2019
3084 Clear -12 999 51 16093 4.1 360 00:21 07.12.2019
3085 Clear -13 1000 50 16093 6.7 30 23:57 06.12.2019
3086 Clear -13 1000 50 16093 6.7 30 23:38 06.12.2019
3087 Clear -13 1000 50 16093 6.7 30 23:19 06.12.2019
3088 Clear -14 1001 55 16093 5.7 30 22:39 06.12.2019
3089 Clear -14 1001 55 16093 5.7 30 22:21 06.12.2019
3090 Clear -15 1001 60 16093 4.1 30 21:58 06.12.2019
3091 Clear -15 1001 60 16093 4.1 30 21:40 06.12.2019
3092 Clear -15 1001 60 16093 4.1 30 21:20 06.12.2019
3093 Clear -15 1002 60 16093 5.7 20 20:46 06.12.2019
3094 Clear -15 1002 60 16093 5.7 20 20:26 06.12.2019
3095 Clear -14 1003 60 16093 6.2 30 19:59 06.12.2019
3096 Clear -14 1003 60 16093 6.2 30 19:40 06.12.2019
3097 Clear -14 1003 60 16093 6.2 30 19:22 06.12.2019
3098 Clear -14 1003 60 16093 4.1 30 18:58 06.12.2019
3099 Clear -14 1003 60 16093 4.1 30 18:40 06.12.2019
3100 Clear -14 1003 60 16093 4.1 30 18:20 06.12.2019
3101 Clear -14 1004 55 16093 5.7 40 17:57 06.12.2019
3102 Clear -14 1004 55 16093 5.7 40 17:39 06.12.2019
3103 Clear -14 1004 55 16093 5.7 40 17:21 06.12.2019
3104 Clear -13 1004 55 16093 6.2 40 16:56 06.12.2019
3105 Clear -13 1004 55 16093 6.2 40 16:37 06.12.2019
3106 Clear -13 1004 55 16093 6.2 40 16:18 06.12.2019
3107 Clear -14 1005 60 16093 4.6 20 15:41 06.12.2019
3108 Clear -14 1005 60 16093 4.6 20 15:21 06.12.2019
3109 Clear -15 1006 65 16093 3.6 40 14:57 06.12.2019
3110 Clear -15 1006 65 16093 3.6 40 14:39 06.12.2019
3111 Clear -15 1006 65 16093 3.6 40 14:19 06.12.2019
3112 Clear -15 1006 65 16093 4.6 20 13:45 06.12.2019
3113 Clear -15 1006 65 16093 4.6 20 13:26 06.12.2019
3114 Clear -15 1007 60 16093 6.7 30 12:56 06.12.2019
3115 Clear -14 1007 60 16093 6.7 30 12:38 06.12.2019
3116 Clear -15 1007 60 16093 6.7 30 12:19 06.12.2019
3117 Clear -14 1007 60 16093 3.6 40 11:42 06.12.2019
3118 Clear -14 1007 60 16093 3.6 40 11:23 06.12.2019
3119 Clear -14 1007 55 16093 5.7 40 10:54 06.12.2019
3120 Clear -14 1007 55 16093 5.7 40 10:36 06.12.2019
3121 Clear -14 1007 55 16093 5.7 40 10:18 06.12.2019
3122 Clear -14 1007 55 16093 6.2 40 09:54 06.12.2019
3123 Clear -14 1007 55 16093 6.2 40 09:36 06.12.2019
3124 Clear -14 1007 55 16093 6.2 40 09:18 06.12.2019
3125 Clear -14 1007 55 16093 5.1 50 08:40 06.12.2019
3126 Clear -14 1007 55 16093 5.1 50 08:21 06.12.2019
3127 Clear -16 1008 64 16093 2.6 40 07:38 06.12.2019
3128 Clear -15 1008 64 16093 2.6 40 07:20 06.12.2019
3129 Clear -17 1008 64 16093 3.1 360 06:48 06.12.2019
3130 Clear -16 1008 64 16093 3.1 360 06:24 06.12.2019
3131 Clear -16 1008 65 16093 3.1 20 05:46 06.12.2019
3132 Clear -15 1009 65 16093 4.6 40 02:44 06.12.2019
3133 Clear -14 1009 65 16093 4.6 50 01:43 06.12.2019
3134 Clear -15 1010 65 16093 1.5 10 00:50 06.12.2019
3135 Clear -15 1010 65 16093 1.5 10 00:23 06.12.2019
3136 Clear -14 1010 65 16093 4.6 40 23:51 05.12.2019
3137 Clear -14 1010 65 16093 4.6 40 23:20 05.12.2019
3138 Clear -15 1011 71 16093 5.1 40 22:58 05.12.2019
3139 Clear -15 1011 71 16093 5.1 40 22:39 05.12.2019
3140 Clear -15 1011 71 16093 5.1 40 22:19 05.12.2019
3141 Clear -15 1010 71 16093 5.7 40 21:56 05.12.2019
3142 Clear -16 1010 71 16093 5.7 40 21:37 05.12.2019
3143 Clear -16 1010 71 16093 5.7 40 21:19 05.12.2019
3144 Clear -16 1011 71 16093 5.1 40 20:56 05.12.2019
3145 Clear -16 1011 71 16093 5.1 40 20:56 05.12.2019
3146 Clear -16 1011 71 16093 5.1 40 20:37 05.12.2019
3147 Clear -16 1011 71 16093 5.1 40 20:18 05.12.2019
3148 Clear -17 1011 70 16093 3.6 30 19:40 05.12.2019
3149 Clear -17 1011 70 16093 3.6 30 19:22 05.12.2019
3150 Clear -17 1011 70 16093 4.6 30 18:58 05.12.2019
3151 Clear -17 1011 70 16093 4.6 30 18:38 05.12.2019
3152 Clear -17 1011 70 16093 4.6 30 18:20 05.12.2019
3153 Clear -16 1012 77 16093 6.2 40 17:55 05.12.2019
3154 Clear -16 1012 77 16093 6.2 40 17:36 05.12.2019
3155 Clear -16 1012 77 16093 6.2 40 17:18 05.12.2019
3156 Clouds -14 1012 71 16093 5.1 50 16:40 05.12.2019
3157 Clouds -14 1012 71 16093 5.1 50 16:22 05.12.2019
3158 Clouds -14 1012 77 16093 6.2 50 15:58 05.12.2019
3159 Clouds -14 1012 77 16093 6.2 50 15:58 05.12.2019
3160 Clouds -14 1012 77 16093 6.2 50 15:40 05.12.2019
3161 Clouds -14 1012 77 16093 6.2 50 15:20 05.12.2019
3162 Clouds -12 1013 72 16093 5.1 60 14:56 05.12.2019
3163 Clouds -12 1013 72 16093 5.1 60 14:38 05.12.2019
3164 Clouds -12 1013 72 16093 5.1 60 14:20 05.12.2019
3165 Clouds -12 1013 72 16093 4.6 60 13:58 05.12.2019
3166 Clouds -12 1013 72 16093 4.6 60 13:39 05.12.2019
3167 Clouds -12 1013 72 16093 4.6 60 13:20 05.12.2019
3168 Clouds -12 1014 78 16093 5.1 70 12:58 05.12.2019
3169 Clouds -12 1014 78 16093 5.1 70 12:39 05.12.2019
3170 Clouds -12 1014 78 16093 5.1 70 12:21 05.12.2019
3171 Clouds -12 1014 72 16093 4.1 70 11:40 05.12.2019
3172 Clouds -12 1014 72 16093 4.1 70 11:22 05.12.2019
3173 Clouds -12 1015 72 16093 4.6 60 10:58 05.12.2019
3174 Clouds -12 1015 72 16093 4.6 60 10:40 05.12.2019
3175 Clouds -12 1015 72 16093 4.6 60 10:19 05.12.2019
3176 Clouds -12 1015 72 16093 4.6 60 09:56 05.12.2019
3177 Clouds -12 1015 72 16093 4.6 60 09:38 05.12.2019
3178 Clouds -12 1015 72 16093 4.6 60 09:19 05.12.2019
3179 Clouds -12 1015 72 16093 4.6 60 08:54 05.12.2019
3180 Clouds -12 1015 72 16093 4.6 60 08:36 05.12.2019
3181 Clouds -12 1015 72 16093 4.6 60 08:18 05.12.2019
3182 Clouds -12 1015 78 16093 4.6 70 07:40 05.12.2019
3183 Clouds -12 1015 78 16093 4.6 70 07:21 05.12.2019
3184 Clouds -12 1015 78 16093 4.6 70 06:47 05.12.2019
3185 Clouds -12 1015 78 16093 4.6 70 06:23 05.12.2019
3186 Clouds -12 1016 78 16093 4.1 60 05:53 05.12.2019
3187 Clouds -12 1016 78 16093 4.1 60 05:24 05.12.2019
3188 Clouds -12 1016 78 16093 4.1 70 04:33 05.12.2019
3189 Clouds -12 1016 78 16093 4.1 70 04:33 05.12.2019
3190 Clouds -12 1017 78 16093 4.6 70 03:33 05.12.2019
3191 Clouds -12 1017 84 16093 3.6 50 02:41 05.12.2019
3192 Clouds -12 1017 84 16093 3.6 50 02:21 05.12.2019
3193 Clouds -12 1018 85 16093 4.6 40 01:49 05.12.2019
3194 Clouds -12 1018 85 16093 4.6 40 01:22 05.12.2019
3195 Clouds -12 1018 85 16093 3.6 80 00:38 05.12.2019
3196 Clouds -12 1018 85 16093 3.6 80 00:20 05.12.2019
3197 Snow -11 1018 85 14484 2.6 60 23:45 04.12.2019
3198 Snow -11 1018 85 14484 2.6 60 23:22 04.12.2019
3199 Snow -11 1018 85 14484 3.6 70 22:57 04.12.2019
3200 Snow -11 1018 85 14484 3.6 70 22:38 04.12.2019
3201 Snow -11 1018 85 14484 3.6 70 22:19 04.12.2019
3202 Snow -11 1018 85 14484 3.6 70 22:19 04.12.2019
3203 Snow -13 1019 84 14484 1.5 350 21:56 04.12.2019
3204 Snow -13 1019 84 14484 1.5 350 21:56 04.12.2019
3205 Snow -13 1019 84 14484 1.5 350 21:56 04.12.2019
3206 Snow -13 1019 84 14484 1.5 350 21:37 04.12.2019
3207 Snow -13 1019 84 14484 1.5 350 21:19 04.12.2019
3208 Snow -15 1019 84 14484 2.48 80 20:56 04.12.2019
3209 Snow -15 1019 84 14484 2.48 80 20:56 04.12.2019
3210 Snow -15 1019 84 14484 2.48 80 20:38 04.12.2019
3211 Snow -15 1019 84 14484 2.17 61 20:20 04.12.2019
3212 Snow -16 1019 77 14484 2.17 61 19:54 04.12.2019
3213 Snow -16 1019 77 14484 2.17 61 19:36 04.12.2019
3214 Snow -16 1019 77 14484 2.17 61 19:18 04.12.2019
3215 Clouds -21 1019 83 16093 2.17 61 18:41 04.12.2019
3216 Clouds -21 1019 83 16093 2.17 61 18:22 04.12.2019
3217 Clouds -19 1019 84 16093 2.1 350 17:58 04.12.2019
3218 Clouds -19 1019 84 16093 2.1 350 17:39 04.12.2019
3219 Clouds -19 1019 84 16093 2.1 350 17:20 04.12.2019
3220 Mist -21 1019 83 1207 2.1 350 16:56 04.12.2019
3221 Mist -21 1019 83 1207 2.1 350 16:38 04.12.2019
3222 Fog -20 1019 83 402 1.56 48 16:19 04.12.2019
3223 Fog -20 1019 83 402 1.56 48 16:19 04.12.2019
3224 Fog -21 1019 83 805 2.1 30 15:55 04.12.2019
3225 Fog -21 1019 83 805 2.1 30 15:36 04.12.2019
3226 Clouds -20 1020 83 16093 1.56 48 15:18 04.12.2019
3227 Clear -21 1020 83 16093 1.56 48 14:42 04.12.2019
3228 Clear -21 1020 83 16093 1.56 48 14:23 04.12.2019
3229 Clear -21 1020 83 16093 1.56 48 14:23 04.12.2019
3230 Clear -21 1020 83 16093 1.5 360 13:57 04.12.2019
3231 Clear -21 1020 83 16093 1.5 360 13:37 04.12.2019
3232 Clear -21 1020 83 16093 1.5 360 13:19 04.12.2019
3233 Clear -22 1020 83 16093 2.1 320 12:44 04.12.2019
3234 Clear -22 1020 83 16093 2.1 320 12:24 04.12.2019
3235 Clear -22 1020 76 16093 1.5 20 11:55 04.12.2019
3236 Clear -22 1020 76 16093 1.5 20 11:36 04.12.2019
3237 Clear -22 1020 76 16093 1.5 20 11:18 04.12.2019
3238 Clear -21 1020 83 16093 2.1 10 10:42 04.12.2019
3239 Clear -21 1020 83 16093 2.1 10 10:22 04.12.2019
3240 Clear -20 1020 83 16093 1.34 354 09:55 04.12.2019
3241 Clear -20 1020 83 16093 1.34 354 09:37 04.12.2019
3242 Clear -20 1020 83 16093 1.34 354 09:18 04.12.2019
3243 Clear -17 1019 91 16093 1.34 354 08:39 04.12.2019
3244 Clear -17 1019 91 16093 1.91 351 08:20 04.12.2019
3245 Clear -16 1019 84 16093 1.66 341 07:48 04.12.2019
3246 Clear -16 1019 84 16093 1.66 341 07:30 04.12.2019
3247 Clouds -17 1019 84 16093 1.66 341 06:34 04.12.2019
3248 Clear -18 1018 91 16093 1.66 341 05:48 04.12.2019
3249 Clear -16 1018 77 16093 3.1 280 04:58 04.12.2019
3250 Clear -20 1018 83 16093 1.14 323 03:56 04.12.2019
3251 Clear -19 1018 84 16093 1.14 323 02:47 04.12.2019
3252 Clear -18 1018 77 16093 1.02 346 00:52 04.12.2019
3253 Clear -18 1018 77 16093 1.02 346 00:27 04.12.2019
3254 Clear -20 1017 83 16093 1.5 360 23:59 03.12.2019
3255 Clear -20 1017 83 16093 1.5 360 23:40 03.12.2019
3256 Clear -20 1017 83 16093 1.5 360 23:19 03.12.2019
3257 Clear -20 1017 83 16093 1.5 360 23:19 03.12.2019
3258 Clear -21 1017 83 16093 1.5 360 22:41 03.12.2019
3259 Clear -21 1017 83 16093 1.5 360 22:19 03.12.2019
3260 Clear -20 1017 91 16093 0.52 354 21:59 03.12.2019
3261 Clear -20 1017 91 16093 0.52 354 21:38 03.12.2019
3262 Mist -19 1017 84 1207 0.52 354 21:19 03.12.2019
3263 Mist -19 1016 77 1609 0.52 354 20:58 03.12.2019
3264 Mist -19 1016 77 1609 0.52 354 20:40 03.12.2019
3265 Mist -19 1016 84 4828 0.67 358 20:19 03.12.2019
3266 Mist -17 1016 77 9656 0.53 328 19:55 03.12.2019
3267 Mist -17 1016 77 9656 0.53 328 19:37 03.12.2019
3268 Mist -17 1016 77 9656 0.53 328 19:18 03.12.2019
3269 Clouds -18 1015 84 16093 0.53 328 18:56 03.12.2019
3270 Clouds -18 1015 84 16093 0.53 328 18:38 03.12.2019
3271 Clouds -18 1015 84 16093 0.53 328 18:20 03.12.2019
3272 Clouds -17 1014 84 16093 1.5 330 17:56 03.12.2019
3273 Clear -17 1014 84 16093 1.5 360 17:36 03.12.2019
3274 Clear -18 1014 84 16093 1.5 360 17:18 03.12.2019
3275 Clear -17 1014 84 16093 0.72 47 16:56 03.12.2019
3276 Clear -16 1014 84 16093 0.72 47 16:37 03.12.2019
3277 Clear -17 1014 84 16093 0.72 47 16:19 03.12.2019
3278 Clouds -16 1014 84 16093 0.72 47 15:54 03.12.2019
3279 Clouds -15 1014 84 16093 0.72 47 15:36 03.12.2019
3280 Clouds -17 1013 84 16093 0.72 47 15:18 03.12.2019
3281 Clouds -17 1013 84 16093 0.72 47 14:41 03.12.2019
3282 Clouds -18 1013 84 16093 1.18 52 14:20 03.12.2019
3283 Mist -18 1013 91 4828 1.18 52 13:54 03.12.2019
3284 Mist -17 1013 84 2414 1.18 52 13:36 03.12.2019
3285 Mist -17 1013 84 2414 1.18 52 13:18 03.12.2019
3286 Clouds -17 1012 84 16093 1.14 62 12:40 03.12.2019
3287 Clear -16 1012 91 16093 1.14 62 12:18 03.12.2019
3288 Clouds -15 1012 91 16093 1.14 62 11:58 03.12.2019
3289 Clouds -15 1012 91 16093 1.14 62 11:39 03.12.2019
3290 Mist -15 1012 100 4828 1.35 65 11:20 03.12.2019
3291 Fog -17 1011 84 805 2.1 10 10:57 03.12.2019
3292 Fog -17 1011 84 805 2.1 10 10:39 03.12.2019
3293 Fog -17 1011 84 805 2.1 10 10:19 03.12.2019
3294 Clouds -17 1011 91 16093 1.35 65 09:46 03.12.2019
3295 Clouds -15 1010 91 16093 3.1 30 09:25 03.12.2019
3296 Clouds -17 1010 91 4828 1.35 65 08:59 03.12.2019
3297 Clouds -17 1010 91 4828 1.35 65 08:40 03.12.2019
3298 Clouds -16 1010 84 16093 1.63 72 08:21 03.12.2019
3299 Clouds -16 1009 84 16093 2.1 20 07:53 03.12.2019
3300 Clouds -16 1009 84 16093 2.1 20 07:53 03.12.2019
3301 Clouds -15 1009 84 16093 2.1 20 07:29 03.12.2019
3302 Clouds -13 1009 85 16093 1.63 72 06:58 03.12.2019
3303 Clouds -11 1009 85 16093 1.63 72 06:21 03.12.2019
3304 Clouds -11 1008 85 16093 1.63 72 05:56 03.12.2019
3305 Clouds -11 1007 92 16093 1.92 80 03:45 03.12.2019
3306 Clouds -12 1007 92 16093 1.92 80 03:23 03.12.2019
3307 Clouds -11 1007 85 16093 1.92 80 02:57 03.12.2019
3308 Clouds -11 1007 85 16093 1.92 80 02:39 03.12.2019
3309 Clouds -10 1007 85 16093 2.34 72 02:21 03.12.2019
3310 Clouds -11 1007 92 16093 2.34 72 01:40 03.12.2019
3311 Clouds -10 1007 85 16093 2.18 76 01:20 03.12.2019
3312 Clouds -9 1006 85 16093 1.5 90 00:42 03.12.2019
3313 Clouds -9 1006 85 16093 1.5 90 00:23 03.12.2019
3314 Clouds -9 1006 92 16093 3.1 100 23:44 02.12.2019
3315 Clouds -9 1006 92 16093 3.1 100 23:22 02.12.2019
3316 Clouds -8 1006 85 16093 3.1 90 22:58 02.12.2019
3317 Clouds -7 1006 85 16093 3.1 90 22:39 02.12.2019
3318 Clouds -7 1006 85 16093 3.1 90 22:20 02.12.2019
3319 Clouds -7 1005 85 16093 3.1 80 21:54 02.12.2019
3320 Clouds -7 1005 85 16093 3.1 80 21:36 02.12.2019
3321 Clouds -7 1005 85 16093 3.1 80 21:18 02.12.2019
3322 Clouds -8 1005 92 16093 3.1 90 20:55 02.12.2019
3323 Clouds -8 1005 92 16093 3.1 90 20:55 02.12.2019
3324 Clouds -8 1005 92 16093 3.1 90 20:36 02.12.2019
3325 Clouds -8 1005 92 16093 3.1 90 20:18 02.12.2019
3326 Clouds -8 1004 92 16093 4.1 90 19:41 02.12.2019
3327 Clouds -8 1004 92 16093 4.1 90 19:41 02.12.2019
3328 Clouds -8 1004 92 16093 4.1 90 19:21 02.12.2019
3329 Clouds -8 1004 92 16093 4.1 90 19:21 02.12.2019
3330 Clouds -7 1004 92 16093 3.1 90 18:55 02.12.2019
3331 Clouds -7 1004 92 16093 3.1 90 18:36 02.12.2019
3332 Clouds -7 1004 92 16093 3.1 90 18:18 02.12.2019
3333 Clouds -7 1004 92 16093 3.1 90 18:18 02.12.2019
3334 Clouds -7 1004 85 16093 3.6 90 17:41 02.12.2019
3335 Clouds -7 1004 85 16093 3.6 90 17:21 02.12.2019
3336 Clouds -7 1004 85 16093 3.6 90 17:21 02.12.2019
3337 Clouds -7 1004 92 16093 2.1 60 16:59 02.12.2019
3338 Clouds -7 1004 92 16093 2.1 60 16:39 02.12.2019
3339 Clouds -7 1004 92 16093 2.1 60 16:39 02.12.2019
3340 Clouds -7 1004 92 16093 2.1 60 16:18 02.12.2019
3341 Clouds -7 1003 92 16093 3.6 80 15:57 02.12.2019
3342 Clouds -7 1003 92 16093 3.6 80 15:38 02.12.2019
3343 Clouds -7 1003 92 16093 3.6 80 15:20 02.12.2019
3344 Clouds -7 1003 85 16093 3.6 90 14:55 02.12.2019
3345 Clouds -7 1003 85 16093 3.6 90 14:37 02.12.2019
3346 Clouds -7 1003 85 16093 3.6 70 14:19 02.12.2019
3347 Clouds -9 1003 92 16093 2.6 100 13:55 02.12.2019
3348 Clouds -9 1003 92 16093 2.6 100 13:36 02.12.2019
3349 Clouds -9 1003 92 16093 2.6 100 13:18 02.12.2019
3350 Clouds -8 1003 92 16093 2.1 90 12:42 02.12.2019
3351 Clouds -9 1003 85 16093 3.1 90 12:21 02.12.2019
3352 Clouds -9 1003 85 16093 2.1 90 11:57 02.12.2019
3353 Clouds -9 1003 85 16093 2.1 90 11:37 02.12.2019
3354 Clouds -9 1003 85 16093 2.1 90 11:37 02.12.2019
3355 Clouds -10 1003 92 16093 2.6 70 11:19 02.12.2019
3356 Clouds -11 1003 85 16093 2.1 60 10:57 02.12.2019
3357 Clouds -11 1003 85 16093 2.1 60 10:38 02.12.2019
3358 Clear -11 1003 92 16093 2.6 60 10:20 02.12.2019
3359 Clouds -11 1003 92 16093 3.1 50 09:42 02.12.2019
3360 Clouds -13 1002 100 16093 3.1 50 09:19 02.12.2019
3361 Clouds -10 1002 85 16093 3.1 80 08:59 02.12.2019
3362 Clouds -10 1002 85 16093 3.1 80 08:41 02.12.2019
3363 Clouds -10 1002 85 16093 3.1 80 08:22 02.12.2019
3364 Clear -11 1002 92 16093 4.1 80 07:59 02.12.2019
3365 Clear -11 1002 92 16093 4.1 80 07:37 02.12.2019
3366 Clear -11 1002 92 16093 4.1 80 07:18 02.12.2019
3367 Clouds -12 1002 100 16093 2.1 90 06:39 02.12.2019
3368 Clear -12 1002 92 16093 2.58 103 05:43 02.12.2019
3369 Clear -8 1002 92 16093 3.6 70 04:59 02.12.2019
3370 Clouds -7 1002 92 16093 2.6 90 03:19 02.12.2019
3371 Clouds -7 1002 92 16093 2.6 90 02:45 02.12.2019
3372 Clouds -7 1002 92 16093 1.5 100 01:46 02.12.2019
3373 Clouds -7 1002 92 16093 1.5 100 01:19 02.12.2019
3374 Clouds -6 1002 85 16093 1.5 70 00:34 02.12.2019
3375 Clouds -7 1002 92 16093 3.6 70 23:59 01.12.2019
3376 Clouds -7 1002 92 16093 3.6 70 23:41 01.12.2019
3377 Clouds -7 1002 92 16093 3.6 70 23:21 01.12.2019
3378 Clouds -7 1002 92 16093 5.1 70 22:56 01.12.2019
3379 Clouds -7 1002 92 16093 5.1 70 22:38 01.12.2019
3380 Clouds -7 1002 92 16093 5.1 70 22:18 01.12.2019
3381 Clouds -7 1002 92 11265 3.6 80 21:56 01.12.2019
3382 Clouds -7 1002 92 11265 3.6 80 21:38 01.12.2019
3383 Clouds -7 1002 92 11265 3.6 80 21:19 01.12.2019
3384 Clouds -7 1001 100 11265 4.6 70 20:57 01.12.2019
3385 Clouds -7 1001 100 11265 4.6 70 20:39 01.12.2019
3386 Clouds -7 1001 100 11265 4.6 70 20:21 01.12.2019
3387 Mist -6 1001 92 6437 4.1 70 19:56 01.12.2019
3388 Mist -6 1001 92 6437 4.1 70 19:37 01.12.2019
3389 Mist -6 1001 92 6437 4.1 70 19:37 01.12.2019
3390 Mist -6 1001 92 6437 4.1 70 19:19 01.12.2019
3391 Clouds -6 1001 92 16093 4.1 70 18:55 01.12.2019
3392 Clouds -6 1001 92 16093 4.1 70 18:37 01.12.2019
3393 Mist -6 1001 100 8047 3.6 60 18:18 01.12.2019
3394 Clouds -6 1001 100 11265 2.6 50 17:56 01.12.2019
3395 Clouds -6 1001 100 11265 2.6 50 17:38 01.12.2019
3396 Clouds -6 1001 100 16093 3.1 60 17:19 01.12.2019
3397 Clouds -6 1001 100 11265 4.1 70 16:44 01.12.2019
3398 Clouds -6 1001 100 11265 4.1 70 16:24 01.12.2019
3399 Clouds -6 1001 92 16093 3.6 70 15:58 01.12.2019
3400 Clouds -6 1001 92 16093 3.6 70 15:58 01.12.2019
3401 Clouds -6 1001 92 16093 3.6 70 15:40 01.12.2019
3402 Clouds -6 1001 92 16093 3.6 70 15:40 01.12.2019
3403 Clouds -6 1001 92 16093 3.6 70 15:20 01.12.2019
3404 Clouds -6 1001 92 16093 4.1 70 14:38 01.12.2019
3405 Clouds -6 1001 92 16093 4.1 70 14:19 01.12.2019
3406 Clouds -6 1001 92 12874 4.1 70 13:40 01.12.2019
3407 Clouds -6 1001 92 14484 4.1 60 13:22 01.12.2019
3408 Clouds -6 1002 92 16093 3.6 80 12:54 01.12.2019
3409 Clouds -6 1002 92 16093 3.6 80 12:54 01.12.2019
3410 Clouds -6 1002 92 16093 3.6 80 12:26 01.12.2019
3411 Clouds -6 1002 92 16093 3.6 80 12:24 01.12.2019
3412 Clouds -6 1002 92 16093 3.6 80 12:21 01.12.2019
3413 Clouds -6 1002 92 16093 3.6 80 12:20 01.12.2019
3414 Clouds -6 1002 92 16093 3.6 80 12:20 01.12.2019
3415 Clouds -6 1001 92 14484 3.1 80 11:44 01.12.2019
3416 Clouds -6 1001 92 14484 3.1 80 11:24 01.12.2019
3417 Mist -6 1001 85 9656 2.6 70 10:55 01.12.2019
3418 Mist -6 1001 85 9656 2.6 70 10:55 01.12.2019
3419 Mist -6 1001 85 9656 2.6 70 10:37 01.12.2019
3420 Clouds -7 1001 92 16093 2.6 10 10:19 01.12.2019
3421 Clouds -7 1001 85 16093 5.7 70 09:41 01.12.2019
3422 Clouds -7 1001 85 16093 5.7 70 09:21 01.12.2019
3423 Clouds -7 1001 85 16093 3.1 80 08:49 01.12.2019
3424 Clouds -8 1000 85 16093 5.7 80 08:24 01.12.2019
3425 Clouds -8 1000 85 16093 5.1 80 07:54 01.12.2019
3426 Clouds -8 1000 85 16093 5.1 80 07:36 01.12.2019
3427 Clouds -8 1001 85 16093 4.1 80 07:18 01.12.2019
3428 Clouds -8 1001 85 16093 3.1 70 06:49 01.12.2019
3429 Clouds -8 1000 85 16093 3.6 60 05:57 01.12.2019
3430 Clouds -8 1000 85 16093 3.6 60 04:54 01.12.2019
3431 Clouds -8 1000 85 16093 3.6 60 04:22 01.12.2019
3432 Snow -8 1000 85 9656 4.1 70 02:43 01.12.2019
3433 Snow -11 1001 95 0 4.42 71 02:24 01.12.2019
3434 Snow -10 1001 94 0 3.85 79 01:53 01.12.2019
3435 Snow -10 1001 94 0 3.85 79 01:29 01.12.2019
3436 Rain -9 1000 85 4828 3.6 60 00:44 01.12.2019
3437 Rain -9 1000 85 4828 3.6 60 00:26 01.12.2019
3438 Rain -9 999 85 4828 4.1 50 23:45 30.11.2019
3439 Snow -11 1001 95 0 3.96 75 23:25 30.11.2019
3440 Snow -9 999 85 4828 3.6 70 22:58 30.11.2019
3441 Snow -9 999 85 4828 3.6 70 22:39 30.11.2019
3442 Snow -9 999 85 4828 3.6 70 22:20 30.11.2019
3443 Clouds -9 999 78 16093 3.1 80 21:47 30.11.2019
3444 Clouds -9 999 78 16093 3.1 80 21:28 30.11.2019
3445 Clouds -9 999 78 16093 3.1 80 21:28 30.11.2019
3446 Clouds -9 999 78 16093 4.1 70 20:58 30.11.2019
3447 Clouds -9 999 78 16093 4.1 70 20:39 30.11.2019
3448 Clouds -9 999 78 16093 4.1 70 20:19 30.11.2019
3449 Clouds -9 999 78 16093 4.1 70 20:19 30.11.2019
3450 Clouds -10 999 78 16093 4.1 80 19:56 30.11.2019
3451 Clouds -10 999 78 16093 4.1 80 19:38 30.11.2019
3452 Clouds -10 999 78 16093 4.1 80 19:20 30.11.2019
3453 Clouds -10 999 78 16093 4.1 90 18:58 30.11.2019
3454 Clouds -10 999 78 16093 4.1 90 18:38 30.11.2019
3455 Clouds -10 999 78 16093 4.1 90 18:20 30.11.2019
3456 Clouds -10 999 78 16093 3.6 90 17:58 30.11.2019
3457 Clouds -10 999 78 16093 3.6 90 17:39 30.11.2019
3458 Clouds -10 999 78 16093 3.6 90 17:20 30.11.2019
3459 Clouds -10 999 72 16093 3.1 70 16:57 30.11.2019
3460 Clouds -10 999 72 16093 3.1 70 16:57 30.11.2019
3461 Clouds -10 999 72 16093 3.1 70 16:39 30.11.2019
3462 Clouds -10 999 72 16093 3.1 70 16:20 30.11.2019
3463 Clear -9 999 72 16093 4.1 80 15:42 30.11.2019
3464 Clear -9 999 72 16093 4.1 80 15:42 30.11.2019
3465 Clear -9 999 72 16093 4.1 80 15:19 30.11.2019
3466 Clear -9 1000 66 16093 4.1 70 14:58 30.11.2019
3467 Clear -9 1000 66 16093 4.1 70 14:38 30.11.2019
3468 Clear -9 1000 66 16093 4.1 70 14:19 30.11.2019
3469 Clear -9 1000 66 16093 3.6 70 13:58 30.11.2019
3470 Clear -9 1000 66 16093 3.6 70 13:38 30.11.2019
3471 Clear -9 1000 66 16093 3.6 70 13:20 30.11.2019
3472 Clear -11 1000 66 16093 3.6 70 12:47 30.11.2019
3473 Clear -11 1000 66 16093 3.6 70 12:29 30.11.2019
3474 Clear -11 1000 72 16093 4.59 79 11:58 30.11.2019
3475 Clear -11 1000 72 16093 4.59 79 11:58 30.11.2019
3476 Clear -12 1000 72 16093 4.59 79 11:40 30.11.2019
3477 Clear -11 1000 72 16093 4.31 80 11:18 30.11.2019
3478 Clear -11 1001 72 16093 2.6 50 10:45 30.11.2019
3479 Clear -11 1001 72 16093 2.6 50 10:21 30.11.2019
3480 Clear -11 1001 72 16093 3.1 40 09:59 30.11.2019
3481 Clear -11 1001 72 16093 3.1 40 09:40 30.11.2019
3482 Clear -11 1001 72 16093 3.1 40 09:20 30.11.2019
3483 Clear -11 1002 72 16093 3.6 80 08:41 30.11.2019
3484 Clear -11 1002 72 16093 3.6 80 08:19 30.11.2019
3485 Clear -11 1002 78 16093 4.6 40 07:43 30.11.2019
3486 Clear -10 1002 78 16093 4.6 40 07:24 30.11.2019
3487 Clear -10 1003 72 16093 5.1 10 06:46 30.11.2019
3488 Clear -10 1003 72 16093 5.1 10 06:28 30.11.2019
3489 Clear -10 1004 72 16093 4.1 20 05:29 30.11.2019
3490 Clouds -9 1005 72 16093 5.1 40 03:40 30.11.2019
3491 Clear -11 1005 78 16093 4.1 30 02:26 30.11.2019
3492 Clear -11 1005 78 16093 4.1 30 02:26 30.11.2019
3493 Clear -11 1006 78 16093 4.6 40 01:56 30.11.2019
3494 Clear -10 1006 78 16093 4.6 40 01:24 30.11.2019
3495 Clear -11 1007 78 16093 3.1 40 00:46 30.11.2019
3496 Clear -11 1007 78 16093 3.1 40 00:27 30.11.2019
3497 Clear -11 1008 85 16093 4.58 68 23:45 29.11.2019
3498 Clear -12 1008 85 16093 4.58 68 23:25 29.11.2019
3499 Clear -11 1009 78 16093 4.6 50 22:58 29.11.2019
3500 Clear -11 1009 78 16093 4.6 50 22:39 29.11.2019
3501 Clear -10 1009 78 16093 4.6 50 22:21 29.11.2019
3502 Clear -11 1009 78 16093 4.6 50 21:41 29.11.2019
3503 Clear -11 1009 78 16093 4.6 50 21:22 29.11.2019
3504 Clear -10 1009 78 16093 5.7 40 20:56 29.11.2019
3505 Clear -10 1009 78 16093 5.7 40 20:37 29.11.2019
3506 Clear -10 1009 78 16093 5.7 40 20:18 29.11.2019
3507 Clear -10 1010 78 16093 5.7 50 19:55 29.11.2019
3508 Clear -10 1010 78 16093 5.7 50 19:37 29.11.2019
3509 Clear -10 1010 78 16093 5.7 50 19:37 29.11.2019
3510 Clear -10 1010 78 16093 5.7 50 19:19 29.11.2019
3511 Clear -9 1011 72 16093 5.1 50 18:42 29.11.2019
3512 Clear -9 1011 72 16093 5.1 50 18:24 29.11.2019
3513 Clear -10 1011 78 16093 5.7 40 17:58 29.11.2019
3514 Clear -10 1011 78 16093 5.7 40 17:58 29.11.2019
3515 Clear -10 1011 78 16093 5.7 40 17:40 29.11.2019
3516 Clear -9 1011 78 16093 5.7 40 17:21 29.11.2019
3517 Clear -10 1012 85 16093 4.6 40 16:43 29.11.2019
3518 Clear -10 1012 85 16093 4.6 40 16:21 29.11.2019
3519 Clear -10 1013 85 16093 1.5 50 15:57 29.11.2019
3520 Clear -10 1013 85 16093 1.5 50 15:39 29.11.2019
3521 Clear -10 1013 85 16093 1.5 50 15:21 29.11.2019
3522 Clear -10 1013 78 16093 3.6 50 14:40 29.11.2019
3523 Clear -9 1013 78 16093 3.6 50 14:22 29.11.2019
3524 Clear -11 1013 85 16093 2.6 360 13:58 29.11.2019
3525 Clear -11 1013 85 16093 2.6 360 13:38 29.11.2019
3526 Clear -10 1013 85 16093 2.6 360 13:20 29.11.2019
3527 Clear -9 1013 78 16093 3.1 20 12:44 29.11.2019
3528 Clear -9 1013 78 16093 3.1 20 12:25 29.11.2019
3529 Clear -16 1014 91 16093 2.89 38 11:59 29.11.2019
3530 Clear -13 1014 91 16093 2.89 38 11:40 29.11.2019
3531 Clear -14 1014 91 16093 2.99 25 11:19 29.11.2019
3532 Clear -13 1014 92 16093 1.5 300 10:58 29.11.2019
3533 Clear -13 1014 92 16093 1.5 300 10:39 29.11.2019
3534 Clear -12 1014 92 16093 1.5 300 10:21 29.11.2019
3535 Clear -12 1013 84 16093 1.5 150 09:59 29.11.2019
3536 Clear -13 1013 84 16093 1.5 150 09:39 29.11.2019
3537 Clear -12 1013 84 16093 1.5 150 09:21 29.11.2019
3538 Clear -13 1013 84 16093 2.99 25 08:55 29.11.2019
3539 Clear -13 1013 84 16093 2.99 25 08:37 29.11.2019
3540 Clear -12 1013 84 16093 3.09 16 08:19 29.11.2019
3541 Clear -12 1013 92 16093 3.09 16 07:42 29.11.2019
3542 Clear -12 1013 92 16093 3.09 16 07:42 29.11.2019
3543 Clear -12 1013 92 16093 3.09 16 07:23 29.11.2019
3544 Clear -11 1012 92 16093 1.5 300 06:49 29.11.2019
3545 Clear -11 1012 92 16093 1.5 300 06:28 29.11.2019
3546 Clear -9 1012 78 16093 3.09 16 05:46 29.11.2019
3547 Clear -9 1012 78 16093 3.09 16 05:23 29.11.2019
3548 Clear -9 1012 78 16093 3.09 16 05:23 29.11.2019
3549 Clear -9 1010 78 16093 3.6 330 03:41 29.11.2019
3550 Clear -8 1010 78 16093 3.6 330 03:19 29.11.2019
3551 Clear -9 1009 85 16093 4.1 300 02:25 29.11.2019
3552 Clouds -10 1008 85 16093 3.6 340 01:45 29.11.2019
3553 Clouds -10 1008 85 16093 3.6 340 01:23 29.11.2019
3554 Clouds -9 1007 92 16093 3.6 10 00:40 29.11.2019
3555 Clouds -9 1007 92 16093 3.6 10 00:18 29.11.2019
3556 Clouds -11 1006 100 16093 1.5 340 23:42 28.11.2019
3557 Clouds -12 1006 100 16093 1.5 340 23:21 28.11.2019
3558 Clouds -13 1004 92 16093 1.95 28 22:57 28.11.2019
3559 Clouds -13 1004 92 16093 1.95 28 22:37 28.11.2019
3560 Clouds -13 1004 92 16093 1.95 28 22:37 28.11.2019
3561 Clouds -13 1004 92 16093 1.95 28 22:19 28.11.2019
3562 Clouds -14 1004 92 16093 2.1 350 21:55 28.11.2019
3563 Clouds -14 1004 92 16093 2.1 350 21:36 28.11.2019
3564 Clouds -14 1004 92 16093 2.1 350 21:18 28.11.2019
3565 Clouds -14 1002 100 16093 1.95 28 20:42 28.11.2019
3566 Clouds -14 1002 100 16093 1.67 309 20:22 28.11.2019
3567 Clouds -13 1001 100 16093 2.1 30 19:58 28.11.2019
3568 Clouds -13 1001 100 16093 2.1 30 19:40 28.11.2019
3569 Clouds -13 1001 100 16093 2.1 30 19:21 28.11.2019
3570 Clouds -9 1000 100 16093 1.67 309 18:58 28.11.2019
3571 Clouds -9 1000 100 16093 1.67 309 18:39 28.11.2019
3572 Clouds -9 1000 100 16093 1.67 309 18:18 28.11.2019
3573 Clouds -7 1000 100 16093 1.5 30 17:59 28.11.2019
3574 Clouds -7 1000 100 16093 1.5 30 17:40 28.11.2019
3575 Clouds -7 1000 100 16093 1.5 30 17:21 28.11.2019
3576 Clouds -6 999 100 16093 2.1 20 16:55 28.11.2019
3577 Clouds -4 999 100 16093 2.6 170 16:37 28.11.2019
3578 Clouds -4 999 100 16093 2.6 170 16:18 28.11.2019
3579 Clouds -4 998 100 16093 3.1 180 15:41 28.11.2019
3580 Clouds -4 998 100 16093 3.1 180 15:20 28.11.2019
3581 Snow -4 998 100 9656 7.7 200 14:58 28.11.2019
3582 Snow -4 998 100 9656 7.7 200 14:58 28.11.2019
3583 Snow -4 998 100 9656 7.7 200 14:40 28.11.2019
3584 Snow -4 998 100 9656 7.7 200 14:21 28.11.2019
3585 Clouds -11 997 92 16093 2.2 218 13:56 28.11.2019
3586 Clouds -11 997 92 16093 2.2 218 13:38 28.11.2019
3587 Clouds -11 997 92 16093 2.84 249 13:19 28.11.2019
3588 Clear -16 997 100 16093 2.84 249 12:42 28.11.2019
3589 Clear -16 997 100 16093 2.84 249 12:23 28.11.2019
3590 Clouds -16 997 100 16093 2.84 249 11:57 28.11.2019
3591 Clouds -16 997 100 16093 2.84 249 11:39 28.11.2019
3592 Mist -16 997 100 4828 5.68 278 11:20 28.11.2019
3593 Mist -16 997 100 4023 5.68 278 10:43 28.11.2019
3594 Mist -14 996 100 6437 2.1 50 10:22 28.11.2019
3595 Mist -11 996 92 2816 1.5 360 09:59 28.11.2019
3596 Mist -11 996 92 2816 1.5 360 09:40 28.11.2019
3597 Clouds -9 995 100 16093 5.68 278 09:20 28.11.2019
3598 Clouds -9 995 100 16093 5.68 278 09:20 28.11.2019
3599 Clouds -9 995 100 16093 5.68 278 09:20 28.11.2019
3600 Rain -7 995 100 16093 2.6 40 08:54 28.11.2019
3601 Rain -7 995 100 16093 2.6 40 08:36 28.11.2019
3602 Rain -7 995 100 16093 2.6 40 08:18 28.11.2019
3603 Rain -6 995 100 4023 3.6 340 07:41 28.11.2019
3604 Rain -6 994 100 1207 2.6 90 07:23 28.11.2019
3605 Rain -6 994 100 1609 3.6 110 06:43 28.11.2019
3606 Snow -6 994 100 2816 5.7 110 06:18 28.11.2019
3607 Mist -5 994 100 4828 5.7 130 05:44 28.11.2019
3608 Snow -4 994 100 8047 4.6 100 04:54 28.11.2019
3609 Mist -3 995 100 2012 5.1 120 02:36 28.11.2019
3610 Clouds -3 996 100 16093 4.6 80 01:28 28.11.2019
3611 Clouds -3 997 100 12874 3.6 100 00:43 28.11.2019
3612 Clouds -3 997 100 12874 3.6 100 00:20 28.11.2019
3613 Clouds -3 997 100 14484 2.6 100 23:40 27.11.2019
3614 Clouds -3 997 100 14484 2.6 100 23:22 27.11.2019
3615 Mist -3 997 100 3219 3.1 70 22:58 27.11.2019
3616 Mist -3 997 100 3219 3.1 70 22:38 27.11.2019
3617 Mist -3 998 100 1207 1.5 50 22:19 27.11.2019
3618 Mist -3 998 100 1207 1.5 180 21:56 27.11.2019
3619 Mist -3 998 100 1207 1.5 180 21:56 27.11.2019
3620 Mist -3 998 100 1207 1.5 180 21:37 27.11.2019
3621 Clouds -3 997 93 0 1.81 118 21:19 27.11.2019
3622 Clouds -3 997 93 0 1.81 118 21:19 27.11.2019
3623 Clouds -3 997 93 0 1.81 118 20:57 27.11.2019
3624 Clouds -3 997 93 0 1.81 118 20:38 27.11.2019
3625 Mist -3 999 100 8047 3.1 150 20:19 27.11.2019
3626 Mist -2 999 100 9656 2.6 190 19:57 27.11.2019
3627 Mist -2 999 100 9656 2.6 190 19:38 27.11.2019
3628 Clouds -2 999 100 12874 4.1 190 19:19 27.11.2019
3629 Clouds -3 1000 100 16093 2.6 160 18:58 27.11.2019
3630 Clouds -3 1000 100 16093 2.6 160 18:37 27.11.2019
3631 Clouds -3 1000 100 16093 2.6 160 18:19 27.11.2019
3632 Mist -3 1000 100 9656 3.6 170 17:56 27.11.2019
3633 Mist -3 1000 100 9656 3.6 170 17:37 27.11.2019
3634 Snow -1 1001 83 0 5.22 192 17:18 27.11.2019
3635 Clear -2 1001 100 12874 5.7 170 16:56 27.11.2019
3636 Clear -2 1001 100 12874 5.7 170 16:55 27.11.2019
3637 Clear -2 1001 100 12874 5.7 170 16:55 27.11.2019
3638 Clear -2 1001 100 12874 5.7 170 16:36 27.11.2019
3639 Clear -2 1001 100 12874 5.7 170 16:18 27.11.2019
3640 Snow -1 1001 83 0 5.22 192 15:56 27.11.2019
3641 Clear 0 1001 83 11265 5.7 180 15:37 27.11.2019
3642 Clear 0 1001 83 11265 5.7 180 15:19 27.11.2019
3643 Clouds 0 1000 83 11265 6.7 190 14:56 27.11.2019
3644 Clouds 0 1000 83 11265 6.7 190 14:38 27.11.2019
3645 Clouds 0 1001 92 11265 8.7 180 14:19 27.11.2019
3646 Clouds 0 1001 92 11265 8.7 180 14:19 27.11.2019
3647 Clouds -1 1001 92 11265 8.2 180 13:55 27.11.2019
3648 Clouds 0 1001 92 11265 8.2 180 13:37 27.11.2019
3649 Clouds 0 1001 92 11265 8.2 180 13:18 27.11.2019
3650 Clouds 0 1001 92 12874 7.7 170 12:41 27.11.2019
3651 Clouds 0 1001 92 12874 7.7 170 12:22 27.11.2019
3652 Clouds -1 1001 92 12874 7.7 170 11:56 27.11.2019
3653 Clouds 0 1001 92 12874 6.7 170 11:37 27.11.2019
3654 Clouds -1 1001 92 12874 10.8 180 11:18 27.11.2019
3655 Clouds -1 1001 92 12874 10.8 180 10:46 27.11.2019
3656 Clouds -1 1001 92 12874 10.8 180 10:24 27.11.2019
3657 Clouds -1 1001 92 11265 8.2 180 09:58 27.11.2019
3658 Clouds -1 1001 92 11265 8.2 180 09:39 27.11.2019
3659 Clouds 0 1001 92 11265 8.2 180 09:21 27.11.2019
3660 Clouds -1 1001 92 12874 9.3 170 08:42 27.11.2019
3661 Clouds 0 1001 92 12874 9.3 170 08:23 27.11.2019
3662 Clear -1 1001 92 12874 7.2 170 07:49 27.11.2019
3663 Clear 0 1001 92 12874 7.2 170 07:30 27.11.2019
3664 Clear -1 1001 92 11265 8.2 180 06:55 27.11.2019
3665 Clear -1 1001 92 11265 8.2 180 06:55 27.11.2019
3666 Clear -1 1001 92 11265 8.2 180 06:37 27.11.2019
3667 Clouds -1 1001 100 12874 6.7 180 05:55 27.11.2019
3668 Clouds -1 1001 100 12874 6.7 180 05:26 27.11.2019
3669 Clouds -1 1001 92 11265 8.2 180 04:49 27.11.2019
3670 Clouds -1 1001 92 11265 8.2 180 04:31 27.11.2019
3671 Clouds -1 1000 86 16093 8.7 190 03:45 27.11.2019
3672 Clouds 0 1000 86 16093 8.7 190 03:20 27.11.2019
3673 Clouds 0 999 92 11265 8.7 190 02:42 27.11.2019
3674 Clouds 0 999 92 11265 8.7 190 01:22 27.11.2019
3675 Mist -1 998 100 8047 7.2 190 00:40 27.11.2019
3676 Mist 0 998 100 8047 7.2 190 00:22 27.11.2019
3677 Snow 1 997 71 4828 7.2 210 23:42 26.11.2019
3678 Snow 1 997 71 4828 7.2 210 23:24 26.11.2019
3679 Snow 0 996 97 0 7.28 174 22:40 26.11.2019
3680 Snow 0 996 97 0 7.28 174 22:20 26.11.2019
3681 Snow 0 996 97 0 7.28 174 22:00 26.11.2019
3682 Snow 0 996 97 0 7.28 174 21:39 26.11.2019
3683 Snow 0 996 97 0 7.28 174 21:21 26.11.2019
3684 Snow 0 996 97 0 7.28 174 21:21 26.11.2019
3685 Snow 0 996 97 0 7.28 174 20:57 26.11.2019
3686 Snow 0 996 97 0 7.28 174 20:38 26.11.2019
3687 Snow 0 995 97 0 6.72 184 20:19 26.11.2019
3688 Snow 0 995 97 0 6.72 184 19:56 26.11.2019
3689 Snow 0 995 97 0 6.72 184 19:38 26.11.2019
3690 Snow 0 995 97 0 6.72 184 19:19 26.11.2019
3691 Snow 0 995 97 0 6.72 184 18:58 26.11.2019
3692 Snow 0 995 97 0 6.72 184 18:39 26.11.2019
3693 Snow 0 995 97 0 6.72 184 18:21 26.11.2019
3694 Snow 0 995 97 0 6.72 184 17:59 26.11.2019
3695 Snow 0 995 97 0 6.72 184 17:40 26.11.2019
3696 Snow 1 995 97 0 11.36 188 17:22 26.11.2019
3697 Snow 1 995 97 0 11.36 188 16:57 26.11.2019
3698 Snow 1 995 97 0 11.36 188 16:38 26.11.2019
3699 Snow -1 995 100 2414 11.8 180 16:19 26.11.2019
3700 Rain -1 995 100 2816 12.9 170 15:59 26.11.2019
3701 Rain -1 995 100 2816 12.9 170 15:38 26.11.2019
3702 Rain -1 995 100 2816 12.9 170 15:20 26.11.2019
3703 Rain -1 995 100 2012 13.4 170 14:51 26.11.2019
3704 Rain -1 995 100 2012 13.4 170 14:26 26.11.2019
3705 Rain -1 996 100 2012 13.9 160 13:59 26.11.2019
3706 Rain -1 996 100 2012 13.9 160 13:40 26.11.2019
3707 Rain -1 996 100 2012 13.9 160 13:22 26.11.2019
3708 Rain -1 997 100 1207 12.9 150 12:40 26.11.2019
3709 Rain -1 997 100 1207 12.9 150 12:22 26.11.2019
3710 Snow 0 997 97 0 14.5 163 11:59 26.11.2019
3711 Snow 0 997 97 0 14.5 163 11:40 26.11.2019
3712 Snow 0 1000 97 0 17.29 150 11:20 26.11.2019
3713 Rain -2 999 100 1207 14.4 140 10:59 26.11.2019
3714 Rain -2 999 100 1207 14.4 140 10:41 26.11.2019
3715 Rain -2 999 100 1207 14.4 140 10:21 26.11.2019
3716 Rain -2 1000 100 1207 14.9 130 09:58 26.11.2019
3717 Rain -2 1000 100 1207 14.9 130 09:38 26.11.2019
3718 Rain -2 1000 100 1207 17 130 09:20 26.11.2019
3719 Snow -3 1002 100 805 17 130 08:46 26.11.2019
3720 Snow -3 1002 100 805 17 130 08:25 26.11.2019
3721 Rain -3 1003 100 1207 15.4 120 07:47 26.11.2019
3722 Rain -3 1004 100 805 15.4 120 07:29 26.11.2019
3723 Rain -3 1004 100 805 15.4 120 07:29 26.11.2019
3724 Rain -3 1006 100 805 16.5 120 06:59 26.11.2019
3725 Rain -3 1006 100 805 16.5 120 06:40 26.11.2019
3726 Rain -3 1007 100 805 17 120 05:54 26.11.2019
3727 Snow -3 1009 100 1207 15.4 120 04:47 26.11.2019
3728 Rain -4 1013 100 1207 11.8 120 02:53 26.11.2019
3729 Rain -5 1016 100 1207 11.3 110 01:34 26.11.2019
3730 Snow -5 1016 92 1207 11.3 110 00:53 26.11.2019
3731 Snow -5 1017 92 1207 10.8 110 00:31 26.11.2019
3732 Snow -6 1017 100 1609 11.3 110 23:56 25.11.2019
3733 Snow -6 1018 100 2414 9.3 110 23:37 25.11.2019
3734 Snow -6 1018 100 2414 9.3 110 23:18 25.11.2019
3735 Clouds -6 1019 100 16093 9.8 120 22:39 25.11.2019
3736 Clouds -6 1019 100 16093 9.8 120 22:19 25.11.2019
3737 Clouds -5 1020 92 16093 8.2 130 21:59 25.11.2019
3738 Clouds -5 1020 92 16093 8.2 130 21:40 25.11.2019
3739 Clouds -5 1020 92 16093 8.2 130 21:21 25.11.2019
3740 Clouds -5 1020 92 16093 7.2 110 20:57 25.11.2019
3741 Clouds -5 1020 92 16093 7.2 110 20:39 25.11.2019
3742 Clouds -5 1020 92 16093 7.2 110 20:20 25.11.2019
3743 Clouds -4 1021 85 16093 7.7 150 19:56 25.11.2019
3744 Clouds -4 1021 85 16093 7.7 150 19:38 25.11.2019
3745 Clouds -4 1021 85 16093 7.7 150 19:19 25.11.2019
3746 Clouds -5 1021 92 16093 6.2 130 18:57 25.11.2019
3747 Clouds -7 1021 92 16093 5.1 90 18:39 25.11.2019
3748 Clouds -7 1021 92 16093 5.1 90 18:21 25.11.2019
3749 Snow -7 1022 85 6437 5.7 70 17:58 25.11.2019
3750 Snow -7 1022 85 6437 5.7 70 17:39 25.11.2019
3751 Snow -7 1022 85 6437 5.7 70 17:21 25.11.2019
3752 Clouds -7 1022 85 16093 5.1 70 16:58 25.11.2019
3753 Clouds -8 1022 85 16093 5.1 70 16:40 25.11.2019
3754 Clouds -8 1022 85 16093 5.1 70 16:22 25.11.2019
3755 Clouds -8 1023 78 16093 2.1 70 15:56 25.11.2019
3756 Clouds -8 1023 78 16093 2.1 70 15:37 25.11.2019
3757 Clouds -8 1023 78 16093 2.1 70 15:18 25.11.2019
3758 Clouds -8 1023 78 16093 6.2 80 14:43 25.11.2019
3759 Clouds -8 1023 78 16093 6.2 80 14:25 25.11.2019
3760 Clouds -8 1023 85 14484 4.1 80 13:56 25.11.2019
3761 Clouds -8 1023 85 14484 4.1 80 13:37 25.11.2019
3762 Clouds -8 1023 85 14484 4.1 80 13:18 25.11.2019
3763 Snow -8 1023 78 9656 4.1 80 12:57 25.11.2019
3764 Rain -8 1023 78 14484 2.1 60 12:38 25.11.2019
3765 Rain -9 1023 78 14484 2.1 60 12:19 25.11.2019
3766 Snow -9 1023 78 3219 3.1 80 11:40 25.11.2019
3767 Snow -9 1023 78 3219 3.1 80 11:40 25.11.2019
3768 Snow -9 1023 78 3219 3.1 80 11:21 25.11.2019
3769 Clouds -11 1023 84 16093 1.81 63 10:58 25.11.2019
3770 Clouds -11 1023 84 16093 1.81 63 10:39 25.11.2019
3771 Clouds -12 1023 84 16093 1.81 63 10:19 25.11.2019
3772 Clouds -13 1022 77 16093 2.1 20 09:42 25.11.2019
3773 Clouds -13 1022 77 16093 2.1 20 09:24 25.11.2019
3774 Clouds -14 1022 84 16093 1.81 63 08:57 25.11.2019
3775 Clouds -14 1022 84 16093 1.81 63 08:38 25.11.2019
3776 Clouds -13 1022 84 16093 1.88 25 08:18 25.11.2019
3777 Clear -14 1022 84 16093 1.88 25 07:38 25.11.2019
3778 Clear -14 1022 84 16093 1.88 25 07:18 25.11.2019
3779 Clouds -13 1021 77 16093 1.88 25 06:38 25.11.2019
3780 Clouds -13 1021 77 16093 1.88 25 06:18 25.11.2019
3781 Clear -13 1021 84 16093 2.1 360 05:32 25.11.2019
3782 Clear -12 1020 78 16093 3.6 20 04:49 25.11.2019
3783 Clear -9 1018 72 16093 2.1 310 02:45 25.11.2019
3784 Clear -8 1018 72 16093 3.6 290 01:56 25.11.2019
3785 Clear -8 1018 72 16093 3.6 290 01:36 25.11.2019
3786 Clear -8 1018 72 16093 3.6 290 01:18 25.11.2019
3787 Clear -8 1017 72 16093 5.1 290 00:21 25.11.2019
3788 Clear -8 1016 72 16093 4.6 290 23:45 24.11.2019
3789 Clear -8 1016 72 16093 4.6 290 23:21 24.11.2019
3790 Clear -9 1015 78 16093 4.11 311 22:59 24.11.2019
3791 Clear -9 1015 78 16093 4.11 311 22:59 24.11.2019
3792 Clear -10 1015 78 16093 4.11 311 22:40 24.11.2019
3793 Clear -10 1015 78 16093 4.11 311 22:20 24.11.2019
3794 Clear -9 1013 72 16093 2.1 280 21:58 24.11.2019
3795 Clear -10 1013 72 16093 2.1 280 21:40 24.11.2019
3796 Clear -10 1013 72 16093 2.1 280 21:21 24.11.2019
3797 Clear -11 1012 78 16093 2.6 300 20:58 24.11.2019
3798 Clear -11 1012 78 16093 2.6 300 20:38 24.11.2019
3799 Clear -8 1012 78 16093 2.6 300 20:19 24.11.2019
3800 Clouds -8 1011 72 16093 5.1 300 19:56 24.11.2019
3801 Clouds -8 1011 72 16093 5.1 300 19:38 24.11.2019
3802 Clouds -8 1011 72 16093 5.1 300 19:20 24.11.2019
3803 Clouds -7 1009 67 16093 5.1 310 18:58 24.11.2019
3804 Clouds -7 1009 67 16093 5.1 310 18:37 24.11.2019
3805 Clouds -7 1009 67 16093 5.1 310 18:19 24.11.2019
3806 Clouds -7 1009 67 16093 5.1 310 18:19 24.11.2019
3807 Clouds -7 1008 67 16093 3.6 320 17:56 24.11.2019
3808 Clouds -7 1008 67 16093 3.6 320 17:37 24.11.2019
3809 Clouds -7 1008 67 16093 3.6 320 17:19 24.11.2019
3810 Clear -8 1007 72 16093 4.1 330 16:57 24.11.2019
3811 Clear -8 1007 72 16093 4.1 330 16:38 24.11.2019
3812 Clear -8 1007 72 16093 4.1 330 16:20 24.11.2019
3813 Clouds -8 1006 72 16093 2.6 310 15:44 24.11.2019
3814 Clouds -7 1006 72 16093 2.6 310 15:26 24.11.2019
3815 Clouds -7 1005 67 16093 3.6 330 14:58 24.11.2019
3816 Clouds -7 1005 67 16093 3.6 330 14:38 24.11.2019
3817 Clouds -7 1005 67 16093 3.6 330 14:18 24.11.2019
3818 Clouds -7 1004 67 16093 3.1 330 13:54 24.11.2019
3819 Clouds -7 1004 67 16093 3.1 330 13:36 24.11.2019
3820 Clouds -7 1004 67 16093 3.1 330 13:18 24.11.2019
3821 Clouds -7 1003 67 16093 7.2 350 12:42 24.11.2019
3822 Clouds -7 1003 67 16093 7.2 350 12:19 24.11.2019
3823 Clouds -8 1002 72 16093 2.1 0 11:58 24.11.2019
3824 Clouds -8 1002 72 16093 2.1 0 11:37 24.11.2019
3825 Clouds -7 1002 72 16093 2.1 0 11:18 24.11.2019
3826 Clear -8 1001 72 16093 2.1 350 10:47 24.11.2019
3827 Clear -8 1001 72 16093 2.1 350 10:29 24.11.2019
3828 Clear -7 1000 72 16093 4.6 10 09:58 24.11.2019
3829 Clear -7 1000 72 16093 4.6 10 09:38 24.11.2019
3830 Clear -7 1000 72 16093 4.6 10 09:19 24.11.2019
3831 Clear -7 999 72 16093 3.6 40 08:56 24.11.2019
3832 Clear -7 999 72 16093 3.6 40 08:36 24.11.2019
3833 Clear -7 999 72 16093 3.6 40 08:18 24.11.2019
3834 Clear -7 998 67 16093 2.1 30 07:45 24.11.2019
3835 Clear -7 998 67 16093 2.1 30 07:20 24.11.2019
3836 Clouds -7 997 72 16093 3.6 10 06:21 24.11.2019
3837 Clouds -7 995 73 16093 4.6 360 04:54 24.11.2019
3838 Clouds -6 995 73 16093 4.6 360 04:35 24.11.2019
3839 Clouds -6 994 73 16093 9.8 10 02:32 24.11.2019
3840 Clouds -6 993 67 16093 10.8 360 01:49 24.11.2019
3841 Clouds -6 993 67 16093 10.8 360 01:27 24.11.2019
3842 Clouds -6 993 62 16093 9.8 350 00:48 24.11.2019
3843 Clouds -5 993 62 16093 9.8 350 00:24 24.11.2019
3844 Clouds -6 992 67 16093 8.7 360 23:56 23.11.2019
3845 Clouds -6 992 67 16093 8.7 360 23:37 23.11.2019
3846 Clouds -5 992 67 16093 8.7 360 23:19 23.11.2019
3847 Clouds -6 992 67 16093 7.7 10 22:55 23.11.2019
3848 Clouds -6 992 67 16093 7.7 10 22:55 23.11.2019
3849 Clouds -5 992 67 16093 7.7 10 22:36 23.11.2019
3850 Clouds -5 992 67 16093 7.7 10 22:18 23.11.2019
3851 Clouds -6 991 67 16093 8.7 10 21:43 23.11.2019
3852 Clouds -6 991 67 16093 8.7 10 21:43 23.11.2019
3853 Clouds -6 991 67 16093 8.7 10 21:23 23.11.2019
3854 Clouds -6 990 67 16093 8.7 10 20:59 23.11.2019
3855 Clouds -6 990 67 16093 8.7 10 20:38 23.11.2019
3856 Clouds -6 990 67 16093 8.7 10 20:19 23.11.2019
3857 Clouds -6 989 67 16093 5.7 350 19:56 23.11.2019
3858 Clouds -6 989 67 16093 5.7 350 19:38 23.11.2019
3859 Clouds -6 989 67 16093 5.7 350 19:18 23.11.2019
3860 Clouds -6 988 67 16093 7.7 350 18:55 23.11.2019
3861 Clouds -6 988 67 16093 7.7 350 18:36 23.11.2019
3862 Clouds -6 988 67 16093 7.7 350 18:36 23.11.2019
3863 Snow -6 988 73 8047 6.7 360 18:18 23.11.2019
3864 Snow -6 988 73 8047 6.7 360 17:41 23.11.2019
3865 Snow -6 988 73 8047 6.7 360 17:21 23.11.2019
3866 Snow -6 987 73 12874 7.7 20 16:56 23.11.2019
3867 Snow -6 987 73 12874 7.7 20 16:38 23.11.2019
3868 Snow -6 987 73 12874 7.7 20 16:20 23.11.2019
3869 Clouds -6 986 79 16093 6.2 360 15:57 23.11.2019
3870 Clouds -6 986 79 16093 6.2 360 15:38 23.11.2019
3871 Clouds -6 986 79 16093 6.2 360 15:19 23.11.2019
3872 Clouds -6 986 79 14484 5.7 360 14:56 23.11.2019
3873 Clouds -6 986 79 14484 5.7 360 14:37 23.11.2019
3874 Snow -6 985 85 12874 2.1 360 14:18 23.11.2019
3875 Snow -5 985 79 9656 3.6 10 13:42 23.11.2019
3876 Snow -5 985 85 11265 2.1 20 13:20 23.11.2019
3877 Snow -5 984 85 9656 3.1 340 12:55 23.11.2019
3878 Snow -5 984 92 8047 2.6 350 12:37 23.11.2019
3879 Snow -5 984 92 8047 2.6 350 12:19 23.11.2019
3880 Clouds -4 983 79 14484 4.1 360 11:42 23.11.2019
3881 Clouds -4 983 79 14484 4.1 360 11:20 23.11.2019
3882 Snow -4 983 79 14484 3.6 340 10:45 23.11.2019
3883 Snow -4 983 79 14484 3.6 340 10:21 23.11.2019
3884 Snow -5 982 85 9656 1.5 350 09:42 23.11.2019
3885 Snow -5 982 85 9656 1.5 350 09:20 23.11.2019
3886 Clouds -6 981 92 16093 3.1 330 08:45 23.11.2019
3887 Clouds -6 981 92 16093 3.1 330 08:20 23.11.2019
3888 Clouds -5 981 92 16093 2.6 310 07:54 23.11.2019
3889 Clouds -5 981 92 16093 2.6 310 07:35 23.11.2019
3890 Snow -6 981 100 14484 3.1 330 06:48 23.11.2019
3891 Snow -5 980 92 14484 2.1 330 06:21 23.11.2019
3892 Snow -5 980 92 14484 2.6 340 05:51 23.11.2019
3893 Snow -6 980 92 14484 1.47 14 05:29 23.11.2019
3894 Snow -5 979 92 6437 1.78 354 04:49 23.11.2019
3895 Snow -5 979 92 6437 1.78 354 04:27 23.11.2019
3896 Snow -5 978 85 14484 2.1 290 02:48 23.11.2019
3897 Snow -4 978 79 14484 2.1 290 01:51 23.11.2019
3898 Snow -4 978 79 14484 2.1 290 01:32 23.11.2019
3899 Snow -4 978 73 14484 2.1 330 00:43 23.11.2019
3900 Snow -4 978 73 14484 2.1 330 00:18 23.11.2019
3901 Snow -4 977 79 14484 3.1 310 23:42 22.11.2019
3902 Snow -5 977 79 14484 3.1 310 23:20 22.11.2019
3903 Snow -6 977 79 16093 2.6 330 22:57 22.11.2019
3904 Snow -5 977 79 16093 2.6 330 22:38 22.11.2019
3905 Snow -5 977 79 16093 2.6 330 22:20 22.11.2019
3906 Clouds -5 977 79 16093 1.5 320 21:58 22.11.2019
3907 Clouds -6 977 79 16093 1.5 320 21:39 22.11.2019
3908 Clouds -6 977 79 16093 1.5 320 21:20 22.11.2019
3909 Clouds -6 976 73 16093 3.1 320 20:43 22.11.2019
3910 Clouds -6 976 73 16093 3.1 320 20:22 22.11.2019
3911 Clouds -6 976 73 16093 2.1 310 19:57 22.11.2019
3912 Clouds -6 976 73 16093 2.1 310 19:37 22.11.2019
3913 Clouds -6 976 73 16093 2.1 310 19:19 22.11.2019
3914 Clouds -7 976 79 16093 2.6 310 18:40 22.11.2019
3915 Clouds -7 976 79 16093 2.6 310 18:21 22.11.2019
3916 Clouds -6 975 73 16093 3.07 348 17:59 22.11.2019
3917 Clouds -6 975 73 16093 3.07 348 17:40 22.11.2019
3918 Clouds -6 975 73 16093 2.73 7 17:22 22.11.2019
3919 Clouds -6 975 67 16093 2.6 340 16:47 22.11.2019
3920 Clouds -6 975 67 16093 2.6 340 16:28 22.11.2019
3921 Clouds -7 975 79 16093 2.1 340 15:47 22.11.2019
3922 Clouds -7 975 79 16093 2.1 340 15:25 22.11.2019
3923 Clouds -7 975 73 16093 1.5 350 14:57 22.11.2019
3924 Clouds -7 975 73 16093 1.5 350 14:39 22.11.2019
3925 Clouds -7 975 73 16093 1.5 350 14:21 22.11.2019
3926 Clouds -7 975 73 16093 3.91 355 13:59 22.11.2019
3927 Clouds -7 975 73 16093 3.91 355 13:37 22.11.2019
3928 Clouds -7 975 73 16093 4.42 354 13:19 22.11.2019
3929 Clouds -8 975 78 16093 4.42 354 12:57 22.11.2019
3930 Clouds -8 975 78 16093 4.42 354 12:39 22.11.2019
3931 Clouds -8 975 78 16093 4.42 354 12:19 22.11.2019
3932 Clouds -9 975 78 16093 2.1 350 11:55 22.11.2019
3933 Clouds -9 975 78 16093 2.1 350 11:36 22.11.2019
3934 Clouds -9 975 78 16093 2.1 350 11:18 22.11.2019
3935 Clouds -8 976 78 16093 5.06 4 10:40 22.11.2019
3936 Clouds -8 976 78 16093 5.06 4 10:22 22.11.2019
3937 Clouds -8 976 72 16093 3.6 360 09:58 22.11.2019
3938 Clouds -8 976 72 16093 3.6 360 09:39 22.11.2019
3939 Clouds -8 976 72 16093 3.6 360 09:21 22.11.2019
3940 Clouds -8 976 72 16093 3.6 360 09:21 22.11.2019
3941 Snow -8 977 78 9656 2.1 350 08:47 22.11.2019
3942 Snow -8 977 78 9656 2.1 350 08:28 22.11.2019
3943 Snow -8 977 72 14484 3.1 360 07:56 22.11.2019
3944 Snow -8 977 72 14484 3.1 360 07:37 22.11.2019
3945 Snow -8 977 72 14484 3.1 360 07:18 22.11.2019
3946 Snow -8 977 72 14484 3.6 360 06:41 22.11.2019
3947 Clouds -8 978 67 16093 4.6 10 05:56 22.11.2019
3948 Clouds -8 978 72 16093 3.1 40 04:52 22.11.2019
3949 Clouds -8 979 67 16093 3.1 20 02:57 22.11.2019
3950 Clouds -8 979 67 16093 3.1 20 02:33 22.11.2019
3951 Clouds -8 980 61 16093 4.1 20 01:46 22.11.2019
3952 Clouds -8 980 61 16093 4.1 20 01:20 22.11.2019
3953 Clouds -8 980 67 16093 3.6 20 00:54 22.11.2019
3954 Clouds -8 980 67 16093 3.6 20 00:25 22.11.2019
3955 Clouds -8 981 67 16093 4.6 10 23:56 21.11.2019
3956 Clouds -8 981 67 16093 4.6 10 23:38 21.11.2019
3957 Clouds -8 981 67 16093 4.6 10 23:20 21.11.2019
3958 Clouds -9 981 72 16093 4.1 360 22:41 21.11.2019
3959 Clouds -9 981 72 16093 4.1 360 22:22 21.11.2019
3960 Clouds -9 981 72 16093 3.1 360 21:58 21.11.2019
3961 Clouds -9 981 72 16093 3.1 360 21:39 21.11.2019
3962 Clouds -9 981 72 16093 3.1 360 21:20 21.11.2019
3963 Clouds -9 981 66 16093 4.6 10 20:59 21.11.2019
3964 Clouds -9 981 66 16093 4.6 10 20:39 21.11.2019
3965 Clouds -9 981 66 16093 4.6 10 20:39 21.11.2019
3966 Clouds -9 981 66 16093 4.6 10 20:19 21.11.2019
3967 Clouds -9 982 66 16093 4.1 20 19:59 21.11.2019
3968 Clouds -9 982 66 16093 4.1 20 19:59 21.11.2019
3969 Clouds -9 982 66 16093 4.1 20 19:41 21.11.2019
3970 Clouds -9 982 66 16093 4.1 20 19:23 21.11.2019
3971 Clouds -9 982 72 16093 3.1 30 18:58 21.11.2019
3972 Clouds -9 982 72 16093 3.1 30 18:40 21.11.2019
3973 Clouds -9 982 72 16093 3.1 30 18:20 21.11.2019
3974 Clouds -9 982 72 16093 3.6 360 17:58 21.11.2019
3975 Clouds -9 982 72 16093 3.6 360 17:39 21.11.2019
3976 Clouds -9 982 72 16093 3.6 360 17:39 21.11.2019
3977 Clouds -9 982 72 16093 3.6 360 17:20 21.11.2019
3978 Clouds -9 982 66 16093 3.1 360 16:55 21.11.2019
3979 Clouds -9 982 66 16093 3.1 360 16:37 21.11.2019
3980 Clouds -9 982 66 16093 3.1 360 16:18 21.11.2019
3981 Clouds -10 983 78 16093 2.1 10 15:42 21.11.2019
3982 Clouds -9 983 78 16093 2.1 10 15:20 21.11.2019
3983 Clouds -9 983 78 16093 3.76 19 14:57 21.11.2019
3984 Clouds -10 983 78 16093 3.76 19 14:37 21.11.2019
3985 Clouds -9 983 78 16093 3.51 11 14:19 21.11.2019
3986 Clouds -9 983 78 16093 2.1 20 13:40 21.11.2019
3987 Clouds -9 983 78 16093 2.1 20 13:21 21.11.2019
3988 Clouds -9 983 72 16093 1.5 30 12:59 21.11.2019
3989 Clouds -9 983 72 16093 1.5 30 12:39 21.11.2019
3990 Clouds -9 983 72 16093 1.5 30 12:21 21.11.2019
3991 Clouds -9 984 72 16093 3.6 350 11:54 21.11.2019
3992 Clouds -9 984 72 16093 3.6 350 11:36 21.11.2019
3993 Clouds -8 984 72 16093 3.6 350 11:18 21.11.2019
3994 Clouds -8 984 78 16093 2.1 350 10:42 21.11.2019
3995 Clouds -8 984 78 16093 2.1 350 10:23 21.11.2019
3996 Clouds -8 984 78 16093 2.1 350 10:23 21.11.2019
3997 Clouds -9 983 78 16093 1.5 330 09:57 21.11.2019
3998 Clouds -9 983 78 16093 1.5 330 09:39 21.11.2019
3999 Clouds -9 983 78 16093 1.5 330 09:20 21.11.2019
4000 Clouds -9 983 78 16093 1.5 330 09:20 21.11.2019
4001 Clouds -8 984 72 16093 4.1 10 08:43 21.11.2019
4002 Clouds -8 984 72 16093 4.1 10 08:22 21.11.2019
4003 Clouds -8 984 67 16093 3.1 50 07:44 21.11.2019
4004 Clouds -8 984 67 16093 3.1 50 07:19 21.11.2019
4005 Clouds -7 984 62 16093 3.1 360 06:58 21.11.2019
4006 Clouds -7 984 62 16093 3.1 360 06:34 21.11.2019
4007 Clouds -7 984 62 16093 2.6 20 05:50 21.11.2019
4008 Clouds -7 984 62 16093 3.6 360 03:36 21.11.2019
4009 Clouds -7 984 62 16093 5.7 20 02:42 21.11.2019
4010 Clouds -7 984 62 16093 5.7 20 02:24 21.11.2019
4011 Clouds -7 984 62 16093 3.6 360 01:49 21.11.2019
4012 Clouds -7 984 62 16093 3.6 360 01:20 21.11.2019
4013 Clouds -7 985 57 16093 4.6 20 00:38 21.11.2019
4014 Clouds -7 985 57 16093 4.6 20 00:20 21.11.2019
4015 Clouds -7 985 57 16093 5.1 20 23:46 20.11.2019
4016 Clouds -7 985 57 16093 5.1 20 23:21 20.11.2019
4017 Clouds -8 985 61 16093 3.6 10 22:58 20.11.2019
4018 Clouds -8 985 61 16093 3.6 10 22:38 20.11.2019
4019 Clouds -8 985 61 16093 3.6 10 22:19 20.11.2019
4020 Clouds -8 985 61 16093 4.1 20 21:58 20.11.2019
4021 Clouds -8 985 61 16093 4.1 20 21:39 20.11.2019
4022 Clouds -8 985 61 16093 4.1 20 21:20 20.11.2019
4023 Clouds -8 985 61 16093 4.1 20 21:20 20.11.2019
4024 Clear -8 985 61 16093 7.7 20 20:57 20.11.2019
4025 Clear -8 985 61 16093 7.7 20 20:39 20.11.2019
4026 Clear -8 985 61 16093 7.7 20 20:20 20.11.2019
4027 Clouds -8 985 61 16093 4.6 360 19:56 20.11.2019
4028 Clouds -8 985 61 16093 4.6 360 19:37 20.11.2019
4029 Clouds -8 985 61 16093 4.6 360 19:18 20.11.2019
4030 Clouds -8 986 61 16093 4.6 20 18:58 20.11.2019
4031 Clouds -8 986 61 16093 4.6 20 18:39 20.11.2019
4032 Clouds -8 986 61 16093 4.6 20 18:20 20.11.2019
4033 Clouds -8 985 67 16093 7.2 10 17:56 20.11.2019
4034 Clouds -8 985 67 16093 7.2 10 17:38 20.11.2019
4035 Clouds -8 985 67 16093 7.2 10 17:20 20.11.2019
4036 Clouds -8 985 67 16093 11.3 20 16:55 20.11.2019
4037 Clouds -8 985 67 16093 11.3 20 16:36 20.11.2019
4038 Clouds -8 985 67 16093 11.3 20 16:18 20.11.2019
4039 Snow -8 985 72 6437 8.7 360 15:42 20.11.2019
4040 Snow -8 985 72 6437 8.7 360 15:22 20.11.2019
4041 Clouds -7 986 57 16093 9.3 10 14:59 20.11.2019
4042 Clouds -7 986 57 16093 9.3 10 14:40 20.11.2019
4043 Clouds -7 986 57 16093 9.3 10 14:21 20.11.2019
4044 Clouds -7 986 52 16093 9.3 30 13:58 20.11.2019
4045 Clouds -7 986 52 16093 9.3 30 13:39 20.11.2019
4046 Clouds -7 986 52 16093 9.3 30 13:20 20.11.2019
4047 Clouds -8 986 52 16093 8.2 40 12:55 20.11.2019
4048 Clouds -8 986 52 16093 8.2 40 12:36 20.11.2019
4049 Clouds -8 986 52 16093 8.2 40 12:18 20.11.2019
4050 Clouds -8 986 48 16093 7.7 40 11:40 20.11.2019
4051 Clouds -8 986 48 16093 7.7 40 11:21 20.11.2019
4052 Clouds -8 986 40 16093 9.3 60 10:55 20.11.2019
4053 Clouds -8 986 40 16093 9.3 60 10:37 20.11.2019
4054 Clouds -8 986 40 16093 9.3 60 10:37 20.11.2019
4055 Clouds -8 986 40 16093 9.3 60 10:19 20.11.2019
4056 Clouds -9 986 36 16093 9.8 10 09:43 20.11.2019
4057 Clouds -9 986 36 16093 9.8 10 09:21 20.11.2019
4058 Clouds -9 986 33 16093 15.4 20 08:56 20.11.2019
4059 Clouds -9 986 33 16093 15.4 20 08:38 20.11.2019
4060 Clouds -9 986 33 16093 15.4 20 08:20 20.11.2019
4061 Dust -8 987 31 16093 15.4 20 07:45 20.11.2019
4062 Dust -8 987 31 16093 15.4 20 07:25 20.11.2019
4063 Clouds -9 987 33 16093 15.4 20 06:49 20.11.2019
4064 Clouds -9 987 33 16093 15.4 20 06:22 20.11.2019
4065 Clear -10 987 30 16093 14.4 20 05:39 20.11.2019
4066 Dust -11 990 33 8047 15.4 30 03:42 20.11.2019
4067 Clear -12 992 35 16093 10.3 30 02:21 20.11.2019
4068 Clear -12 993 32 12874 13.4 40 01:33 20.11.2019
4069 Clear -11 994 25 16093 13.4 40 00:41 20.11.2019
4070 Clear -11 994 27 16093 13.4 30 23:57 19.11.2019
4071 Clear -11 994 27 16093 13.4 30 23:27 19.11.2019
4072 Clear -11 996 27 16093 13.4 30 22:59 19.11.2019
4073 Clear -11 996 27 16093 13.4 30 22:41 19.11.2019
4074 Clear -11 996 27 16093 13.4 30 22:19 19.11.2019
4075 Clear -11 996 27 16093 13.4 30 22:19 19.11.2019
4076 Clear -12 998 32 16093 11.8 50 21:57 19.11.2019
4077 Clear -12 998 32 16093 11.8 50 21:57 19.11.2019
4078 Clear -12 998 32 16093 11.8 50 21:38 19.11.2019
4079 Clear -12 998 32 16093 11.8 50 21:19 19.11.2019
4080 Clear -12 998 32 16093 11.8 50 21:19 19.11.2019
4081 Clear -12 998 32 16093 11.8 50 21:19 19.11.2019
4082 Clear -12 1000 35 16093 5.1 30 20:56 19.11.2019
4083 Clear -12 1000 35 16093 5.1 30 20:56 19.11.2019
4084 Clear -12 1000 35 16093 5.1 30 20:38 19.11.2019
4085 Clear -12 1000 35 16093 5.1 30 20:20 19.11.2019
4086 Clear -13 1002 42 16093 2.6 100 19:56 19.11.2019
4087 Clear -13 1002 42 16093 2.6 100 19:38 19.11.2019
4088 Clear -14 1002 42 16093 2.6 100 19:19 19.11.2019
4089 Clear -13 1003 39 16093 6.2 50 18:55 19.11.2019
4090 Clear -13 1003 39 16093 6.2 50 18:36 19.11.2019
4091 Clear -13 1003 39 16093 6.2 50 18:18 19.11.2019
4092 Clear -13 1005 46 16093 8.7 40 17:55 19.11.2019
4093 Clear -13 1005 46 16093 8.7 40 17:37 19.11.2019
4094 Clear -13 1005 46 16093 8.7 40 17:37 19.11.2019
4095 Clear -13 1005 46 16093 8.7 40 17:18 19.11.2019
4096 Clear -13 1006 42 16093 5.7 90 16:42 19.11.2019
4097 Clear -13 1006 42 16093 5.7 90 16:23 19.11.2019
4098 Clear -13 1007 42 16093 5.1 30 15:57 19.11.2019
4099 Clear -12 1007 42 16093 5.1 30 15:39 19.11.2019
4100 Clear -12 1007 42 16093 5.1 30 15:20 19.11.2019
4101 Clear -13 1008 46 16093 7.7 70 14:55 19.11.2019
4102 Clear -13 1008 46 16093 7.7 70 14:37 19.11.2019
4103 Clear -13 1008 46 16093 7.7 70 14:37 19.11.2019
4104 Clear -13 1008 46 16093 7.7 70 14:19 19.11.2019
4105 Clear -13 1009 46 16093 7.7 50 13:40 19.11.2019
4106 Clear -13 1009 46 16093 7.7 50 13:19 19.11.2019
4107 Clear -13 1011 42 16093 6.7 60 12:41 19.11.2019
4108 Clear -13 1011 42 16093 6.7 60 12:23 19.11.2019
4109 Clear -13 1011 42 16093 6.7 60 12:23 19.11.2019
4110 Clear -13 1011 46 16093 8.2 40 11:58 19.11.2019
4111 Clear -13 1011 46 16093 8.2 40 11:38 19.11.2019
4112 Clear -13 1011 46 16093 8.2 40 11:19 19.11.2019
4113 Clear -14 1012 50 16093 6.7 50 10:48 19.11.2019
4114 Clear -15 1012 50 16093 6.7 50 10:23 19.11.2019
4115 Clear -14 1013 50 16093 7.7 40 09:58 19.11.2019
4116 Clear -14 1013 50 16093 7.7 40 09:40 19.11.2019
4117 Clear -14 1013 50 16093 7.7 40 09:19 19.11.2019
4118 Clear -14 1013 50 16093 7.7 40 09:19 19.11.2019
4119 Clear -14 1013 50 16093 8.2 50 08:41 19.11.2019
4120 Clear -14 1013 50 16093 8.2 50 08:23 19.11.2019
4121 Clear -14 1013 46 16093 8.2 40 07:59 19.11.2019
4122 Clear -14 1013 46 16093 8.2 40 07:41 19.11.2019
4123 Clear -14 1013 46 16093 8.2 40 07:22 19.11.2019
4124 Clear -14 1013 50 16093 7.7 40 06:52 19.11.2019
4125 Clear -14 1013 50 16093 7.7 40 06:33 19.11.2019
4126 Clear -14 1013 50 16093 3.6 30 05:40 19.11.2019
4127 Clear -14 1013 50 16093 4.1 30 04:24 19.11.2019
4128 Clear -13 1013 50 16093 3.6 40 03:34 19.11.2019
4129 Clear -13 1013 50 16093 3.6 50 02:57 19.11.2019
4130 Clear -12 1013 50 16093 3.6 50 02:33 19.11.2019
4131 Clear -12 1013 46 16093 4.6 60 01:45 19.11.2019
4132 Clear -12 1013 60 16093 2.6 60 00:22 19.11.2019
4133 Clear -12 1013 60 16093 1.5 100 23:59 18.11.2019
4134 Clear -12 1013 60 16093 1.5 100 23:37 18.11.2019
4135 Clear -12 1013 60 16093 1.5 100 23:18 18.11.2019
4136 Clear -13 1013 71 12874 2.59 43 22:46 18.11.2019
4137 Clear -13 1013 71 12874 2.59 43 22:24 18.11.2019
4138 Clear -16 1013 84 16093 2.59 43 21:57 18.11.2019
4139 Clear -16 1013 84 16093 2.59 43 21:38 18.11.2019
4140 Clear -16 1013 84 16093 2.59 43 21:20 18.11.2019
4141 Clear -16 1013 84 16093 2.59 43 20:57 18.11.2019
4142 Clear -15 1013 84 16093 2.59 43 20:38 18.11.2019
4143 Clear -15 1013 84 16093 2.59 43 20:38 18.11.2019
4144 Clear -15 1013 84 16093 2.77 45 20:18 18.11.2019
4145 Clear -15 1012 77 16093 2.39 44 19:56 18.11.2019
4146 Clear -15 1012 77 16093 2.39 44 19:37 18.11.2019
4147 Clear -14 1012 77 16093 2.39 44 19:19 18.11.2019
4148 Clear -16 1012 77 16093 2.39 44 18:55 18.11.2019
4149 Clear -15 1012 77 16093 2.39 44 18:37 18.11.2019
4150 Clear -16 1012 77 16093 2.39 44 18:19 18.11.2019
4151 Clear -16 1012 84 16093 2.39 44 17:39 18.11.2019
4152 Clear -16 1012 84 16093 2.39 44 17:39 18.11.2019
4153 Clear -16 1012 84 16093 1.85 50 17:20 18.11.2019
4154 Clear -17 1012 77 16093 1.85 50 16:57 18.11.2019
4155 Clear -17 1012 77 16093 1.85 50 16:39 18.11.2019
4156 Clear -17 1012 77 16093 1.85 50 16:21 18.11.2019
4157 Clear -17 1011 77 16093 1.85 50 15:56 18.11.2019
4158 Clear -17 1011 77 16093 1.85 50 15:37 18.11.2019
4159 Clear -17 1011 77 16093 1.85 50 15:19 18.11.2019
4160 Clear -17 1011 77 16093 1.85 50 14:43 18.11.2019
4161 Clear -17 1011 77 16093 1.85 50 14:24 18.11.2019
4162 Clear -17 1011 77 16093 2 41 13:56 18.11.2019
4163 Clear -17 1011 77 16093 2 41 13:37 18.11.2019
4164 Clear -17 1011 77 16093 2 41 13:37 18.11.2019
4165 Clear -17 1011 77 16093 2 41 13:37 18.11.2019
4166 Clear -17 1011 77 16093 2 41 13:19 18.11.2019
4167 Clear -17 1011 77 16093 1.8 39 12:39 18.11.2019
4168 Clear -17 1011 77 16093 1.8 39 12:19 18.11.2019
4169 Clear -16 1010 71 16093 1.8 39 11:46 18.11.2019
4170 Clear -16 1010 71 16093 1.8 39 11:27 18.11.2019
4171 Clear -16 1009 71 16093 2.4 35 10:59 18.11.2019
4172 Clear -16 1009 71 16093 2.4 35 10:40 18.11.2019
4173 Clear -16 1009 71 16093 2.4 35 10:22 18.11.2019
4174 Clear -14 1009 55 16093 2.4 35 09:56 18.11.2019
4175 Clear -14 1009 55 16093 2.4 35 09:56 18.11.2019
4176 Clear -14 1009 55 16093 2.4 35 09:38 18.11.2019
4177 Clear -14 1009 55 16093 2.4 35 09:38 18.11.2019
4178 Clear -14 1009 55 16093 2.4 35 09:18 18.11.2019
4179 Clear -16 1009 65 16093 2.4 35 08:45 18.11.2019
4180 Clear -16 1009 65 16093 2.22 52 08:22 18.11.2019
4181 Clear -14 1008 60 16093 2.17 59 07:49 18.11.2019
4182 Clear -14 1008 60 16093 2.17 59 07:30 18.11.2019
4183 Clear -15 1008 71 16093 2.17 59 06:57 18.11.2019
4184 Clear -15 1008 71 16093 2.17 59 06:39 18.11.2019
4185 Clear -15 1008 71 16093 2.17 59 06:20 18.11.2019
4186 Clear -15 1007 65 16093 2.17 59 05:25 18.11.2019
4187 Clear -13 1006 55 16093 1.5 130 03:28 18.11.2019
4188 Clear -10 1006 36 16093 2.1 80 01:33 18.11.2019
4189 Clear -11 1005 47 16093 2.3 20 00:46 18.11.2019
4190 Clear -13 1005 60 16093 1.5 310 23:59 17.11.2019
4191 Clear -13 1005 60 16093 1.5 310 23:40 17.11.2019
4192 Clear -13 1005 60 16093 1.5 310 23:21 17.11.2019
4193 Clear -13 1005 46 16093 2.19 36 22:56 17.11.2019
4194 Clear -13 1005 46 16093 2.19 36 22:38 17.11.2019
4195 Clear -13 1005 46 16093 2.19 36 22:19 17.11.2019
4196 Clear -12 1004 39 16093 4.1 70 21:42 17.11.2019
4197 Clear -12 1004 39 16093 4.1 70 21:20 17.11.2019
4198 Clear -13 1004 46 16093 3.1 360 20:58 17.11.2019
4199 Clear -13 1004 46 16093 3.1 360 20:39 17.11.2019
4200 Clear -13 1004 46 16093 3.1 360 20:20 17.11.2019
4201 Clear -13 1004 46 16093 2.1 0 19:57 17.11.2019
4202 Clear -13 1004 46 16093 2.1 0 19:39 17.11.2019
4203 Clear -13 1004 46 16093 2.1 0 19:39 17.11.2019
4204 Clear -13 1004 46 16093 2.1 0 19:20 17.11.2019
4205 Clear -13 1004 46 16093 2.6 40 18:56 17.11.2019
4206 Clear -13 1004 46 16093 2.6 40 18:38 17.11.2019
4207 Clear -13 1004 46 16093 2.6 40 18:19 17.11.2019
4208 Clear -13 1004 46 16093 2.6 40 18:19 17.11.2019
4209 Clear -12 1003 39 16093 4.6 110 17:58 17.11.2019
4210 Clear -12 1003 39 16093 4.6 110 17:40 17.11.2019
4211 Clear -12 1003 39 16093 4.6 110 17:20 17.11.2019
4212 Clear -12 1003 39 16093 3.6 60 16:59 17.11.2019
4213 Clear -12 1003 39 16093 3.6 60 16:41 17.11.2019
4214 Clear -12 1003 39 16093 3.6 60 16:21 17.11.2019
4215 Clear -12 1002 35 16093 6.7 40 15:56 17.11.2019
4216 Clear -12 1002 35 16093 6.7 40 15:38 17.11.2019
4217 Clear -12 1002 35 16093 6.7 40 15:18 17.11.2019
4218 Clear -12 1003 35 16093 2.6 50 14:57 17.11.2019
4219 Clear -12 1003 35 16093 2.6 50 14:38 17.11.2019
4220 Clear -12 1003 35 16093 2.6 50 14:20 17.11.2019
4221 Clear -12 1003 35 16093 2.6 50 14:20 17.11.2019
4222 Clear -11 1003 30 16093 6.7 20 13:57 17.11.2019
4223 Clear -11 1003 30 16093 6.7 20 13:39 17.11.2019
4224 Clear -11 1003 30 16093 6.7 20 13:19 17.11.2019
4225 Clear -12 1003 35 16093 4.6 10 12:44 17.11.2019
4226 Clear -12 1003 35 16093 4.6 10 12:23 17.11.2019
4227 Clear -12 1003 35 16093 4.6 10 12:23 17.11.2019
4228 Clear -12 1003 35 16093 3.1 70 11:57 17.11.2019
4229 Clear -12 1003 35 16093 3.1 70 11:39 17.11.2019
4230 Clear -12 1003 35 16093 3.1 70 11:20 17.11.2019
4231 Clear -13 1002 42 16093 2.1 350 10:44 17.11.2019
4232 Clear -13 1002 42 16093 2.1 350 10:23 17.11.2019
4233 Clear -13 1003 42 16093 5.1 360 09:58 17.11.2019
4234 Clear -13 1003 42 16093 5.1 360 09:58 17.11.2019
4235 Clear -13 1003 42 16093 5.1 360 09:39 17.11.2019
4236 Clear -13 1003 42 16093 5.1 360 09:21 17.11.2019
4237 Clear -13 1003 42 16093 5.1 10 08:41 17.11.2019
4238 Clear -13 1003 42 16093 5.1 10 08:41 17.11.2019
4239 Clear -13 1003 42 16093 5.1 10 08:22 17.11.2019
4240 Clear -11 1003 33 16093 5.1 50 07:56 17.11.2019
4241 Clear -11 1003 33 16093 5.1 50 07:37 17.11.2019
4242 Clear -11 1003 33 16093 5.1 50 07:19 17.11.2019
4243 Clear -11 1002 33 16093 10.3 40 06:44 17.11.2019
4244 Clear -11 1002 33 16093 10.3 40 06:26 17.11.2019
4245 Clear -9 1002 23 16093 10.3 40 04:38 17.11.2019
4246 Clear -9 1002 23 16093 10.3 40 04:38 17.11.2019
4247 Clear -11 1001 33 16093 13.9 40 03:53 17.11.2019
4248 Clear -11 1001 33 16093 13.9 40 03:33 17.11.2019
4249 Clear -9 1002 23 16093 10.3 60 02:36 17.11.2019
4250 Clear -9 1002 25 16093 9.3 20 01:45 17.11.2019
4251 Clear -9 1003 31 16093 7.2 360 00:56 17.11.2019
4252 Clear -9 1003 31 16093 7.2 360 00:23 17.11.2019
4253 Clear -9 1003 31 16093 5.1 350 23:54 16.11.2019
4254 Clear -9 1003 31 16093 5.1 350 23:21 16.11.2019
4255 Clear -10 1003 33 16093 6.2 350 22:59 16.11.2019
4256 Clear -10 1003 33 16093 6.2 350 22:41 16.11.2019
4257 Clear -10 1003 33 16093 6.2 350 22:20 16.11.2019
4258 Clear -11 1003 39 16093 5.1 360 21:56 16.11.2019
4259 Clear -11 1003 39 16093 5.1 360 21:38 16.11.2019
4260 Clear -11 1003 39 16093 5.1 360 21:19 16.11.2019
4261 Clear -9 1003 33 16093 4.6 340 20:55 16.11.2019
4262 Clear -9 1003 33 16093 4.6 340 20:37 16.11.2019
4263 Clear -9 1003 33 16093 4.6 340 20:18 16.11.2019
4264 Clear -8 1003 31 16093 8.2 40 19:40 16.11.2019
4265 Clear -8 1003 31 16093 8.2 40 19:22 16.11.2019
4266 Clear -9 1003 33 16093 1.5 0 18:47 16.11.2019
4267 Clear -9 1003 33 16093 1.5 0 18:29 16.11.2019
4268 Clear -9 1003 33 16093 5.1 60 17:58 16.11.2019
4269 Clear -9 1003 33 16093 5.1 60 17:39 16.11.2019
4270 Clear -9 1003 33 16093 5.1 60 17:21 16.11.2019
4271 Clear -9 1003 33 16093 8.7 50 16:56 16.11.2019
4272 Clear -9 1003 33 16093 8.7 50 16:37 16.11.2019
4273 Clear -9 1003 33 16093 8.7 50 16:19 16.11.2019
4274 Clear -8 1002 31 16093 10.8 40 15:41 16.11.2019
4275 Clear -8 1002 31 16093 10.8 40 15:22 16.11.2019
4276 Clear -8 1002 31 16093 12.9 50 14:58 16.11.2019
4277 Clear -8 1002 31 16093 12.9 50 14:40 16.11.2019
4278 Clear -8 1002 31 16093 12.9 50 14:21 16.11.2019
4279 Clear -8 1002 34 16093 12.3 50 13:56 16.11.2019
4280 Clear -8 1002 34 16093 12.3 50 13:38 16.11.2019
4281 Clear -8 1002 34 16093 12.3 50 13:18 16.11.2019
4282 Clear -7 1002 28 16093 14.4 40 12:55 16.11.2019
4283 Clear -7 1002 28 16093 14.4 40 12:36 16.11.2019
4284 Clear -7 1002 28 16093 14.4 40 12:18 16.11.2019
4285 Clear -7 1002 28 16093 13.4 40 11:42 16.11.2019
4286 Clear -7 1002 28 16093 13.4 40 11:23 16.11.2019
4287 Clear -7 1002 28 14484 14.9 40 10:56 16.11.2019
4288 Clear -7 1002 28 14484 14.9 40 10:37 16.11.2019
4289 Clear -7 1002 28 14484 14.9 40 10:18 16.11.2019
4290 Clear -8 1002 34 16093 11.8 40 09:42 16.11.2019
4291 Clear -8 1002 34 16093 11.8 40 09:20 16.11.2019
4292 Clear -8 1002 34 16093 10.8 20 08:57 16.11.2019
4293 Clear -8 1002 34 16093 10.8 20 08:37 16.11.2019
4294 Clear -8 1002 34 16093 10.8 20 08:18 16.11.2019
4295 Clear -7 1002 31 16093 11.8 30 07:41 16.11.2019
4296 Clear -7 1002 31 16093 11.8 30 07:19 16.11.2019
4297 Clear -7 1002 34 16093 4.1 30 06:44 16.11.2019
4298 Clear -7 1002 34 16093 4.1 30 06:25 16.11.2019
4299 Clear -7 1001 37 16093 8.2 40 04:49 16.11.2019
4300 Clear -6 1001 34 16093 10.3 40 03:27 16.11.2019
4301 Clear -6 1001 34 16093 10.3 40 03:27 16.11.2019
4302 Clear -6 1001 34 16093 10.3 50 02:55 16.11.2019
4303 Clear -6 1001 34 16093 10.3 50 02:55 16.11.2019
4304 Clear -6 1001 34 16093 8.2 60 01:44 16.11.2019
4305 Clear -5 1001 34 16093 8.2 60 01:18 16.11.2019
4306 Clear -5 1000 32 16093 13.4 50 00:41 16.11.2019
4307 Clear -5 1000 32 16093 13.4 50 00:20 16.11.2019
4308 Clear -5 1000 29 12874 13.4 60 23:39 15.11.2019
4309 Clear -5 1000 29 12874 13.4 60 23:20 15.11.2019
4310 Clear -5 1000 29 16093 11.3 60 22:55 15.11.2019
4311 Clear -5 1000 29 16093 11.3 60 22:36 15.11.2019
4312 Clear -5 1000 29 16093 11.3 60 22:18 15.11.2019
4313 Clear -6 1000 29 12874 13.4 50 21:41 15.11.2019
4314 Clear -5 1000 29 12874 13.4 50 21:20 15.11.2019
4315 Clear -7 1000 31 16093 11.8 50 20:58 15.11.2019
4316 Clear -7 1000 31 16093 11.8 50 20:40 15.11.2019
4317 Clear -7 1000 31 16093 11.8 50 20:40 15.11.2019
4318 Clear -6 1000 31 16093 11.8 50 20:21 15.11.2019
4319 Clear -7 1000 37 16093 12.3 40 19:58 15.11.2019
4320 Clear -7 1000 37 16093 12.3 40 19:40 15.11.2019
4321 Clear -7 1000 37 16093 12.3 40 19:20 15.11.2019
4322 Clear -7 1000 31 16093 11.3 50 18:58 15.11.2019
4323 Clear -7 1000 31 16093 11.3 50 18:40 15.11.2019
4324 Clear -7 1000 31 16093 11.3 50 18:21 15.11.2019
4325 Clear -7 1000 31 16093 11.3 40 17:43 15.11.2019
4326 Clear -7 1000 31 16093 11.3 40 17:25 15.11.2019
4327 Clear -7 1000 31 16093 11.3 40 17:25 15.11.2019
4328 Clear -7 1000 28 16093 10.8 40 16:57 15.11.2019
4329 Clear -7 1000 28 16093 10.8 40 16:38 15.11.2019
4330 Clear -7 1000 28 16093 10.8 40 16:19 15.11.2019
4331 Clear -6 1000 28 16093 10.8 50 15:39 15.11.2019
4332 Clear -6 1000 28 16093 10.8 50 15:39 15.11.2019
4333 Clear -6 1000 28 16093 10.8 50 15:20 15.11.2019
4334 Clear -6 1000 28 16093 12.3 30 14:58 15.11.2019
4335 Clear -7 1000 28 16093 12.3 30 14:38 15.11.2019
4336 Clear -6 1000 28 16093 12.3 30 14:20 15.11.2019
4337 Clear -7 1001 31 16093 10.3 40 13:58 15.11.2019
4338 Clear -7 1001 31 16093 10.3 40 13:39 15.11.2019
4339 Clear -7 1001 31 16093 10.3 40 13:21 15.11.2019
4340 Clear -7 1001 31 16093 10.3 40 13:21 15.11.2019
4341 Clear -7 1001 34 16093 8.7 40 12:59 15.11.2019
4342 Clear -7 1001 34 16093 8.7 40 12:40 15.11.2019
4343 Clear -7 1001 34 16093 8.7 40 12:20 15.11.2019
4344 Clear -7 1001 31 16093 10.3 30 11:59 15.11.2019
4345 Clear -7 1001 31 16093 10.3 30 11:39 15.11.2019
4346 Clear -7 1001 31 16093 10.3 30 11:20 15.11.2019
4347 Clear -7 1000 34 16093 8.2 50 10:57 15.11.2019
4348 Clear -6 1000 34 16093 8.2 50 10:38 15.11.2019
4349 Clear -7 1000 34 16093 8.2 50 10:18 15.11.2019
4350 Clear -7 1000 37 16093 9.8 40 09:41 15.11.2019
4351 Clear -7 1000 37 16093 9.8 40 09:20 15.11.2019
4352 Clear -6 1000 37 16093 7.2 50 08:44 15.11.2019
4353 Clear -6 1000 37 16093 7.2 50 08:23 15.11.2019
4354 Clear -6 1000 29 16093 11.3 50 07:49 15.11.2019
4355 Clear -6 1000 29 16093 11.3 50 07:28 15.11.2019
4356 Clear -6 1000 41 16093 7.7 50 06:52 15.11.2019
4357 Clear -6 1000 41 16093 7.7 50 06:32 15.11.2019
4358 Clear -6 999 37 16093 11.8 40 05:48 15.11.2019
4359 Clear -7 999 37 16093 11.8 40 05:26 15.11.2019
4360 Clouds -7 998 37 16093 11.8 40 03:56 15.11.2019
4361 Clouds -7 998 37 16093 11.8 40 03:25 15.11.2019
4362 Clouds -7 999 37 16093 12.9 40 02:21 15.11.2019
4363 Clouds -7 999 37 16093 11.8 30 01:33 15.11.2019
4364 Clouds -7 999 37 16093 11.8 30 01:33 15.11.2019
4365 Clouds -7 999 37 16093 10.8 30 00:54 15.11.2019
4366 Clouds -7 999 37 16093 10.8 30 00:33 15.11.2019
4367 Clouds -7 999 40 16093 10.8 30 23:57 14.11.2019
4368 Clouds -7 999 40 16093 10.8 30 23:38 14.11.2019
4369 Clouds -8 999 40 16093 10.8 30 23:18 14.11.2019
4370 Clouds -8 1000 40 16093 12.9 40 22:40 14.11.2019
4371 Clouds -8 1000 40 16093 12.9 40 22:21 14.11.2019
4372 Clouds -9 1000 43 16093 14.9 40 21:56 14.11.2019
4373 Clouds -9 1000 43 16093 14.9 40 21:56 14.11.2019
4374 Clouds -9 1000 43 16093 14.9 40 21:38 14.11.2019
4375 Clouds -9 1000 43 16093 14.9 40 21:19 14.11.2019
4376 Clouds -9 1000 40 16093 12.9 30 20:42 14.11.2019
4377 Clouds -9 1000 40 16093 12.9 30 20:42 14.11.2019
4378 Clouds -9 1000 40 16093 12.9 30 20:24 14.11.2019
4379 Clear -9 1001 40 16093 13.9 30 19:59 14.11.2019
4380 Clear -9 1001 40 16093 13.9 30 19:41 14.11.2019
4381 Clear -9 1001 40 16093 13.9 30 19:18 14.11.2019
4382 Clear -9 1002 43 14484 12.3 40 18:56 14.11.2019
4383 Clear -9 1002 43 14484 12.3 40 18:38 14.11.2019
4384 Clear -9 1002 43 14484 12.3 40 18:20 14.11.2019
4385 Clear -9 1002 43 14484 12.3 40 18:20 14.11.2019
4386 Clear -9 1002 43 14484 12.3 40 17:55 14.11.2019
4387 Clear -10 1002 43 14484 17.5 30 17:37 14.11.2019
4388 Clear -10 1002 43 14484 17.5 30 17:18 14.11.2019
4389 Clear -9 1004 36 16093 13.4 40 16:57 14.11.2019
4390 Clear -9 1004 36 16093 13.4 40 16:36 14.11.2019
4391 Clear -9 1004 36 16093 13.4 40 16:18 14.11.2019
4392 Clear -10 1004 43 16093 12.9 50 15:54 14.11.2019
4393 Clear -10 1004 43 16093 12.9 50 15:36 14.11.2019
4394 Clear -10 1004 43 16093 12.9 50 15:18 14.11.2019
4395 Clear -10 1006 40 16093 10.8 50 14:43 14.11.2019
4396 Clear -10 1006 40 16093 10.8 50 14:22 14.11.2019
4397 Clear -10 1007 40 16093 13.9 40 13:57 14.11.2019
4398 Clear -10 1007 40 16093 13.9 40 13:38 14.11.2019
4399 Clear -10 1007 40 16093 13.9 40 13:19 14.11.2019
4400 Clear -10 1009 43 16093 7.2 50 12:46 14.11.2019
4401 Clear -10 1009 43 16093 7.2 50 12:26 14.11.2019
4402 Clear -10 1009 36 16093 12.3 30 11:59 14.11.2019
4403 Clear -10 1009 36 16093 12.3 30 11:38 14.11.2019
4404 Clear -9 1009 36 16093 12.3 30 11:20 14.11.2019
4405 Clear -10 1010 39 11265 15.4 30 10:58 14.11.2019
4406 Clear -10 1010 39 11265 15.4 30 10:39 14.11.2019
4407 Clear -10 1010 39 11265 15.4 30 10:20 14.11.2019
4408 Clear -10 1012 39 16093 12.9 40 09:56 14.11.2019
4409 Clear -9 1010 37 0 17.43 49 09:38 14.11.2019
4410 Dust -10 1012 33 8047 16.5 40 09:19 14.11.2019
4411 Dust -10 1012 33 8047 16.5 40 08:47 14.11.2019
4412 Dust -10 1012 33 8047 16.5 40 08:47 14.11.2019
4413 Dust -10 1012 33 8047 16.5 40 08:25 14.11.2019
4414 Dust -10 1012 33 8047 15.4 40 07:44 14.11.2019
4415 Dust -10 1012 33 8047 15.4 40 07:25 14.11.2019
4416 Dust -10 1012 36 8047 14.9 40 06:56 14.11.2019
4417 Dust -10 1012 36 8047 14.9 40 06:37 14.11.2019
4418 Clear -10 1013 36 14484 13.9 40 06:18 14.11.2019
4419 Clear -11 1014 43 16093 9.8 40 04:40 14.11.2019
4420 Clear -11 1015 43 16093 7.7 40 03:59 14.11.2019
4421 Clear -9 1014 36 16093 13.4 40 02:43 14.11.2019
4422 Dust -8 1014 28 16093 12.3 60 01:41 14.11.2019
4423 Dust -8 1014 28 16093 12.3 60 01:20 14.11.2019
4424 Dust -8 1016 31 16093 10.3 40 00:48 14.11.2019
4425 Dust -8 1016 31 16093 10.3 40 00:25 14.11.2019
4426 Clear -8 1016 28 16093 7.7 60 23:41 13.11.2019
4427 Clear -8 1016 28 16093 7.7 60 23:21 13.11.2019
4428 Clear -8 1017 31 16093 9.3 80 22:56 13.11.2019
4429 Clear -8 1017 31 16093 9.3 80 22:38 13.11.2019
4430 Clear -8 1017 31 16093 9.3 80 22:20 13.11.2019
4431 Clear -8 1016 31 16093 11.3 60 21:55 13.11.2019
4432 Clear -8 1016 31 16093 11.3 60 21:37 13.11.2019
4433 Clear -8 1016 31 16093 11.3 60 21:19 13.11.2019
4434 Clear -8 1016 31 16093 10.3 60 20:56 13.11.2019
4435 Clear -8 1016 31 16093 10.3 60 20:37 13.11.2019
4436 Clear -7 1016 31 16093 10.3 60 20:18 13.11.2019
4437 Clear -8 1015 34 16093 12.9 50 19:44 13.11.2019
4438 Clear -8 1015 34 16093 12.9 50 19:20 13.11.2019
4439 Clear -8 1015 34 16093 12.3 50 18:58 13.11.2019
4440 Clear -8 1015 34 16093 12.3 50 18:58 13.11.2019
4441 Clear -8 1015 34 16093 12.3 50 18:39 13.11.2019
4442 Clear -8 1015 34 16093 12.3 50 18:39 13.11.2019
4443 Clear -7 1015 34 16093 12.3 50 18:21 13.11.2019
4444 Clear -7 1015 31 16093 9.3 50 17:58 13.11.2019
4445 Clear -7 1015 31 16093 9.3 50 17:40 13.11.2019
4446 Clear -7 1015 31 16093 9.3 50 17:22 13.11.2019
4447 Clear -7 1015 31 16093 9.3 50 17:22 13.11.2019
4448 Clear -6 1014 29 14484 12.3 40 16:58 13.11.2019
4449 Clear -6 1014 29 14484 12.3 40 16:40 13.11.2019
4450 Clear -6 1014 29 14484 12.3 40 16:40 13.11.2019
4451 Clear -6 1014 29 14484 12.3 40 16:21 13.11.2019
4452 Clear -6 1014 31 16093 11.3 60 15:58 13.11.2019
4453 Clear -6 1014 31 16093 11.3 60 15:39 13.11.2019
4454 Clear -5 1014 31 16093 11.3 60 15:20 13.11.2019
4455 Clear -5 1013 32 14484 10.3 60 14:43 13.11.2019
4456 Clear -4 1013 32 14484 10.3 60 14:23 13.11.2019
4457 Clear -4 1012 32 16093 10.8 60 13:58 13.11.2019
4458 Clear -4 1012 32 16093 10.8 60 13:37 13.11.2019
4459 Clear -4 1012 32 16093 10.8 60 13:18 13.11.2019
4460 Clear -4 1012 35 16093 11.3 60 12:56 13.11.2019
4461 Clear -4 1012 35 16093 11.3 60 12:37 13.11.2019
4462 Clear -4 1012 35 16093 11.3 60 12:19 13.11.2019
4463 Clear -3 1012 35 12874 11.3 60 11:41 13.11.2019
4464 Clear -3 1012 35 12874 11.3 60 11:21 13.11.2019
4465 Haze -3 1011 38 8047 12.3 60 10:58 13.11.2019
4466 Haze -3 1011 38 8047 12.3 60 10:40 13.11.2019
4467 Haze -3 1011 38 8047 12.3 60 10:20 13.11.2019
4468 Clear -2 1011 42 16093 7.7 50 09:57 13.11.2019
4469 Clear -2 1011 42 16093 7.7 50 09:38 13.11.2019
4470 Clear -2 1011 42 16093 7.7 50 09:38 13.11.2019
4471 Clear -2 1011 42 16093 7.7 50 09:20 13.11.2019
4472 Clear -2 1011 46 16093 9.3 60 08:39 13.11.2019
4473 Clear -2 1011 46 16093 9.3 60 08:20 13.11.2019
4474 Clear 0 1010 66 16093 10.8 60 07:42 13.11.2019
4475 Clear 0 1010 66 16093 10.8 60 07:21 13.11.2019
4476 Clear 0 1010 54 16093 9.3 70 06:46 13.11.2019
4477 Clear 0 1010 54 16093 9.3 70 06:19 13.11.2019
4478 Clear 0 1010 54 16093 9.3 70 06:19 13.11.2019
4479 Clear 1 1009 50 16093 8.7 50 05:54 13.11.2019
4480 Clear 1 1009 50 16093 8.7 50 05:34 13.11.2019
4481 Clouds 1 1009 55 16093 8.2 50 04:44 13.11.2019
4482 Clouds 3 1009 59 16093 9.3 50 02:19 13.11.2019
4483 Clouds 4 1009 69 16093 6.7 50 01:45 13.11.2019
4484 Clouds 4 1009 80 16093 5.1 40 00:52 13.11.2019
4485 Clouds 4 1009 80 16093 5.1 40 00:34 13.11.2019
4486 Clouds 3 1009 86 16093 3.32 51 23:42 12.11.2019
4487 Clouds 3 1009 86 16093 3.77 26 23:22 12.11.2019
4488 Clouds 2 1009 78 16093 3.77 26 22:56 12.11.2019
4489 Clouds 3 1009 78 16093 3.77 26 22:37 12.11.2019
4490 Clouds 3 1009 78 16093 3.77 26 22:18 12.11.2019
4491 Clouds 3 1009 78 16093 3.6 110 21:44 12.11.2019
4492 Clouds 3 1009 78 16093 3.6 110 21:44 12.11.2019
4493 Clouds 2 1009 78 16093 3.6 110 21:25 12.11.2019
4494 Clouds 2 1009 78 16093 3.1 130 20:58 12.11.2019
4495 Clouds 2 1009 78 16093 3.1 130 20:38 12.11.2019
4496 Clouds 2 1009 78 16093 3.1 130 20:19 12.11.2019
4497 Clouds 4 1008 80 16093 3.1 70 19:57 12.11.2019
4498 Clouds 4 1008 80 16093 3.1 70 19:39 12.11.2019
4499 Clouds 4 1008 80 16093 3.1 70 19:19 12.11.2019
4500 Clouds 4 1008 78 16093 2.6 70 18:59 12.11.2019
4501 Clouds 4 1008 78 16093 2.6 70 18:40 12.11.2019
4502 Clouds 4 1008 78 16093 2.6 70 18:40 12.11.2019
4503 Clouds 4 1008 78 16093 2.6 70 18:22 12.11.2019
4504 Clouds 4 1008 78 16093 2.6 70 18:22 12.11.2019
4505 Clouds 3 1008 78 16093 3.1 40 17:57 12.11.2019
4506 Clouds 3 1008 78 16093 3.1 40 17:39 12.11.2019
4507 Clouds 3 1008 75 16093 3.1 40 17:21 12.11.2019
4508 Clouds 3 1008 75 16093 3.1 40 17:21 12.11.2019
4509 Clouds 3 1008 75 16093 3.1 40 17:21 12.11.2019
4510 Clouds 3 1008 75 16093 3.1 50 16:57 12.11.2019
4511 Clouds 4 1008 75 16093 3.1 50 16:39 12.11.2019
4512 Clouds 3 1008 75 16093 3.1 50 16:21 12.11.2019
4513 Clouds 4 1008 75 16093 2.1 60 15:42 12.11.2019
4514 Clouds 3 1008 75 16093 2.1 60 15:21 12.11.2019
4515 Clouds 3 1008 93 16093 2.6 28 14:57 12.11.2019
4516 Clouds 3 1008 93 16093 2.6 28 14:37 12.11.2019
4517 Clouds 3 1008 93 16093 2.86 50 14:19 12.11.2019
4518 Clouds 3 1008 86 16093 2.86 50 13:56 12.11.2019
4519 Clouds 3 1008 86 16093 2.86 50 13:37 12.11.2019
4520 Clouds 3 1008 86 16093 2.79 38 13:18 12.11.2019
4521 Clouds 3 1008 80 16093 2.79 38 12:42 12.11.2019
4522 Clouds 3 1008 80 16093 3.51 33 12:20 12.11.2019
4523 Clouds 3 1008 79 16093 2.6 80 11:59 12.11.2019
4524 Clouds 3 1008 80 16093 2.6 80 11:40 12.11.2019
4525 Clouds 3 1008 80 16093 2.6 80 11:40 12.11.2019
4526 Clouds 3 1008 82 16093 2.6 80 11:22 12.11.2019
4527 Clouds 4 1008 82 16093 4.6 80 10:56 12.11.2019
4528 Clouds 4 1008 81 16093 4.6 80 10:37 12.11.2019
4529 Clouds 4 1008 81 16093 4.6 80 10:19 12.11.2019
4530 Clouds 4 1008 81 16093 4.1 80 09:42 12.11.2019
4531 Clouds 4 1008 82 16093 4.1 80 09:21 12.11.2019
4532 Clouds 3 1008 81 16093 3.1 110 08:54 12.11.2019
4533 Clouds 3 1007 82 0 3.58 97 08:36 12.11.2019
4534 Clouds 3 1008 81 16093 4.1 80 08:18 12.11.2019
4535 Clouds 3 1008 84 16093 4.1 80 07:40 12.11.2019
4536 Clouds 3 1008 84 16093 4.1 80 07:40 12.11.2019
4537 Clouds 3 1008 84 16093 4.1 80 07:20 12.11.2019
4538 Clouds 4 1007 84 16093 6.2 70 06:42 12.11.2019
4539 Clouds 5 1007 84 16093 6.2 70 06:22 12.11.2019
4540 Clouds 4 1007 86 16093 7.2 70 05:46 12.11.2019
4541 Clear 4 1007 86 16093 5.7 70 04:46 12.11.2019
4542 Clouds 3 1008 86 16093 4.1 70 03:40 12.11.2019
4543 Clouds 3 1008 93 16093 4.1 70 01:47 12.11.2019
4544 Clouds 3 1008 93 16093 4.1 70 01:22 12.11.2019
4545 Clouds 3 1009 93 16093 4.6 70 00:47 12.11.2019
4546 Clouds 3 1009 93 16093 4.6 70 00:28 12.11.2019
4547 Mist 2 1009 100 9656 6.7 70 23:44 11.11.2019
4548 Mist 2 1009 100 9656 6.7 70 23:23 11.11.2019
4549 Clouds 2 1010 100 16093 5.7 80 22:57 11.11.2019
4550 Clouds 2 1010 100 16093 5.7 80 22:36 11.11.2019
4551 Clouds 2 1010 100 16093 5.7 80 22:18 11.11.2019
4552 Clouds 2 1010 100 16093 5.7 80 22:18 11.11.2019
4553 Clouds 2 1009 100 16093 6.2 70 21:56 11.11.2019
4554 Clouds 2 1009 100 16093 6.2 70 21:38 11.11.2019
4555 Clouds 2 1009 100 16093 6.2 70 21:19 11.11.2019
4556 Clouds 2 1010 93 16093 5.7 80 20:42 11.11.2019
4557 Clouds 2 1010 93 16093 5.7 80 20:20 11.11.2019
4558 Clouds 2 1009 93 16093 5.7 80 19:58 11.11.2019
4559 Clouds 2 1009 93 16093 5.7 80 19:40 11.11.2019
4560 Clouds 2 1009 93 16093 5.7 80 19:18 11.11.2019
4561 Clouds 2 1009 93 16093 5.7 80 18:55 11.11.2019
4562 Clouds 2 1009 93 16093 5.7 80 18:37 11.11.2019
4563 Clouds 2 1010 93 16093 5.1 80 18:19 11.11.2019
4564 Clouds 2 1010 93 16093 5.7 80 17:42 11.11.2019
4565 Clouds 2 1010 93 16093 5.7 80 17:24 11.11.2019
4566 Clouds 2 1009 93 16093 7.2 80 16:42 11.11.2019
4567 Clouds 2 1009 93 16093 7.2 80 16:22 11.11.2019
4568 Clouds 2 1010 94 16093 6.2 80 15:58 11.11.2019
4569 Clouds 2 1010 94 16093 6.2 80 15:40 11.11.2019
4570 Clouds 2 1010 94 16093 6.2 80 15:19 11.11.2019
4571 Clouds 2 1010 94 16093 7.2 80 14:44 11.11.2019
4572 Clouds 2 1010 94 16093 7.2 80 14:25 11.11.2019
4573 Clouds 2 1010 80 16093 6.7 80 13:58 11.11.2019
4574 Clouds 2 1010 80 16093 6.7 80 13:38 11.11.2019
4575 Clouds 2 1010 80 16093 6.7 80 13:19 11.11.2019
4576 Clouds 2 1010 80 16093 6.7 80 13:19 11.11.2019
4577 Clouds 1 1010 86 16093 6.2 80 12:57 11.11.2019
4578 Clouds 1 1010 86 16093 6.2 80 12:39 11.11.2019
4579 Clouds 1 1010 86 16093 6.2 80 12:39 11.11.2019
4580 Clouds 1 1010 86 16093 6.2 80 12:21 11.11.2019
4581 Clouds 1 1011 86 16093 7.2 80 11:42 11.11.2019
4582 Clouds 1 1011 86 16093 7.2 80 11:22 11.11.2019
4583 Clear 1 1011 80 16093 6.7 70 10:57 11.11.2019
4584 Clear 1 1011 80 16093 6.7 70 10:38 11.11.2019
4585 Clear 1 1011 80 16093 6.7 70 10:18 11.11.2019
4586 Clouds 1 1010 80 16093 6.7 70 09:54 11.11.2019
4587 Clouds 1 1010 80 16093 6.7 70 09:36 11.11.2019
4588 Clouds 1 1010 80 16093 6.7 70 09:18 11.11.2019
4589 Clear 0 1011 83 16093 5.1 80 08:37 11.11.2019
4590 Clear 0 1011 80 16093 5.1 80 08:19 11.11.2019
4591 Clouds 1 1010 74 16093 4.1 80 07:54 11.11.2019
4592 Clouds 1 1010 74 16093 4.1 80 07:36 11.11.2019
4593 Clouds 1 1010 74 16093 4.1 80 07:36 11.11.2019
4594 Clouds 1 1010 74 16093 4.1 80 07:18 11.11.2019
4595 Clouds 1 1010 74 16093 5.1 70 06:41 11.11.2019
4596 Clouds 1 1010 74 16093 5.1 70 06:20 11.11.2019
4597 Clouds 0 1011 80 16093 4.6 80 05:49 11.11.2019
4598 Clouds 0 1011 80 16093 4.6 80 05:49 11.11.2019
4599 Clouds 0 1011 76 16093 4.1 80 03:56 11.11.2019
4600 Clouds 0 1011 76 16093 4.1 80 03:20 11.11.2019
4601 Clouds 0 1012 76 16093 3.6 80 02:20 11.11.2019
4602 Clouds 1 1012 50 16093 5.1 80 01:52 11.11.2019
4603 Clouds 1 1012 50 16093 5.1 80 01:31 11.11.2019
4604 Clouds 0 1012 76 16093 4.1 60 00:42 11.11.2019
4605 Clouds -1 1013 74 16093 4.6 90 23:59 10.11.2019
4606 Clouds -1 1013 74 16093 4.6 90 23:39 10.11.2019
4607 Clouds -1 1013 74 16093 4.6 90 23:19 10.11.2019
4608 Clouds -1 1013 80 16093 4.1 80 22:57 10.11.2019
4609 Clouds -1 1013 80 16093 4.1 80 22:38 10.11.2019
4610 Clouds -1 1013 80 16093 4.1 80 22:20 10.11.2019
4611 Clouds -2 1013 79 16093 4.1 90 21:57 10.11.2019
4612 Clouds -2 1013 79 16093 4.1 90 21:39 10.11.2019
4613 Clouds -2 1013 79 16093 4.1 90 21:20 10.11.2019
4614 Clouds -1 1013 74 16093 3.1 90 20:43 10.11.2019
4615 Clouds -1 1013 74 16093 3.1 90 20:23 10.11.2019
4616 Clouds -1 1013 68 16093 3.6 80 19:57 10.11.2019
4617 Clouds -1 1013 68 16093 3.6 80 19:57 10.11.2019
4618 Clouds -1 1013 68 16093 3.6 80 19:38 10.11.2019
4619 Clouds -1 1013 68 16093 3.6 80 19:19 10.11.2019
4620 Clouds -1 1013 68 16093 3.6 80 19:19 10.11.2019
4621 Clouds -1 1013 68 16093 3.6 80 19:19 10.11.2019
4622 Clouds -1 1014 68 16093 2.1 40 18:58 10.11.2019
4623 Clouds -1 1014 68 16093 2.1 40 18:40 10.11.2019
4624 Clouds -1 1014 68 16093 2.1 40 18:40 10.11.2019
4625 Clouds -1 1014 68 16093 2.1 40 18:20 10.11.2019
4626 Clouds -1 1014 68 16093 3.1 70 17:57 10.11.2019
4627 Clouds -1 1014 68 16093 3.1 70 17:39 10.11.2019
4628 Clouds -1 1014 68 16093 3.1 70 17:20 10.11.2019
4629 Clouds -1 1014 68 16093 3.1 70 17:20 10.11.2019
4630 Clouds -2 1014 74 16093 3.1 70 16:59 10.11.2019
4631 Clouds -2 1014 74 16093 3.1 70 16:41 10.11.2019
4632 Clouds -2 1014 74 16093 3.1 70 16:22 10.11.2019
4633 Clouds -1 1014 74 16093 3.1 80 15:56 10.11.2019
4634 Clouds -1 1014 74 16093 3.1 80 15:37 10.11.2019
4635 Clouds -1 1014 74 16093 3.1 80 15:18 10.11.2019
4636 Clouds -1 1014 74 16093 2.1 80 14:56 10.11.2019
4637 Clouds -1 1014 74 16093 2.1 80 14:38 10.11.2019
4638 Clouds -1 1014 74 16093 2.1 80 14:19 10.11.2019
4639 Clouds -1 1015 80 16093 2.6 70 13:44 10.11.2019
4640 Clouds -1 1015 80 16093 2.6 70 13:22 10.11.2019
4641 Clouds -1 1015 80 16093 4.6 70 12:59 10.11.2019
4642 Clouds -1 1015 80 16093 4.6 70 12:40 10.11.2019
4643 Clouds -1 1015 80 16093 4.6 70 12:19 10.11.2019
4644 Clouds -1 1015 80 16093 3.6 70 11:55 10.11.2019
4645 Clouds -1 1015 80 16093 3.6 70 11:37 10.11.2019
4646 Clouds -1 1015 80 16093 3.6 70 11:18 10.11.2019
4647 Clouds -1 1015 80 16093 3.6 70 11:18 10.11.2019
4648 Clouds -1 1015 80 16093 3.1 80 10:42 10.11.2019
4649 Clouds -1 1015 80 16093 3.1 80 10:21 10.11.2019
4650 Clouds -1 1015 86 16093 2.6 70 09:56 10.11.2019
4651 Clouds -1 1015 86 16093 2.6 70 09:38 10.11.2019
4652 Clouds -1 1015 86 16093 2.6 70 09:19 10.11.2019
4653 Clouds -1 1015 86 16093 3.6 80 08:39 10.11.2019
4654 Clouds -1 1015 86 16093 3.6 80 08:20 10.11.2019
4655 Clouds -1 1015 86 16093 3.1 70 07:45 10.11.2019
4656 Clouds -1 1015 86 16093 3.1 70 07:26 10.11.2019
4657 Clouds -1 1015 86 16093 3.1 80 06:57 10.11.2019
4658 Clouds -1 1015 86 16093 4.1 80 05:55 10.11.2019
4659 Clouds -1 1014 86 16093 5.1 90 03:31 10.11.2019
4660 Clouds -1 1015 92 16093 5.7 90 02:22 10.11.2019
4661 Clouds -1 1014 86 16093 5.1 80 01:36 10.11.2019
4662 Clouds -1 1015 92 16093 4.6 90 01:18 10.11.2019
4663 Clouds 0 1015 74 16093 5.7 90 00:23 10.11.2019
4664 Clouds 0 1015 74 16093 5.7 90 00:23 10.11.2019
4665 Clouds 0 1015 74 16093 6.2 90 23:40 09.11.2019
4666 Clouds 0 1015 75 16093 6.2 90 23:19 09.11.2019
4667 Clouds -1 1015 92 16093 5.7 90 22:42 09.11.2019
4668 Clouds -1 1015 92 16093 5.7 90 22:22 09.11.2019
4669 Clouds -1 1015 86 16093 4.1 90 21:58 09.11.2019
4670 Clouds -1 1015 86 16093 4.1 90 21:39 09.11.2019
4671 Clouds -1 1015 86 16093 4.1 90 21:20 09.11.2019
4672 Clouds -1 1015 86 16093 4.6 80 20:56 09.11.2019
4673 Clouds -1 1015 86 16093 4.6 80 20:37 09.11.2019
4674 Clouds -1 1015 86 16093 4.6 80 20:18 09.11.2019
4675 Clouds -1 1015 86 16093 5.1 80 19:41 09.11.2019
4676 Clouds -1 1015 86 16093 5.1 80 19:23 09.11.2019
4677 Clouds -1 1015 86 16093 5.1 80 18:59 09.11.2019
4678 Clouds -1 1015 86 16093 5.1 80 18:39 09.11.2019
4679 Clouds -1 1015 86 16093 5.1 80 18:19 09.11.2019
4680 Clouds -1 1015 86 16093 5.1 70 17:43 09.11.2019
4681 Clouds -1 1015 86 16093 5.1 70 17:23 09.11.2019
4682 Clouds -1 1015 86 16093 4.6 90 16:59 09.11.2019
4683 Clouds -1 1015 86 16093 4.6 90 16:41 09.11.2019
4684 Clouds -1 1015 86 16093 4.6 90 16:20 09.11.2019
4685 Clouds -1 1015 86 16093 4.6 90 16:20 09.11.2019
4686 Clouds -1 1014 86 16093 4.1 80 15:43 09.11.2019
4687 Clouds -1 1014 86 16093 4.1 80 15:24 09.11.2019
4688 Clouds -1 1015 86 16093 4.6 70 14:59 09.11.2019
4689 Clouds -1 1015 86 16093 4.6 70 14:40 09.11.2019
4690 Clouds -1 1015 86 16093 4.6 70 14:18 09.11.2019
4691 Clouds -1 1014 86 16093 6.2 90 13:56 09.11.2019
4692 Clouds -1 1014 86 16093 6.2 90 13:36 09.11.2019
4693 Clouds -1 1014 86 16093 6.2 90 13:18 09.11.2019
4694 Clouds -1 1014 86 16093 6.7 90 12:42 09.11.2019
4695 Clouds -1 1014 86 16093 6.7 90 12:24 09.11.2019
4696 Clouds -1 1014 86 16093 6.2 90 11:56 09.11.2019
4697 Clouds -1 1014 86 16093 6.2 90 11:38 09.11.2019
4698 Clouds -1 1014 86 16093 6.2 90 11:18 09.11.2019
4699 Clouds -1 1014 86 16093 6.7 90 10:41 09.11.2019
4700 Clouds -1 1014 86 16093 6.7 90 10:19 09.11.2019
4701 Clouds -1 1014 86 16093 7.7 90 09:57 09.11.2019
4702 Clouds -1 1014 86 16093 7.7 90 09:38 09.11.2019
4703 Clouds -1 1014 86 16093 7.7 90 09:18 09.11.2019
4704 Clouds -1 1013 86 16093 8.7 90 08:43 09.11.2019
4705 Clouds -1 1013 86 16093 8.7 90 08:24 09.11.2019
4706 Clouds -1 1013 86 16093 7.2 90 07:48 09.11.2019
4707 Clouds -1 1013 86 16093 7.2 90 07:24 09.11.2019
4708 Clouds -1 1013 80 16093 6.7 100 06:56 09.11.2019
4709 Clouds -1 1013 80 16093 6.7 100 06:38 09.11.2019
4710 Clouds -1 1013 80 16093 6.7 100 06:19 09.11.2019
4711 Clouds -1 1013 80 16093 7.7 100 05:37 09.11.2019
4712 Clouds -1 1012 86 16093 5.7 80 03:57 09.11.2019
4713 Clouds -1 1012 80 16093 6.7 90 02:46 09.11.2019
4714 Clouds -1 1012 80 16093 6.7 90 02:24 09.11.2019
4715 Clouds -1 1012 86 16093 9.8 100 01:18 09.11.2019
4716 Clouds -1 1012 92 11265 7.2 80 00:39 09.11.2019
4717 Clouds -1 1012 92 11265 7.2 80 00:21 09.11.2019
4718 Clouds -1 1012 86 16093 8.7 90 23:40 08.11.2019
4719 Clouds -1 1012 86 16093 8.7 90 23:22 08.11.2019
4720 Clouds -1 1011 86 16093 8.2 90 22:50 08.11.2019
4721 Clouds -1 1011 86 16093 8.2 90 22:22 08.11.2019
4722 Clouds -1 1011 86 16093 8.2 100 21:59 08.11.2019
4723 Clouds -1 1011 86 16093 8.2 100 21:41 08.11.2019
4724 Clouds -1 1011 86 14484 8.2 90 21:22 08.11.2019
4725 Clouds 0 1011 86 14484 7.2 80 20:57 08.11.2019
4726 Clouds 0 1011 86 14484 7.2 80 20:38 08.11.2019
4727 Clouds 0 1011 86 14484 7.2 80 20:18 08.11.2019
4728 Clouds 0 1010 86 14484 7.2 80 19:40 08.11.2019
4729 Clouds 0 1010 86 14484 7.2 80 19:19 08.11.2019
4730 Clouds 0 1010 86 14484 7.2 80 19:19 08.11.2019
4731 Clouds -1 1009 80 14484 6.2 80 18:57 08.11.2019
4732 Clouds -1 1009 80 14484 6.2 80 18:57 08.11.2019
4733 Clouds -1 1009 80 14484 6.2 80 18:57 08.11.2019
4734 Clouds -1 1009 80 14484 6.2 80 18:57 08.11.2019
4735 Clouds -1 1009 80 14484 6.2 80 18:39 08.11.2019
4736 Clouds 0 1009 80 14484 6.2 80 18:20 08.11.2019
4737 Rain -1 1009 86 14484 6.7 70 17:56 08.11.2019
4738 Rain -1 1009 86 14484 6.7 70 17:38 08.11.2019
4739 Rain -1 1009 86 14484 6.7 70 17:20 08.11.2019
4740 Snow -1 1009 86 16093 6.2 70 16:59 08.11.2019
4741 Snow -2 1009 86 16093 6.2 70 16:40 08.11.2019
4742 Snow -2 1009 86 16093 6.2 70 16:40 08.11.2019
4743 Snow -2 1009 86 16093 6.2 70 16:21 08.11.2019
4744 Clouds -2 1009 79 16093 5.7 60 15:59 08.11.2019
4745 Clouds -2 1009 79 16093 5.7 60 15:40 08.11.2019
4746 Clouds -2 1009 79 16093 5.7 60 15:22 08.11.2019
4747 Clouds -2 1009 79 16093 5.7 60 15:22 08.11.2019
4748 Clouds -2 1009 74 16093 6.7 60 14:57 08.11.2019
4749 Clouds -2 1009 74 16093 6.7 60 14:38 08.11.2019
4750 Clouds -2 1009 74 16093 6.7 60 14:20 08.11.2019
4751 Clouds -2 1009 73 16093 6.2 60 13:58 08.11.2019
4752 Clouds -2 1009 73 16093 6.2 60 13:39 08.11.2019
4753 Clouds -2 1009 73 16093 6.2 60 13:39 08.11.2019
4754 Clouds -2 1009 73 16093 6.2 60 13:20 08.11.2019
4755 Clouds -2 1009 73 16093 6.7 50 12:45 08.11.2019
4756 Clouds -2 1009 73 16093 6.7 50 12:27 08.11.2019
4757 Snow -3 1009 85 6437 8.2 40 11:58 08.11.2019
4758 Snow -3 1009 85 6437 8.2 40 11:40 08.11.2019
4759 Snow -3 1009 85 6437 8.2 40 11:21 08.11.2019
4760 Snow -3 1009 85 6437 8.2 40 11:21 08.11.2019
4761 Snow -4 1009 85 3219 7.2 50 10:58 08.11.2019
4762 Snow -3 1009 85 3219 7.2 50 10:40 08.11.2019
4763 Snow -3 1009 73 6437 6.7 60 10:21 08.11.2019
4764 Snow -4 1009 79 11265 6.2 60 09:56 08.11.2019
4765 Snow -4 1009 79 11265 6.2 60 09:37 08.11.2019
4766 Snow -4 1009 79 4023 7.2 60 09:18 08.11.2019
4767 Clouds -2 1009 54 16093 6.7 60 08:44 08.11.2019
4768 Clouds -2 1009 54 16093 6.7 60 08:20 08.11.2019
4769 Clear -3 1009 53 16093 8.7 50 07:43 08.11.2019
4770 Clear -3 1009 53 16093 8.7 50 07:23 08.11.2019
4771 Clouds -2 1010 46 16093 7.2 30 06:56 08.11.2019
4772 Clouds -2 1010 46 16093 7.2 30 06:36 08.11.2019
4773 Clouds -2 1010 46 16093 7.2 30 06:18 08.11.2019
4774 Clouds -2 1011 46 16093 5.7 30 05:25 08.11.2019
4775 Clouds -3 1010 49 16093 5.7 70 04:19 08.11.2019
4776 Clear -2 1010 50 16093 6.2 50 03:42 08.11.2019
4777 Clear -2 1010 50 16093 6.2 50 03:42 08.11.2019
4778 Clear -2 1010 50 16093 6.2 50 03:42 08.11.2019
4779 Clear -2 1011 46 16093 7.2 50 02:55 08.11.2019
4780 Clear -1 1012 42 16093 4.1 340 01:53 08.11.2019
4781 Clear -1 1012 42 16093 4.1 340 01:33 08.11.2019
4782 Clear -1 1012 42 16093 4.6 50 00:40 08.11.2019
4783 Clear -1 1012 42 16093 4.6 50 00:20 08.11.2019
4784 Clear -1 1012 39 16093 8.2 30 23:46 07.11.2019
4785 Clear -1 1012 39 16093 8.2 30 23:27 07.11.2019
4786 Clear -1 1012 36 16093 8.7 30 22:57 07.11.2019
4787 Clear -1 1012 36 16093 8.7 30 22:37 07.11.2019
4788 Clear -1 1012 36 16093 8.7 30 22:19 07.11.2019
4789 Clear -1 1013 36 16093 4.6 20 21:39 07.11.2019
4790 Clear 0 1013 36 16093 4.6 20 21:21 07.11.2019
4791 Clear -1 1013 36 16093 6.79 47 20:59 07.11.2019
4792 Clear -2 1013 36 16093 6.79 47 20:40 07.11.2019
4793 Clear -2 1013 36 16093 7.41 52 20:21 07.11.2019
4794 Clear 0 1013 44 16093 7.2 50 19:58 07.11.2019
4795 Clear 0 1013 44 16093 7.2 50 19:39 07.11.2019
4796 Clear 0 1013 44 16093 7.2 50 19:20 07.11.2019
4797 Clear -1 1012 36 16093 7.2 70 18:57 07.11.2019
4798 Clear -1 1012 36 16093 7.2 70 18:38 07.11.2019
4799 Clear -1 1012 36 16093 7.2 70 18:19 07.11.2019
4800 Haze -1 1012 33 9656 9.8 60 17:56 07.11.2019
4801 Haze -1 1012 33 9656 9.8 60 17:37 07.11.2019
4802 Haze 0 1011 43 4828 10.3 60 17:19 07.11.2019
4803 Haze 0 1011 43 4828 10.3 60 16:55 07.11.2019
4804 Clear -1 1012 33 16093 6.2 40 16:37 07.11.2019
4805 Clear -1 1012 33 16093 6.2 40 16:18 07.11.2019
4806 Clear 0 1012 36 16093 4.1 50 15:40 07.11.2019
4807 Clear 0 1012 36 16093 4.1 50 15:21 07.11.2019
4808 Clear 0 1011 43 16093 4.1 60 14:58 07.11.2019
4809 Clear 0 1011 43 16093 4.1 60 14:38 07.11.2019
4810 Clear 0 1011 54 16093 4.1 60 14:20 07.11.2019
4811 Clear 0 1012 54 16093 5.1 10 13:55 07.11.2019
4812 Clear 0 1012 54 16093 5.1 10 13:37 07.11.2019
4813 Clear 0 1012 53 16093 5.1 10 13:18 07.11.2019
4814 Clear -1 1012 46 16093 2.6 0 12:56 07.11.2019
4815 Clear -1 1012 46 16093 2.6 0 12:38 07.11.2019
4816 Clear -1 1012 46 16093 2.6 0 12:18 07.11.2019
4817 Clear -1 1012 50 16093 2.1 310 11:41 07.11.2019
4818 Clear -1 1012 50 16093 2.1 310 11:22 07.11.2019
4819 Clear -2 1012 58 16093 5.78 32 10:42 07.11.2019
4820 Clear -2 1012 58 16093 5.78 32 10:19 07.11.2019
4821 Clear -2 1012 58 16093 5.78 32 10:19 07.11.2019
4822 Clear -1 1011 54 16093 7.2 40 09:55 07.11.2019
4823 Clear -1 1011 54 16093 7.2 40 09:37 07.11.2019
4824 Clear -1 1011 54 16093 7.2 40 09:19 07.11.2019
4825 Clear 0 1010 53 16093 7.7 40 08:45 07.11.2019
4826 Clear 0 1010 53 16093 7.7 40 08:44 07.11.2019
4827 Clear 0 1010 49 16093 7.7 40 08:23 07.11.2019
4828 Clear 0 1010 49 16093 7.7 40 08:23 07.11.2019
4829 Clear 0 1010 49 16093 5.1 340 07:57 07.11.2019
4830 Clear 0 1010 49 16093 5.1 340 07:39 07.11.2019
4831 Clear 0 1010 49 16093 5.1 340 07:38 07.11.2019
4832 Clear 0 1010 49 16093 5.1 340 07:20 07.11.2019
4833 Clear -1 1011 63 16093 5.7 40 06:45 07.11.2019
4834 Clear -1 1011 63 16093 5.7 40 06:24 07.11.2019
4835 Clear -1 1010 58 16093 6.2 50 05:49 07.11.2019
4836 Clear -1 1010 58 16093 6.2 50 05:30 07.11.2019
4837 Clear -1 1011 39 16093 4.1 30 04:51 07.11.2019
4838 Clear -1 1011 39 16093 4.1 30 04:29 07.11.2019
4839 Clear -1 1011 39 16093 4.1 30 04:29 07.11.2019
4840 Clear 1 1011 34 16093 4.1 60 01:28 07.11.2019
4841 Clear 1 1011 31 16093 4.6 50 00:32 07.11.2019
4842 Dust 1 1012 26 12874 9.3 30 23:58 06.11.2019
4843 Dust 1 1012 26 12874 9.3 30 23:40 06.11.2019
4844 Dust 1 1012 26 12874 9.3 30 23:20 06.11.2019
4845 Clear -1 1012 36 16093 7.7 10 22:40 06.11.2019
4846 Clear -1 1012 36 16093 7.7 10 22:21 06.11.2019
4847 Clear -4 1012 45 14484 7.7 20 21:57 06.11.2019
4848 Clear -4 1012 45 14484 7.7 20 21:39 06.11.2019
4849 Clear -4 1012 45 14484 7.7 20 21:19 06.11.2019
4850 Clear -4 1013 49 16093 2.6 270 20:57 06.11.2019
4851 Clear -4 1013 49 16093 2.6 270 20:39 06.11.2019
4852 Clear -4 1013 49 16093 2.6 270 20:20 06.11.2019
4853 Clear -2 1013 33 16093 2.1 0 19:57 06.11.2019
4854 Clear -2 1013 33 16093 2.1 0 19:37 06.11.2019
4855 Clear -2 1013 33 16093 2.1 0 19:19 06.11.2019
4856 Clear -2 1013 33 16093 2.1 0 18:55 06.11.2019
4857 Clear -4 1012 49 16093 5.1 360 18:37 06.11.2019
4858 Clear -4 1012 49 16093 5.1 360 18:18 06.11.2019
4859 Clear -3 1013 45 16093 6.2 350 17:42 06.11.2019
4860 Clear -3 1013 45 16093 6.2 350 17:23 06.11.2019
4861 Clear -4 1013 45 16093 2.6 330 16:57 06.11.2019
4862 Clear -4 1013 45 16093 2.6 330 16:39 06.11.2019
4863 Clear -4 1013 45 16093 2.6 330 16:21 06.11.2019
4864 Clear -6 1014 67 16093 1.5 0 15:58 06.11.2019
4865 Clear -7 1014 67 16093 1.5 0 15:38 06.11.2019
4866 Clear -7 1014 67 16093 1.5 0 15:38 06.11.2019
4867 Clear -4 1014 67 16093 1.5 0 15:19 06.11.2019
4868 Clear -4 1014 62 16093 2.1 310 14:59 06.11.2019
4869 Clear -5 1014 62 16093 2.1 310 14:41 06.11.2019
4870 Clear -5 1014 62 16093 2.1 310 14:22 06.11.2019
4871 Clear -6 1014 62 16093 1.5 110 13:59 06.11.2019
4872 Clear -4 1014 62 16093 1.5 110 13:38 06.11.2019
4873 Clear -5 1014 62 16093 1.5 110 13:19 06.11.2019
4874 Clear -7 1014 67 16093 3.5 34 12:55 06.11.2019
4875 Clear -4 1014 67 16093 3.5 34 12:37 06.11.2019
4876 Clear -6 1014 67 16093 3.5 34 12:18 06.11.2019
4877 Clear -6 1015 67 16093 1.5 290 11:57 06.11.2019
4878 Clear -6 1015 67 16093 1.5 290 11:36 06.11.2019
4879 Clear -6 1015 67 16093 1.5 290 11:18 06.11.2019
4880 Clear -6 1015 72 16093 2.6 36 10:55 06.11.2019
4881 Clear -6 1015 72 16093 2.6 36 10:37 06.11.2019
4882 Clear -6 1015 72 16093 2.6 36 10:18 06.11.2019
4883 Clear -5 1015 57 16093 3.1 360 09:41 06.11.2019
4884 Clear -5 1015 57 16093 3.1 360 09:21 06.11.2019
4885 Clear -5 1015 67 16093 1.5 0 08:56 06.11.2019
4886 Clear -5 1015 67 16093 1.5 0 08:38 06.11.2019
4887 Clear -6 1015 67 16093 1.5 0 08:18 06.11.2019
4888 Clear -6 1015 73 16093 3.04 43 07:46 06.11.2019
4889 Clear -6 1015 73 16093 3.04 43 07:28 06.11.2019
4890 Clear -5 1016 67 16093 1.5 330 06:54 06.11.2019
4891 Clear -4 1016 67 16093 1.5 330 06:36 06.11.2019
4892 Clear -3 1016 68 16093 3.04 43 05:58 06.11.2019
4893 Clear -1 1017 63 16093 2.55 36 03:48 06.11.2019
4894 Clear -2 1018 74 16093 2.1 300 01:59 06.11.2019
4895 Clear -1 1019 63 16093 1.71 29 00:48 06.11.2019
4896 Clear -2 1019 63 16093 1.71 29 00:26 06.11.2019
4897 Clouds -3 1020 67 16093 1.71 29 23:56 05.11.2019
4898 Clouds -4 1020 67 16093 1.71 29 23:37 05.11.2019
4899 Clouds -4 1020 67 16093 2.97 29 23:18 05.11.2019
4900 Clouds -4 1020 67 16093 2.97 29 23:18 05.11.2019
4901 Clouds -5 1020 73 16093 2.97 29 22:41 05.11.2019
4902 Clouds -6 1020 73 16093 2.97 29 22:19 05.11.2019
4903 Clear -7 1021 67 16093 1.5 340 21:55 05.11.2019
4904 Clear -7 1021 67 16093 1.5 340 21:37 05.11.2019
4905 Clear -7 1021 67 16093 1.5 340 21:19 05.11.2019
4906 Clear -9 1021 78 16093 2.97 29 20:56 05.11.2019
4907 Clear -9 1021 78 16093 2.97 29 20:37 05.11.2019
4908 Clear -9 1021 78 16093 2.27 39 20:19 05.11.2019
4909 Clear -8 1021 72 16093 2.27 39 19:42 05.11.2019
4910 Clear -8 1021 72 16093 2.27 39 19:23 05.11.2019
4911 Clear -9 1022 85 16093 2.27 39 18:58 05.11.2019
4912 Clear -9 1022 85 16093 2.27 39 18:40 05.11.2019
4913 Clear -9 1022 85 16093 2.27 39 18:21 05.11.2019
4914 Clear -9 1023 78 16093 2.27 39 17:59 05.11.2019
4915 Clear -9 1023 78 16093 2.27 39 17:39 05.11.2019
4916 Clear -10 1023 78 16093 2.5 34 17:20 05.11.2019
4917 Clear -9 1023 72 16093 2.5 34 16:57 05.11.2019
4918 Clear -9 1023 72 16093 2.5 34 16:57 05.11.2019
4919 Clear -9 1023 72 16093 2.5 34 16:39 05.11.2019
4920 Clear -9 1023 72 16093 2.5 34 16:19 05.11.2019
4921 Clear -9 1023 72 16093 2.5 34 16:19 05.11.2019
4922 Clear -10 1023 78 16093 1.5 330 15:39 05.11.2019
4923 Clear -10 1023 78 16093 1.5 330 15:20 05.11.2019
4924 Clear -10 1023 78 16093 1.5 330 15:20 05.11.2019
4925 Clear -10 1024 78 16093 1.5 340 14:59 05.11.2019
4926 Clear -10 1024 78 16093 1.5 340 14:40 05.11.2019
4927 Clear -10 1024 78 16093 1.5 340 14:22 05.11.2019
4928 Clear -10 1025 78 16093 2.1 20 13:58 05.11.2019
4929 Clear -10 1025 78 16093 2.1 20 13:58 05.11.2019
4930 Clear -10 1025 78 16093 2.1 20 13:39 05.11.2019
4931 Clear -10 1025 78 16093 2.1 20 13:21 05.11.2019
4932 Clear -8 1025 72 16093 1.5 0 12:40 05.11.2019
4933 Clear -9 1025 72 16093 1.5 0 12:21 05.11.2019
4934 Clear -8 1026 72 16093 2.1 310 11:56 05.11.2019
4935 Clear -9 1026 72 16093 2.1 310 11:37 05.11.2019
4936 Clear -9 1026 72 16093 2.1 310 11:19 05.11.2019
4937 Clear -9 1026 78 16093 2.65 35 10:48 05.11.2019
4938 Clear -9 1026 78 16093 2.65 35 10:27 05.11.2019
4939 Clear -9 1026 78 16093 2.65 35 10:27 05.11.2019
4940 Clear -10 1027 78 16093 2.65 35 09:59 05.11.2019
4941 Clear -10 1027 78 16093 2.65 35 09:59 05.11.2019
4942 Clear -10 1027 78 16093 2.65 35 09:41 05.11.2019
4943 Clear -10 1027 78 16093 2.65 35 09:20 05.11.2019
4944 Clear -9 1027 72 16093 1.5 10 08:57 05.11.2019
4945 Clear -9 1027 72 16093 1.5 10 08:37 05.11.2019
4946 Clear -8 1027 72 16093 1.5 10 08:19 05.11.2019
4947 Clear -8 1027 72 16093 1.5 330 07:45 05.11.2019
4948 Clear -8 1027 72 16093 1.5 330 07:26 05.11.2019
4949 Clear -8 1027 72 16093 3.1 360 06:52 05.11.2019
4950 Clear -8 1027 72 16093 3.1 360 06:33 05.11.2019
4951 Clear -7 1027 72 16093 2.6 340 05:49 05.11.2019
4952 Clear -7 1027 72 16093 2.6 340 05:21 05.11.2019
4953 Clear -7 1028 73 16093 1.51 13 04:22 05.11.2019
4954 Clear -5 1028 73 16093 1.51 13 03:31 05.11.2019
4955 Clear -4 1028 62 16093 2.6 340 02:43 05.11.2019
4956 Clear -4 1028 68 16093 2.6 330 01:56 05.11.2019
4957 Clear -4 1028 68 16093 2.1 340 00:48 05.11.2019
4958 Clear -3 1028 68 16093 2.1 340 00:27 05.11.2019
4959 Clear -5 1029 79 16093 1.5 310 23:43 04.11.2019
4960 Clear -5 1029 79 16093 1.5 310 23:19 04.11.2019
4961 Clear -6 1029 79 16093 1.5 310 22:58 04.11.2019
4962 Clear -6 1029 79 16093 1.5 310 22:40 04.11.2019
4963 Clear -6 1029 79 16093 1.5 310 22:21 04.11.2019
4964 Clear -8 1029 78 16093 1.76 40 21:55 04.11.2019
4965 Clear -8 1029 78 16093 1.76 40 21:37 04.11.2019
4966 Clear -8 1029 78 16093 1.76 40 21:37 04.11.2019
4967 Clear -9 1029 78 16093 1.76 40 21:18 04.11.2019
4968 Clear -9 1029 78 16093 1.5 360 20:57 04.11.2019
4969 Clear -9 1029 78 16093 1.5 360 20:38 04.11.2019
4970 Clear -9 1029 78 16093 1.5 360 20:20 04.11.2019
4971 Clear -9 1028 78 16093 1.5 360 19:57 04.11.2019
4972 Clear -9 1028 78 16093 1.5 360 19:39 04.11.2019
4973 Clear -9 1028 78 16093 1.5 360 19:21 04.11.2019
4974 Clear -10 1028 85 16093 1.5 360 18:55 04.11.2019
4975 Clear -10 1028 85 16093 1.5 360 18:37 04.11.2019
4976 Clear -10 1028 85 16093 1.5 360 18:18 04.11.2019
4977 Clear -9 1028 85 16093 1.5 10 17:39 04.11.2019
4978 Clear -9 1028 85 16093 1.5 10 17:20 04.11.2019
4979 Clear -10 1029 85 16093 1.5 350 16:56 04.11.2019
4980 Clear -10 1029 85 16093 1.5 350 16:38 04.11.2019
4981 Clear -10 1029 85 16093 1.5 350 16:19 04.11.2019
4982 Clear -9 1029 85 16093 1.96 27 15:41 04.11.2019
4983 Clear -9 1029 85 16093 1.96 27 15:22 04.11.2019
4984 Clear -8 1029 78 16093 3.1 350 14:59 04.11.2019
4985 Clear -8 1029 78 16093 3.1 350 14:41 04.11.2019
4986 Clear -8 1029 78 16093 3.1 350 14:21 04.11.2019
4987 Clear -9 1029 85 16093 2.1 350 13:58 04.11.2019
4988 Clear -9 1029 85 16093 2.1 350 13:40 04.11.2019
4989 Clear -9 1029 85 16093 2.1 350 13:21 04.11.2019
4990 Clear -9 1029 85 16093 2.1 350 13:21 04.11.2019
4991 Clear -9 1029 85 16093 2.1 350 13:21 04.11.2019
4992 Clear -9 1029 85 16093 2.1 350 13:21 04.11.2019
4993 Clear -9 1029 78 16093 1.5 340 12:57 04.11.2019
4994 Clear -9 1029 78 16093 1.5 340 12:39 04.11.2019
4995 Clear -9 1029 78 16093 1.5 340 12:21 04.11.2019
4996 Clear -8 1029 78 16093 1.89 25 11:55 04.11.2019
4997 Clear -8 1029 78 16093 1.89 25 11:37 04.11.2019
4998 Clear -8 1029 78 16093 2.11 26 11:18 04.11.2019
4999 Clear -8 1029 78 16093 2.6 360 10:41 04.11.2019
5000 Clear -8 1029 78 16093 2.6 360 10:23 04.11.2019
5001 Clear -8 1029 85 16093 2.6 350 09:46 04.11.2019
5002 Clear -8 1029 85 16093 2.6 350 09:28 04.11.2019
5003 Clear -8 1030 78 16093 3.1 350 08:59 04.11.2019
5004 Clear -8 1030 78 16093 3.1 350 08:38 04.11.2019
5005 Clear -8 1030 78 16093 3.1 350 08:38 04.11.2019
5006 Clear -8 1030 78 16093 3.1 350 08:20 04.11.2019
5007 Clear -8 1030 78 16093 2.6 20 07:44 04.11.2019
5008 Clear -8 1030 78 16093 2.6 20 07:24 04.11.2019
5009 Clear -8 1030 78 16093 2.1 360 06:57 04.11.2019
5010 Clear -8 1030 78 16093 2.1 360 06:34 04.11.2019
5011 Clear -7 1030 85 16093 3.6 360 05:49 04.11.2019
5012 Clear -6 1029 79 16093 3.6 350 04:44 04.11.2019
5013 Clear -6 1029 79 16093 3.6 350 04:21 04.11.2019
5014 Clear -3 1030 68 16093 2.6 350 02:34 04.11.2019
5015 Clear -2 1030 63 16093 3.1 30 01:22 04.11.2019
5016 Clear -2 1031 63 16093 2.1 10 00:43 04.11.2019
5017 Clear -2 1031 63 16093 2.1 10 00:21 04.11.2019
5018 Clear -3 1031 68 16093 3.6 360 23:44 03.11.2019
5019 Clear -3 1031 68 16093 3.6 360 23:44 03.11.2019
5020 Clear -3 1031 68 16093 3.6 360 23:22 03.11.2019
5021 Clear -4 1031 73 16093 3.1 360 22:59 03.11.2019
5022 Clear -4 1031 73 16093 3.1 360 22:41 03.11.2019
5023 Clear -4 1031 73 16093 3.1 360 22:20 03.11.2019
5024 Clear -6 1031 79 16093 3.6 350 21:58 03.11.2019
5025 Clear -6 1031 79 16093 3.6 350 21:40 03.11.2019
5026 Clear -6 1031 79 16093 3.6 350 21:20 03.11.2019
5027 Clear -7 1031 85 16093 2.6 350 20:56 03.11.2019
5028 Clear -7 1031 85 16093 2.6 350 20:36 03.11.2019
5029 Clear -7 1031 85 16093 2.6 350 20:18 03.11.2019
5030 Clear -7 1031 79 16093 3.6 360 19:55 03.11.2019
5031 Clear -7 1031 79 16093 3.6 360 19:37 03.11.2019
5032 Clear -7 1031 79 16093 3.6 360 19:19 03.11.2019
5033 Clear -7 1031 79 16093 4.1 360 18:39 03.11.2019
5034 Clear -7 1031 79 16093 4.1 360 18:19 03.11.2019
5035 Clear -7 1031 79 16093 4.6 360 17:58 03.11.2019
5036 Clear -7 1031 79 16093 4.6 360 17:40 03.11.2019
5037 Clear -7 1031 79 16093 4.6 360 17:19 03.11.2019
5038 Clear -6 1031 79 16093 4.1 340 16:55 03.11.2019
5039 Clear -6 1031 79 16093 4.1 340 16:37 03.11.2019
5040 Clear -6 1031 79 16093 4.1 340 16:19 03.11.2019
5041 Clear -8 1031 78 16093 3.1 360 15:56 03.11.2019
5042 Clear -8 1031 78 16093 3.1 360 15:38 03.11.2019
5043 Clear -8 1031 78 16093 3.1 360 15:20 03.11.2019
5044 Clear -7 1031 79 16093 2.1 10 14:40 03.11.2019
5045 Clear -7 1031 79 16093 2.1 10 14:19 03.11.2019
5046 Clear -7 1031 79 16093 2.1 10 14:19 03.11.2019
5047 Clear -7 1031 79 16093 2.1 10 14:19 03.11.2019
5048 Clear -8 1032 78 16093 2.6 360 13:56 03.11.2019
5049 Clear -8 1032 78 16093 2.6 360 13:37 03.11.2019
5050 Clear -8 1032 78 16093 2.6 360 13:18 03.11.2019
5051 Clear -7 1031 79 16093 3.1 360 12:38 03.11.2019
5052 Clear -7 1031 79 16093 3.1 360 12:19 03.11.2019
5053 Clear -7 1032 85 16093 3.6 350 11:56 03.11.2019
5054 Clear -7 1032 85 16093 3.6 350 11:38 03.11.2019
5055 Clear -7 1032 85 16093 3.6 350 11:19 03.11.2019
5056 Clear -7 1032 85 16093 3.6 350 10:40 03.11.2019
5057 Clear -7 1032 85 16093 3.6 350 10:22 03.11.2019
5058 Clear -7 1032 85 16093 3.6 350 10:22 03.11.2019
5059 Clear -7 1032 85 16093 3.6 350 10:22 03.11.2019
5060 Clear -7 1032 85 16093 3.6 350 10:22 03.11.2019
5061 Clear -7 1032 85 16093 3.6 340 09:58 03.11.2019
5062 Clear -7 1032 85 16093 3.6 340 09:40 03.11.2019
5063 Clear -7 1032 85 16093 3.6 340 09:21 03.11.2019
5064 Clear -6 1032 79 16093 2.27 26 08:48 03.11.2019
5065 Clear -6 1032 79 16093 2.05 33 08:24 03.11.2019
5066 Clear -6 1032 79 16093 1.9 32 07:47 03.11.2019
5067 Clear -6 1032 79 16093 1.9 32 07:28 03.11.2019
5068 Clear -7 1031 85 16093 2.1 10 06:54 03.11.2019
5069 Clear -7 1031 85 16093 2.1 10 06:35 03.11.2019
5070 Clear -6 1031 79 16093 2.6 360 05:40 03.11.2019
5071 Clear -6 1031 79 16093 2.6 360 05:18 03.11.2019
5072 Clouds -5 1031 79 16093 2.1 360 04:45 03.11.2019
5073 Clouds -3 1031 79 16093 2.6 340 03:39 03.11.2019
5074 Clouds -1 1031 68 16093 2.6 350 02:45 03.11.2019
5075 Clouds -1 1031 68 16093 2.6 350 02:21 03.11.2019
5076 Clouds -2 1031 74 16093 2.1 340 01:43 03.11.2019
5077 Clouds -2 1031 74 16093 2.1 340 01:21 03.11.2019
5078 Clouds -2 1031 74 16093 3.1 320 00:46 03.11.2019
5079 Clouds -2 1031 74 16093 3.1 320 00:27 03.11.2019
5080 Clear -3 1031 73 16093 3.1 330 23:58 02.11.2019
5081 Clear -3 1031 73 16093 3.1 330 23:38 02.11.2019
5082 Clear -3 1031 73 16093 3.1 330 23:19 02.11.2019
5083 Clear -3 1031 73 16093 3.1 330 23:19 02.11.2019
5084 Clear -5 1031 79 16093 2.6 320 22:56 02.11.2019
5085 Clear -5 1031 79 16093 2.6 320 22:37 02.11.2019
5086 Clear -5 1031 79 16093 2.6 320 22:19 02.11.2019
5087 Clear -5 1031 79 16093 2.6 320 22:19 02.11.2019
5088 Clear -7 1031 85 16093 1.5 320 21:56 02.11.2019
5089 Clear -7 1031 85 16093 1.5 320 21:38 02.11.2019
5090 Clear -7 1031 85 16093 1.5 320 21:18 02.11.2019
5091 Clear -7 1031 85 16093 1.5 320 21:18 02.11.2019
5092 Clear -8 1031 85 16093 2.78 27 20:59 02.11.2019
5093 -273 0 0 0 0 0 20:39 02.11.2019
5094 Clear -8 1031 85 16093 2.9 14 20:20 02.11.2019
5095 Clear -7 1030 85 16093 1.5 360 19:55 02.11.2019
5096 Clear -7 1030 85 16093 1.5 360 19:36 02.11.2019
5097 Clear -7 1030 85 16093 1.5 360 19:18 02.11.2019
5098 Clear -7 1030 85 16093 1.5 360 19:18 02.11.2019
5099 Clear -7 1030 85 16093 2.9 14 18:42 02.11.2019
5100 Clear -7 1030 85 16093 2.9 14 18:24 02.11.2019
5101 Clear -7 1029 85 16093 1.5 300 17:59 02.11.2019
5102 Clear -7 1029 85 16093 1.5 300 17:40 02.11.2019
5103 Clear -7 1029 85 16093 1.5 300 17:22 02.11.2019
5104 Clear -6 1029 85 16093 2.1 320 16:58 02.11.2019
5105 Clear -6 1029 85 16093 2.1 320 16:38 02.11.2019
5106 Clear -6 1029 85 16093 2.1 320 16:20 02.11.2019
5107 Clear -7 1029 92 16093 2.9 13 15:42 02.11.2019
5108 Clear -7 1029 92 16093 2.9 13 15:20 02.11.2019
5109 Clear -7 1029 85 16093 3.1 320 14:43 02.11.2019
5110 Clear -7 1029 85 16093 3.1 320 14:43 02.11.2019
5111 Clear -7 1029 85 16093 3.1 320 14:43 02.11.2019
5112 Clear -7 1029 85 16093 3.1 320 14:24 02.11.2019
5113 Clear -6 1028 85 16093 1.5 330 13:59 02.11.2019
5114 Clear -6 1028 85 16093 1.5 330 13:40 02.11.2019
5115 Clear -6 1028 85 16093 1.5 330 13:20 02.11.2019
5116 Clear -7 1028 85 16093 3.1 330 12:56 02.11.2019
5117 Clear -7 1028 85 16093 3.1 330 12:37 02.11.2019
5118 Clear -7 1028 85 16093 3.1 330 12:19 02.11.2019
5119 Clear -7 1027 85 16093 2.79 10 11:42 02.11.2019
5120 Clear -7 1027 85 16093 2.79 10 11:42 02.11.2019
5121 Clear -7 1027 85 16093 2.68 359 11:23 02.11.2019
5122 Clear -7 1027 92 16093 2.68 359 10:57 02.11.2019
5123 Clear -7 1027 92 16093 2.68 359 10:39 02.11.2019
5124 Clear -7 1027 92 16093 2.68 359 10:18 02.11.2019
5125 Clear -7 1027 92 16093 2.68 359 10:18 02.11.2019
5126 Clear -6 1027 85 16093 2.68 359 09:42 02.11.2019
5127 Clear -6 1027 85 16093 2.68 359 09:22 02.11.2019
5128 Clear -5 1026 85 16093 2.1 40 08:51 02.11.2019
5129 Clear -5 1026 85 16093 2.1 40 08:25 02.11.2019
5130 Clear -4 1025 79 16093 2.1 30 07:58 02.11.2019
5131 Clear -4 1025 79 16093 2.1 30 07:40 02.11.2019
5132 Clear -4 1025 79 16093 2.1 30 07:22 02.11.2019
5133 Clouds -3 1024 79 16093 2.1 20 06:50 02.11.2019
5134 Clouds -3 1024 79 16093 2.1 20 06:22 02.11.2019
5135 Clouds -2 1024 79 16093 3.1 340 05:41 02.11.2019
5136 Clouds -1 1023 80 16093 3.35 11 04:24 02.11.2019
5137 Clouds -1 1022 68 16093 3.35 11 03:51 02.11.2019
5138 Clouds -1 1022 68 16093 3.35 11 03:30 02.11.2019
5139 Clouds -1 1022 68 16093 2.81 9 02:19 02.11.2019
5140 Clouds -1 1021 68 16093 1.5 350 01:29 02.11.2019
5141 Clouds -2 1021 74 16093 2.6 360 00:56 02.11.2019
5142 Clouds -2 1021 74 16093 2.6 360 00:30 02.11.2019
5143 Clouds -2 1020 74 16093 3.1 360 23:57 01.11.2019
5144 Clouds -2 1020 74 16093 3.1 360 23:38 01.11.2019
5145 Clouds -2 1020 74 16093 3.1 360 23:19 01.11.2019
5146 Clouds -2 1020 74 16093 3.6 360 22:42 01.11.2019
5147 Clouds -2 1020 74 16093 3.6 360 22:21 01.11.2019
5148 Clouds -3 1020 79 16093 1.5 20 21:43 01.11.2019
5149 Clouds -3 1020 79 16093 1.5 20 21:24 01.11.2019
5150 Clouds -4 1019 79 16093 3.6 340 20:59 01.11.2019
5151 Clouds -4 1019 79 16093 3.6 340 20:41 01.11.2019
5152 Clouds -4 1019 79 16093 3.6 340 20:23 01.11.2019
5153 Clouds -4 1018 85 16093 2.1 360 19:59 01.11.2019
5154 Clouds -4 1018 85 16093 2.1 360 19:59 01.11.2019
5155 Clouds -4 1018 85 16093 2.1 360 19:59 01.11.2019
5156 Clouds -4 1018 85 16093 2.1 360 19:40 01.11.2019
5157 Clouds -4 1018 85 16093 2.1 360 19:21 01.11.2019
5158 Clouds -3 1018 79 16093 2.6 360 18:41 01.11.2019
5159 Clouds -3 1018 79 16093 2.6 360 18:21 01.11.2019
5160 Clouds -2 1018 74 16093 1.5 50 17:59 01.11.2019
5161 Clouds -2 1018 74 16093 1.5 50 17:41 01.11.2019
5162 Clouds -2 1018 74 16093 1.5 50 17:22 01.11.2019
5163 Clouds -2 1017 86 16093 1.5 120 16:40 01.11.2019
5164 Clouds -2 1017 86 16093 1.5 120 16:20 01.11.2019
5165 Clouds -2 1017 86 16093 3.2 15 15:58 01.11.2019
5166 Clouds -2 1017 86 16093 3.2 15 15:40 01.11.2019
5167 Clouds -1 1017 86 16093 3.2 15 15:22 01.11.2019
5168 Clouds -1 1017 80 16093 3.2 15 14:44 01.11.2019
5169 Clouds -1 1017 80 16093 3.2 15 14:25 01.11.2019
5170 Clouds -1 1017 86 16093 3.05 10 13:59 01.11.2019
5171 Clouds -1 1017 86 16093 3.05 10 13:40 01.11.2019
5172 Clouds -1 1017 86 16093 3.17 16 13:21 01.11.2019
5173 Clouds -2 1017 86 16093 3.17 16 12:56 01.11.2019
5174 Clouds -2 1017 86 16093 3.17 16 12:37 01.11.2019
5175 Clouds -2 1017 86 16093 3.17 16 12:19 01.11.2019
5176 Clouds -1 1017 86 16093 3.17 16 11:42 01.11.2019
5177 Clouds -1 1017 79 16093 3.03 10 11:23 01.11.2019
5178 Clouds -1 1017 79 16093 3.03 10 10:44 01.11.2019
5179 Clouds -1 1017 79 16093 3.03 10 10:25 01.11.2019
5180 Clouds -1 1017 79 16093 2.1 100 09:59 01.11.2019
5181 Clouds -1 1017 79 16093 2.1 100 09:59 01.11.2019
5182 Clouds -1 1017 79 16093 2.1 100 09:41 01.11.2019
5183 Clouds -1 1017 79 16093 2.1 100 09:21 01.11.2019
5184 Clouds -1 1017 68 16093 3.03 10 08:46 01.11.2019
5185 Clouds -1 1017 68 16093 2.76 24 08:23 01.11.2019
5186 Clouds -1 1017 74 16093 2.76 24 07:58 01.11.2019
5187 Clouds -1 1017 74 16093 2.76 24 07:40 01.11.2019
5188 Clouds 0 1017 74 16093 2.76 24 07:21 01.11.2019
5189 Clouds -1 1017 74 16093 2.1 30 06:53 01.11.2019
5190 Clouds -1 1017 74 16093 2.1 30 06:22 01.11.2019
5191 Clouds 0 1017 80 16093 2.76 24 05:44 01.11.2019
5192 Clouds 0 1017 75 16093 1.5 50 04:55 01.11.2019
5193 Clouds 1 1017 75 16093 2.1 90 03:32 01.11.2019
5194 Clouds 1 1018 69 16093 2.6 40 01:46 01.11.2019
5195 Clouds 1 1018 67 16093 1.5 40 00:58 01.11.2019
5196 Clouds 1 1018 67 16093 1.5 40 00:20 01.11.2019
5197 Clouds 1 1019 64 16093 1.91 57 23:44 31.10.2019
5198 Clouds 1 1019 64 16093 1.3 80 23:23 31.10.2019
5199 Clouds 0 1019 80 16093 2.6 120 22:58 31.10.2019
5200 Clouds 0 1019 80 16093 2.6 120 22:40 31.10.2019
5201 Clouds 0 1019 80 16093 2.6 120 22:21 31.10.2019
5202 Clouds 0 1019 80 16093 2.6 90 21:45 31.10.2019
5203 Clouds -1 1019 80 16093 2.6 90 21:22 31.10.2019
5204 Clouds -1 1019 80 16093 2.1 100 20:58 31.10.2019
5205 Clouds -1 1019 80 16093 2.1 100 20:40 31.10.2019
5206 Clouds -1 1019 80 16093 2.1 100 20:22 31.10.2019
5207 Clouds 0 1019 70 16093 1.5 60 19:45 31.10.2019
5208 Clouds 0 1019 70 16093 1.5 60 19:26 31.10.2019
5209 Clouds 0 1019 70 16093 2.1 70 18:58 31.10.2019
5210 Clouds 0 1019 70 16093 2.1 70 18:39 31.10.2019
5211 Clouds 0 1019 70 16093 2.1 70 18:21 31.10.2019
5212 Clouds 0 1019 70 16093 2.1 70 18:21 31.10.2019
5213 Clouds 0 1019 70 16093 2.1 70 18:21 31.10.2019
5214 Clouds -1 1019 80 16093 0.8 62 17:54 31.10.2019
5215 Clouds -1 1019 80 16093 0.8 62 17:36 31.10.2019
5216 Clouds -1 1019 80 16093 1.33 267 17:18 31.10.2019
5217 Clouds -1 1020 80 16093 1.33 267 16:41 31.10.2019
5218 Clouds -1 1020 80 16093 1.33 267 16:20 31.10.2019
5219 Clouds 0 1020 70 16093 1.5 40 15:58 31.10.2019
5220 Clouds 0 1020 70 16093 1.5 40 15:39 31.10.2019
5221 Clouds 0 1020 70 16093 1.5 40 15:20 31.10.2019
5222 Clouds 1 1020 64 16093 3.1 250 14:56 31.10.2019
5223 Clouds 1 1020 64 16093 3.1 250 14:38 31.10.2019
5224 Clouds 1 1020 64 16093 3.1 250 14:20 31.10.2019
5225 Clouds 1 1020 64 16093 3.6 200 13:57 31.10.2019
5226 Clouds 1 1020 64 16093 3.6 200 13:38 31.10.2019
5227 Clouds 1 1020 64 16093 3.6 200 13:19 31.10.2019
5228 Clouds 1 1020 64 16093 4.1 220 12:44 31.10.2019
5229 Clouds 1 1020 64 16093 4.1 220 12:24 31.10.2019
5230 Clouds 1 1020 69 16093 4.6 230 11:59 31.10.2019
5231 Clouds 1 1020 69 16093 4.6 230 11:41 31.10.2019
5232 Clouds 1 1020 69 16093 4.6 230 11:19 31.10.2019
5233 Clouds 1 1020 69 16093 4.6 230 11:19 31.10.2019
5234 Clouds 1 1020 64 16093 3.6 240 10:57 31.10.2019
5235 Clouds 1 1020 64 16093 3.6 240 10:38 31.10.2019
5236 Clouds 1 1020 64 16093 3.6 240 10:19 31.10.2019
5237 Clouds 1 1020 64 16093 4.6 240 09:43 31.10.2019
5238 Clouds 1 1020 64 16093 4.6 240 09:19 31.10.2019
5239 Clouds 0 1020 76 16093 3.1 280 08:55 31.10.2019
5240 Clouds 0 1020 76 16093 3.1 280 08:36 31.10.2019
5241 Clouds 0 1020 72 16093 3.1 280 08:18 31.10.2019
5242 Clouds 1 1020 64 16093 4.6 230 07:42 31.10.2019
5243 Clouds 1 1020 64 16093 4.6 230 07:42 31.10.2019
5244 Clouds 1 1020 64 16093 4.6 230 07:23 31.10.2019
5245 Clouds 1 1020 69 16093 4.1 260 06:39 31.10.2019
5246 Clouds 1 1020 64 16093 5.7 230 06:20 31.10.2019
5247 Clouds 0 1019 72 16093 4.1 260 04:40 31.10.2019
5248 Clouds 0 1019 72 16093 5.7 260 02:47 31.10.2019
5249 Clouds 0 1019 75 16093 5.7 260 02:22 31.10.2019
5250 Clouds 0 1019 74 16093 8.2 250 00:47 31.10.2019
5251 Clouds 0 1019 74 16093 8.2 250 00:24 31.10.2019
5252 Clouds 0 1018 74 16093 5.1 250 23:34 30.10.2019
5253 Clouds 0 1018 74 16093 7.2 250 22:59 30.10.2019
5254 Clouds 0 1018 74 16093 7.2 250 22:39 30.10.2019
5255 Clouds 0 1018 74 16093 7.2 250 22:19 30.10.2019
5256 Clouds -1 1017 79 16093 1.5 300 21:54 30.10.2019
5257 Clouds -1 1017 79 16093 1.5 300 21:36 30.10.2019
5258 Clouds -1 1017 79 16093 1.5 300 21:36 30.10.2019
5259 Clouds -1 1017 79 16093 1.5 300 21:18 30.10.2019
5260 Clouds -1 1017 68 16093 3.1 310 20:56 30.10.2019
5261 Clouds -1 1017 68 16093 3.1 310 20:36 30.10.2019
5262 Clouds -1 1017 68 16093 3.1 310 20:18 30.10.2019
5263 Clouds -1 1017 74 16093 4.6 280 19:40 30.10.2019
5264 Clouds -1 1017 74 16093 4.6 280 19:40 30.10.2019
5265 Clouds 0 1017 74 16093 4.6 280 19:22 30.10.2019
5266 Clouds -1 1016 68 16093 6.7 270 18:59 30.10.2019
5267 Clouds 0 1016 68 16093 6.7 270 18:38 30.10.2019
5268 Clouds 0 1016 68 16093 6.7 270 18:19 30.10.2019
5269 Clouds 0 1015 68 16093 3.6 310 17:55 30.10.2019
5270 Clouds 0 1015 68 16093 3.6 310 17:55 30.10.2019
5271 Clouds 0 1015 68 16093 3.6 310 17:37 30.10.2019
5272 Clouds 0 1015 68 16093 3.6 310 17:18 30.10.2019
5273 Clouds 0 1015 61 16093 7.7 260 16:42 30.10.2019
5274 Clouds 0 1015 61 16093 7.7 260 16:23 30.10.2019
5275 Clouds 0 1015 68 16093 7.7 260 15:59 30.10.2019
5276 Clouds 0 1015 68 16093 7.7 260 15:39 30.10.2019
5277 Clouds 0 1015 68 16093 7.7 260 15:20 30.10.2019
5278 Clouds 0 1015 74 16093 7.2 270 14:59 30.10.2019
5279 Clouds 0 1015 74 16093 7.2 270 14:40 30.10.2019
5280 Clouds 0 1015 74 16093 7.2 270 14:21 30.10.2019
5281 Clouds -1 1014 79 16093 3.6 300 13:55 30.10.2019
5282 Clouds -1 1014 79 16093 3.6 300 13:55 30.10.2019
5283 Clouds -1 1014 79 16093 3.6 300 13:36 30.10.2019
5284 Clouds -2 1014 79 16093 3.6 300 13:18 30.10.2019
5285 Clouds -2 1014 79 14484 2.6 0 12:44 30.10.2019
5286 Clouds -3 1014 79 14484 2.6 0 12:25 30.10.2019
5287 Clouds -3 1013 79 16093 1.5 330 11:58 30.10.2019
5288 Clouds -3 1013 79 16093 1.5 330 11:40 30.10.2019
5289 Clouds -3 1013 79 16093 1.5 330 11:19 30.10.2019
5290 Clouds -4 1013 85 16093 1.5 360 10:43 30.10.2019
5291 Clouds -4 1013 85 16093 1.5 360 10:23 30.10.2019
5292 Clouds -5 1013 85 16093 3.1 310 09:42 30.10.2019
5293 Clouds -5 1013 85 16093 3.1 310 09:23 30.10.2019
5294 Clear -5 1012 85 16093 3.1 290 08:57 30.10.2019
5295 Clear -5 1012 85 16093 3.1 290 08:39 30.10.2019
5296 Clear -5 1012 85 16093 3.1 290 08:39 30.10.2019
5297 Clear -5 1012 85 16093 3.1 290 08:20 30.10.2019
5298 Clear -5 1012 85 16093 3.1 290 08:20 30.10.2019
5299 Clear -5 1011 79 16093 3.6 310 07:45 30.10.2019
5300 Clear -4 1011 79 16093 3.6 310 07:21 30.10.2019
5301 Clear -4 1011 79 16093 5.7 310 06:42 30.10.2019
5302 Clear -4 1011 79 16093 5.7 310 06:42 30.10.2019
5303 Clear -4 1011 79 16093 5.7 310 06:20 30.10.2019
5304 Clear -4 1010 79 16093 3.6 320 05:41 30.10.2019
5305 Clouds -3 1009 79 16093 4.6 350 04:42 30.10.2019
5306 Clouds -3 1008 79 16093 5.7 330 03:43 30.10.2019
5307 Clouds -3 1008 79 16093 5.7 330 02:52 30.10.2019
5308 Clouds -2 1006 74 16093 8.7 310 01:58 30.10.2019
5309 Clouds -2 1006 74 16093 8.7 310 01:31 30.10.2019
5310 Clouds -2 1006 86 16093 6.7 320 00:31 30.10.2019
5311 Clouds -2 1005 86 16093 7.7 310 23:46 29.10.2019
5312 Clouds -2 1005 86 16093 7.7 310 23:24 29.10.2019
5313 Clouds -1 1004 86 16093 5.1 310 22:48 29.10.2019
5314 Clouds -1 1004 86 16093 5.1 310 22:20 29.10.2019
5315 Clouds -1 1003 86 16093 4.1 310 21:59 29.10.2019
5316 Clouds -1 1003 86 16093 4.1 310 21:41 29.10.2019
5317 Clouds -1 1003 86 16093 4.1 310 21:20 29.10.2019
5318 Clouds -1 1002 86 16093 3.6 310 20:58 29.10.2019
5319 Clouds -1 1002 86 16093 3.6 310 20:40 29.10.2019
5320 Clouds 0 1002 86 16093 3.6 310 20:21 29.10.2019
5321 Clouds 0 1001 92 16093 6.7 350 19:57 29.10.2019
5322 Clouds 0 1001 92 16093 6.7 350 19:38 29.10.2019
5323 Clouds 0 1001 92 16093 6.7 350 19:19 29.10.2019
5324 Snow 0 1001 92 14484 6.2 340 18:55 29.10.2019
5325 Snow 0 1001 92 14484 6.2 340 18:37 29.10.2019
5326 Snow 0 1001 100 8047 6.7 350 18:19 29.10.2019
5327 Rain 0 1000 95 9656 5.1 350 17:54 29.10.2019
5328 Rain 0 1000 95 9656 5.1 350 17:54 29.10.2019
5329 Rain 0 1000 95 9656 5.1 350 17:36 29.10.2019
5330 Rain 0 1000 96 9656 5.1 350 17:18 29.10.2019
5331 Rain 0 1000 96 12874 5.1 350 16:39 29.10.2019
5332 Rain 0 1000 96 12874 5.1 350 16:21 29.10.2019
5333 Rain 0 1000 96 16093 4.6 350 15:56 29.10.2019
5334 Rain 0 1000 96 16093 4.6 350 15:38 29.10.2019
5335 Rain 1 1000 96 11265 5.1 350 15:20 29.10.2019
5336 Rain 1 1000 100 14484 5.1 350 14:55 29.10.2019
5337 Rain 1 1000 100 14484 5.1 350 14:37 29.10.2019
5338 Rain 1 1000 100 14484 5.1 350 14:18 29.10.2019
5339 Rain 1 999 100 12874 5.1 350 13:40 29.10.2019
5340 Rain 1 999 100 12874 5.1 350 13:22 29.10.2019
5341 Rain 2 999 100 16093 5.7 340 12:46 29.10.2019
5342 Rain 2 999 100 11265 4.6 350 12:26 29.10.2019
5343 Rain 2 999 100 11265 4.6 350 12:26 29.10.2019
5344 Rain 2 999 100 12874 3.1 350 11:59 29.10.2019
5345 Clouds 2 999 100 12874 3.1 350 11:41 29.10.2019
5346 Clouds 2 999 100 12874 3.1 350 11:19 29.10.2019
5347 Clouds 2 999 100 12874 3.1 350 11:19 29.10.2019
5348 Clouds 2 999 100 14484 2.6 360 10:57 29.10.2019
5349 Rain 2 999 100 6437 2.6 340 10:38 29.10.2019
5350 Rain 2 999 100 6437 2.6 340 10:20 29.10.2019
5351 Rain 2 999 100 2816 1.5 290 09:55 29.10.2019
5352 Rain 3 999 100 2816 1.5 290 09:37 29.10.2019
5353 Rain 3 999 100 6437 1.74 342 09:19 29.10.2019
5354 Mist 3 999 100 4828 1.5 290 08:43 29.10.2019
5355 Mist 3 999 100 4828 1.5 290 08:24 29.10.2019
5356 Mist 3 998 100 8047 3.55 174 07:55 29.10.2019
5357 Mist 3 998 100 8047 3.55 174 07:36 29.10.2019
5358 Mist 3 998 100 8047 3.55 174 07:18 29.10.2019
5359 Mist 3 998 100 9656 3.55 174 06:42 29.10.2019
5360 Mist 3 998 100 3219 3.55 174 06:20 29.10.2019
5361 Mist 3 998 100 2012 3.55 174 05:50 29.10.2019
5362 Mist 3 998 100 2012 3.55 174 05:50 29.10.2019
5363 Mist 3 998 100 4023 2.1 240 05:19 29.10.2019
5364 Rain 5 997 100 4828 5.7 180 03:55 29.10.2019
5365 Mist 5 997 100 8047 5.7 180 02:32 29.10.2019
5366 Rain 5 996 100 12874 6.2 180 01:46 29.10.2019
5367 Rain 5 996 100 12874 6.2 180 01:18 29.10.2019
5368 Clouds 5 996 100 11265 6.2 180 00:31 29.10.2019
5369 Mist 5 996 100 9656 7.7 170 23:43 28.10.2019
5370 Mist 5 996 100 9656 7.7 170 23:20 28.10.2019
5371 Mist 4 996 100 9656 7.2 170 22:57 28.10.2019
5372 Mist 5 996 100 9656 7.2 170 22:37 28.10.2019
5373 Mist 5 996 100 9656 7.2 170 22:18 28.10.2019
5374 Rain 5 996 100 8047 6.7 160 21:55 28.10.2019
5375 Rain 5 996 100 8047 6.7 160 21:37 28.10.2019
5376 Rain 5 996 100 8047 6.7 160 21:18 28.10.2019
5377 Rain 5 996 100 8047 6.7 160 21:18 28.10.2019
5378 Rain 4 995 100 4828 6.7 160 20:44 28.10.2019
5379 Clouds 4 995 100 12874 6.2 160 20:24 28.10.2019
5380 Clouds 5 995 100 12874 7.2 170 19:58 28.10.2019
5381 Clouds 5 995 100 12874 7.2 170 19:39 28.10.2019
5382 Clouds 5 995 100 12874 7.2 170 19:20 28.10.2019
5383 Clouds 5 995 100 12874 7.2 170 19:20 28.10.2019
5384 Rain 5 995 100 4828 6.2 180 18:58 28.10.2019
5385 Rain 5 995 100 4828 6.2 180 18:39 28.10.2019
5386 Rain 5 995 100 4828 6.2 180 18:21 28.10.2019
5387 Rain 5 995 100 9656 7.7 170 17:56 28.10.2019
5388 Rain 5 995 100 9656 7.7 170 17:38 28.10.2019
5389 Rain 5 995 100 9656 7.7 170 17:19 28.10.2019
5390 Rain 5 995 100 4828 8.2 170 16:57 28.10.2019
5391 Rain 5 995 100 4828 8.2 170 16:39 28.10.2019
5392 Rain 5 995 100 4828 8.2 170 16:20 28.10.2019
5393 Mist 5 995 100 9656 8.7 170 15:56 28.10.2019
5394 Mist 5 995 100 9656 8.7 170 15:38 28.10.2019
5395 Mist 5 995 100 9656 8.7 170 15:19 28.10.2019
5396 Clouds 5 995 100 12874 8.7 170 14:56 28.10.2019
5397 Clouds 5 995 100 12874 8.7 170 14:37 28.10.2019
5398 Clouds 5 995 100 12874 8.7 170 14:18 28.10.2019
5399 Clouds 5 995 100 14484 9.8 170 13:54 28.10.2019
5400 Clouds 5 995 100 14484 9.8 170 13:36 28.10.2019
5401 Clouds 5 995 100 14484 9.8 170 13:36 28.10.2019
5402 Clouds 5 995 100 14484 9.8 170 13:18 28.10.2019
5403 Clouds 5 995 100 16093 9.8 170 12:40 28.10.2019
5404 Clouds 5 995 100 14484 11.3 170 12:20 28.10.2019
5405 Clouds 5 995 100 14484 11.3 170 12:20 28.10.2019
5406 Clouds 6 994 93 14484 11.8 170 11:40 28.10.2019
5407 Clouds 6 994 93 14484 11.8 170 11:21 28.10.2019
5408 Rain 6 993 100 12874 13.4 180 10:57 28.10.2019
5409 Rain 6 993 100 12874 13.4 180 10:38 28.10.2019
5410 Rain 6 993 100 12874 13.4 180 10:20 28.10.2019
5411 Rain 6 992 100 4828 12.9 170 09:55 28.10.2019
5412 Rain 6 992 100 4828 12.9 170 09:55 28.10.2019
5413 Rain 6 992 100 4828 12.9 170 09:36 28.10.2019
5414 Clouds 6 992 87 16093 10.3 170 09:18 28.10.2019
5415 Rain 6 990 100 11265 11.8 200 08:56 28.10.2019
5416 Rain 7 990 100 11265 11.8 200 08:37 28.10.2019
5417 Rain 6 989 100 12874 10.8 180 08:18 28.10.2019
5418 Rain 6 987 100 14484 11.8 170 07:43 28.10.2019
5419 Rain 6 987 100 14484 11.8 170 07:23 28.10.2019
5420 Rain 5 986 100 6437 10.3 110 06:59 28.10.2019
5421 Rain 5 986 100 6437 10.3 110 06:39 28.10.2019
5422 Rain 5 987 100 8047 11.8 110 05:19 28.10.2019
5423 Rain 5 990 100 4828 12.9 90 03:44 28.10.2019
5424 Rain 5 991 100 8047 11.8 90 02:46 28.10.2019
5425 Rain 5 992 93 8047 9.8 90 01:52 28.10.2019
5426 Rain 5 992 93 8047 9.8 90 01:52 28.10.2019
5427 Rain 6 995 93 4828 8.7 70 00:47 28.10.2019
5428 Rain 6 995 93 4828 8.7 70 00:25 28.10.2019
5429 Rain 6 996 100 16093 8.2 70 23:44 27.10.2019
5430 Rain 6 996 100 16093 8.2 70 23:22 27.10.2019
5431 Rain 5 998 100 4828 7.7 80 22:57 27.10.2019
5432 Rain 5 998 100 4828 7.7 80 22:37 27.10.2019
5433 Rain 5 998 100 12874 8.2 80 22:19 27.10.2019
5434 Rain 5 999 100 16093 8.2 80 21:56 27.10.2019
5435 Rain 5 999 100 16093 8.2 80 21:38 27.10.2019
5436 Rain 4 999 100 16093 8.2 80 21:20 27.10.2019
5437 Rain 4 1000 100 4828 7.7 80 20:41 27.10.2019
5438 Rain 4 1001 100 8047 8.2 80 20:23 27.10.2019
5439 Rain 3 1001 100 14484 8.7 80 19:58 27.10.2019
5440 Rain 3 1001 100 14484 8.7 80 19:37 27.10.2019
5441 Rain 3 1001 100 4023 9.3 70 19:19 27.10.2019
5442 Rain 3 1002 100 4023 8.2 80 18:56 27.10.2019
5443 Rain 3 1002 100 3219 8.7 80 18:38 27.10.2019
5444 Rain 3 1002 100 3219 8.7 80 18:20 27.10.2019
5445 Rain 3 1002 100 3219 8.7 80 18:20 27.10.2019
5446 Rain 2 1002 100 4828 8.7 80 17:55 27.10.2019
5447 Rain 2 1002 100 4828 8.7 80 17:37 27.10.2019
5448 Rain 2 1002 100 4828 8.7 80 17:19 27.10.2019
5449 Rain 2 1003 100 8047 8.7 80 16:55 27.10.2019
5450 Rain 2 1003 100 8047 8.7 80 16:37 27.10.2019
5451 Rain 2 1003 100 8047 8.7 80 16:19 27.10.2019
5452 Rain 2 1004 100 4828 9.3 80 15:55 27.10.2019
5453 Rain 2 1004 100 4828 9.3 80 15:37 27.10.2019
5454 Rain 2 1004 100 4828 9.3 80 15:18 27.10.2019
5455 Rain 2 1004 100 12874 7.7 80 14:41 27.10.2019
5456 Rain 2 1004 100 12874 7.7 80 14:20 27.10.2019
5457 Rain 2 1005 100 12874 9.3 80 13:56 27.10.2019
5458 Rain 2 1005 100 12874 9.3 80 13:37 27.10.2019
5459 Rain 2 1005 100 6437 8.2 80 13:19 27.10.2019
5460 Rain 2 1006 100 4828 8.2 80 12:43 27.10.2019
5461 -273 0 0 0 0 0 12:24 27.10.2019
5462 Rain 2 1006 93 14484 7.7 70 11:55 27.10.2019
5463 Rain 2 1006 93 14484 7.7 70 11:37 27.10.2019
5464 Rain 2 1006 93 14484 7.7 70 11:18 27.10.2019
5465 Clouds 1 1007 100 12874 7.7 70 10:42 27.10.2019
5466 Clouds 1 1007 100 12874 7.7 70 10:23 27.10.2019
5467 Rain 1 1007 100 9656 8.7 70 09:44 27.10.2019
5468 Rain 1 1007 100 9656 8.7 70 09:20 27.10.2019
5469 Rain 0 1008 96 9656 8.2 70 08:59 27.10.2019
5470 Rain 0 1008 96 9656 8.2 70 08:41 27.10.2019
5471 Snow 0 1008 97 6437 8.2 70 08:20 27.10.2019
5472 Rain 0 1009 97 3219 7.7 70 07:50 27.10.2019
5473 Rain 1 1009 100 16093 8.7 70 07:29 27.10.2019
5474 Rain 1 1010 100 16093 7.7 70 06:56 27.10.2019
5475 Rain 1 1010 100 16093 7.7 70 06:38 27.10.2019
5476 Rain 1 1010 100 16093 7.7 70 06:38 27.10.2019
5477 Rain 1 1010 100 16093 7.7 70 06:20 27.10.2019
5478 Rain 1 1011 100 14484 6.7 70 05:38 27.10.2019
5479 Rain 1 1012 100 16093 7.7 70 04:47 27.10.2019
5480 Clouds 2 1013 93 16093 7.7 70 02:48 27.10.2019
5481 Clouds 2 1013 93 16093 7.7 70 02:18 27.10.2019
5482 Rain 2 1015 93 14484 8.2 80 01:49 27.10.2019
5483 Rain 2 1015 93 14484 8.2 80 01:21 27.10.2019
5484 Rain 2 1015 100 12874 7.7 80 00:46 27.10.2019
5485 Rain 2 1015 100 12874 7.7 80 00:24 27.10.2019
5486 Rain 2 1016 100 9656 7.2 90 23:56 26.10.2019
5487 Rain 2 1016 100 9656 7.2 90 23:38 26.10.2019
5488 Rain 2 1016 100 9656 7.2 90 23:20 26.10.2019
5489 Rain 2 1015 100 9656 8.2 80 22:55 26.10.2019
5490 Rain 2 1015 100 9656 8.2 80 22:36 26.10.2019
5491 Rain 2 1015 100 9656 8.2 80 22:18 26.10.2019
5492 Rain 2 1015 100 9656 7.7 80 21:42 26.10.2019
5493 Rain 2 1015 100 9656 7.7 80 21:21 26.10.2019
5494 Rain 2 1015 100 8047 9.8 70 20:55 26.10.2019
5495 Rain 2 1015 100 8047 9.8 70 20:36 26.10.2019
5496 Rain 1 1015 100 8047 9.8 70 20:18 26.10.2019
5497 Rain 1 1015 97 11265 10.8 70 19:41 26.10.2019
5498 Rain 1 1015 97 11265 10.8 70 19:20 26.10.2019
5499 Rain 0 1015 100 3219 11.8 80 18:57 26.10.2019
5500 Rain 0 1015 100 3219 11.8 80 18:38 26.10.2019
5501 Rain 0 1015 100 3219 11.8 80 18:19 26.10.2019
5502 Snow 0 1015 100 3219 10.3 80 17:56 26.10.2019
5503 Snow 0 1015 100 3219 10.3 80 17:37 26.10.2019
5504 Snow 0 1015 100 3219 10.3 80 17:19 26.10.2019
5505 Snow 0 1015 92 2816 12.3 70 16:43 26.10.2019
5506 Snow -1 1015 92 2816 11.8 70 16:24 26.10.2019
5507 Rain -1 1015 92 3219 10.3 70 15:44 26.10.2019
5508 Rain -1 1015 92 3219 10.3 70 15:22 26.10.2019
5509 Rain -2 1016 100 2012 10.3 60 14:59 26.10.2019
5510 Rain -2 1016 100 2012 10.3 60 14:37 26.10.2019
5511 Rain -2 1016 100 2012 10.3 60 14:19 26.10.2019
5512 Snow -3 1017 94 0 14.14 73 13:42 26.10.2019
5513 Rain -2 1017 92 2012 9.3 60 13:23 26.10.2019
5514 Snow -3 1018 92 2414 7.7 70 12:50 26.10.2019
5515 Snow -2 1019 74 4023 10.8 70 12:27 26.10.2019
5516 Snow -2 1019 74 4023 10.8 70 11:58 26.10.2019
5517 Snow -2 1019 74 4023 10.8 70 11:40 26.10.2019
5518 Snow -2 1019 74 4023 10.8 70 11:22 26.10.2019
5519 Clouds -2 1020 68 16093 7.2 70 10:46 26.10.2019
5520 Clouds -2 1020 68 16093 7.2 70 10:25 26.10.2019
5521 Clouds -2 1020 74 16093 6.7 70 09:49 26.10.2019
5522 Clouds -2 1020 74 16093 6.7 70 09:30 26.10.2019
5523 Clouds -2 1021 74 16093 7.7 70 08:50 26.10.2019
5524 Clouds -2 1021 74 16093 7.7 70 08:28 26.10.2019
5525 Clouds -2 1022 79 16093 7.7 70 07:57 26.10.2019
5526 Clouds -2 1022 79 16093 7.7 70 07:39 26.10.2019
5527 Clouds -2 1022 79 16093 7.7 70 07:19 26.10.2019
5528 Clouds -2 1022 74 16093 5.7 50 06:39 26.10.2019
5529 Clouds -2 1022 74 16093 4.6 50 05:24 26.10.2019
5530 Clouds -2 1022 68 16093 4.1 50 04:59 26.10.2019
5531 Clear -1 1023 68 16093 4.1 50 03:31 26.10.2019
5532 Clouds 0 1023 63 16093 3.6 60 02:28 26.10.2019
5533 Clouds -1 1023 63 16093 4.6 70 01:45 26.10.2019
5534 Clouds -1 1023 74 16093 2.1 50 00:51 26.10.2019
5535 Clouds -2 1022 79 16093 3.08 42 23:48 25.10.2019
5536 Clouds -3 1022 79 16093 3.08 42 23:22 25.10.2019
5537 Clear -4 1022 79 16093 2.1 360 22:58 25.10.2019
5538 Clear -4 1022 79 16093 2.1 360 22:58 25.10.2019
5539 Clear -5 1022 79 16093 2.1 360 22:39 25.10.2019
5540 Clear -5 1022 79 16093 2.1 360 22:21 25.10.2019
5541 Clouds -6 1021 85 16093 2.1 340 21:55 25.10.2019
5542 Clouds -6 1021 85 16093 2.1 340 21:37 25.10.2019
5543 Clouds -6 1021 85 16093 2.1 340 21:18 25.10.2019
5544 Clear -7 1020 78 16093 3.22 25 20:42 25.10.2019
5545 Clear -7 1020 78 16093 3.22 25 20:19 25.10.2019
5546 Clear -7 1020 78 16093 3.22 25 20:19 25.10.2019
5547 Clouds -7 1020 85 16093 3.22 25 19:47 25.10.2019
5548 Clouds -6 1020 85 16093 3.22 25 19:27 25.10.2019
5549 Clear -6 1018 85 16093 2.1 30 18:55 25.10.2019
5550 Clear -6 1018 85 16093 2.1 30 18:37 25.10.2019
5551 Clear -6 1018 85 16093 2.1 30 18:18 25.10.2019
5552 Clear -9 1018 92 16093 2.1 10 17:39 25.10.2019
5553 Clear -9 1018 92 16093 2.1 10 17:18 25.10.2019
5554 Clear -8 1017 85 16093 3.46 8 16:46 25.10.2019
5555 Clear -8 1017 85 16093 3.46 8 16:22 25.10.2019
5556 Clear -8 1017 85 16093 3.1 360 15:56 25.10.2019
5557 Clear -8 1017 85 16093 3.1 360 15:38 25.10.2019
5558 Clear -8 1017 85 16093 3.1 360 15:19 25.10.2019
5559 Clear -8 1015 92 16093 3.34 347 14:42 25.10.2019
5560 Clear -7 1015 92 16093 3.15 347 14:23 25.10.2019
5561 Clear -6 1014 100 16093 3.15 347 13:57 25.10.2019
5562 Clear -6 1014 100 16093 3.15 347 13:38 25.10.2019
5563 Clear -6 1014 100 16093 3.15 347 13:20 25.10.2019
5564 Clear -5 1013 92 16093 2.1 20 12:42 25.10.2019
5565 Clear -5 1013 92 16093 2.1 20 12:22 25.10.2019
5566 Clear -7 1013 92 16093 2.1 340 11:58 25.10.2019
5567 Clear -5 1013 92 16093 2.1 340 11:38 25.10.2019
5568 Clear -6 1013 92 16093 2.1 340 11:19 25.10.2019
5569 Clear -5 1012 92 16093 3.6 320 10:41 25.10.2019
5570 Clear -5 1012 92 16093 3.6 320 10:41 25.10.2019
5571 Clear -5 1012 92 16093 3.6 320 10:22 25.10.2019
5572 Clear -5 1011 85 16093 4.1 310 09:58 25.10.2019
5573 Clear -4 1011 85 16093 4.1 310 09:38 25.10.2019
5574 Clear -4 1011 85 16093 4.1 310 09:19 25.10.2019
5575 Clear -6 1009 85 16093 3.1 360 08:50 25.10.2019
5576 Clear -6 1009 85 16093 3.1 360 08:32 25.10.2019
5577 Clear -5 1008 79 16093 3.62 321 07:56 25.10.2019
5578 Clear -5 1008 79 16093 3.62 321 07:34 25.10.2019
5579 Clear -4 1007 73 16093 2.6 300 06:42 25.10.2019
5580 Clear -3 1007 73 16093 4.1 350 05:57 25.10.2019
5581 Clear -2 1007 73 16093 4.1 350 05:37 25.10.2019
5582 Clear -1 1006 63 16093 6.2 350 04:52 25.10.2019
5583 Clear 0 1005 58 16093 7.7 340 03:37 25.10.2019
5584 Clear 0 1004 63 16093 6.7 350 01:54 25.10.2019
5585 Clear 0 1004 63 16093 6.7 350 01:27 25.10.2019
5586 Clear -1 1004 63 16093 9.8 360 00:21 25.10.2019
5587 Clear 0 1004 63 16093 4.6 360 23:41 24.10.2019
5588 Clear 0 1004 63 16093 4.6 360 23:22 24.10.2019
5589 Clear -1 1003 63 16093 4.6 360 22:56 24.10.2019
5590 Clear -1 1003 63 16093 4.6 360 22:37 24.10.2019
5591 Clear -1 1003 63 16093 4.6 360 22:18 24.10.2019
5592 Clear -1 1002 63 16093 1.5 50 21:56 24.10.2019
5593 Clear -1 1002 63 16093 1.5 50 21:37 24.10.2019
5594 Clear -1 1002 63 16093 1.5 50 21:19 24.10.2019
5595 Clear -1 1002 63 16093 1.5 50 21:19 24.10.2019
5596 Clear -1 1001 68 16093 7.7 360 20:56 24.10.2019
5597 Clear -1 1001 68 16093 7.7 360 20:38 24.10.2019
5598 Clear -1 1001 68 16093 7.7 360 20:20 24.10.2019
5599 Clear -2 1000 68 16093 9.8 360 19:54 24.10.2019
5600 Clear -2 1000 68 16093 9.8 360 19:36 24.10.2019
5601 Clear -1 1000 68 16093 9.8 360 19:18 24.10.2019
5602 Clear -2 1000 63 16093 10.3 360 18:40 24.10.2019
5603 Clear -2 1000 63 16093 10.3 360 18:22 24.10.2019
5604 Clear -2 1000 63 16093 9.8 10 17:59 24.10.2019
5605 Clear -2 1000 63 16093 9.8 10 17:39 24.10.2019
5606 Clear -2 1000 63 16093 9.8 10 17:20 24.10.2019
5607 Clear -2 1000 63 16093 7.2 360 16:55 24.10.2019
5608 Clear -2 1000 63 16093 7.2 360 16:37 24.10.2019
5609 Clear -1 1000 63 16093 7.2 360 16:18 24.10.2019
5610 Clear -2 999 68 16093 9.8 360 15:55 24.10.2019
5611 Clear -2 999 68 16093 9.8 360 15:37 24.10.2019
5612 Clear -2 999 68 16093 9.8 360 15:18 24.10.2019
5613 Clear -2 999 63 16093 12.3 10 14:44 24.10.2019
5614 Clear -2 999 63 16093 12.3 10 14:44 24.10.2019
5615 Clear -2 999 63 16093 12.3 10 14:26 24.10.2019
5616 Clear -2 999 63 16093 5.7 350 13:59 24.10.2019
5617 Clear -2 999 63 16093 5.7 350 13:38 24.10.2019
5618 Clear -2 999 63 16093 5.7 350 13:19 24.10.2019
5619 Clear -2 998 46 16093 9.8 10 12:56 24.10.2019
5620 Clear -2 998 46 16093 9.8 10 12:38 24.10.2019
5621 Clear -2 998 46 16093 9.8 10 12:18 24.10.2019
5622 Clear -1 998 46 16093 7.2 360 11:55 24.10.2019
5623 Clear -1 998 46 16093 7.2 360 11:36 24.10.2019
5624 Clear -1 998 46 16093 7.2 360 11:36 24.10.2019
5625 Clear -1 998 46 16093 7.2 360 11:18 24.10.2019
5626 Clear -1 998 46 16093 5.7 360 10:42 24.10.2019
5627 Clear 0 998 46 16093 5.7 360 10:23 24.10.2019
5628 Clear -2 997 68 16093 2.6 350 09:40 24.10.2019
5629 Clear -2 997 68 16093 2.6 350 09:19 24.10.2019
5630 Clear -2 996 63 16093 5.7 350 08:59 24.10.2019
5631 Clear -2 996 63 16093 5.7 350 08:41 24.10.2019
5632 Clear -1 996 63 16093 5.7 350 08:20 24.10.2019
5633 Clear -1 996 54 16093 5.7 340 07:47 24.10.2019
5634 Clear -1 996 54 16093 5.7 340 07:23 24.10.2019
5635 Clear -1 995 63 16093 4.1 310 06:54 24.10.2019
5636 Clear -1 995 63 16093 4.1 310 06:36 24.10.2019
5637 Clear 0 995 63 16093 6.7 330 05:55 24.10.2019
5638 Clear 0 995 63 16093 6.7 330 05:31 24.10.2019
5639 Clear 0 995 63 16093 4.6 360 04:23 24.10.2019
5640 Clear 1 994 63 16093 6.7 10 03:35 24.10.2019
5641 Clear 1 995 55 16093 5.1 330 02:39 24.10.2019
5642 Clear 1 995 57 16093 5.1 330 02:19 24.10.2019
5643 Clear 0 995 68 16093 8.7 360 01:31 24.10.2019
5644 Clear 0 996 68 16093 9.3 360 00:56 24.10.2019
5645 Clear 0 996 68 16093 9.3 360 00:27 24.10.2019
5646 Clear 0 997 68 16093 10.3 10 23:57 23.10.2019
5647 Clear 0 997 68 16093 10.3 10 23:38 23.10.2019
5648 Clear 0 997 68 16093 10.3 10 23:18 23.10.2019
5649 Clear -1 997 74 16093 7.2 360 22:54 23.10.2019
5650 Clear -1 997 74 16093 7.2 360 22:36 23.10.2019
5651 Clear -1 997 74 16093 7.2 360 22:18 23.10.2019
5652 Clear -1 997 74 16093 8.2 20 21:55 23.10.2019
5653 Clear -2 997 74 16093 8.2 20 21:36 23.10.2019
5654 Clear -1 997 74 16093 8.2 20 21:18 23.10.2019
5655 Clear -1 997 74 16093 11.8 20 20:54 23.10.2019
5656 Clear -1 997 74 16093 11.8 20 20:54 23.10.2019
5657 Clear -1 997 74 16093 11.8 20 20:36 23.10.2019
5658 Clear -1 997 74 16093 11.8 20 20:18 23.10.2019
5659 Clear -1 999 79 16093 10.8 360 19:42 23.10.2019
5660 Clear -2 999 79 16093 10.8 360 19:19 23.10.2019
5661 Clear -1 999 80 16093 10.3 10 18:57 23.10.2019
5662 Clear -1 999 80 16093 10.3 10 18:38 23.10.2019
5663 Clear -1 999 80 16093 10.3 10 18:19 23.10.2019
5664 Clear -1 1000 80 16093 9.3 350 17:46 23.10.2019
5665 Clear 0 1000 80 16093 9.3 350 17:21 23.10.2019
5666 Clear -1 1001 80 16093 9.3 360 16:59 23.10.2019
5667 Clear -1 1001 80 16093 9.3 360 16:40 23.10.2019
5668 Clear -1 1001 80 16093 9.3 360 16:40 23.10.2019
5669 Clear 0 1001 80 16093 9.3 360 16:20 23.10.2019
5670 Clear 0 1001 80 16093 9.3 360 16:20 23.10.2019
5671 Clear -1 1002 80 16093 7.2 350 15:56 23.10.2019
5672 Clear -1 1002 80 16093 7.2 350 15:37 23.10.2019
5673 Clear 0 1002 80 16093 7.2 350 15:18 23.10.2019
5674 Clear -1 1003 86 16093 2.6 10 14:55 23.10.2019
5675 Clear -1 1003 86 16093 2.6 10 14:37 23.10.2019
5676 Clear -1 1003 86 16093 2.6 10 14:18 23.10.2019
5677 Clear -1 1003 86 16093 2.6 10 14:18 23.10.2019
5678 Clear -1 1004 86 16093 4.1 350 13:42 23.10.2019
5679 Clear 0 1004 86 16093 4.1 350 13:24 23.10.2019
5680 Clouds -1 1004 86 16093 7.2 360 12:57 23.10.2019
5681 Clouds -1 1004 86 16093 7.2 360 12:38 23.10.2019
5682 Clouds -1 1005 86 16093 5.7 350 12:19 23.10.2019
5683 Clouds 1 1006 80 16093 6.2 20 11:57 23.10.2019
5684 Clouds 1 1006 80 16093 6.2 20 11:39 23.10.2019
5685 Clouds 1 1006 80 16093 6.2 20 11:20 23.10.2019
5686 Clouds 1 1006 80 16093 4.1 360 10:46 23.10.2019
5687 Clouds 1 1006 80 16093 4.1 360 10:26 23.10.2019
5688 Clouds 1 1006 80 16093 4.1 360 10:26 23.10.2019
5689 Clouds 1 1007 80 16093 5.7 30 09:58 23.10.2019
5690 Clouds 1 1007 80 16093 5.7 30 09:39 23.10.2019
5691 Clouds 1 1007 77 16093 5.7 30 09:20 23.10.2019
5692 Clouds 0 1007 86 16093 5.7 30 08:43 23.10.2019
5693 Clouds 0 1007 86 16093 7.2 40 08:25 23.10.2019
5694 Clouds -1 1008 86 16093 6.2 40 07:47 23.10.2019
5695 Clouds 0 1008 86 16093 6.2 40 07:26 23.10.2019
5696 Clouds -1 1008 86 16093 5.7 40 06:48 23.10.2019
5697 Clouds -1 1008 86 16093 5.7 40 06:48 23.10.2019
5698 Clouds 0 1008 86 16093 5.7 40 06:22 23.10.2019
5699 Snow -1 1008 80 12874 5.7 50 05:55 23.10.2019
5700 Snow 0 1008 80 12874 5.7 50 05:18 23.10.2019
5701 Clouds 1 1008 82 16093 4.6 40 03:36 23.10.2019
5702 Clouds 1 1008 84 16093 3.6 30 02:41 23.10.2019
5703 Clouds 0 1009 84 16093 4.6 10 01:34 23.10.2019
5704 Clouds 0 1009 80 14484 4.6 360 00:58 23.10.2019
5705 Clouds 0 1009 80 14484 4.6 360 00:32 23.10.2019
5706 Snow -1 1009 86 14484 5.1 340 23:42 22.10.2019
5707 Snow -1 1009 86 14484 5.1 340 23:19 22.10.2019
5708 Clouds -2 1008 79 16093 2.6 340 22:58 22.10.2019
5709 Clouds -2 1008 79 16093 2.6 340 22:40 22.10.2019
5710 Clouds -2 1008 79 16093 2.6 340 22:40 22.10.2019
5711 Clouds -1 1008 79 16093 2.6 340 22:21 22.10.2019
5712 Clouds -2 1008 79 16093 5.7 340 21:56 22.10.2019
5713 Clouds -2 1008 79 16093 5.7 340 21:38 22.10.2019
5714 Clouds -2 1008 79 16093 5.7 340 21:18 22.10.2019
5715 Clouds -2 1008 79 16093 4.6 340 20:58 22.10.2019
5716 Clouds -2 1008 79 16093 4.6 340 20:39 22.10.2019
5717 Clouds -2 1008 79 16093 4.6 340 20:21 22.10.2019
5718 Clouds -2 1007 79 16093 3.6 340 19:55 22.10.2019
5719 Clouds -2 1007 79 16093 3.6 340 19:37 22.10.2019
5720 Clouds -2 1007 79 16093 3.6 340 19:19 22.10.2019
5721 Clouds -2 1007 79 16093 4.1 350 18:41 22.10.2019
5722 Clouds -2 1007 79 16093 4.1 350 18:22 22.10.2019
5723 Clouds -3 1007 79 16093 3.6 20 17:59 22.10.2019
5724 Clouds -3 1007 79 16093 3.6 20 17:39 22.10.2019
5725 Clouds -3 1007 79 16093 3.6 20 17:20 22.10.2019
5726 Clouds -3 1007 79 16093 3.6 20 17:20 22.10.2019
5727 Clear -2 1007 74 16093 4.6 360 16:58 22.10.2019
5728 Clear -2 1007 74 16093 4.6 360 16:39 22.10.2019
5729 Clear -2 1007 74 16093 4.6 360 16:19 22.10.2019
5730 Clouds -1 1006 86 16093 3.1 360 15:58 22.10.2019
5731 Clouds -2 1006 86 16093 3.1 360 15:39 22.10.2019
5732 Clouds -2 1006 86 16093 3.1 360 15:18 22.10.2019
5733 Clouds -1 1006 86 16093 3.6 360 14:43 22.10.2019
5734 Clouds -1 1006 86 16093 3.6 360 14:20 22.10.2019
5735 Clouds -1 1006 86 16093 2.1 350 13:43 22.10.2019
5736 Clouds -1 1006 86 16093 2.1 350 13:23 22.10.2019
5737 Clouds -1 1006 80 16093 5.1 30 12:59 22.10.2019
5738 Clouds -1 1006 80 16093 5.1 30 12:41 22.10.2019
5739 Clouds -1 1006 80 16093 5.1 30 12:21 22.10.2019
5740 Clouds -1 1005 86 16093 1.5 20 11:57 22.10.2019
5741 Clouds -1 1005 86 16093 1.5 20 11:38 22.10.2019
5742 Clouds -1 1005 86 16093 1.5 20 11:20 22.10.2019
5743 Clouds -1 1005 86 16093 2.98 32 10:58 22.10.2019
5744 Clouds -1 1005 86 16093 2.98 32 10:37 22.10.2019
5745 Clouds -1 1005 86 16093 2.98 32 10:18 22.10.2019
5746 Clouds -1 1005 86 16093 2.98 32 10:18 22.10.2019
5747 Clouds -1 1005 86 16093 2.6 350 09:55 22.10.2019
5748 Clouds -1 1005 86 16093 2.6 350 09:36 22.10.2019
5749 Clouds -1 1005 86 16093 2.6 350 09:18 22.10.2019
5750 Clouds -1 1005 86 16093 2.87 32 08:42 22.10.2019
5751 Clouds -1 1005 86 16093 2.87 32 08:21 22.10.2019
5752 Clouds -1 1004 86 16093 2.6 360 07:48 22.10.2019
5753 Clouds -1 1004 86 16093 2.6 360 07:27 22.10.2019
5754 Clouds -1 1004 86 16093 2.1 10 06:51 22.10.2019
5755 Clouds -1 1004 86 16093 2.1 10 06:31 22.10.2019
5756 Clouds -2 1004 79 16093 2.1 40 05:57 22.10.2019
5757 Clouds -2 1004 79 16093 2.1 40 05:21 22.10.2019
5758 Rain 1 1004 74 16093 2.1 350 02:48 22.10.2019
5759 Rain 1 1004 74 16093 2.1 350 02:28 22.10.2019
5760 Rain 1 1004 80 16093 1.77 48 01:29 22.10.2019
5761 Clouds 1 1004 80 16093 1.5 40 00:58 22.10.2019
5762 Clouds 1 1004 80 16093 1.5 40 00:40 22.10.2019
5763 Clouds 1 1004 80 16093 1.5 40 00:21 22.10.2019
5764 Clouds 1 1004 75 16093 1.5 30 23:55 21.10.2019
5765 Clouds 1 1004 75 16093 1.5 30 23:37 21.10.2019
5766 Clouds 1 1004 75 16093 1.5 30 23:18 21.10.2019
5767 Snow 0 1004 100 14484 1.57 53 22:56 21.10.2019
5768 Snow 0 1004 100 14484 1.57 53 22:37 21.10.2019
5769 Snow 0 1004 100 14484 1.57 53 22:19 21.10.2019
5770 Clouds 0 1004 92 12874 2.1 350 21:54 21.10.2019
5771 Clouds 0 1004 92 12874 2.1 350 21:54 21.10.2019
5772 Clouds 0 1004 92 12874 2.1 350 21:54 21.10.2019
5773 Clouds 0 1004 92 12874 2.1 350 21:36 21.10.2019
5774 Clouds 0 1004 92 12874 2.1 350 21:36 21.10.2019
5775 Snow 0 1004 100 8047 1.77 47 21:18 21.10.2019
5776 Snow -1 1004 92 9656 1.77 47 20:41 21.10.2019
5777 Snow 0 1004 92 9656 1.77 47 20:21 21.10.2019
5778 Clouds -1 1004 92 16093 1.5 20 19:59 21.10.2019
5779 Clouds -1 1004 92 16093 1.5 20 19:41 21.10.2019
5780 Clouds 0 1004 92 16093 1.5 20 19:22 21.10.2019
5781 Clouds -1 1004 86 14484 1.5 350 18:57 21.10.2019
5782 Clouds -1 1004 86 14484 1.5 350 18:38 21.10.2019
5783 Clouds 0 1004 86 14484 1.5 350 18:19 21.10.2019
5784 Clouds -1 1004 86 16093 2.04 62 17:57 21.10.2019
5785 Clouds -1 1004 86 16093 2.04 62 17:38 21.10.2019
5786 Clouds -1 1004 86 16093 2.04 62 17:19 21.10.2019
5787 Clouds -2 1004 92 16093 1.5 10 16:57 21.10.2019
5788 Clouds -2 1004 92 16093 1.5 10 16:38 21.10.2019
5789 Clouds -2 1004 92 16093 1.5 10 16:20 21.10.2019
5790 Clouds -1 1004 86 16093 3.6 350 15:47 21.10.2019
5791 Clouds -1 1004 86 16093 3.6 350 15:25 21.10.2019
5792 Clouds -2 1004 92 16093 3.6 340 14:58 21.10.2019
5793 Clouds -2 1004 92 16093 3.6 340 14:39 21.10.2019
5794 Clouds -2 1004 92 16093 3.6 340 14:21 21.10.2019
5795 Clouds -2 1004 86 16093 2.6 360 13:57 21.10.2019
5796 Clouds -2 1004 86 16093 2.6 360 13:39 21.10.2019
5797 Clouds -2 1004 86 16093 2.6 360 13:19 21.10.2019
5798 Clouds -2 1004 86 16093 3.1 350 12:42 21.10.2019
5799 Clouds -2 1004 86 16093 3.1 350 12:22 21.10.2019
5800 Clouds -1 1003 86 16093 2.6 10 11:57 21.10.2019
5801 Clouds -1 1003 86 16093 2.6 10 11:39 21.10.2019
5802 Clouds -1 1003 86 16093 2.6 10 11:20 21.10.2019
5803 Clouds -1 1003 86 16093 3.6 40 10:57 21.10.2019
5804 Clouds -1 1003 86 16093 3.6 40 10:38 21.10.2019
5805 Clouds -1 1003 86 16093 3.6 40 10:19 21.10.2019
5806 Clouds -1 1003 86 16093 2.6 50 09:48 21.10.2019
5807 Clouds -1 1003 86 16093 2.6 50 09:26 21.10.2019
5808 Clouds -1 1003 86 16093 2.6 40 08:58 21.10.2019
5809 Clouds -1 1003 86 16093 2.6 40 08:39 21.10.2019
5810 Clouds -1 1003 86 16093 2.6 40 08:21 21.10.2019
5811 Clouds -1 1003 86 16093 3.1 50 07:39 21.10.2019
5812 Clouds -1 1003 86 16093 2.6 60 07:21 21.10.2019
5813 Clouds -1 1003 86 16093 4.1 50 06:57 21.10.2019
5814 Clouds -1 1003 86 16093 4.1 50 06:39 21.10.2019
5815 Clouds -1 1003 86 16093 3.1 50 05:57 21.10.2019
5816 Clouds -1 1003 86 16093 3.1 50 05:57 21.10.2019
5817 Clouds -1 1003 86 16093 3.1 50 05:57 21.10.2019
5818 Clouds 0 1003 76 16093 4.6 40 04:49 21.10.2019
5819 Clouds 0 1003 76 16093 4.1 50 03:38 21.10.2019
5820 Clouds 0 1003 75 16093 4.1 60 02:25 21.10.2019
5821 Clouds 0 1003 75 16093 4.1 60 01:59 21.10.2019
5822 Clouds 0 1003 75 16093 4.1 60 01:38 21.10.2019
5823 Clouds 0 1003 75 16093 3.6 70 00:51 21.10.2019
5824 Clouds 0 1003 75 16093 5.1 60 00:27 21.10.2019
5825 Clouds 0 1003 78 16093 4.6 60 23:43 20.10.2019
5826 Clouds 0 1003 78 16093 4.6 60 23:22 20.10.2019
5827 Clouds 0 1003 78 16093 4.1 60 22:58 20.10.2019
5828 Clouds 0 1003 78 16093 4.1 60 22:39 20.10.2019
5829 Clouds 0 1003 78 16093 4.1 60 22:19 20.10.2019
5830 Clouds 0 1003 78 16093 4.1 70 21:59 20.10.2019
5831 Clouds 0 1003 78 16093 4.1 70 21:39 20.10.2019
5832 Clouds 0 1003 80 16093 4.1 70 21:21 20.10.2019
5833 Clouds -1 1002 86 16093 3.6 90 20:54 20.10.2019
5834 Clouds -1 1002 86 16093 3.6 90 20:36 20.10.2019
5835 Clouds -1 1002 86 16093 3.6 90 20:18 20.10.2019
5836 Clouds 0 1002 81 16093 3.6 60 19:55 20.10.2019
5837 Clouds 0 1002 81 16093 3.6 60 19:36 20.10.2019
5838 Clouds 0 1002 81 16093 3.6 60 19:18 20.10.2019
5839 Clouds 0 1002 81 16093 3.6 60 18:40 20.10.2019
5840 Clouds 0 1002 77 16093 3.6 60 18:20 20.10.2019
5841 Clouds 0 1002 77 16093 3.6 50 17:56 20.10.2019
5842 Clouds 0 1002 77 16093 3.6 50 17:37 20.10.2019
5843 Clouds 0 1002 77 16093 3.6 50 17:19 20.10.2019
5844 Clouds 0 1002 77 16093 3.6 60 16:42 20.10.2019
5845 Clouds 0 1002 77 16093 3.6 60 16:24 20.10.2019
5846 Clouds 0 1002 77 16093 4.1 50 15:58 20.10.2019
5847 Clouds 0 1002 77 16093 4.1 50 15:38 20.10.2019
5848 Clouds 0 1002 81 16093 4.1 50 15:20 20.10.2019
5849 Clouds 0 1002 81 16093 4.1 40 14:57 20.10.2019
5850 Clouds 0 1002 81 16093 4.1 40 14:38 20.10.2019
5851 Clouds 0 1002 81 16093 4.1 40 14:19 20.10.2019
5852 Clouds 0 1002 81 16093 3.6 50 13:55 20.10.2019
5853 Clouds 0 1002 81 16093 3.6 50 13:37 20.10.2019
5854 Clouds 0 1002 77 16093 3.6 50 13:18 20.10.2019
5855 Clouds -1 1002 86 16093 3.6 40 12:56 20.10.2019
5856 Clouds -1 1002 86 16093 3.6 40 12:37 20.10.2019
5857 Clouds -1 1002 86 16093 3.6 40 12:19 20.10.2019
5858 Clouds -1 1002 86 16093 3.1 40 11:55 20.10.2019
5859 Clouds -1 1002 86 16093 3.1 40 11:37 20.10.2019
5860 Clouds -1 1002 86 16093 3.1 40 11:18 20.10.2019
5861 Clouds 0 1002 79 16093 4.1 50 10:41 20.10.2019
5862 Clouds 0 1002 79 16093 4.1 50 10:22 20.10.2019
5863 Clouds 1 1001 69 16093 3.6 60 09:58 20.10.2019
5864 Clouds 1 1001 69 16093 3.6 60 09:40 20.10.2019
5865 Clouds 1 1001 69 16093 3.6 60 09:21 20.10.2019
5866 Clouds -1 1001 86 16093 2.6 40 08:48 20.10.2019
5867 Clouds -1 1001 86 16093 2.6 40 08:24 20.10.2019
5868 Clouds 0 1001 82 16093 2.6 70 07:50 20.10.2019
5869 Clouds 0 1001 82 16093 2.6 70 07:30 20.10.2019
5870 Clouds 0 1001 82 16093 4.1 90 06:57 20.10.2019
5871 Clouds 0 1001 81 16093 4.1 90 06:20 20.10.2019
5872 Clouds 1 1000 80 16093 2.6 60 04:27 20.10.2019
5873 Clouds 1 1000 86 16093 3.1 100 03:46 20.10.2019
5874 Clouds 1 1000 86 16093 3.1 100 03:20 20.10.2019
5875 Clouds 1 1000 80 16093 3.1 70 02:43 20.10.2019
5876 Clouds 0 1000 81 16093 3.1 80 01:58 20.10.2019
5877 Clouds 0 1000 82 12874 3.1 90 01:24 20.10.2019
5878 Clouds 0 1000 82 16093 4.6 80 00:57 20.10.2019
5879 Clouds 0 1000 82 16093 4.6 80 00:39 20.10.2019
5880 Clouds 0 1000 86 16093 4.6 80 00:19 20.10.2019
5881 Snow -1 1000 92 16093 5.1 70 23:42 19.10.2019
5882 Snow -1 1000 92 16093 5.1 70 23:22 19.10.2019
5883 Snow -1 1000 92 16093 4.1 80 22:56 19.10.2019
5884 Snow -1 1000 92 16093 4.1 80 22:38 19.10.2019
5885 Snow -1 1000 92 4828 4.6 80 22:20 19.10.2019
5886 Snow -2 1000 100 2414 4.1 70 21:46 19.10.2019
5887 Snow -2 1000 100 2414 4.6 80 21:23 19.10.2019
5888 Snow -2 999 100 2414 4.1 80 20:46 19.10.2019
5889 Snow -2 999 100 2414 4.1 80 20:46 19.10.2019
5890 Snow -2 999 100 6437 5.7 70 20:23 19.10.2019
5891 Snow -2 999 100 3219 5.1 80 19:59 19.10.2019
5892 Snow -2 999 100 3219 5.1 80 19:40 19.10.2019
5893 Snow -2 999 100 2012 6.2 80 19:22 19.10.2019
5894 Snow -2 999 100 4828 3.6 80 18:43 19.10.2019
5895 Snow -1 998 92 14484 5.1 80 18:24 19.10.2019
5896 Snow -1 998 100 4828 4.1 60 17:57 19.10.2019
5897 Snow -1 998 100 4828 4.1 60 17:37 19.10.2019
5898 Snow -1 998 100 4828 4.1 60 17:37 19.10.2019
5899 Snow -1 998 100 2012 5.7 70 17:19 19.10.2019
5900 Clouds -1 998 92 16093 5.7 80 16:39 19.10.2019
5901 Clouds -1 998 92 16093 5.7 80 16:39 19.10.2019
5902 Snow -2 998 100 12874 5.7 80 16:20 19.10.2019
5903 Snow -2 998 100 8047 6.2 80 15:56 19.10.2019
5904 Snow -2 998 100 8047 6.2 80 15:38 19.10.2019
5905 Snow -2 998 100 2816 5.1 80 15:20 19.10.2019
5906 Snow -1 998 100 3219 5.7 70 14:38 19.10.2019
5907 Snow -1 998 100 6437 3.6 70 14:20 19.10.2019
5908 Snow -1 998 100 1609 4.6 70 13:56 19.10.2019
5909 Snow -1 998 100 1609 4.6 70 13:38 19.10.2019
5910 Snow -1 998 100 3219 3.6 60 13:18 19.10.2019
5911 Snow -1 997 100 16093 4.6 70 12:41 19.10.2019
5912 Snow -1 997 100 16093 4.6 70 12:22 19.10.2019
5913 Snow -1 997 100 14484 4.6 70 11:59 19.10.2019
5914 Snow -1 997 100 14484 4.6 70 11:40 19.10.2019
5915 Snow -1 997 100 3219 5.7 80 11:22 19.10.2019
5916 Clouds -1 997 100 16093 4.6 80 10:42 19.10.2019
5917 Clouds -1 997 100 16093 5.1 70 10:23 19.10.2019
5918 Snow -1 997 100 12874 5.1 80 09:59 19.10.2019
5919 Snow -1 997 100 12874 5.1 80 09:41 19.10.2019
5920 Snow -1 997 100 6437 5.7 70 09:22 19.10.2019
5921 Snow -1 997 100 2816 4.6 70 08:57 19.10.2019
5922 Snow -1 997 100 2816 4.6 70 08:39 19.10.2019
5923 Snow -1 997 100 2816 6.2 70 08:20 19.10.2019
5924 Snow -1 997 100 4828 3.1 60 07:42 19.10.2019
5925 Snow -1 997 100 4023 6.2 80 07:23 19.10.2019
5926 Snow -1 997 100 4023 6.2 80 07:23 19.10.2019
5927 Snow -1 996 100 4828 4.6 80 06:40 19.10.2019
5928 Snow -1 996 100 3219 4.2 68.559 05:55 19.10.2019
5929 Snow 0 996 92 2816 5.1 140 05:27 19.10.2019
5930 Snow 1 996 92 6437 2.1 30 03:25 19.10.2019
5931 Rain 1 995 83 16093 4.1 80 02:35 19.10.2019
5932 Rain 1 995 100 14484 4.6 100 01:50 19.10.2019
5933 Snow 0 995 76 2414 4.6 80 01:18 19.10.2019
5934 Snow 0 995 76 3219 3.6 90 00:45 19.10.2019
5935 Snow 0 995 72 4828 4.1 90 00:22 19.10.2019
5936 Snow 0 995 100 16093 4.6 90 23:41 18.10.2019
5937 Clouds 0 995 100 16093 4.6 90 23:23 18.10.2019
5938 Clouds 0 995 100 16093 2.6 80 22:55 18.10.2019
5939 Clouds 0 995 100 16093 2.6 80 22:37 18.10.2019
5940 Snow 0 995 100 8047 2.6 70 22:19 18.10.2019
5941 Clouds -1 995 100 16093 2.1 80 21:56 18.10.2019
5942 Clouds -1 995 100 16093 2.1 80 21:56 18.10.2019
5943 Clouds -1 995 100 16093 2.1 80 21:38 18.10.2019
5944 Clouds 0 995 100 16093 2.1 80 21:19 18.10.2019
5945 Snow -1 994 92 16093 3.1 80 20:54 18.10.2019
5946 Snow 0 994 92 16093 3.1 80 20:36 18.10.2019
5947 Snow 0 994 92 16093 3.1 80 20:18 18.10.2019
5948 Snow -1 994 100 16093 3.6 80 19:54 18.10.2019
5949 Snow -1 994 100 16093 3.6 80 19:36 18.10.2019
5950 Snow -1 994 100 6437 3.6 110 19:18 18.10.2019
5951 Clouds -1 994 100 16093 1.27 68.584 18:42 18.10.2019
5952 Clouds -1 994 100 16093 0.78 55.702 18:23 18.10.2019
5953 Clouds -2 994 100 16093 0.78 55.702 17:57 18.10.2019
5954 Clouds -2 994 100 16093 0.78 55.702 17:38 18.10.2019
5955 Clouds -2 994 100 16093 0.78 55.702 17:20 18.10.2019
5956 Clouds -2 994 100 16093 0.78 55.702 17:20 18.10.2019
5957 Clouds -1 994 100 16093 0.78 55.702 16:44 18.10.2019
5958 Clouds -1 994 100 16093 0.78 55.702 16:44 18.10.2019
5959 Clouds -1 994 100 16093 0.78 55.702 16:22 18.10.2019
5960 Clouds -1 994 92 14484 0.78 55.702 15:59 18.10.2019
5961 Clouds -2 994 92 14484 0.78 55.702 15:40 18.10.2019
5962 Clouds -2 994 92 14484 1.45 32.607 15:21 18.10.2019
5963 Clouds -2 993 92 16093 1.45 32.607 14:58 18.10.2019
5964 Clouds -2 993 92 16093 1.45 32.607 14:58 18.10.2019
5965 Clouds -2 993 92 16093 1.45 32.607 14:58 18.10.2019
5966 Clouds -2 993 92 16093 1.45 32.607 14:58 18.10.2019
5967 Clouds -2 993 92 16093 1.45 32.607 14:40 18.10.2019
5968 Clouds -2 993 86 16093 1.5 0 14:22 18.10.2019
5969 Clouds -2 993 86 16093 1.45 32.607 13:59 18.10.2019
5970 Clouds -1 993 86 16093 1.45 32.607 13:40 18.10.2019
5971 Clouds -1 993 86 16093 1.5 10 13:22 18.10.2019
5972 Clouds -1 993 86 16093 1.5 10 13:22 18.10.2019
5973 Clouds -2 993 92 16093 1.24 43.14 12:56 18.10.2019
5974 Clouds -3 993 92 16093 1.24 43.14 12:38 18.10.2019
5975 Clouds -3 993 92 16093 1.93 326.885 12:20 18.10.2019
5976 Clouds -3 993 92 16093 1.93 326.885 12:20 18.10.2019
5977 Clouds -3 993 100 16093 1.93 326.885 11:55 18.10.2019
5978 Clouds -3 993 100 16093 1.93 326.885 11:37 18.10.2019
5979 Clouds -3 993 100 16093 1.93 326.885 11:18 18.10.2019
5980 Clouds -4 992 85 16093 1.93 326.885 10:42 18.10.2019
5981 Clouds -3 992 85 16093 1.93 326.885 10:22 18.10.2019
5982 Clear -4 992 85 16093 1.5 330 09:58 18.10.2019
5983 Clear -4 992 85 16093 1.5 330 09:40 18.10.2019
5984 Clear -4 992 85 16093 1.5 330 09:20 18.10.2019
5985 Clear -3 992 86 16093 1.5 350 08:57 18.10.2019
5986 Clear -3 992 86 16093 1.5 350 08:39 18.10.2019
5987 Clear -3 992 86 16093 1.5 350 08:20 18.10.2019
5988 Clear -3 992 86 16093 0.61 45.067 07:42 18.10.2019
5989 Clear -3 992 86 16093 0.61 45.067 07:20 18.10.2019
5990 Clear -2 992 79 16093 3.1 360 06:39 18.10.2019
5991 Clear -2 992 79 16093 3.1 360 06:20 18.10.2019
5992 Clear 0 991 57 16093 2.1 350 05:55 18.10.2019
5993 Clear 1 991 57 16093 2.1 350 05:22 18.10.2019
5994 Clear 2 991 64 16093 0.75 35.023 03:56 18.10.2019
5995 Clear 3 991 64 16093 0.75 35.023 03:24 18.10.2019
5996 Clear 2 991 69 16093 2.6 270 02:33 18.10.2019
5997 Clouds 2 991 69 16093 3.1 270 01:44 18.10.2019
5998 Clouds 2 991 69 16093 3.1 270 01:26 18.10.2019
5999 Clouds 2 991 69 16093 2.1 290 00:44 18.10.2019
6000 Clouds 2 991 69 16093 2.1 290 00:20 18.10.2019
6001 Clouds 0 991 86 16093 0.93 38.737 23:54 17.10.2019
6002 Clouds 0 991 86 16093 0.93 38.737 23:36 17.10.2019
6003 Clouds 0 991 86 16093 0.93 38.737 23:18 17.10.2019
6004 Clouds -2 991 85 16093 0.93 38.737 22:54 17.10.2019
6005 Clouds -3 991 85 16093 0.93 38.737 22:36 17.10.2019
6006 Clouds -3 991 85 16093 0.93 38.737 22:18 17.10.2019
6007 Clouds -5 991 85 16093 0.93 38.737 21:54 17.10.2019
6008 Clouds -5 991 85 16093 0.93 38.737 21:36 17.10.2019
6009 Clouds -5 991 85 16093 1.01 350.65 21:18 17.10.2019
6010 Clouds -6 990 85 16093 1.05 3.559 20:54 17.10.2019
6011 Clouds -6 990 85 16093 1.05 3.559 20:36 17.10.2019
6012 Clouds -6 990 85 16093 1.05 3.559 20:18 17.10.2019
6013 Clouds -6 990 92 16093 1.05 3.559 19:41 17.10.2019
6014 Clouds -6 990 92 16093 1.05 3.559 19:20 17.10.2019
6015 Clouds -6 990 92 16093 1.05 3.559 19:20 17.10.2019
6016 Clouds -6 990 92 16093 1.05 3.559 19:20 17.10.2019
6017 Clouds -6 990 85 16093 1.5 360 18:58 17.10.2019
6018 Clouds -6 990 85 16093 1.5 360 18:38 17.10.2019
6019 Clouds -6 990 85 16093 1.5 360 18:20 17.10.2019
6020 Clouds -6 990 85 16093 1.5 360 18:20 17.10.2019
6021 Clouds -5 990 85 16093 2.1 350 17:43 17.10.2019
6022 Clouds -5 990 85 16093 2.1 350 17:24 17.10.2019
6023 Clouds -6 990 85 16093 2.1 10 16:58 17.10.2019
6024 Clouds -6 990 85 16093 2.1 10 16:40 17.10.2019
6025 Clouds -6 990 85 16093 2.1 10 16:40 17.10.2019
6026 Clouds -5 990 85 16093 2.1 10 16:18 17.10.2019
6027 Clear -6 990 85 16093 2.6 20 15:56 17.10.2019
6028 Clear -6 990 85 16093 2.6 20 15:38 17.10.2019
6029 Clear -5 990 85 16093 2.6 20 15:20 17.10.2019
6030 Clear -6 989 79 16093 1.45 28 14:56 17.10.2019
6031 Clear -5 989 79 16093 1.533 30 14:37 17.10.2019
6032 Clear -5 989 79 16093 1.533 30 14:19 17.10.2019
6033 Clouds -5 989 79 16093 2.1 10 13:39 17.10.2019
6034 Clouds -5 989 79 16093 2.1 10 13:20 17.10.2019
6035 Clouds -4 989 79 16093 1.5 20 12:57 17.10.2019
6036 Clouds -4 989 79 16093 1.5 20 12:37 17.10.2019
6037 Clouds -4 989 79 16093 1.5 20 12:18 17.10.2019
6038 Clouds -4 989 79 16093 1.5 20 12:18 17.10.2019
6039 Clouds -4 988 79 16093 2.1 340 11:41 17.10.2019
6040 Clouds -4 988 79 16093 2.1 340 11:41 17.10.2019
6041 Clouds -4 988 79 16093 2.1 340 11:22 17.10.2019
6042 Clear -4 988 73 16093 3.1 340 10:59 17.10.2019
6043 Clear -4 988 73 16093 3.1 340 10:41 17.10.2019
6044 Clear -4 988 73 16093 3.1 340 10:19 17.10.2019
6045 Clear -4 988 73 16093 1.5 20 09:56 17.10.2019
6046 Clear -4 988 73 16093 1.5 20 09:37 17.10.2019
6047 Clear -4 988 73 16093 1.5 20 09:19 17.10.2019
6048 Clouds -2 988 68 16093 1.5 30 08:48 17.10.2019
6049 Clouds -3 988 68 16093 1.5 30 08:27 17.10.2019
6050 Clear -3 988 68 16093 2.6 50 07:59 17.10.2019
6051 Clear -2 988 68 16093 2.6 50 07:41 17.10.2019
6052 Clear -2 988 68 16093 2.6 50 07:21 17.10.2019
6053 Clear -2 988 68 16093 2.6 50 07:21 17.10.2019
6054 Clouds -2 988 68 16093 2.1 60 06:51 17.10.2019
6055 Clouds -2 988 68 16093 2.1 60 06:31 17.10.2019
6056 Clouds -1 987 58 16093 2.6 80 05:59 17.10.2019
6057 Clouds -1 987 58 16093 2.6 80 05:37 17.10.2019
6058 Clouds 0 987 58 16093 2.6 80 05:19 17.10.2019
6059 Clouds -1 987 63 16093 3.6 90 04:45 17.10.2019
6060 Clear 0 987 68 16093 5.1 90 03:45 17.10.2019
6061 Clear -1 987 63 16093 5.1 80 01:56 17.10.2019
6062 Clouds -1 988 68 16093 5.1 80 00:42 17.10.2019
6063 Clouds -1 988 68 16093 5.1 80 00:21 17.10.2019
6064 Clouds -1 988 63 16093 4.6 80 23:59 16.10.2019
6065 Clouds -1 988 63 16093 4.6 80 23:40 16.10.2019
6066 Clouds -2 988 63 16093 4.6 80 23:18 16.10.2019
6067 Clouds -2 988 63 16093 4.6 70 22:54 16.10.2019
6068 Clouds -2 988 63 16093 4.6 70 22:36 16.10.2019
6069 Clouds -2 988 63 16093 4.6 70 22:18 16.10.2019
6070 Clouds -2 988 63 16093 4.6 70 21:54 16.10.2019
6071 Clouds -2 988 63 16093 4.6 70 21:54 16.10.2019
6072 Clouds -2 988 63 16093 4.6 70 21:54 16.10.2019
6073 Clouds -2 988 63 16093 4.6 70 21:36 16.10.2019
6074 Clouds -2 988 63 16093 4.6 70 21:18 16.10.2019
6075 Clouds -2 988 58 16093 4.6 60 20:55 16.10.2019
6076 Clouds -2 988 58 16093 4.6 60 20:55 16.10.2019
6077 Clouds -2 988 58 16093 4.6 60 20:37 16.10.2019
6078 Clouds -2 988 58 16093 4.6 60 20:37 16.10.2019
6079 Clouds -2 988 58 16093 4.6 60 20:19 16.10.2019
6080 Clouds -2 988 58 16093 5.7 70 19:40 16.10.2019
6081 Clouds -2 988 58 16093 5.7 70 19:40 16.10.2019
6082 Clouds -2 988 58 16093 5.7 70 19:21 16.10.2019
6083 -273 0 0 0 0 0 18:58 16.10.2019
6084 Clouds -2 988 63 16093 6.2 80 18:58 16.10.2019
6085 Clouds -2 988 63 16093 6.2 80 18:38 16.10.2019
6086 Clouds -2 988 63 16093 6.2 80 18:18 16.10.2019
6087 Clouds -2 988 63 16093 6.2 80 18:18 16.10.2019
6088 Clouds -2 988 63 16093 6.2 80 18:18 16.10.2019
6089 Clouds -2 988 63 16093 6.2 70 17:56 16.10.2019
6090 Clouds -2 988 63 16093 6.2 70 17:37 16.10.2019
6091 Clouds -2 988 63 16093 6.2 70 17:37 16.10.2019
6092 Clouds -2 988 63 16093 6.2 70 17:19 16.10.2019
6093 Clouds -2 989 63 16093 6.7 70 16:56 16.10.2019
6094 Clouds -2 989 63 16093 6.7 70 16:38 16.10.2019
6095 Clouds -2 989 63 16093 6.7 70 16:19 16.10.2019
6096 Clouds -2 989 68 16093 6.2 70 15:41 16.10.2019
6097 Clouds -1 990 63 16093 7.2 70 15:19 16.10.2019
6098 Clouds -1 990 63 16093 7.2 70 14:59 16.10.2019
6099 Clouds -1 990 63 16093 7.2 70 14:40 16.10.2019
6100 Clouds -1 990 63 16093 7.2 70 14:21 16.10.2019
6101 Clouds -1 990 63 16093 7.2 70 13:58 16.10.2019
6102 Clouds -1 990 68 16093 7.2 80 13:40 16.10.2019
6103 Clouds -1 990 68 16093 7.2 80 13:22 16.10.2019
6104 Clouds -1 990 63 16093 7.7 70 12:44 16.10.2019
6105 Clouds -1 990 63 16093 7.7 70 12:44 16.10.2019
6106 Clouds -1 990 63 16093 7.7 70 12:20 16.10.2019
6107 Clouds 0 990 63 16093 7.7 70 11:58 16.10.2019
6108 Clouds -1 990 63 16093 6.7 70 11:40 16.10.2019
6109 Clouds -1 990 63 16093 6.7 70 11:18 16.10.2019
6110 Clouds 0 990 63 16093 6.7 80 10:37 16.10.2019
6111 Clouds 0 990 63 16093 6.7 80 10:19 16.10.2019
6112 Clouds -1 991 63 16093 8.2 80 09:41 16.10.2019
6113 Clouds 0 991 63 16093 8.2 80 09:22 16.10.2019
6114 Clouds 0 991 63 16093 8.2 80 08:58 16.10.2019
6115 Clouds -1 991 58 16093 6.7 80 08:40 16.10.2019
6116 Clouds 0 991 58 16093 6.7 80 08:21 16.10.2019
6117 Clouds -1 991 58 16093 6.2 70 07:45 16.10.2019
6118 Clouds 0 991 58 16093 6.2 70 07:24 16.10.2019
6119 Clouds 0 991 58 16093 6.2 70 06:56 16.10.2019
6120 Clouds 0 991 58 16093 6.2 70 06:56 16.10.2019
6121 Clear 0 991 58 16093 6.2 80 06:35 16.10.2019
6122 Clear 1 991 64 16093 6.2 80 05:39 16.10.2019
6123 Clear 1 991 59 16093 10.8 110 02:57 16.10.2019
6124 Clear 1 991 64 16093 9.8 90 02:37 16.10.2019
6125 Clouds 1 992 64 16093 10.3 110 01:18 16.10.2019
6126 Clouds 1 992 53 16093 8.7 80 00:46 16.10.2019
6127 Clouds 1 992 53 16093 8.7 80 00:27 16.10.2019
6128 Clouds 0 992 54 16093 9.8 90 23:40 15.10.2019
6129 Clouds 0 992 54 16093 9.8 90 23:22 15.10.2019
6130 Clouds 0 992 54 16093 9.8 90 22:56 15.10.2019
6131 Clouds 0 992 54 16093 9.3 70 22:38 15.10.2019
6132 Clouds 0 992 54 16093 9.3 70 22:19 15.10.2019
6133 Clouds -1 992 54 16093 9.3 70 21:56 15.10.2019
6134 Clouds -1 992 58 16093 7.7 70 21:38 15.10.2019
6135 Clouds -1 992 58 16093 7.7 70 21:19 15.10.2019
6136 Clouds -1 992 58 16093 7.7 70 20:57 15.10.2019
6137 Clouds -2 992 58 16093 7.2 70 20:39 15.10.2019
6138 Clouds -2 992 58 16093 7.2 70 20:20 15.10.2019
6139 Clouds -2 992 58 16093 7.2 70 20:20 15.10.2019
6140 Clouds -1 992 58 16093 7.2 70 19:57 15.10.2019
6141 Clear -2 992 58 16093 9.3 80 19:39 15.10.2019
6142 Clear -2 992 58 16093 9.3 80 19:19 15.10.2019
6143 Clear -1 992 54 16093 8.7 80 18:47 15.10.2019
6144 Clear -1 992 54 16093 8.7 80 18:28 15.10.2019
6145 Clear 0 992 54 16093 8.7 80 17:59 15.10.2019
6146 Clear -1 992 54 16093 7.7 80 17:39 15.10.2019
6147 Clear 0 992 54 16093 7.7 80 17:20 15.10.2019
6148 Clear 0 992 54 16093 7.7 80 16:55 15.10.2019
6149 Clear 0 993 58 16093 8.2 90 16:37 15.10.2019
6150 Clear 0 993 58 16093 8.2 90 16:19 15.10.2019
6151 Clear -1 993 63 16093 7.2 80 15:41 15.10.2019
6152 Clear -1 993 63 16093 7.2 80 15:41 15.10.2019
6153 Clear 0 993 63 16093 7.2 80 15:20 15.10.2019
6154 Clear 0 993 63 16093 7.2 80 14:58 15.10.2019
6155 Clear -1 993 63 16093 9.3 80 14:38 15.10.2019
6156 Clear 0 993 63 16093 9.3 80 14:20 15.10.2019
6157 Clear 0 993 63 16093 9.3 80 13:55 15.10.2019
6158 Clear 0 994 68 16093 8.2 70 13:37 15.10.2019
6159 Clear 0 994 68 16093 8.2 70 13:18 15.10.2019
6160 Clear -1 994 68 16093 7.7 80 12:41 15.10.2019
6161 Clear 0 994 68 16093 7.7 80 12:21 15.10.2019
6162 Clear 0 994 69 16093 9.8 80 11:56 15.10.2019
6163 Clear 0 994 69 16093 9.8 80 11:37 15.10.2019
6164 Clear 0 994 69 16093 9.8 80 11:18 15.10.2019
6165 Clouds 0 995 80 16093 10.8 70 10:43 15.10.2019
6166 Clouds 0 995 80 16093 10.8 70 10:19 15.10.2019
6167 Clouds 0 995 80 16093 10.8 70 09:57 15.10.2019
6168 Clear 0 995 69 16093 8.2 70 09:37 15.10.2019
6169 Clear 0 995 69 16093 8.2 70 09:37 15.10.2019
6170 Clear 0 995 71 16093 8.2 70 09:19 15.10.2019
6171 Clear 1 995 71 16093 8.7 70 08:43 15.10.2019
6172 Clear 0 995 71 16093 8.7 70 08:22 15.10.2019
6173 Clear 0 995 71 16093 8.7 70 07:58 15.10.2019
6174 Clear 1 996 74 16093 9.3 90 07:39 15.10.2019
6175 Clear 1 996 74 16093 9.3 90 07:19 15.10.2019
6176 Clear 2 996 69 16093 8.2 90 06:45 15.10.2019
6177 Clear 2 996 69 16093 8.2 90 06:26 15.10.2019
6178 Clear 2 997 74 16093 8.2 90 05:41 15.10.2019
6179 Clear 2 997 74 16093 8.2 90 05:23 15.10.2019
6180 Clear 3 998 74 16093 11.3 90 04:32 15.10.2019
6181 Clouds 3 998 69 16093 10.8 90 03:37 15.10.2019
6182 Clouds 3 998 69 16093 10.8 90 03:37 15.10.2019
6183 Clear 3 999 74 16093 11.3 90 02:29 15.10.2019
6184 Clear 3 1000 74 16093 11.3 100 01:48 15.10.2019
6185 Clear 3 1000 74 16093 11.3 100 01:19 15.10.2019
6186 Clouds 3 1001 74 16093 12.9 90 00:49 15.10.2019
6187 Clouds 3 1001 74 16093 12.9 90 00:21 15.10.2019
6188 Clouds 2 1002 69 16093 8.7 90 23:45 14.10.2019
6189 Clouds 2 1002 69 16093 8.7 90 23:20 14.10.2019
6190 Clouds 2 1002 69 16093 8.7 90 23:20 14.10.2019
6191 Clouds 2 1002 69 16093 8.7 90 22:57 14.10.2019
6192 Clouds 1 1003 67 16093 7.7 80 22:38 14.10.2019
6193 Clouds 1 1003 67 16093 7.7 80 22:18 14.10.2019
6194 Clouds 1 1003 67 16093 7.7 80 22:18 14.10.2019
6195 Clouds 1 1003 67 16093 7.7 80 21:55 14.10.2019
6196 Clouds 0 1004 80 16093 8.2 80 21:36 14.10.2019
6197 Clouds 0 1004 80 16093 8.2 80 21:18 14.10.2019
6198 Clouds 0 1004 80 16093 8.2 80 20:55 14.10.2019
6199 -273 0 0 0 0 0 20:54 14.10.2019
6200 Clouds 0 1004 80 16093 8.2 80 20:54 14.10.2019
6201 Clouds 0 1005 80 16093 8.2 70 20:36 14.10.2019
6202 Clouds 0 1005 80 16093 8.2 70 20:18 14.10.2019
6203 Clouds -1 1006 80 16093 8.2 70 19:41 14.10.2019
6204 Clouds -1 1006 80 16093 8.2 70 19:41 14.10.2019
6205 Clouds 0 1006 80 16093 8.2 70 19:23 14.10.2019
6206 Clouds 0 1006 80 16093 8.2 70 19:23 14.10.2019
6207 Clouds 0 1006 80 16093 8.2 70 18:58 14.10.2019
6208 Clear -1 1006 80 16093 8.2 70 18:39 14.10.2019
6209 Clear -1 1006 80 16093 8.2 70 18:39 14.10.2019
6210 Clear 0 1006 80 16093 8.2 70 18:19 14.10.2019
6211 Clouds -1 1007 80 16093 6.7 70 17:57 14.10.2019
6212 Clouds -1 1007 80 16093 6.7 70 17:38 14.10.2019
6213 Clouds -1 1007 80 16093 6.7 70 17:20 14.10.2019
6214 Clouds -1 1008 80 16093 8.2 80 16:44 14.10.2019
6215 Clouds -1 1008 80 16093 8.2 80 16:21 14.10.2019
6216 Clouds -1 1009 86 16093 5.7 70 15:44 14.10.2019
6217 Clouds -1 1009 86 16093 5.7 70 15:25 14.10.2019
6218 Clouds -1 1010 86 16093 6.2 70 14:58 14.10.2019
6219 Clouds -1 1010 86 16093 6.2 70 14:39 14.10.2019
6220 Clouds -1 1010 86 16093 6.2 70 14:20 14.10.2019
6221 Clouds 0 1011 82 16093 5.7 70 13:44 14.10.2019
6222 Clouds 0 1011 83 16093 5.7 70 13:22 14.10.2019
6223 Clouds 1 1011 80 16093 5.1 70 12:56 14.10.2019
6224 Clouds 1 1011 80 16093 5.1 70 12:56 14.10.2019
6225 Clouds 1 1011 80 16093 5.1 70 12:37 14.10.2019
6226 Clouds 1 1011 80 16093 5.1 70 12:18 14.10.2019
6227 Clouds 0 1012 86 16093 5.7 70 11:45 14.10.2019
6228 Clouds 0 1012 86 16093 5.7 70 11:26 14.10.2019
6229 Clouds 0 1013 86 16093 5.7 50 10:57 14.10.2019
6230 Clouds 0 1013 86 16093 5.7 50 10:38 14.10.2019
6231 Clouds 0 1013 86 16093 5.7 50 10:20 14.10.2019
6232 Clouds -1 1013 80 16093 4.6 60 09:54 14.10.2019
6233 Clouds -1 1013 80 16093 4.6 60 09:36 14.10.2019
6234 Clouds -1 1013 80 16093 4.6 60 09:18 14.10.2019
6235 Clouds 0 1014 85 16093 4.6 80 08:42 14.10.2019
6236 Clouds 0 1014 85 16093 4.6 80 08:20 14.10.2019
6237 Clouds 1 1014 80 16093 5.7 90 07:41 14.10.2019
6238 Clouds 1 1014 80 16093 5.7 90 07:41 14.10.2019
6239 Clouds 1 1014 80 16093 5.7 90 07:18 14.10.2019
6240 Clouds 1 1014 86 16093 4.6 80 06:38 14.10.2019
6241 Clouds 1 1014 86 16093 4.6 80 06:20 14.10.2019
6242 Clouds 1 1015 86 16093 4.1 70 05:46 14.10.2019
6243 Rain 2 1015 74 16093 5.1 90 04:42 14.10.2019
6244 Clouds 2 1016 74 16093 4.1 90 03:27 14.10.2019
6245 Clouds 2 1017 74 16093 4.6 90 02:42 14.10.2019
6246 Clouds 2 1018 69 16093 3.6 80 01:23 14.10.2019
6247 Clouds 2 1018 74 16093 2.6 80 00:53 14.10.2019
6248 Clouds 2 1018 74 16093 2.6 80 00:19 14.10.2019
6249 Clouds 1 1019 80 16093 3.43 73.198 23:45 13.10.2019
6250 Clouds 1 1019 80 16093 3.43 73.198 23:20 13.10.2019
6251 Clouds 0 1019 71 16093 3.43 73.198 22:58 13.10.2019
6252 Clouds 0 1019 71 16093 3.43 73.198 22:40 13.10.2019
6253 Clouds 0 1019 71 16093 3.43 73.198 22:21 13.10.2019
6254 Clouds 0 1019 71 16093 2.1 340 21:58 13.10.2019
6255 Clouds 0 1019 71 16093 2.1 340 21:37 13.10.2019
6256 Clouds 0 1019 77 16093 2.1 340 21:19 13.10.2019
6257 Clouds 0 1019 77 16093 2.1 340 21:19 13.10.2019
6258 Clouds 0 1019 77 16093 3.1 70 20:57 13.10.2019
6259 Clouds 0 1019 75 16093 3.1 70 20:38 13.10.2019
6260 Clouds 0 1019 75 16093 3.1 70 20:20 13.10.2019
6261 Clouds -1 1020 100 16093 2.1 80 19:58 13.10.2019
6262 Clouds -1 1020 100 16093 2.1 80 19:39 13.10.2019
6263 Clouds -1 1020 100 16093 2.1 80 19:39 13.10.2019
6264 Clouds -1 1020 100 16093 2.1 80 19:21 13.10.2019
6265 Clouds -1 1020 100 16093 2.6 100 18:56 13.10.2019
6266 -273 0 0 0 0 0 18:56 13.10.2019
6267 Clouds -1 1020 100 16093 2.6 100 18:37 13.10.2019
6268 Clouds 0 1020 75 16093 2.1 60 18:19 13.10.2019
6269 Clouds 0 1021 75 16093 1.5 280 17:57 13.10.2019
6270 Clouds 0 1021 75 16093 1.5 280 17:38 13.10.2019
6271 Clouds 0 1021 75 16093 1.5 280 17:20 13.10.2019
6272 Snow -1 1021 100 12874 1.5 350 16:41 13.10.2019
6273 Clouds -1 1021 100 16093 1.01 283.981 16:18 13.10.2019
6274 Clouds 0 1021 75 16093 1.5 340 15:57 13.10.2019
6275 Clouds 0 1021 75 16093 1.5 340 15:38 13.10.2019
6276 Clouds 0 1021 77 16093 1.5 40 15:18 13.10.2019
6277 Clouds 0 1022 77 16093 1.62 271.272 14:57 13.10.2019
6278 Clouds 0 1022 77 16093 1.62 271.272 14:38 13.10.2019
6279 Clouds 0 1022 77 16093 1.62 271.272 14:19 13.10.2019
6280 Clouds 0 1022 77 16093 1.5 330 13:41 13.10.2019
6281 Clouds 0 1022 78 16093 1.5 330 13:23 13.10.2019
6282 Clouds 0 1022 78 16093 2.6 320 12:59 13.10.2019
6283 Clouds 0 1022 78 16093 2.6 320 12:39 13.10.2019
6284 Clouds 0 1022 79 16093 2.6 320 12:20 13.10.2019
6285 Clouds 0 1022 79 16093 2.1 340 11:58 13.10.2019
6286 Clouds 0 1022 79 16093 2.1 340 11:39 13.10.2019
6287 Clouds 0 1022 79 16093 2.1 340 11:20 13.10.2019
6288 Clouds 1 1022 86 16093 3.1 310 10:57 13.10.2019
6289 Clouds 1 1022 86 16093 3.1 310 10:38 13.10.2019
6290 Clouds 1 1022 86 16093 3.1 310 10:20 13.10.2019
6291 Clouds 1 1022 86 16093 2.6 300 09:39 13.10.2019
6292 Clouds 1 1022 86 16093 2.1 310 09:21 13.10.2019
6293 Clouds 1 1023 86 16093 2.6 320 08:44 13.10.2019
6294 Clouds 1 1023 86 16093 2.6 330 08:26 13.10.2019
6295 Clouds 1 1023 86 16093 2.6 290 07:52 13.10.2019
6296 Clouds 1 1023 86 16093 5.1 290 07:33 13.10.2019
6297 Clouds 1 1023 86 16093 5.1 290 07:33 13.10.2019
6298 -273 0 0 0 0 0 06:54 13.10.2019
6299 Clouds 1 1023 80 16093 3.1 300 06:54 13.10.2019
6300 Clouds 2 1023 74 16093 5.1 270 06:24 13.10.2019
6301 Clouds 2 1023 74 16093 5.1 270 06:24 13.10.2019
6302 Clouds 2 1023 74 16093 5.1 270 06:24 13.10.2019
6303 Clouds 2 1023 74 16093 4.6 260 05:22 13.10.2019
6304 Clouds 2 1023 74 16093 4.1 260 04:35 13.10.2019
6305 Clouds 2 1024 74 16093 4.6 260 03:34 13.10.2019
6306 Clouds 2 1024 69 16093 5.1 260 02:31 13.10.2019
6307 Clouds 2 1024 69 16093 5.1 260 02:31 13.10.2019
6308 Clouds 2 1024 80 16093 4.6 240 01:37 13.10.2019
6309 Clouds 2 1024 69 16093 4.6 270 00:56 13.10.2019
6310 Clouds 2 1024 69 16093 4.6 270 00:38 13.10.2019
6311 Clouds 2 1024 69 16093 4.6 270 00:19 13.10.2019
6312 Clouds 2 1024 69 16093 4.6 250 23:42 12.10.2019
6313 Clouds 2 1024 69 16093 4.6 250 23:42 12.10.2019
6314 Clouds 2 1024 69 16093 4.6 250 23:23 12.10.2019
6315 Clouds 1 1024 80 16093 4.1 270 22:59 12.10.2019
6316 Clouds 1 1024 80 16093 4.1 270 22:40 12.10.2019
6317 Clouds 1 1024 80 16093 4.1 270 22:22 12.10.2019
6318 Clouds 1 1024 74 16093 2.6 280 21:58 12.10.2019
6319 Clouds 1 1024 74 16093 2.6 280 21:40 12.10.2019
6320 Clouds 1 1024 74 16093 2.6 280 21:21 12.10.2019
6321 Clouds 1 1024 74 16093 3.63 268.943 20:54 12.10.2019
6322 Clouds 1 1024 74 16093 3.63 268.943 20:54 12.10.2019
6323 Clouds 1 1024 74 16093 3.63 268.943 20:54 12.10.2019
6324 Clouds 1 1024 74 16093 3.63 268.943 20:36 12.10.2019
6325 Clouds 1 1024 74 16093 3.63 268.943 20:18 12.10.2019
6326 Clouds 0 1024 75 16093 1.5 0 19:36 12.10.2019
6327 Clouds 0 1024 75 16093 1.5 0 19:18 12.10.2019
6328 Clouds -1 1024 86 16093 1.5 350 18:43 12.10.2019
6329 Clouds -1 1024 86 16093 1.5 350 18:24 12.10.2019
6330 Clouds -2 1024 92 16093 1.5 340 17:46 12.10.2019
6331 Clouds -2 1024 92 16093 1.5 340 17:22 12.10.2019
6332 Clouds -2 1024 92 16093 1.5 330 16:59 12.10.2019
6333 Clouds -2 1024 92 16093 1.5 330 16:40 12.10.2019
6334 Clouds -2 1024 92 16093 1.5 330 16:21 12.10.2019
6335 Clouds -3 1024 100 16093 3.14 279.993 15:56 12.10.2019
6336 Clouds -3 1024 100 16093 3.14 279.993 15:37 12.10.2019
6337 Clouds -3 1024 100 16093 2.54 281.536 15:18 12.10.2019
6338 Clouds -2 1024 92 16093 2.54 281.536 14:40 12.10.2019
6339 Clouds -2 1024 92 16093 2.54 281.536 14:20 12.10.2019
6340 Clouds -2 1024 86 16093 4.1 300 13:51 12.10.2019
6341 -273 0 0 0 0 0 13:32 12.10.2019
6342 Clouds -3 1024 92 16093 2.64 284.089 12:56 12.10.2019
6343 Clouds -3 1024 92 16093 2.64 284.089 12:38 12.10.2019
6344 Clouds -3 1024 92 16093 2.64 284.089 12:38 12.10.2019
6345 Clouds -3 1024 92 16093 1.77 317.742 12:20 12.10.2019
6346 Clouds -3 1023 92 16093 1.77 317.742 11:45 12.10.2019
6347 -273 0 0 0 0 0 11:24 12.10.2019
6348 Clear -4 1023 85 16093 1.5 10 10:58 12.10.2019
6349 Clear -4 1023 85 16093 1.5 10 10:39 12.10.2019
6350 Clear -4 1023 85 16093 1.5 10 10:20 12.10.2019
6351 Clouds -4 1022 85 16093 1.5 360 09:57 12.10.2019
6352 Clouds -4 1022 85 16093 1.5 360 09:57 12.10.2019
6353 Clouds -4 1022 85 16093 1.5 360 09:38 12.10.2019
6354 Clouds -4 1022 85 16093 1.5 360 09:19 12.10.2019
6355 Clouds -4 1022 85 16093 1.5 360 09:19 12.10.2019
6356 Clouds -2 1022 79 16093 3.1 320 08:44 12.10.2019
6357 Clouds -2 1022 79 16093 3.1 320 08:24 12.10.2019
6358 Clouds -2 1022 79 16093 2.1 340 07:50 12.10.2019
6359 Clouds -2 1022 79 16093 2.1 340 07:30 12.10.2019
6360 Clouds -1 1022 80 16093 2.6 10 06:28 12.10.2019
6361 Clouds 3 1021 59 16093 3.1 350 05:43 12.10.2019
6362 Clouds 3 1021 59 16093 4.1 10 04:34 12.10.2019
6363 Clouds 3 1021 59 16093 3.6 350 03:53 12.10.2019
6364 Clear 3 1021 59 16093 2.6 360 02:50 12.10.2019
6365 Clouds 3 1021 64 16093 3.1 340 01:33 12.10.2019
6366 Clear 3 1020 74 16093 2.6 330 00:55 12.10.2019
6367 Clear 3 1020 74 16093 2.6 330 00:37 12.10.2019
6368 Clear 2 1020 80 16093 2.1 320 23:55 11.10.2019
6369 Clear 2 1020 80 16093 2.1 320 23:36 11.10.2019
6370 Clear 2 1020 80 16093 2.1 320 23:18 11.10.2019
6371 Clear 1 1020 72 16093 2.26 341.709 22:38 11.10.2019
6372 Clear 0 1020 72 16093 2.26 341.709 22:19 11.10.2019
6373 Clear -1 1020 86 16093 2.26 341.709 21:43 11.10.2019
6374 Clear -2 1020 86 16093 2.72 321.071 21:21 11.10.2019
6375 Clear -3 1019 92 16093 2.1 280 20:57 11.10.2019
6376 Clear -3 1019 92 16093 2.1 280 20:39 11.10.2019
6377 Clear -2 1019 92 16093 2.1 280 20:20 11.10.2019
6378 Clear -2 1019 92 16093 2.1 280 20:20 11.10.2019
6379 Clear -3 1019 92 16093 2.1 300 19:55 11.10.2019
6380 Clear -3 1019 92 16093 2.1 300 19:37 11.10.2019
6381 Clear -3 1019 92 16093 2.1 300 19:18 11.10.2019
6382 Clear -3 1019 92 16093 2.1 300 19:18 11.10.2019
6383 Clear -3 1019 92 16093 2.1 300 19:18 11.10.2019
6384 Clear -3 1019 92 16093 2.1 300 19:18 11.10.2019
6385 Clear -3 1019 86 16093 3.1 320 18:56 11.10.2019
6386 Clear -3 1019 86 16093 3.1 320 18:37 11.10.2019
6387 Clear -3 1019 86 16093 3.1 320 18:18 11.10.2019
6388 Clear -2 1019 86 16093 2.61 324.065 17:55 11.10.2019
6389 Clear -3 1019 86 16093 2.61 324.065 17:36 11.10.2019
6390 Clear -3 1019 86 16093 2.61 324.065 17:18 11.10.2019
6391 Clear -3 1018 85 16093 2.61 324.065 16:40 11.10.2019
6392 Clear -3 1018 85 16093 2.61 324.065 16:20 11.10.2019
6393 Clear -3 1018 85 16093 2.61 324.065 16:20 11.10.2019
6394 Clear -3 1019 85 16093 3.1 310 15:58 11.10.2019
6395 Clear -4 1019 85 16093 3.1 310 15:38 11.10.2019
6396 Clear -4 1019 85 16093 3.1 310 15:19 11.10.2019
6397 Clear -4 1018 92 16093 2.75 333.332 14:47 11.10.2019
6398 Clear -4 1018 92 16093 2.75 333.332 14:29 11.10.2019
6399 Clear -3 1018 92 16093 2.1 40 13:56 11.10.2019
6400 Clear -3 1018 92 16093 2.1 40 13:37 11.10.2019
6401 Clear -3 1018 92 16093 2.1 40 13:19 11.10.2019
6402 Clear -3 1018 92 16093 3.1 310 12:54 11.10.2019
6403 Clear -2 1018 92 16093 3.1 310 12:36 11.10.2019
6404 Clear -3 1018 92 16093 3.1 310 12:18 11.10.2019
6405 Clear -2 1018 92 16093 2.1 290 11:41 11.10.2019
6406 Clear -2 1018 92 16093 2.1 290 11:22 11.10.2019
6407 Clear -2 1018 86 16093 2.83 331.713 10:56 11.10.2019
6408 Clear -2 1018 86 16093 2.83 331.713 10:38 11.10.2019
6409 Clear -2 1018 86 16093 2.83 331.713 10:20 11.10.2019
6410 Clear -2 1018 86 16093 2.83 331.713 10:20 11.10.2019
6411 Clouds -1 1018 80 16093 2.6 360 09:55 11.10.2019
6412 Clouds 0 1018 80 16093 2.6 360 09:37 11.10.2019
6413 Clouds 0 1018 80 16093 2.6 360 09:18 11.10.2019
6414 Clouds 0 1018 80 16093 2.6 360 09:18 11.10.2019
6415 Clouds 0 1017 80 16093 2.71 331.741 08:54 11.10.2019
6416 Clouds 0 1017 80 16093 2.71 331.741 08:36 11.10.2019
6417 Clouds 0 1017 80 16093 2.71 331.741 08:18 11.10.2019
6418 Clouds 0 1017 78 16093 4.1 340 07:41 11.10.2019
6419 Clouds 0 1017 78 16093 4.1 340 07:22 11.10.2019
6420 Clear 1 1016 69 16093 4.1 340 06:47 11.10.2019
6421 Clear 1 1016 69 16093 4.1 340 06:22 11.10.2019
6422 Clouds 3 1016 59 16093 4.6 350 05:37 11.10.2019
6423 Clouds 3 1016 64 16093 5.7 360 04:59 11.10.2019
6424 Clouds 3 1016 64 16093 5.7 360 04:24 11.10.2019
6425 Clouds 3 1016 69 16093 6.7 350 02:18 11.10.2019
6426 Clouds 3 1016 69 16093 4.1 340 00:42 11.10.2019
6427 Clouds 4 1016 69 16093 4.1 340 00:23 11.10.2019
6428 Clouds 3 1015 69 16093 4.6 350 23:42 10.10.2019
6429 Clouds 3 1015 69 16093 4.6 350 23:21 10.10.2019
6430 Clouds 3 1015 74 16093 1.5 310 22:57 10.10.2019
6431 Clouds 3 1015 74 16093 1.5 310 22:38 10.10.2019
6432 Clouds 3 1015 74 16093 1.5 310 22:20 10.10.2019
6433 Clouds 0 1015 67 16093 3.9 342.6 21:56 10.10.2019
6434 Clouds 0 1015 67 16093 3.9 342.6 21:56 10.10.2019
6435 Clouds 0 1015 67 16093 3.9 342.6 21:56 10.10.2019
6436 Clouds 0 1015 67 16093 3.9 342.6 21:38 10.10.2019
6437 Clouds 0 1015 81 16093 2.79 334.179 21:20 10.10.2019
6438 Clouds 1 1014 80 16093 3.6 310 20:42 10.10.2019
6439 Clouds 1 1014 80 16093 3.6 310 20:21 10.10.2019
6440 Clouds 1 1014 80 16093 3.6 340 19:58 10.10.2019
6441 Clouds 1 1014 80 16093 3.6 340 19:40 10.10.2019
6442 Clouds 1 1014 80 16093 3.6 340 19:20 10.10.2019
6443 Clouds 1 1014 80 16093 3.6 340 19:20 10.10.2019
6444 Clouds 2 1014 74 16093 4.6 340 18:57 10.10.2019
6445 Clouds 2 1014 74 16093 4.6 340 18:38 10.10.2019
6446 Clouds 2 1014 74 16093 4.6 340 18:19 10.10.2019
6447 Clouds 2 1014 80 16093 5.1 330 17:41 10.10.2019
6448 Clouds 2 1014 80 16093 5.1 330 17:20 10.10.2019
6449 Clouds 2 1014 80 16093 5.1 350 16:59 10.10.2019
6450 Clouds 2 1014 80 16093 5.1 350 16:41 10.10.2019
6451 Clouds 2 1014 80 16093 5.1 350 16:22 10.10.2019
6452 Clouds 2 1013 82 16093 5.7 30 15:44 10.10.2019
6453 Clouds 2 1013 82 16093 5.7 30 15:25 10.10.2019
6454 Clouds 2 1013 84 16093 7.2 360 14:59 10.10.2019
6455 Clouds 2 1013 84 16093 7.2 360 14:38 10.10.2019
6456 Clouds 2 1013 84 16093 7.2 360 14:19 10.10.2019
6457 Clouds 2 1013 93 16093 3.43 333.86 13:59 10.10.2019
6458 Clouds 2 1013 93 16093 3.43 333.86 13:59 10.10.2019
6459 Clouds 2 1013 93 16093 3.43 333.86 13:41 10.10.2019
6460 Clouds 2 1013 93 16093 3.03 336.028 13:19 10.10.2019
6461 Clouds 2 1013 93 16093 3.6 320 12:56 10.10.2019
6462 Clouds 2 1013 93 16093 3.6 320 12:56 10.10.2019
6463 Clouds 2 1013 93 16093 3.6 320 12:38 10.10.2019
6464 Clouds 2 1013 93 16093 3.6 320 12:19 10.10.2019
6465 Clouds 2 1013 93 16093 2.1 340 11:55 10.10.2019
6466 Clouds 2 1013 93 16093 2.1 340 11:36 10.10.2019
6467 Clouds 2 1013 93 16093 2.1 340 11:18 10.10.2019
6468 Clouds 2 1012 85 16093 4.6 340 10:44 10.10.2019
6469 Clouds 2 1012 85 16093 4.6 340 10:25 10.10.2019
6470 Clouds 1 1012 85 16093 1.5 280 09:56 10.10.2019
6471 Clouds 1 1012 85 16093 1.5 280 09:37 10.10.2019
6472 Clouds 1 1012 88 16093 1.5 280 09:19 10.10.2019
6473 Clear 2 1012 93 16093 2.6 310 08:41 10.10.2019
6474 Clear 2 1012 93 16093 2.6 310 08:23 10.10.2019
6475 Clouds 3 1012 86 16093 4.1 300 07:58 10.10.2019
6476 Clouds 3 1012 86 16093 4.1 300 07:40 10.10.2019
6477 Clouds 3 1012 86 16093 4.1 300 07:20 10.10.2019
6478 Clouds 4 1011 80 16093 7.7 310 06:45 10.10.2019
6479 Clouds 4 1011 80 16093 7.7 310 06:22 10.10.2019
6480 Clouds 5 1011 80 16093 4.6 320 05:24 10.10.2019
6481 Clouds 6 1011 75 16093 4.1 300 04:37 10.10.2019
6482 Clouds 6 1010 75 16093 4.1 320 03:27 10.10.2019
6483 Clear 6 1009 75 16093 4.6 330 01:42 10.10.2019
6484 Clear 6 1009 75 16093 4.6 330 01:42 10.10.2019
6485 Clear 6 1009 75 16093 4.6 330 01:24 10.10.2019
6486 Clouds 6 1009 75 16093 4.6 320 00:45 10.10.2019
6487 Clouds 6 1009 75 16093 4.6 320 00:20 10.10.2019
6488 Clouds 4 1008 93 16093 3.6 310 23:39 09.10.2019
6489 Clouds 4 1008 93 16093 3.6 310 23:20 09.10.2019
6490 Clouds 3 1008 100 16093 4.6 290 22:43 09.10.2019
6491 Clouds 3 1008 100 16093 4.6 290 22:24 09.10.2019
6492 Clouds 3 1007 93 16093 4.6 290 21:59 09.10.2019
6493 Clouds 3 1007 93 16093 4.6 290 21:39 09.10.2019
6494 Clouds 3 1007 93 16093 4.6 290 21:20 09.10.2019
6495 Clouds 3 1007 100 16093 4.6 280 20:56 09.10.2019
6496 Clouds 3 1007 100 16093 4.6 280 20:56 09.10.2019
6497 Clouds 3 1007 100 16093 4.6 280 20:37 09.10.2019
6498 Clouds 3 1007 100 16093 4.6 280 20:18 09.10.2019
6499 Clouds 3 1007 100 16093 4.6 280 20:18 09.10.2019
6500 Clouds 3 1006 100 16093 3.1 280 19:45 09.10.2019
6501 Clouds 3 1006 100 16093 3.1 280 19:24 09.10.2019
6502 Rain 4 1006 100 16093 5.1 250 18:58 09.10.2019
6503 Rain 4 1006 100 16093 5.1 250 18:38 09.10.2019
6504 Rain 4 1006 100 16093 5.1 250 18:18 09.10.2019
6505 Clouds 4 1006 100 16093 6.7 240 17:55 09.10.2019
6506 Clouds 4 1006 100 16093 6.7 240 17:37 09.10.2019
6507 Clouds 4 1006 100 16093 6.7 240 17:18 09.10.2019
6508 Rain 4 1005 100 9656 6.2 260 16:41 09.10.2019
6509 Clouds 4 1005 100 16093 6.7 250 16:23 09.10.2019
6510 Clouds 4 1005 100 16093 6.7 250 15:58 09.10.2019
6511 Clouds 4 1005 100 16093 6.7 250 15:58 09.10.2019
6512 Clouds 4 1005 100 16093 6.7 250 15:39 09.10.2019
6513 Clouds 4 1005 93 14484 6.2 250 15:20 09.10.2019
6514 Clouds 4 1005 100 16093 6.7 250 14:58 09.10.2019
6515 Clouds 4 1005 100 16093 6.7 250 14:58 09.10.2019
6516 Clouds 4 1005 100 16093 6.7 250 14:40 09.10.2019
6517 Clouds 4 1005 93 12874 5.1 260 14:18 09.10.2019
6518 Rain 4 1004 100 16093 7.2 260 13:40 09.10.2019
6519 Rain 4 1004 100 16093 7.2 260 13:40 09.10.2019
6520 Rain 4 1004 100 16093 7.2 260 13:22 09.10.2019
6521 Rain 3 1004 100 8047 2.1 0 12:59 09.10.2019
6522 Rain 3 1004 100 8047 2.1 0 12:41 09.10.2019
6523 Rain 3 1004 100 16093 8.67 244.815 12:21 09.10.2019
6524 Rain 3 1004 100 8047 1.5 350 11:55 09.10.2019
6525 Rain 3 1004 100 6437 2.1 340 11:37 09.10.2019
6526 Rain 3 1004 100 6437 2.1 340 11:19 09.10.2019
6527 Rain 4 1003 100 6437 2.6 330 10:44 09.10.2019
6528 Rain 4 1003 100 4023 1.5 320 10:22 09.10.2019
6529 Clouds 4 1003 100 11265 8.67 244.815 09:59 09.10.2019
6530 Clouds 4 1003 100 11265 8.67 244.815 09:40 09.10.2019
6531 Rain 5 1003 100 11265 4.81 202.836 09:19 09.10.2019
6532 Rain 5 1003 93 16093 4.1 160 08:41 09.10.2019
6533 Rain 5 1003 93 16093 4.1 160 08:23 09.10.2019
6534 Rain 5 1003 93 16093 4.6 200 07:58 09.10.2019
6535 Rain 5 1003 93 16093 4.6 200 07:39 09.10.2019
6536 Rain 5 1003 93 16093 4.6 200 07:20 09.10.2019
6537 Rain 5 1003 86 9656 4.1 180 06:51 09.10.2019
6538 Rain 5 1003 86 9656 4.1 180 06:51 09.10.2019
6539 Clouds 6 1003 81 16093 5.7 200 05:56 09.10.2019
6540 Clouds 6 1003 81 16093 5.7 200 05:37 09.10.2019
6541 Clouds 6 1004 81 16093 6.7 200 04:25 09.10.2019
6542 Clouds 6 1004 81 16093 7.7 210 02:52 09.10.2019
6543 Rain 6 1005 81 16093 10.8 220 01:43 09.10.2019
6544 Clouds 6 1005 81 16093 8.2 210 01:20 09.10.2019
6545 Clouds 6 1005 81 16093 9.3 220 00:57 09.10.2019
6546 Clouds 6 1005 81 16093 9.3 220 00:38 09.10.2019
6547 Clouds 6 1005 81 16093 9.3 220 00:20 09.10.2019
6548 Rain 5 1005 80 8047 4.6 210 23:39 08.10.2019
6549 Rain 5 1005 80 8047 4.6 210 23:19 08.10.2019
6550 Rain 6 1005 81 14484 9.8 210 22:56 08.10.2019
6551 Rain 6 1005 81 14484 9.8 210 22:38 08.10.2019
6552 Rain 6 1005 81 14484 9.8 210 22:19 08.10.2019
6553 Rain 5 1005 80 12874 4.6 180 21:57 08.10.2019
6554 Rain 5 1005 80 12874 4.6 180 21:39 08.10.2019
6555 Rain 5 1005 80 12874 4.6 180 21:19 08.10.2019
6556 Clouds 6 1005 81 16093 8.7 200 20:56 08.10.2019
6557 Clouds 6 1005 81 16093 8.7 200 20:37 08.10.2019
6558 Clouds 6 1005 81 16093 8.7 200 20:19 08.10.2019
6559 Clouds 6 1005 87 16093 7.2 200 19:56 08.10.2019
6560 Clouds 6 1005 87 16093 7.2 200 19:37 08.10.2019
6561 Clouds 6 1005 87 16093 7.2 200 19:19 08.10.2019
6562 Clouds 6 1005 81 16093 7.7 210 18:46 08.10.2019
6563 Clouds 6 1005 81 16093 7.7 210 18:27 08.10.2019
6564 Rain 6 1005 81 14484 8.7 210 17:59 08.10.2019
6565 Rain 6 1005 81 14484 8.7 210 17:40 08.10.2019
6566 Rain 6 1005 81 14484 8.7 210 17:20 08.10.2019
6567 Clouds 6 1006 81 16093 6.7 220 16:57 08.10.2019
6568 Clouds 6 1006 81 16093 6.7 220 16:38 08.10.2019
6569 Clouds 6 1006 81 16093 6.7 220 16:20 08.10.2019
6570 Clouds 6 1006 87 16093 7.2 210 15:40 08.10.2019
6571 Clouds 6 1006 87 16093 7.2 210 15:21 08.10.2019
6572 Rain 6 1006 87 16093 7.2 200 14:57 08.10.2019
6573 Rain 6 1006 87 16093 7.2 200 14:39 08.10.2019
6574 Rain 6 1006 87 16093 7.2 200 14:20 08.10.2019
6575 Clouds 6 1006 87 16093 7.2 220 13:56 08.10.2019
6576 Clouds 6 1006 87 16093 7.2 220 13:37 08.10.2019
6577 Clouds 6 1006 87 16093 7.2 220 13:18 08.10.2019
6578 Clouds 7 1006 81 16093 9.3 210 12:42 08.10.2019
6579 Clouds 7 1006 81 16093 9.3 210 12:22 08.10.2019
6580 Clouds 7 1006 81 16093 8.7 220 11:59 08.10.2019
6581 Clouds 7 1006 81 16093 8.7 220 11:40 08.10.2019
6582 Clouds 7 1006 81 16093 8.7 220 11:22 08.10.2019
6583 Clouds 7 1006 81 16093 8.7 220 10:55 08.10.2019
6584 Clouds 7 1006 81 16093 8.7 220 10:36 08.10.2019
6585 Clouds 7 1006 81 14484 9.8 230 10:18 08.10.2019
6586 Clouds 7 1006 87 16093 9.3 220 09:41 08.10.2019
6587 Clouds 7 1006 87 16093 9.3 220 09:41 08.10.2019
6588 Clouds 7 1006 87 16093 9.8 230 09:23 08.10.2019
6589 Rain 7 1006 87 16093 7.7 200 08:59 08.10.2019
6590 Rain 7 1006 87 16093 7.7 200 08:41 08.10.2019
6591 Rain 7 1006 87 16093 7.7 200 08:22 08.10.2019
6592 Rain 7 1006 81 16093 6.7 190 07:42 08.10.2019
6593 Rain 7 1006 81 16093 6.7 190 07:21 08.10.2019
6594 Rain 7 1006 81 16093 6.7 190 07:21 08.10.2019
6595 Rain 7 1006 81 16093 6.7 180 06:49 08.10.2019
6596 Rain 7 1006 81 16093 6.7 180 06:28 08.10.2019
6597 Rain 7 1007 100 6437 7.2 190 05:45 08.10.2019
6598 Rain 7 1007 100 6437 7.2 190 05:25 08.10.2019
6599 Rain 6 1008 100 6437 10.8 160 03:57 08.10.2019
6600 Rain 6 1009 100 4828 11.8 150 03:24 08.10.2019
6601 Rain 6 1010 93 4828 12.9 140 02:35 08.10.2019
6602 Rain 6 1012 87 6437 13.4 140 01:44 08.10.2019
6603 Rain 6 1012 87 6437 13.4 140 01:26 08.10.2019
6604 Rain 4 1013 93 6437 13.9 140 00:46 08.10.2019
6605 Rain 4 1013 93 6437 13.9 140 00:20 08.10.2019
6606 Rain 4 1014 93 8047 12.3 140 23:39 07.10.2019
6607 Rain 4 1015 93 8047 12.3 140 23:20 07.10.2019
6608 Rain 4 1016 86 9656 11.8 150 22:56 07.10.2019
6609 Rain 4 1016 86 9656 11.8 150 22:38 07.10.2019
6610 Rain 4 1016 86 9656 11.8 150 22:20 07.10.2019
6611 Rain 4 1017 93 9656 11.3 140 21:56 07.10.2019
6612 Rain 4 1017 93 9656 11.3 140 21:37 07.10.2019
6613 Rain 4 1017 93 9656 11.3 140 21:37 07.10.2019
6614 Rain 4 1017 93 9656 11.3 140 21:19 07.10.2019
6615 Rain 4 1017 93 9656 11.3 140 21:19 07.10.2019
6616 Rain 4 1017 93 9656 11.3 140 21:19 07.10.2019
6617 Rain 4 1017 93 16093 9.8 150 20:57 07.10.2019
6618 Rain 4 1017 93 16093 9.8 150 20:39 07.10.2019
6619 Rain 4 1017 93 16093 9.8 150 20:19 07.10.2019
6620 Rain 4 1018 93 16093 10.3 150 19:56 07.10.2019
6621 Rain 4 1018 93 16093 10.3 150 19:38 07.10.2019
6622 Rain 4 1018 93 16093 10.3 150 19:18 07.10.2019
6623 -273 0 0 0 0 0 18:55 07.10.2019
6624 Rain 4 1019 86 14484 8.2 150 18:37 07.10.2019
6625 Rain 4 1019 86 14484 8.2 150 18:18 07.10.2019
6626 Rain 4 1020 93 11265 8.7 150 17:41 07.10.2019
6627 Rain 4 1020 93 11265 8.7 150 17:19 07.10.2019
6628 Clouds 4 1021 86 16093 5.7 160 16:55 07.10.2019
6629 Clouds 4 1021 86 16093 5.7 160 16:37 07.10.2019
6630 Clouds 4 1021 86 16093 5.7 160 16:19 07.10.2019
6631 Clouds 5 1021 80 16093 6.2 170 15:42 07.10.2019
6632 Clouds 4 1021 93 16093 5.1 190 15:24 07.10.2019
6633 Rain 2 1022 100 6437 3.6 80 14:42 07.10.2019
6634 Rain 2 1022 100 6437 3.6 80 14:23 07.10.2019
6635 Rain 3 1022 93 11265 4.6 100 13:59 07.10.2019
6636 Rain 3 1022 93 11265 4.6 100 13:40 07.10.2019
6637 Rain 2 1022 93 9656 4.1 70 13:18 07.10.2019
6638 Clouds 2 1023 84 16093 5.1 70 12:55 07.10.2019
6639 Clouds 2 1023 84 16093 5.1 70 12:55 07.10.2019
6640 Clouds 2 1023 84 16093 5.1 70 12:36 07.10.2019
6641 Clouds 2 1023 83 16093 5.1 70 12:18 07.10.2019
6642 Clear 2 1023 83 16093 4.1 80 11:56 07.10.2019
6643 Clear 2 1023 83 16093 4.1 80 11:37 07.10.2019
6644 Clear 2 1023 83 16093 4.1 80 11:18 07.10.2019
6645 Clouds 2 1023 83 16093 2.6 70 10:40 07.10.2019
6646 Clouds 2 1023 83 16093 2.6 70 10:20 07.10.2019
6647 Clouds 2 1023 83 16093 3.1 90 09:42 07.10.2019
6648 Clouds 2 1023 80 16093 3.1 90 09:23 07.10.2019
6649 Clear 2 1023 80 16093 1.46 327.397 08:56 07.10.2019
6650 Clear 2 1023 80 16093 0.95 327.432 08:38 07.10.2019
6651 Clear 2 1023 80 16093 0.95 327.432 08:19 07.10.2019
6652 Clear 1 1023 86 16093 0.95 327.432 07:41 07.10.2019
6653 Clear 1 1023 86 16093 0.95 327.432 07:21 07.10.2019
6654 Clear 1 1023 86 16093 0.95 327.432 07:21 07.10.2019
6655 Clear 3 1022 81 16093 1.5 330 06:49 07.10.2019
6656 Clear 3 1022 81 16093 1.5 330 06:27 07.10.2019
6657 Clear 6 1022 70 16093 1.5 340 05:47 07.10.2019
6658 Clear 6 1022 70 16093 1.5 340 05:21 07.10.2019
6659 Clear 7 1022 78 16093 2.6 330 04:24 07.10.2019
6660 Clear 7 1022 65 16093 4.6 320 03:44 07.10.2019
6661 Clear 7 1022 65 16093 4.6 320 03:44 07.10.2019
6662 Clear 7 1022 65 16093 4.6 320 03:44 07.10.2019
6663 Clear 7 1022 65 16093 4.6 320 03:20 07.10.2019
6664 Clear 7 1022 65 16093 4.6 320 03:20 07.10.2019
6665 Clear 6 1021 75 16093 4.1 310 02:21 07.10.2019
6666 Clear 6 1021 75 16093 4.1 310 02:21 07.10.2019
6667 Clear 6 1021 75 16093 5.7 300 01:50 07.10.2019
6668 Clear 6 1021 75 16093 5.7 300 01:21 07.10.2019
6669 Clear 5 1021 80 16093 5.1 300 00:39 07.10.2019
6670 Clear 5 1021 80 16093 5.1 300 00:20 07.10.2019
6671 Clear 4 1020 86 16093 6.2 310 23:42 06.10.2019
6672 Clear 4 1020 86 16093 6.2 310 23:22 06.10.2019
6673 Clear 3 1019 86 16093 7.2 310 22:59 06.10.2019
6674 Clear 3 1019 86 16093 7.2 310 22:41 06.10.2019
6675 Clear 3 1019 86 16093 7.2 310 22:22 06.10.2019
6676 Clouds 2 1019 93 16093 4.1 320 21:58 06.10.2019
6677 Clouds 2 1019 93 16093 4.1 320 21:38 06.10.2019
6678 Clouds 2 1019 93 16093 4.1 320 21:38 06.10.2019
6679 Clouds 2 1019 93 16093 4.1 320 21:38 06.10.2019
6680 Clouds 2 1019 93 16093 4.1 320 21:19 06.10.2019
6681 Clouds 2 1018 86 16093 2.6 260 20:58 06.10.2019
6682 Clouds 2 1018 85 16093 2.6 260 20:40 06.10.2019
6683 Clouds 2 1018 85 16093 2.6 260 20:20 06.10.2019
6684 Clear 2 1017 85 16093 1.5 0 19:57 06.10.2019
6685 Clear 2 1017 85 16093 1.5 0 19:37 06.10.2019
6686 Clear 2 1017 85 16093 1.5 0 19:19 06.10.2019
6687 Clear 0 1017 85 16093 2.6 340 18:57 06.10.2019
6688 Clear 0 1017 85 16093 2.6 340 18:38 06.10.2019
6689 Clear 0 1017 79 16093 2.6 340 18:19